# Wetter Temperatur Luftdruck Luftfeuchtigkeit Sichtweite Windgeschwindigkeit Windrichtung Zeit
1 Clear 27 1008 38 10000 1.03 0 11:50 14.08.2022
2 Clouds 24 1009 51 10000 0.51 0 10:27 14.08.2022
3 Clouds 19 1009 69 10000 1.03 0 08:45 14.08.2022
4 Clouds 18 1009 70 10000 1.03 30 06:21 14.08.2022
5 Clouds 21 1011 62 10000 3.09 50 02:46 14.08.2022
6 Clouds 23 1012 57 10000 3.09 70 23:36 13.08.2022
7 Clouds 25 1012 54 10000 3.6 80 22:28 13.08.2022
8 Clouds 28 1012 41 10000 2.57 80 20:58 13.08.2022
9 Clouds 30 1012 37 10000 2.06 90 20:19 13.08.2022
10 Clouds 31 1012 34 10000 2.06 90 19:20 13.08.2022
11 Clouds 31 1014 36 10000 2.06 0 17:36 13.08.2022
12 Clouds 31 1015 35 10000 2.57 130 15:18 13.08.2022
13 Clear 30 1016 40 10000 2.57 80 14:24 13.08.2022
14 Clear 29 1016 42 10000 2.06 90 13:37 13.08.2022
15 Clear 26 1016 48 10000 2.06 80 11:49 13.08.2022
16 Clear 21 1016 61 10000 3.09 40 09:43 13.08.2022
17 Clear 17 1016 72 10000 3.09 60 07:50 13.08.2022
18 Clear 20 1017 59 10000 0.51 0 02:33 13.08.2022
19 Clear 23 1018 51 10000 3.09 80 23:45 12.08.2022
20 Clear 26 1017 46 10000 3.6 80 21:40 12.08.2022
21 Clear 30 1018 35 10000 1.54 80 19:51 12.08.2022
22 Clear 31 1018 33 10000 1.54 100 19:24 12.08.2022
23 Clear 31 1018 32 10000 2.57 80 18:34 12.08.2022
24 Clear 31 1019 32 10000 3.6 60 16:28 12.08.2022
25 Clear 30 1019 35 10000 3.09 70 15:23 12.08.2022
26 Clear 29 1020 38 10000 2.06 90 13:56 12.08.2022
27 Clear 28 1021 42 10000 1.54 0 12:51 12.08.2022
28 Clear 21 1020 68 10000 0.51 0 09:28 12.08.2022
29 Clear 17 1020 69 10000 0.51 0 07:47 12.08.2022
30 Clear 17 1020 72 10000 1.03 0 06:25 12.08.2022
31 Clear 20 1021 64 10000 2.57 30 01:22 12.08.2022
32 Clear 22 1021 57 10000 3.09 50 00:18 12.08.2022
33 Clear 22 1021 56 10000 2.21 34 23:29 11.08.2022
34 Clear 26 1020 48 10000 3.6 330 21:57 11.08.2022
35 Clear 26 1021 49 10000 3.6 330 21:34 11.08.2022
36 Clear 29 1020 35 10000 1.03 0 20:31 11.08.2022
37 Clouds 30 1020 33 10000 0.51 0 19:53 11.08.2022
38 Clouds 31 1021 33 10000 1.03 0 19:29 11.08.2022
39 Clouds 31 1021 33 10000 1.54 0 17:34 11.08.2022
40 Clear 31 1022 36 10000 1.54 0 16:19 11.08.2022
41 Clear 30 1022 38 10000 1.03 0 15:20 11.08.2022
42 Clear 27 1023 54 10000 1.03 0 12:35 11.08.2022
43 Clear 20 1023 74 10000 0.51 0 09:24 11.08.2022
44 Clear 15 1023 83 10000 0.51 0 06:59 11.08.2022
45 Clouds 17 1023 82 10000 0.51 220 03:25 11.08.2022
46 Clouds 19 1023 68 10000 1.6 25 00:28 11.08.2022
47 Clear 23 1023 55 10000 3.09 320 22:18 10.08.2022
48 Clear 26 1023 52 10000 4.12 320 21:20 10.08.2022
49 Clear 27 1024 40 10000 1.03 0 20:42 10.08.2022
50 Clear 29 1024 37 10000 1.03 0 18:53 10.08.2022
51 Clear 30 1025 40 10000 1.54 240 17:28 10.08.2022
52 Clear 29 1025 47 10000 1.51 247 15:26 10.08.2022
53 Clear 27 1027 50 10000 1.03 0 13:34 10.08.2022
54 Clear 24 1026 55 10000 2.06 190 11:47 10.08.2022
55 Clear 18 1027 72 10000 0.51 80 08:44 10.08.2022
56 Clear 15 1027 78 10000 0.51 0 07:36 10.08.2022
57 Clouds 14 1027 80 10000 1.03 80 05:46 10.08.2022
58 Clouds 16 1027 72 10000 1.03 0 02:22 10.08.2022
59 Clouds 19 1028 56 10000 1.03 280 23:33 09.08.2022
60 Clouds 19 1029 64 10000 1.7 2 22:48 09.08.2022
61 Clouds 23 1028 47 10000 1.54 290 21:33 09.08.2022
62 Clouds 26 1028 41 10000 2.06 250 19:33 09.08.2022
63 Clouds 26 1029 42 10000 2.06 270 17:59 09.08.2022
64 Clouds 27 1028 40 10000 1.54 0 17:26 09.08.2022
65 Clouds 26 1029 46 10000 2.06 290 16:33 09.08.2022
66 Clouds 25 1029 46 10000 2.06 0 15:26 09.08.2022
67 Clouds 23 1030 41 10000 1.03 0 12:20 09.08.2022
68 Clouds 14 1029 78 10000 1.03 0 08:54 09.08.2022
69 Clouds 12 1029 83 10000 1.03 90 08:26 09.08.2022
70 Clouds 10 1029 86 10000 1.54 100 07:18 09.08.2022
71 Clear 12 1029 84 10000 0 0 02:27 09.08.2022
72 Clear 17 1028 67 10000 1.84 354 23:26 08.08.2022
73 Clear 18 1028 63 10000 2.57 310 22:52 08.08.2022
74 Clear 19 1028 59 10000 4.12 300 21:47 08.08.2022
75 Clear 22 1028 57 10000 4.12 290 20:43 08.08.2022
76 Clouds 23 1028 53 10000 4.12 290 19:41 08.08.2022
77 Clouds 24 1026 52 10000 4.12 290 18:19 08.08.2022
78 Clouds 24 1027 46 10000 1.03 0 15:55 08.08.2022
79 Clouds 24 1027 47 10000 1.03 0 15:37 08.08.2022
80 Clouds 21 1028 73 10000 1.54 0 12:35 08.08.2022
81 Clouds 18 1028 82 10000 1.54 250 10:50 08.08.2022
82 Clouds 14 1027 92 10000 1.03 130 08:20 08.08.2022
83 Clouds 13 1026 91 10000 0.51 0 04:45 08.08.2022
84 Clouds 15 1026 84 10000 2.57 340 01:29 08.08.2022
85 Clouds 18 1026 75 10000 3.6 320 21:42 07.08.2022
86 Clouds 18 1025 71 10000 4.12 290 21:24 07.08.2022
87 Clouds 20 1025 62 10000 5.66 280 20:24 07.08.2022
88 Clouds 20 1026 61 10000 4.12 300 19:52 07.08.2022
89 Clouds 20 1026 61 10000 4.12 290 19:24 07.08.2022
90 Clouds 21 1025 55 10000 5.14 290 17:58 07.08.2022
91 Clouds 21 1025 52 10000 5.14 290 16:53 07.08.2022
92 Clear 21 1026 53 10000 5.66 270 15:40 07.08.2022
93 Clouds 21 1026 56 10000 5.14 280 14:27 07.08.2022
94 Clouds 20 1027 61 10000 5.14 280 12:41 07.08.2022
95 Clouds 18 1026 77 10000 2.57 240 10:53 07.08.2022
96 Clouds 17 1026 80 10000 4.63 240 10:21 07.08.2022
97 Clouds 11 1026 87 10000 1.54 170 04:38 07.08.2022
98 Clouds 12 1027 84 10000 1.54 160 02:25 07.08.2022
99 Clouds 15 1029 71 10000 1.03 280 22:39 06.08.2022
100 Clouds 16 1027 65 10000 2.06 270 22:18 06.08.2022
101 Clouds 19 1028 56 10000 4.12 290 19:46 06.08.2022
102 Clouds 20 1027 55 10000 4.63 280 18:50 06.08.2022
103 Clouds 20 1028 56 10000 0.89 2 17:45 06.08.2022
104 Clouds 19 1028 58 10000 3.6 290 16:24 06.08.2022
105 Clouds 18 1029 65 10000 3.6 260 13:51 06.08.2022
106 Clouds 18 1029 63 10000 3.09 240 12:38 06.08.2022
107 Clouds 16 1029 71 10000 2.06 220 11:21 06.08.2022
108 Clouds 13 1029 85 10000 1.54 200 09:41 06.08.2022
109 Clouds 9 1028 87 9000 2.06 160 04:43 06.08.2022
110 Clear 12 1027 75 10000 2.06 270 00:49 06.08.2022
111 Clear 14 1026 68 10000 3.09 300 22:36 05.08.2022
112 Clear 16 1025 59 10000 5.14 290 21:18 05.08.2022
113 Clouds 17 1024 53 10000 6.17 290 19:18 05.08.2022
114 Clouds 18 1024 57 10000 7.2 290 18:41 05.08.2022
115 Clouds 18 1023 61 10000 7.2 280 16:53 05.08.2022
116 Clouds 17 1023 60 10000 6.17 310 15:25 05.08.2022
117 Clouds 18 1022 59 10000 6.69 300 14:38 05.08.2022
118 Clouds 17 1022 57 10000 5.14 280 13:38 05.08.2022
119 Clouds 17 1022 63 10000 6.69 270 13:18 05.08.2022
120 Clouds 15 1022 81 10000 4.12 260 11:55 05.08.2022
121 Rain 12 1021 91 10000 1.03 150 09:18 05.08.2022
122 Clouds 11 1020 85 10000 2.06 310 07:53 05.08.2022
123 Clouds 12 1021 77 10000 1.54 270 04:19 05.08.2022
124 Clouds 14 1019 74 10000 2.06 290 23:36 04.08.2022
125 Clouds 16 1018 62 10000 5.66 320 21:28 04.08.2022
126 Clouds 17 1018 60 10000 4.63 300 20:57 04.08.2022
127 Clouds 17 1018 58 10000 4.63 300 20:37 04.08.2022
128 Clear 18 1017 53 10000 5.66 320 18:59 04.08.2022
129 Clear 18 1017 53 10000 5.66 320 18:34 04.08.2022
130 Clouds 19 1017 52 10000 6.69 300 15:53 04.08.2022
131 Clouds 18 1015 66 10000 3.6 310 13:26 04.08.2022
132 Clouds 18 1015 66 10000 3.6 310 13:26 04.08.2022
133 Clouds 17 1015 61 10000 6.17 260 11:39 04.08.2022
134 Clouds 16 1014 67 10000 5.14 270 10:21 04.08.2022
135 Clouds 15 1014 90 10000 2.57 260 07:45 04.08.2022
136 Clouds 15 1012 81 10000 1.54 160 02:50 04.08.2022
137 Clouds 16 1012 78 10000 2.06 210 00:43 04.08.2022
138 Clouds 17 1012 73 10000 4.12 250 23:40 03.08.2022
139 Clouds 19 1011 60 10000 4.63 240 21:31 03.08.2022
140 Clouds 20 1011 54 10000 5.14 250 20:21 03.08.2022
141 Clouds 22 1010 49 10000 6.69 250 19:19 03.08.2022
142 Clouds 23 1010 50 10000 6.69 240 16:48 03.08.2022
143 Clouds 23 1010 49 10000 6.17 230 16:22 03.08.2022
144 Clouds 22 1010 56 10000 6.69 260 13:52 03.08.2022
145 Clouds 20 1009 66 10000 6.17 240 10:56 03.08.2022
146 Clouds 17 1008 84 10000 3.6 230 07:26 03.08.2022
147 Clouds 19 1008 85 10000 5.14 210 04:22 03.08.2022
148 Clouds 19 1008 85 10000 4.12 200 03:23 03.08.2022
149 Clouds 20 1008 81 10000 5.14 210 00:49 03.08.2022
150 Clouds 21 1008 79 10000 5.66 210 22:37 02.08.2022
151 Clouds 21 1008 78 10000 4.63 220 21:51 02.08.2022
152 Clouds 22 1009 75 10000 7.72 220 20:29 02.08.2022
153 Clouds 23 1009 69 10000 4.63 240 17:52 02.08.2022
154 Clouds 22 1009 83 10000 5.14 210 14:46 02.08.2022
155 Clouds 19 1009 96 4100 3.6 200 10:50 02.08.2022
156 Rain 19 1010 96 3000 2.06 190 08:54 02.08.2022
157 Rain 19 1010 96 3000 2.06 190 08:54 02.08.2022
158 Rain 19 1009 96 3000 4.12 190 07:52 02.08.2022
159 Rain 19 1010 91 10000 3.6 190 04:59 02.08.2022
160 Clouds 18 1011 91 10000 3.6 180 03:36 02.08.2022
161 Clouds 17 1013 92 10000 2.57 180 23:32 01.08.2022
162 Rain 18 1014 83 9000 4.12 220 21:54 01.08.2022
163 Rain 22 1014 59 10000 4.63 220 20:34 01.08.2022
164 Clear 23 1014 55 10000 3.6 220 19:22 01.08.2022
165 Clouds 23 1015 53 10000 5.66 230 17:22 01.08.2022
166 Clouds 23 1016 53 10000 3.09 200 16:49 01.08.2022
167 Clouds 23 1016 52 10000 4.12 220 15:46 01.08.2022
168 Clouds 23 1017 51 10000 4.63 230 15:19 01.08.2022
169 Clouds 21 1017 53 10000 3.6 210 13:39 01.08.2022
170 Clouds 19 1018 63 10000 2.57 190 11:38 01.08.2022
171 Clouds 14 1018 83 10000 1.54 210 09:38 01.08.2022
172 Clouds 11 1018 91 10000 1.54 160 08:18 01.08.2022
173 Clouds 10 1018 90 10000 1.54 150 04:43 01.08.2022
174 Clouds 11 1019 87 10000 0 0 02:24 01.08.2022
175 Clouds 15 1018 68 10000 2.06 300 22:54 31.07.2022
176 Clouds 15 1018 67 10000 2.06 300 22:35 31.07.2022
177 Clear 18 1018 57 10000 5.14 290 20:44 31.07.2022
178 Clear 20 1017 57 10000 5.66 290 18:42 31.07.2022
179 Clouds 21 1016 60 10000 6.69 280 17:34 31.07.2022
180 Clouds 21 1015 74 10000 6.17 290 14:57 31.07.2022
181 Clouds 19 1014 85 10000 5.14 300 13:19 31.07.2022
182 Clouds 18 1013 92 10000 6.17 280 11:44 31.07.2022
183 Clouds 18 1012 94 8000 3.09 250 08:47 31.07.2022
184 Clouds 18 1012 96 10000 2.06 220 06:31 31.07.2022
185 Rain 18 1014 96 10000 2.06 200 02:31 31.07.2022
186 Rain 18 1015 88 10000 2.06 200 22:50 30.07.2022
187 Clouds 19 1015 83 10000 3.09 220 21:52 30.07.2022
188 Rain 19 1015 79 10000 3.09 210 21:33 30.07.2022
189 Clouds 20 1016 80 10000 3.6 210 20:38 30.07.2022
190 Clouds 20 1015 80 10000 3.6 220 19:57 30.07.2022
191 Clouds 20 1016 81 10000 4.12 220 18:20 30.07.2022
192 Clouds 20 1016 79 10000 4.63 220 16:40 30.07.2022
193 Rain 20 1015 81 10000 3.6 220 15:33 30.07.2022
194 Clouds 20 1015 80 10000 4.63 220 14:23 30.07.2022
195 Clouds 19 1015 81 10000 3.09 220 12:33 30.07.2022
196 Clouds 19 1015 83 10000 3.09 210 11:55 30.07.2022
197 Clouds 18 1015 84 10000 3.09 200 10:20 30.07.2022
198 Clouds 17 1015 86 10000 2.06 190 09:32 30.07.2022
199 Clouds 16 1015 82 10000 2.06 190 07:44 30.07.2022
200 Rain 17 1017 77 10000 1.54 210 02:34 30.07.2022
201 Clouds 18 1017 69 10000 0.51 120 00:32 30.07.2022
202 Clouds 20 1017 67 10000 0.51 0 21:38 29.07.2022
203 Clouds 20 1017 67 10000 0.51 0 20:51 29.07.2022
204 Clouds 21 1017 64 10000 1.03 140 19:47 29.07.2022
205 Clouds 21 1018 62 10000 1.54 200 17:34 29.07.2022
206 Clouds 20 1018 66 10000 1.54 150 14:50 29.07.2022
207 Clouds 18 1019 71 10000 1.54 170 12:52 29.07.2022
208 Rain 15 1018 79 10000 1.03 0 08:52 29.07.2022
209 Clouds 15 1018 80 10000 0.51 0 08:24 29.07.2022
210 Clouds 15 1018 76 10000 1.03 0 06:40 29.07.2022
211 Clouds 17 1018 74 10000 0.51 0 01:19 29.07.2022
212 Clouds 18 1017 69 10000 1.54 70 21:45 28.07.2022
213 Clouds 18 1016 70 10000 0.51 0 20:54 28.07.2022
214 Clouds 18 1016 66 10000 2.06 280 20:20 28.07.2022
215 Clouds 19 1017 67 10000 1.03 0 19:40 28.07.2022
216 Clouds 19 1016 62 10000 1.03 0 18:20 28.07.2022
217 Clouds 19 1016 62 10000 1.03 0 17:36 28.07.2022
218 Clouds 19 1017 63 10000 1.03 0 16:41 28.07.2022
219 Clouds 19 1017 64 10000 2.06 130 14:28 28.07.2022
220 Clouds 17 1018 70 10000 1.54 130 12:41 28.07.2022
221 Clouds 15 1017 80 10000 1.54 0 09:21 28.07.2022
222 Clouds 15 1016 88 10000 1.54 130 05:45 28.07.2022
223 Clouds 15 1016 88 10000 1.03 0 05:21 28.07.2022
224 Rain 16 1017 83 10000 1.03 0 00:28 28.07.2022
225 Rain 18 1018 63 10000 1.03 0 21:58 27.07.2022
226 Clouds 20 1017 53 10000 1.03 0 20:20 27.07.2022
227 Clouds 21 1017 51 10000 1.03 0 19:30 27.07.2022
228 Clouds 21 1019 51 10000 1.03 0 16:33 27.07.2022
229 Clouds 21 1019 49 10000 2.06 0 15:51 27.07.2022
230 Clouds 21 1019 51 10000 2.06 200 14:42 27.07.2022
231 Clouds 21 1020 53 1300 1.54 0 13:57 27.07.2022
232 Clouds 17 1020 71 10000 1.03 0 11:18 27.07.2022
233 Clouds 11 1020 96 10000 0.51 0 07:53 27.07.2022
234 Clouds 10 1020 88 10000 1.03 120 05:18 27.07.2022
235 Clouds 13 1022 76 10000 1.03 300 23:29 26.07.2022
236 Clouds 15 1021 70 10000 2.57 280 22:19 26.07.2022
237 Clouds 16 1021 67 10000 3.6 300 21:18 26.07.2022
238 Clouds 18 1020 59 10000 5.66 290 19:33 26.07.2022
239 Clouds 18 1020 58 10000 5.14 270 18:41 26.07.2022
240 Clouds 19 1020 58 10000 5.66 270 17:54 26.07.2022
241 Clouds 18 1021 64 10000 5.14 270 15:46 26.07.2022
242 Clouds 18 1020 64 10000 4.12 270 14:43 26.07.2022
243 Clouds 15 1020 77 10000 4.63 310 12:33 26.07.2022
244 Clouds 15 1019 87 10000 2.57 270 10:32 26.07.2022
245 Clouds 13 1018 92 10000 1.54 230 08:27 26.07.2022
246 Clouds 13 1016 87 10000 1.54 60 01:55 26.07.2022
247 Clouds 13 1015 89 3400 6.17 50 00:21 26.07.2022
248 Drizzle 15 1015 88 4500 4.12 270 22:40 25.07.2022
249 Clouds 15 1013 84 10000 4.63 280 21:43 25.07.2022
250 Clouds 15 1012 81 10000 5.66 290 20:43 25.07.2022
251 Clouds 15 1012 77 10000 6.17 280 20:24 25.07.2022
252 Clouds 16 1012 77 10000 6.69 280 19:24 25.07.2022
253 Clouds 17 1010 72 10000 7.2 280 17:42 25.07.2022
254 Clouds 17 1010 73 10000 7.72 280 17:20 25.07.2022
255 Rain 17 1008 87 10000 6.17 270 13:27 25.07.2022
256 Clouds 16 1005 91 10000 5.66 250 10:54 25.07.2022
257 Clouds 15 1003 90 10000 3.6 210 07:53 25.07.2022
258 Clouds 17 1005 89 10000 3.09 200 00:57 25.07.2022
259 Clouds 18 1005 85 10000 4.12 210 23:45 24.07.2022
260 Clouds 18 1005 87 10000 4.12 200 22:47 24.07.2022
261 Clouds 19 1005 89 10000 3.09 210 21:42 24.07.2022
262 Clouds 19 1005 93 10000 3.6 200 20:59 24.07.2022
263 Clouds 19 1005 93 10000 3.6 200 20:41 24.07.2022
264 Clouds 19 1006 95 7000 4.12 200 19:20 24.07.2022
265 Rain 20 1006 92 10000 4.63 190 17:57 24.07.2022
266 Rain 20 1007 92 3400 4.63 180 15:55 24.07.2022
267 Clouds 20 1008 93 9000 3.09 0 14:47 24.07.2022
268 Clouds 20 1009 87 10000 4.12 190 13:47 24.07.2022
269 Clouds 21 1009 82 10000 4.12 210 12:28 24.07.2022
270 Clouds 21 1009 78 10000 4.63 210 11:30 24.07.2022
271 Clouds 20 1009 81 10000 5.66 220 09:44 24.07.2022
272 Clouds 18 1010 90 10000 3.09 200 07:53 24.07.2022
273 Clouds 18 1010 92 10000 3.6 190 07:26 24.07.2022
274 Clouds 18 1011 87 10000 4.12 190 02:52 24.07.2022
275 Clouds 19 1013 85 10000 4.12 180 22:52 23.07.2022
276 Rain 20 1012 78 10000 3.09 180 20:47 23.07.2022
277 Clouds 20 1013 76 10000 3.6 190 19:25 23.07.2022
278 Clouds 20 1014 75 10000 3.09 200 18:18 23.07.2022
279 Clouds 20 1014 76 10000 4.63 190 17:27 23.07.2022
280 Clouds 18 1016 85 10000 2.06 180 16:22 23.07.2022
281 Clouds 17 1016 87 10000 1.54 160 15:21 23.07.2022
282 Clouds 17 1016 89 6000 1.54 180 14:52 23.07.2022
283 Rain 17 1016 77 10000 2.57 0 13:58 23.07.2022
284 Clouds 18 1016 74 10000 2.06 190 11:55 23.07.2022
285 Clouds 17 1016 81 10000 1.54 170 10:37 23.07.2022
286 Clouds 16 1016 93 8000 1.54 190 09:34 23.07.2022
287 Fog 13 1017 96 50 1.54 100 06:46 23.07.2022
288 Mist 15 1017 95 3000 1.03 260 03:37 23.07.2022
289 Rain 16 1018 86 10000 0.51 0 00:27 23.07.2022
290 Clouds 17 1017 81 10000 0.45 137 21:28 22.07.2022
291 Clouds 18 1018 78 10000 1.54 150 20:29 22.07.2022
292 Clouds 17 1019 85 10000 2.03 89 18:41 22.07.2022
293 Clouds 17 1019 80 10000 2.06 80 17:39 22.07.2022
294 Clouds 16 1019 90 10000 2.06 70 15:46 22.07.2022
295 Rain 15 1020 93 4500 2.57 80 12:47 22.07.2022
296 Rain 14 1021 91 2500 1.54 0 09:56 22.07.2022
297 Rain 15 1021 91 8000 1.03 0 09:21 22.07.2022
298 Rain 15 1020 85 10000 1.03 0 07:51 22.07.2022
299 Clouds 16 1021 77 10000 1.03 0 04:22 22.07.2022
300 Clouds 16 1022 90 10000 2.06 310 23:29 21.07.2022
301 Rain 17 1022 86 4900 0.51 0 21:39 21.07.2022
302 Clouds 18 1022 78 10000 0.51 0 19:41 21.07.2022
303 Clouds 19 1022 76 10000 1.03 0 18:29 21.07.2022
304 Clouds 19 1023 76 10000 1.03 0 17:21 21.07.2022
305 Clouds 18 1023 75 10000 1.54 250 15:49 21.07.2022
306 Clouds 18 1023 77 10000 2.06 280 14:46 21.07.2022
307 Clouds 17 1023 84 10000 1.54 280 13:49 21.07.2022
308 Clouds 16 1023 91 7000 3.09 320 11:48 21.07.2022
309 Clouds 15 1022 89 10000 3.09 300 09:51 21.07.2022
310 Clouds 15 1022 89 10000 4.12 300 08:53 21.07.2022
311 Clouds 15 1021 89 10000 2.57 300 07:50 21.07.2022
312 Clouds 15 1021 91 10000 4.12 280 06:26 21.07.2022
313 Clouds 16 1020 87 10000 3.6 290 02:23 21.07.2022
314 Clouds 17 1019 78 10000 4.63 280 22:24 20.07.2022
315 Clouds 17 1018 76 10000 5.14 290 21:49 20.07.2022
316 Clouds 18 1018 72 10000 4.63 300 20:46 20.07.2022
317 Clouds 19 1017 69 10000 5.66 280 19:46 20.07.2022
318 Clouds 20 1017 65 10000 5.66 290 18:53 20.07.2022
319 Clouds 20 1017 63 10000 7.2 280 18:30 20.07.2022
320 Clouds 22 1016 59 10000 7.2 280 16:49 20.07.2022
321 Clouds 22 1016 63 10000 7.72 280 15:32 20.07.2022
322 Clouds 22 1015 61 10000 7.2 280 14:32 20.07.2022
323 Clouds 20 1016 73 10000 5.14 280 12:41 20.07.2022
324 Clouds 18 1014 84 10000 5.66 290 10:28 20.07.2022
325 Clouds 18 1010 81 10000 5.14 280 05:44 20.07.2022
326 Clouds 23 1010 56 10000 2.36 282 00:54 20.07.2022
327 Clouds 24 1011 53 10000 1.03 0 00:36 20.07.2022
328 Clouds 27 1009 46 10000 2.57 280 22:35 19.07.2022
329 Clouds 29 1009 43 10000 3.6 290 21:53 19.07.2022
330 Clouds 30 1008 39 10000 0.51 0 20:49 19.07.2022
331 Clouds 31 1009 33 10000 1.54 220 19:22 19.07.2022
332 Clouds 32 1009 33 10000 3.6 270 18:35 19.07.2022
333 Clouds 34 1010 32 10000 6.69 270 17:51 19.07.2022
334 Clouds 38 1008 21 10000 3.6 190 15:21 19.07.2022
335 Clouds 35 1010 27 10000 2.57 170 12:27 19.07.2022
336 Clouds 33 1010 27 10000 1.54 150 11:31 19.07.2022
337 Clouds 30 1011 35 10000 1.03 0 09:44 19.07.2022
338 Clouds 26 1011 46 10000 0.51 0 08:42 19.07.2022
339 Clouds 23 1011 44 10000 1.54 50 07:19 19.07.2022
340 Clouds 23 1012 44 10000 1.54 120 05:48 19.07.2022
341 Clouds 23 1013 49 10000 1.54 120 04:58 19.07.2022
342 Clouds 25 1014 44 10000 0.51 70 01:58 19.07.2022
343 Clouds 27 1014 40 10000 1.03 0 23:50 18.07.2022
344 Clouds 28 1014 39 10000 1.54 120 23:19 18.07.2022
345 Clouds 29 1014 34 10000 1.54 130 22:22 18.07.2022
346 Clouds 34 1015 25 10000 1.54 180 20:51 18.07.2022
347 Clouds 36 1014 18 10000 2.06 190 19:33 18.07.2022
348 Clouds 36 1015 16 10000 2.57 220 17:52 18.07.2022
349 Clouds 34 1017 17 10000 2.06 190 15:57 18.07.2022
350 Clear 34 1017 17 10000 2.06 210 15:18 18.07.2022
351 Clouds 31 1018 21 10000 1.54 0 13:24 18.07.2022
352 Clouds 27 1019 31 10000 3.09 220 11:31 18.07.2022
353 Clouds 22 1018 44 10000 1.54 190 09:43 18.07.2022
354 Clouds 19 1018 50 10000 1.03 0 07:45 18.07.2022
355 Clouds 21 1020 52 10000 1.03 0 02:21 18.07.2022
356 Clouds 25 1021 44 10000 3.09 190 22:51 17.07.2022
357 Clouds 26 1021 48 10000 2.06 200 22:23 17.07.2022
358 Clouds 28 1020 38 10000 2.57 200 21:24 17.07.2022
359 Clouds 29 1020 38 10000 4.12 220 20:44 17.07.2022
360 Clouds 31 1019 33 10000 4.12 220 19:34 17.07.2022
361 Clouds 31 1020 31 10000 3.09 200 18:56 17.07.2022
362 Clouds 31 1020 31 10000 4.12 200 17:39 17.07.2022
363 Clouds 31 1021 29 10000 3.6 210 16:51 17.07.2022
364 Clouds 30 1022 30 10000 3.6 200 16:27 17.07.2022
365 Clouds 28 1022 33 10000 3.6 180 14:58 17.07.2022
366 Clouds 27 1023 43 10000 3.6 200 13:32 17.07.2022
367 Clouds 25 1023 45 10000 2.06 190 11:50 17.07.2022
368 Clouds 20 1024 61 10000 0.51 0 09:30 17.07.2022
369 Clouds 15 1024 74 10000 1.03 0 05:54 17.07.2022
370 Clouds 15 1025 77 10000 1.03 100 02:33 17.07.2022
371 Clouds 19 1025 66 10000 1.54 330 23:21 16.07.2022
372 Clouds 21 1025 54 10000 2.06 330 21:47 16.07.2022
373 Clouds 24 1025 47 10000 3.6 330 19:53 16.07.2022
374 Clouds 25 1025 44 10000 3.09 280 18:35 16.07.2022
375 Clouds 25 1024 43 10000 3.6 280 16:53 16.07.2022
376 Clouds 21 1025 55 10000 2.06 0 13:56 16.07.2022
377 Clouds 17 1025 72 10000 2.57 300 10:55 16.07.2022
378 Clouds 15 1025 78 10000 2.57 310 09:33 16.07.2022
379 Clouds 14 1024 88 10000 2.06 340 08:44 16.07.2022
380 Clouds 14 1024 91 10000 0.51 0 08:23 16.07.2022
381 Clouds 11 1024 91 10000 0.51 0 04:21 16.07.2022
382 Clear 12 1024 89 10000 0.51 0 02:49 16.07.2022
383 Clouds 15 1023 77 10000 2.57 280 23:30 15.07.2022
384 Clouds 15 1024 78 10000 3.09 300 22:40 15.07.2022
385 Clouds 17 1023 72 10000 4.63 290 21:28 15.07.2022
386 Clouds 17 1023 72 10000 4.63 300 20:26 15.07.2022
387 Clouds 18 1022 71 10000 6.17 280 18:40 15.07.2022
388 Clouds 18 1022 69 10000 7.2 280 17:37 15.07.2022
389 Clouds 19 1022 65 10000 6.69 280 14:53 15.07.2022
390 Clouds 18 1023 73 10000 3.6 300 12:57 15.07.2022
391 Clouds 17 1023 74 10000 2.57 220 11:20 15.07.2022
392 Clouds 15 1023 79 10000 2.06 180 09:21 15.07.2022
393 Clouds 12 1024 88 10000 1.54 160 05:56 15.07.2022
394 Clouds 13 1025 81 10000 1.54 280 00:53 15.07.2022
395 Clouds 13 1026 84 10000 0.51 0 00:21 15.07.2022
396 Clouds 15 1025 73 10000 3.09 300 22:45 14.07.2022
397 Clouds 17 1024 67 10000 4.12 290 21:43 14.07.2022
398 Clouds 17 1024 65 10000 5.14 290 21:25 14.07.2022
399 Clouds 18 1025 63 10000 5.14 330 20:43 14.07.2022
400 Clouds 18 1025 63 10000 6.17 310 20:19 14.07.2022
401 Clouds 19 1024 55 10000 7.2 290 18:42 14.07.2022
402 Clouds 19 1024 51 10000 6.69 310 16:22 14.07.2022
403 Clouds 19 1023 52 10000 6.17 290 15:29 14.07.2022
404 Clouds 19 1023 56 10000 4.63 330 13:53 14.07.2022
405 Clouds 18 1023 60 10000 5.14 300 12:48 14.07.2022
406 Clouds 16 1023 68 10000 5.66 340 11:42 14.07.2022
407 Clouds 16 1023 71 10000 5.66 310 11:22 14.07.2022
408 Clouds 16 1022 81 10000 2.57 290 09:49 14.07.2022
409 Clouds 13 1022 84 10000 1.03 150 05:25 14.07.2022
410 Clouds 13 1023 77 10000 0.51 0 01:22 14.07.2022
411 Clouds 13 1023 77 10000 0.77 335 00:52 14.07.2022
412 Clouds 16 1024 68 10000 2.57 300 22:32 13.07.2022
413 Clouds 16 1024 63 10000 3.6 300 21:54 13.07.2022
414 Clouds 18 1023 57 10000 4.63 310 20:45 13.07.2022
415 Clouds 19 1023 51 10000 6.17 270 19:19 13.07.2022
416 Clouds 20 1024 50 10000 5.66 260 17:35 13.07.2022
417 Clouds 21 1023 48 10000 5.14 280 16:23 13.07.2022
418 Clouds 21 1023 48 10000 5.66 300 15:24 13.07.2022
419 Clouds 19 1023 54 10000 4.63 300 12:39 13.07.2022
420 Clouds 17 1023 66 10000 4.63 280 10:45 13.07.2022
421 Clouds 16 1023 71 10000 3.09 310 09:58 13.07.2022
422 Clouds 16 1022 71 10000 3.09 320 09:21 13.07.2022
423 Clouds 15 1021 80 10000 4.63 300 06:19 13.07.2022
424 Clouds 19 1021 71 10000 3.09 300 01:27 13.07.2022
425 Clouds 19 1021 72 10000 2.06 220 23:42 12.07.2022
426 Clouds 23 1020 53 10000 2.57 260 21:55 12.07.2022
427 Clouds 23 1020 56 10000 2.57 250 21:19 12.07.2022
428 Clear 24 1021 50 10000 2.57 260 20:41 12.07.2022
429 Clouds 24 1021 46 10000 4.12 280 19:25 12.07.2022
430 Clouds 23 1021 46 10000 4.12 270 17:49 12.07.2022
431 Rain 23 1022 52 10000 2.06 220 15:43 12.07.2022
432 Rain 22 1021 60 10000 2.57 230 14:30 12.07.2022
433 Rain 23 1021 59 10000 2.06 230 12:29 12.07.2022
434 Rain 22 1020 59 10000 2.57 220 11:22 12.07.2022
435 Clouds 21 1020 69 10000 2.06 200 09:28 12.07.2022
436 Clouds 20 1020 71 10000 1.54 190 08:18 12.07.2022
437 Clouds 20 1021 70 10000 1.03 0 06:24 12.07.2022
438 Clouds 20 1020 70 10000 1.54 180 05:39 12.07.2022
439 Clouds 21 1020 66 10000 2.06 170 01:57 12.07.2022
440 Clouds 21 1020 66 10000 2.06 170 01:57 12.07.2022
441 Clouds 21 1020 66 10000 2.06 170 01:57 12.07.2022
442 Clouds 23 1021 54 10000 2.06 190 23:18 11.07.2022
443 Clouds 24 1020 49 10000 2.06 190 22:29 11.07.2022
444 Clouds 27 1020 41 10000 2.57 200 20:33 11.07.2022
445 Clouds 28 1020 39 10000 2.57 210 19:36 11.07.2022
446 Clouds 29 1020 35 10000 3.09 220 18:32 11.07.2022
447 Clear 29 1020 37 10000 3.09 230 17:39 11.07.2022
448 Clouds 29 1021 35 10000 3.09 220 16:18 11.07.2022
449 Clouds 29 1022 38 10000 3.09 220 14:32 11.07.2022
450 Clouds 25 1022 55 10000 1.54 180 11:40 11.07.2022
451 Clouds 22 1023 71 10000 1.03 0 10:22 11.07.2022
452 Clouds 20 1023 76 10000 1.03 0 09:42 11.07.2022
453 Fog 18 1023 83 10000 0.51 0 08:33 11.07.2022
454 Clouds 13 1023 89 10000 1.54 150 05:51 11.07.2022
455 Clouds 17 1025 79 10000 0.51 0 00:22 11.07.2022
456 Clouds 19 1025 71 10000 1.44 328 22:56 10.07.2022
457 Clouds 21 1024 66 10000 1.45 329 21:51 10.07.2022
458 Clouds 24 1025 48 10000 3.09 320 20:54 10.07.2022
459 Clouds 24 1025 44 10000 3.09 320 19:50 10.07.2022
460 Clouds 26 1025 44 10000 4.12 300 18:48 10.07.2022
461 Clouds 26 1026 45 10000 4.12 280 17:37 10.07.2022
462 Clouds 26 1026 47 10000 4.12 280 16:45 10.07.2022
463 Clouds 26 1027 50 10000 2.57 0 15:28 10.07.2022
464 Clear 25 1026 48 10000 2.57 290 14:21 10.07.2022
465 Clear 23 1027 59 10000 2.06 280 12:28 10.07.2022
466 Clouds 18 1028 73 10000 1.54 230 10:20 10.07.2022
467 Clouds 16 1028 79 10000 1.54 260 08:45 10.07.2022
468 Clouds 16 1028 79 10000 1.54 260 08:45 10.07.2022
469 Clouds 15 1029 84 10000 1.54 300 07:30 10.07.2022
470 Clear 15 1030 86 10000 0.83 274 01:33 10.07.2022
471 Clear 16 1031 79 10000 3.6 300 22:43 09.07.2022
472 Clear 17 1031 75 10000 3.09 310 22:24 09.07.2022
473 Clear 19 1031 64 10000 4.63 310 20:50 09.07.2022
474 Clouds 20 1031 58 10000 5.66 290 18:38 09.07.2022
475 Clouds 21 1031 54 10000 5.66 280 17:45 09.07.2022
476 Clouds 21 1031 52 10000 5.66 300 16:44 09.07.2022
477 Clouds 21 1031 54 10000 5.14 310 15:41 09.07.2022
478 Clouds 20 1031 57 10000 5.66 260 14:43 09.07.2022
479 Clouds 20 1031 58 10000 5.14 310 13:50 09.07.2022
480 Clouds 19 1031 57 10000 4.63 290 12:47 09.07.2022
481 Clouds 18 1031 63 10000 5.14 300 11:31 09.07.2022
482 Clouds 17 1031 71 10000 5.14 320 10:22 09.07.2022
483 Clouds 15 1031 85 10000 4.12 310 07:53 09.07.2022
484 Clouds 16 1030 88 10000 3.09 290 04:59 09.07.2022
485 Clouds 16 1031 87 10000 4.63 290 02:34 09.07.2022
486 Clouds 16 1032 80 10000 2.06 270 22:54 08.07.2022
487 Clouds 18 1031 74 10000 3.6 280 21:58 08.07.2022
488 Clouds 18 1032 74 10000 3.6 300 20:41 08.07.2022
489 Clouds 19 1031 70 10000 3.6 290 19:53 08.07.2022
490 Clouds 20 1032 66 10000 5.66 310 18:26 08.07.2022
491 Clouds 21 1032 61 10000 5.66 300 16:48 08.07.2022
492 Clouds 21 1032 64 10000 4.63 290 14:54 08.07.2022
493 Clouds 20 1032 64 10000 5.14 300 13:41 08.07.2022
494 Clouds 19 1033 76 10000 2.57 290 11:51 08.07.2022
495 Clouds 17 1033 87 9000 2.06 320 10:29 08.07.2022
496 Clouds 16 1033 91 10000 2.06 300 08:37 08.07.2022
497 Clouds 15 1032 90 10000 1.54 260 06:50 08.07.2022
498 Clouds 15 1034 88 10000 2.57 300 01:31 08.07.2022
499 Clouds 16 1032 84 10000 2.06 280 23:22 07.07.2022
500 Clouds 16 1032 83 10000 2.06 290 22:35 07.07.2022
501 Clouds 17 1032 73 10000 5.14 300 20:36 07.07.2022
502 Clouds 19 1031 65 10000 6.17 280 18:20 07.07.2022
503 Clouds 20 1031 59 10000 6.17 310 16:53 07.07.2022
504 Clouds 20 1030 64 10000 5.14 270 14:35 07.07.2022
505 Clouds 19 1030 67 10000 4.63 280 13:18 07.07.2022
506 Clouds 18 1029 69 10000 4.12 280 12:24 07.07.2022
507 Clouds 18 1029 69 10000 4.12 280 12:24 07.07.2022
508 Clouds 17 1029 70 10000 3.6 300 11:45 07.07.2022
509 Clouds 17 1029 72 10000 4.12 310 11:24 07.07.2022
510 Clouds 17 1029 73 10000 3.6 300 10:41 07.07.2022
511 Clouds 16 1029 79 10000 4.63 320 10:23 07.07.2022
512 Clouds 14 1026 92 10000 4.63 300 06:49 07.07.2022
513 Clouds 15 1024 89 10000 5.66 320 01:43 07.07.2022
514 Clouds 17 1023 89 10000 1.34 350 23:36 06.07.2022
515 Clouds 17 1023 87 10000 6.69 270 23:18 06.07.2022
516 Clouds 17 1023 86 10000 6.69 270 22:52 06.07.2022
517 Clouds 17 1023 86 10000 6.69 270 22:34 06.07.2022
518 Rain 17 1023 79 10000 7.2 270 20:33 06.07.2022
519 Clouds 18 1024 78 10000 6.17 270 19:34 06.07.2022
520 Clouds 18 1025 73 10000 7.72 280 17:22 06.07.2022
521 Clouds 18 1025 72 10000 7.72 280 17:22 06.07.2022
522 Clouds 17 1025 79 10000 6.17 270 15:59 06.07.2022
523 Clouds 17 1026 78 10000 5.14 270 13:56 06.07.2022
524 Clouds 16 1026 92 10000 5.66 270 12:30 06.07.2022
525 Clouds 16 1026 90 10000 5.66 270 12:30 06.07.2022
526 Clouds 16 1026 95 10000 5.66 270 11:44 06.07.2022
527 Drizzle 15 1026 95 7000 5.66 270 10:18 06.07.2022
528 Clouds 15 1026 92 10000 3.6 260 07:44 06.07.2022
529 Clouds 15 1026 94 10000 3.09 260 07:19 06.07.2022
530 Clouds 15 1028 78 10000 2.06 300 00:38 06.07.2022
531 Clouds 15 1027 75 10000 2.57 280 22:43 05.07.2022
532 Clouds 17 1026 63 10000 4.63 300 21:29 05.07.2022
533 Clouds 17 1027 64 10000 6.17 310 20:35 05.07.2022
534 Clouds 18 1027 58 10000 6.17 300 19:40 05.07.2022
535 Clouds 18 1025 58 10000 6.17 300 18:23 05.07.2022
536 Clouds 19 1025 58 10000 6.69 280 17:39 05.07.2022
537 Clouds 18 1025 58 10000 7.2 310 16:36 05.07.2022
538 Clouds 19 1025 56 10000 6.17 300 14:55 05.07.2022
539 Clouds 18 1024 59 10000 5.66 290 13:36 05.07.2022
540 Clouds 16 1024 80 10000 3.09 320 12:26 05.07.2022
541 Clouds 14 1023 78 10000 4.63 280 10:46 05.07.2022
542 Clouds 14 1023 75 10000 5.66 290 09:58 05.07.2022
543 Clouds 14 1022 77 10000 3.09 260 08:23 05.07.2022
544 Clouds 13 1022 80 10000 3.6 260 07:20 05.07.2022
545 Clouds 13 1023 76 10000 3.6 280 04:39 05.07.2022
546 Clouds 14 1022 76 10000 2.57 250 01:33 05.07.2022
547 Clouds 15 1021 73 10000 2.57 260 23:38 04.07.2022
548 Clouds 15 1021 69 10000 4.12 260 22:57 04.07.2022
549 Clouds 15 1021 68 10000 4.12 270 22:19 04.07.2022
550 Clouds 16 1020 62 10000 6.17 270 20:56 04.07.2022
551 Clouds 16 1020 62 10000 6.17 270 20:36 04.07.2022
552 Clouds 17 1020 58 10000 5.66 270 19:57 04.07.2022
553 Clouds 17 1020 58 10000 5.66 270 19:37 04.07.2022
554 Clouds 17 1020 59 10000 6.17 290 18:51 04.07.2022
555 Clouds 17 1020 57 10000 7.72 280 16:54 04.07.2022
556 Clouds 16 1020 61 10000 6.69 290 15:35 04.07.2022
557 Clouds 16 1019 63 10000 8.23 280 13:47 04.07.2022
558 Clouds 16 1019 67 10000 9.26 280 12:42 04.07.2022
559 Clouds 15 1019 71 10000 6.69 270 10:40 04.07.2022
560 Clouds 14 1019 73 10000 5.66 250 10:22 04.07.2022
561 Clouds 13 1019 79 10000 5.14 260 08:33 04.07.2022
562 Clouds 13 1019 84 10000 2.06 190 05:57 04.07.2022
563 Clouds 13 1020 81 10000 1.54 220 00:44 04.07.2022
564 Clouds 13 1019 78 10000 1.54 230 23:38 03.07.2022
565 Clouds 15 1019 69 10000 3.6 290 22:28 03.07.2022
566 Clouds 17 1020 59 10000 5.66 280 20:45 03.07.2022
567 Clouds 17 1020 57 10000 5.66 280 19:42 03.07.2022
568 Clouds 18 1020 57 10000 5.66 290 19:24 03.07.2022
569 Clouds 18 1019 62 10000 6.17 300 18:23 03.07.2022
570 Clouds 18 1019 63 10000 6.17 280 17:31 03.07.2022
571 Clouds 17 1018 67 10000 6.17 280 15:26 03.07.2022
572 Clouds 17 1018 69 10000 5.66 290 14:49 03.07.2022
573 Clouds 17 1018 70 10000 6.17 280 13:49 03.07.2022
574 Clouds 16 1018 73 10000 4.63 250 12:42 03.07.2022
575 Clouds 16 1017 80 10000 6.17 270 11:46 03.07.2022
576 Clouds 15 1017 89 10000 2.57 240 10:40 03.07.2022
577 Clouds 15 1017 88 10000 2.57 240 10:20 03.07.2022
578 Rain 12 1016 87 10000 1.54 180 07:37 03.07.2022
579 Clouds 11 1015 89 10000 1.03 160 05:26 03.07.2022
580 Clouds 13 1016 80 10000 2.57 230 00:25 03.07.2022
581 Clouds 15 1016 69 10000 3.09 250 22:36 02.07.2022
582 Clouds 16 1015 59 10000 4.63 270 21:43 02.07.2022
583 Clouds 18 1015 60 10000 4.12 270 20:20 02.07.2022
584 Clouds 18 1015 59 10000 3.09 280 19:49 02.07.2022
585 Clouds 18 1015 61 10000 4.63 280 17:58 02.07.2022
586 Clouds 18 1015 62 10000 4.63 280 17:37 02.07.2022
587 Clouds 18 1014 57 10000 6.69 250 15:32 02.07.2022
588 Clouds 17 1015 71 10000 5.14 220 12:24 02.07.2022
589 Clouds 16 1014 81 10000 3.6 210 11:28 02.07.2022
590 Clouds 15 1013 90 10000 4.63 200 10:48 02.07.2022
591 Clouds 14 1013 93 10000 3.09 200 09:49 02.07.2022
592 Rain 13 1013 90 10000 3.09 190 08:37 02.07.2022
593 Rain 13 1013 91 10000 2.57 200 08:18 02.07.2022
594 Rain 13 1014 83 10000 3.09 170 02:53 02.07.2022
595 Clouds 14 1014 88 10000 2.57 180 00:27 02.07.2022
596 Clouds 14 1014 89 10000 1.03 0 22:59 01.07.2022
597 Clouds 14 1014 86 10000 1.54 170 22:19 01.07.2022
598 Rain 15 1014 79 7000 2.57 210 21:37 01.07.2022
599 Rain 16 1014 70 10000 4.12 220 20:57 01.07.2022
600 Clouds 17 1013 65 10000 3.6 230 19:47 01.07.2022
601 Clouds 18 1013 66 10000 2.57 210 19:22 01.07.2022
602 Clouds 17 1013 82 10000 1.54 200 16:38 01.07.2022
603 Rain 17 1013 71 10000 5.14 230 14:21 01.07.2022
604 Clouds 17 1013 66 10000 4.63 230 13:22 01.07.2022
605 Clouds 16 1012 75 10000 3.6 240 10:46 01.07.2022
606 Clouds 16 1012 78 10000 2.57 230 10:18 01.07.2022
607 Clouds 12 1012 93 10000 1.54 170 05:58 01.07.2022
608 Clouds 13 1013 85 10000 2.57 300 01:30 01.07.2022
609 Clouds 14 1012 85 10000 1.54 180 23:28 30.06.2022
610 Clouds 15 1011 81 10000 2.06 180 22:45 30.06.2022
611 Clouds 15 1011 81 10000 2.06 180 22:45 30.06.2022
612 Clouds 16 1011 73 10000 3.09 180 22:27 30.06.2022
613 Clouds 17 1011 64 10000 2.06 270 21:50 30.06.2022
614 Clouds 18 1011 55 10000 3.6 270 20:31 30.06.2022
615 Clouds 18 1011 55 10000 3.09 260 19:55 30.06.2022
616 Clouds 19 1011 56 10000 3.09 260 19:35 30.06.2022
617 Clouds 19 1010 57 10000 4.63 280 18:43 30.06.2022
618 Clouds 19 1009 54 10000 2.57 280 17:49 30.06.2022
619 Clouds 19 1010 56 10000 3.6 270 16:55 30.06.2022
620 Clouds 19 1009 55 10000 3.6 270 15:50 30.06.2022
621 Clouds 19 1010 58 10000 2.57 200 13:50 30.06.2022
622 Clouds 18 1009 61 10000 4.12 230 12:36 30.06.2022
623 Clouds 18 1009 61 10000 4.12 230 12:36 30.06.2022
624 Clouds 17 1009 69 10000 1.54 200 11:59 30.06.2022
625 Clouds 16 1009 78 10000 2.57 190 10:19 30.06.2022
626 Clouds 15 1009 78 10000 2.57 200 09:40 30.06.2022
627 Clouds 14 1009 90 10000 0.51 0 08:22 30.06.2022
628 Clouds 13 1009 91 10000 0.51 0 07:40 30.06.2022
629 Rain 13 1010 91 10000 1.54 190 02:49 30.06.2022
630 Clouds 15 1009 81 10000 1.54 180 23:38 29.06.2022
631 Clouds 15 1009 82 10000 1.03 0 22:41 29.06.2022
632 Clouds 16 1008 77 10000 1.54 200 21:59 29.06.2022
633 Clouds 17 1008 72 10000 1.03 0 20:35 29.06.2022
634 Clouds 17 1008 72 10000 1.03 0 20:35 29.06.2022
635 Clouds 17 1008 75 10000 1.54 190 19:56 29.06.2022
636 Clouds 18 1008 72 10000 1.54 160 17:55 29.06.2022
637 Clouds 18 1008 76 10000 2.06 210 16:55 29.06.2022
638 Clouds 19 1008 55 10000 4.63 190 15:33 29.06.2022
639 Clouds 19 1009 66 10000 3.09 170 13:43 29.06.2022
640 Clouds 18 1009 67 10000 2.57 190 12:36 29.06.2022
641 Clouds 15 1008 83 10000 2.57 180 09:46 29.06.2022
642 Clouds 15 1008 87 10000 2.57 180 09:22 29.06.2022
643 Rain 14 1008 92 10000 2.57 140 06:28 29.06.2022
644 Clouds 14 1010 82 10000 3.09 170 02:59 29.06.2022
645 Clouds 14 1010 82 10000 2.57 170 00:52 29.06.2022
646 Rain 14 1010 82 10000 2.57 170 00:33 29.06.2022
647 Rain 15 1011 80 10000 2.06 180 22:49 28.06.2022
648 Clouds 15 1011 75 10000 3.09 150 21:57 28.06.2022
649 Clouds 16 1011 73 10000 3.09 150 21:38 28.06.2022
650 Clouds 16 1010 70 10000 5.14 180 20:57 28.06.2022
651 Clouds 16 1011 73 10000 3.6 180 19:50 28.06.2022
652 Rain 16 1011 68 10000 4.63 180 19:24 28.06.2022
653 Clouds 17 1011 62 10000 4.12 190 18:38 28.06.2022
654 Clouds 18 1011 59 10000 4.63 180 16:47 28.06.2022
655 Clouds 18 1012 61 10000 6.17 180 15:54 28.06.2022
656 Clouds 17 1012 61 10000 4.63 190 14:48 28.06.2022
657 Clouds 17 1012 61 10000 5.66 190 14:18 28.06.2022
658 Clouds 17 1012 62 10000 4.12 180 13:45 28.06.2022
659 Clouds 16 1013 67 10000 3.09 170 11:58 28.06.2022
660 Clouds 15 1014 70 10000 4.63 180 09:50 28.06.2022
661 Clouds 14 1014 72 10000 2.57 170 08:53 28.06.2022
662 Clouds 13 1014 78 10000 2.06 170 07:58 28.06.2022
663 Clouds 12 1014 77 10000 2.57 170 07:19 28.06.2022
664 Clouds 13 1016 73 10000 2.06 190 02:25 28.06.2022
665 Clouds 13 1016 67 10000 1.54 180 23:47 27.06.2022
666 Clouds 14 1016 60 10000 1.54 200 22:55 27.06.2022
667 Clouds 15 1016 54 10000 3.09 240 21:39 27.06.2022
668 Clouds 16 1015 50 10000 5.66 250 21:18 27.06.2022
669 Clouds 17 1015 52 10000 3.6 290 19:48 27.06.2022
670 Clouds 17 1014 54 10000 5.14 280 18:40 27.06.2022
671 Clouds 17 1014 54 10000 4.63 260 17:24 27.06.2022
672 Clouds 17 1013 62 10000 4.12 250 15:43 27.06.2022
673 Clouds 14 1013 82 10000 4.12 300 13:44 27.06.2022
674 Clouds 14 1012 84 10000 4.12 260 12:57 27.06.2022
675 Clouds 13 1011 89 10000 5.14 240 10:43 27.06.2022
676 Rain 13 1011 87 10000 3.6 200 09:37 27.06.2022
677 Clouds 13 1009 87 10000 2.57 180 08:32 27.06.2022
678 Clouds 13 1009 87 10000 2.57 180 07:38 27.06.2022
679 Clouds 13 1010 81 10000 3.09 180 04:40 27.06.2022
680 Clear 14 1009 72 10000 3.09 190 01:20 27.06.2022
681 Clear 16 1009 64 10000 3.6 200 22:47 26.06.2022
682 Clouds 18 1008 53 10000 6.17 220 20:55 26.06.2022
683 Clouds 19 1007 52 10000 5.14 220 19:59 26.06.2022
684 Clouds 19 1007 49 10000 4.63 200 18:32 26.06.2022
685 Clouds 19 1007 49 10000 4.63 200 17:33 26.06.2022
686 Clouds 19 1006 45 10000 5.66 190 15:31 26.06.2022
687 Clouds 19 1006 48 10000 4.63 200 13:55 26.06.2022
688 Clouds 18 1006 48 10000 6.17 200 13:23 26.06.2022
689 Clouds 16 1006 60 10000 5.14 180 11:27 26.06.2022
690 Clouds 16 1006 66 10000 5.14 180 10:28 26.06.2022
691 Clouds 16 1006 66 10000 5.14 180 10:28 26.06.2022
692 Clouds 15 1006 73 10000 5.14 170 09:39 26.06.2022
693 Clouds 12 1005 84 10000 3.09 150 07:45 26.06.2022
694 Clear 11 1005 81 10000 1.54 0 02:52 26.06.2022
695 Clear 12 1005 82 10000 1.54 0 00:21 26.06.2022
696 Clear 12 1005 83 10000 1.03 0 23:51 25.06.2022
697 Clear 12 1005 81 10000 1.54 180 23:24 25.06.2022
698 Clouds 13 1004 83 10000 2.06 150 22:27 25.06.2022
699 Clouds 14 1004 85 10000 2.06 150 21:46 25.06.2022
700 Clouds 14 1005 84 10000 3.6 170 21:20 25.06.2022
701 Clouds 17 1003 57 10000 3.09 0 20:30 25.06.2022
702 Clouds 18 1004 53 10000 4.12 190 19:42 25.06.2022
703 Rain 19 1003 46 10000 6.17 220 18:19 25.06.2022
704 Clouds 19 1003 51 10000 4.12 180 17:24 25.06.2022
705 Clouds 19 1004 52 10000 4.63 160 15:36 25.06.2022
706 Clouds 18 1003 53 10000 5.14 180 13:41 25.06.2022
707 Clouds 19 1003 50 10000 4.12 210 12:38 25.06.2022
708 Clouds 16 1003 66 10000 4.12 200 10:45 25.06.2022
709 Clouds 15 1003 72 10000 4.63 190 09:20 25.06.2022
710 Clear 14 1002 74 10000 4.12 180 08:37 25.06.2022
711 Clouds 14 1002 76 10000 3.09 170 08:18 25.06.2022
712 Clouds 14 1000 78 10000 3.6 190 03:34 25.06.2022
713 Clouds 16 998 77 9000 2.57 0 00:35 25.06.2022
714 Clouds 17 998 68 10000 3.09 0 22:54 24.06.2022
715 Clouds 18 999 74 10000 2.06 150 21:41 24.06.2022
716 Clouds 19 998 70 10000 2.06 170 20:45 24.06.2022
717 Clouds 19 998 67 10000 2.57 180 20:18 24.06.2022
718 Clouds 19 999 68 10000 3.6 190 19:21 24.06.2022
719 Clouds 19 999 66 10000 3.6 190 18:48 24.06.2022
720 Clouds 19 999 68 10000 3.6 200 18:30 24.06.2022
721 Clouds 20 999 70 10000 3.09 180 17:20 24.06.2022
722 Clouds 20 1000 70 10000 2.57 190 15:29 24.06.2022
723 Clouds 19 1001 75 10000 2.57 170 14:27 24.06.2022
724 Clouds 19 1001 74 10000 2.57 170 13:55 24.06.2022
725 Clouds 20 1001 72 10000 2.06 150 11:44 24.06.2022
726 Clouds 19 1002 75 10000 1.54 180 10:55 24.06.2022
727 Clouds 18 1002 79 10000 2.06 210 09:49 24.06.2022
728 Clouds 18 1002 82 10000 2.06 180 09:27 24.06.2022
729 Clouds 18 1002 81 10000 2.06 180 08:51 24.06.2022
730 Clouds 15 1002 86 10000 1.03 240 06:47 24.06.2022
731 Clouds 15 1002 86 10000 1.03 0 06:29 24.06.2022
732 Clouds 15 1003 84 10000 1.03 0 05:51 24.06.2022
733 Clouds 17 1005 70 10000 0.51 0 00:57 24.06.2022
734 Clouds 19 1006 56 10000 1.03 160 22:44 23.06.2022
735 Clouds 20 1007 56 10000 1.03 0 21:52 23.06.2022
736 Clear 21 1006 56 10000 2.06 0 20:53 23.06.2022
737 Clouds 21 1006 60 10000 1.54 170 20:31 23.06.2022
738 Rain 22 1006 61 10000 1.79 132 18:43 23.06.2022
739 Rain 25 1006 53 10000 3.6 160 17:37 23.06.2022
740 Clear 27 1007 43 10000 2.57 180 16:32 23.06.2022
741 Clouds 27 1007 42 10000 3.09 200 15:26 23.06.2022
742 Clouds 27 1009 44 10000 2.57 0 14:45 23.06.2022
743 Clear 24 1009 57 10000 2.06 240 11:49 23.06.2022
744 Clear 22 1010 64 10000 1.03 0 10:56 23.06.2022
745 Clear 19 1010 69 10000 0.89 135 09:19 23.06.2022
746 Clouds 12 1011 86 10000 1.03 110 05:48 23.06.2022
747 Clouds 15 1013 75 10000 0.51 0 01:21 23.06.2022
748 Clouds 16 1014 74 10000 1.54 270 00:18 23.06.2022
749 Clouds 17 1014 71 10000 2.06 300 23:22 22.06.2022
750 Clouds 19 1013 63 10000 2.57 300 21:44 22.06.2022
751 Clear 21 1013 59 10000 4.12 290 20:52 22.06.2022
752 Clear 22 1013 57 10000 4.12 310 20:19 22.06.2022
753 Clouds 23 1014 54 10000 3.09 300 19:30 22.06.2022
754 Clouds 23 1014 52 10000 3.09 300 17:40 22.06.2022
755 Clouds 24 1013 50 10000 3.6 290 16:41 22.06.2022
756 Clouds 24 1013 49 10000 4.63 280 15:29 22.06.2022
757 Clouds 23 1014 52 10000 3.6 290 14:47 22.06.2022
758 Clouds 23 1014 54 10000 2.57 290 13:47 22.06.2022
759 Clouds 23 1014 55 10000 0.89 76 13:24 22.06.2022
760 Clouds 21 1014 62 10000 3.09 300 12:18 22.06.2022
761 Clouds 20 1014 71 10000 1.34 332 11:29 22.06.2022
762 Clouds 19 1014 77 10000 1.03 0 10:43 22.06.2022
763 Mist 16 1015 86 10000 1.54 250 09:18 22.06.2022
764 Mist 13 1014 94 3700 1.54 170 06:55 22.06.2022
765 Clear 15 1014 83 10000 2.06 310 01:59 22.06.2022
766 Clear 15 1015 83 10000 2.06 310 00:56 22.06.2022
767 Clear 17 1015 68 10000 1.61 335 22:40 21.06.2022
768 Clear 21 1014 50 10000 4.63 320 20:40 21.06.2022
769 Clouds 23 1014 48 10000 4.63 290 19:20 21.06.2022
770 Clouds 24 1013 46 10000 4.12 280 17:47 21.06.2022
771 Clouds 24 1013 41 10000 3.6 280 16:36 21.06.2022
772 Clouds 20 1014 47 10000 0.45 275 11:56 21.06.2022
773 Clouds 18 1014 57 10000 1.03 0 10:33 21.06.2022
774 Clouds 14 1014 73 10000 1.54 150 08:54 21.06.2022
775 Clouds 11 1014 80 10000 1.03 0 07:40 21.06.2022
776 Clouds 9 1015 86 10000 2.06 140 04:42 21.06.2022
777 Clouds 14 1018 68 10000 1.03 260 23:45 20.06.2022
778 Clouds 16 1019 56 10000 1.75 325 22:21 20.06.2022
779 Clouds 16 1019 56 10000 1.75 325 22:21 20.06.2022
780 Clouds 18 1018 45 10000 3.6 300 21:33 20.06.2022
781 Clouds 19 1019 49 10000 4.63 280 20:27 20.06.2022
782 Clouds 20 1019 47 10000 4.12 280 19:23 20.06.2022
783 Clouds 21 1019 48 10000 3.09 280 18:25 20.06.2022
784 Clouds 21 1019 50 10000 4.12 310 17:44 20.06.2022
785 Clouds 21 1019 48 10000 2.57 0 16:24 20.06.2022
786 Clouds 20 1020 49 10000 3.09 10 14:36 20.06.2022
787 Clouds 17 1020 55 10000 2.57 40 11:47 20.06.2022
788 Clear 15 1020 65 10000 4.63 40 09:55 20.06.2022
789 Clear 13 1021 72 10000 2.57 50 08:46 20.06.2022
790 Clear 12 1020 79 10000 1.03 0 07:36 20.06.2022
791 Clear 10 1018 84 10000 1.54 90 04:30 20.06.2022
792 Clouds 12 1018 79 10000 2.06 60 01:32 20.06.2022
793 Clouds 14 1017 70 10000 1.03 0 23:48 19.06.2022
794 Clouds 16 1017 61 10000 3.6 70 22:20 19.06.2022
795 Clouds 17 1017 62 10000 3.19 30 21:42 19.06.2022
796 Clouds 18 1015 57 10000 3.09 310 20:49 19.06.2022
797 Clouds 19 1015 55 10000 3.09 320 19:49 19.06.2022
798 Clouds 18 1016 60 10000 3.6 300 19:24 19.06.2022
799 Clouds 18 1015 57 10000 3.09 330 18:32 19.06.2022
800 Clouds 18 1016 60 10000 2.06 340 17:42 19.06.2022
801 Clouds 17 1015 65 10000 3.09 270 16:47 19.06.2022
802 Clouds 16 1015 68 10000 3.6 280 16:23 19.06.2022
803 Clouds 16 1015 67 10000 4.63 290 15:29 19.06.2022
804 Clouds 16 1015 68 10000 5.14 320 14:42 19.06.2022
805 Clouds 16 1015 69 10000 4.12 300 13:52 19.06.2022
806 Clouds 14 1015 79 10000 3.09 290 12:19 19.06.2022
807 Clouds 13 1015 83 10000 4.63 290 10:53 19.06.2022
808 Clouds 12 1015 84 10000 3.09 280 09:21 19.06.2022
809 Clouds 12 1015 88 10000 2.06 240 08:32 19.06.2022
810 Clouds 10 1015 91 10000 0.51 0 07:26 19.06.2022
811 Clouds 10 1015 91 10000 0.51 0 07:26 19.06.2022
812 Drizzle 8 1015 89 5000 1.54 220 03:57 19.06.2022
813 Clouds 10 1018 83 10000 1.54 140 00:51 19.06.2022
814 Clouds 10 1018 85 10000 0.51 0 00:22 19.06.2022
815 Clouds 11 1019 78 10000 2.06 250 23:35 18.06.2022
816 Clouds 12 1018 73 10000 3.09 280 22:30 18.06.2022
817 Clouds 13 1018 79 10000 1.54 270 20:51 18.06.2022
818 Clouds 12 1020 80 10000 2.57 260 20:18 18.06.2022
819 Rain 13 1019 72 10000 3.09 270 18:57 18.06.2022
820 Rain 13 1019 72 10000 3.09 270 18:57 18.06.2022
821 Clouds 13 1019 72 10000 3.09 270 18:38 18.06.2022
822 Clouds 14 1019 63 10000 4.12 310 17:29 18.06.2022
823 Clouds 14 1019 59 10000 5.14 320 16:18 18.06.2022
824 Clouds 15 1020 59 10000 5.66 290 14:58 18.06.2022
825 Clouds 15 1020 58 10000 5.66 290 14:37 18.06.2022
826 Clouds 16 1021 60 10000 4.12 310 12:31 18.06.2022
827 Clouds 16 1020 60 10000 3.09 310 11:25 18.06.2022
828 Clouds 14 1020 63 10000 4.63 320 09:46 18.06.2022
829 Clouds 14 1020 65 10000 4.12 310 08:59 18.06.2022
830 Clouds 13 1020 70 10000 3.6 340 07:34 18.06.2022
831 Clouds 13 1020 70 10000 3.6 340 07:34 18.06.2022
832 Clouds 13 1019 74 10000 3.6 320 05:58 18.06.2022
833 Clouds 15 1019 84 10000 2.06 270 02:51 18.06.2022
834 Clouds 16 1019 87 10000 5.66 290 01:21 18.06.2022
835 Clouds 17 1018 86 10000 4.12 310 00:32 18.06.2022
836 Clouds 18 1018 82 10000 3.6 300 23:40 17.06.2022
837 Clouds 18 1018 79 10000 3.6 310 22:33 17.06.2022
838 Clouds 19 1017 74 10000 4.63 330 20:29 17.06.2022
839 Clouds 21 1017 64 10000 6.69 300 19:24 17.06.2022
840 Clouds 24 1016 54 10000 6.69 290 17:58 17.06.2022
841 Clouds 26 1015 49 10000 6.17 300 16:50 17.06.2022
842 Clouds 26 1015 47 10000 7.2 270 16:25 17.06.2022
843 Clouds 27 1015 46 10000 7.2 270 15:40 17.06.2022
844 Clouds 27 1015 47 10000 5.14 220 14:23 17.06.2022
845 Clouds 26 1015 46 10000 3.6 210 13:58 17.06.2022
846 Clouds 26 1015 45 10000 3.6 210 13:38 17.06.2022
847 Clouds 25 1015 43 10000 1.79 115 12:28 17.06.2022
848 Clouds 24 1016 44 10000 4.12 210 11:55 17.06.2022
849 Clouds 24 1016 44 10000 4.12 210 11:33 17.06.2022
850 Clouds 20 1017 56 10000 3.09 200 08:58 17.06.2022
851 Clouds 19 1017 60 10000 2.06 170 08:25 17.06.2022
852 Clouds 18 1017 59 10000 2.06 190 06:44 17.06.2022
853 Clouds 18 1018 58 10000 2.06 180 03:45 17.06.2022
854 Clouds 18 1020 56 10000 2.06 190 01:56 17.06.2022
855 Clouds 20 1020 60 10000 2.06 200 23:35 16.06.2022
856 Clouds 21 1020 58 10000 1.54 180 22:42 16.06.2022
857 Clouds 23 1020 50 10000 1.03 0 21:22 16.06.2022
858 Clouds 24 1020 45 10000 1.03 0 20:51 16.06.2022
859 Clouds 24 1020 43 10000 1.03 0 20:32 16.06.2022
860 Clouds 24 1021 43 10000 1.03 0 19:32 16.06.2022
861 Clouds 25 1021 44 10000 1.54 220 17:57 16.06.2022
862 Clouds 24 1021 46 10000 1.54 220 17:35 16.06.2022
863 Clouds 25 1021 43 10000 2.06 230 16:30 16.06.2022
864 Clouds 24 1022 47 10000 2.01 218 15:21 16.06.2022
865 Clouds 22 1023 49 10000 2.06 220 14:28 16.06.2022
866 Clouds 21 1022 57 10000 1.42 245 12:59 16.06.2022
867 Clouds 21 1021 50 10000 1.03 0 12:35 16.06.2022
868 Clouds 20 1021 56 10000 1.54 240 11:49 16.06.2022
869 Clouds 19 1021 63 10000 1.03 0 10:51 16.06.2022
870 Clouds 16 1022 70 10000 0.51 0 09:43 16.06.2022
871 Clouds 15 1022 74 10000 1.03 0 09:20 16.06.2022
872 Clouds 12 1022 84 10000 0.51 0 07:57 16.06.2022
873 Clouds 12 1022 84 10000 0.51 0 07:57 16.06.2022
874 Clouds 11 1022 88 10000 1.03 220 06:51 16.06.2022
875 Clouds 11 1021 84 10000 0.51 0 04:28 16.06.2022
876 Clouds 13 1020 77 10000 1.03 200 01:53 16.06.2022
877 Clouds 13 1020 76 10000 1.03 200 01:34 16.06.2022
878 Clouds 14 1021 71 10000 1.54 280 00:36 16.06.2022
879 Clouds 15 1020 71 10000 1.73 339 23:23 15.06.2022
880 Clouds 18 1019 60 10000 3.6 290 21:59 15.06.2022
881 Clouds 19 1019 58 10000 3.09 280 21:20 15.06.2022
882 Clouds 20 1019 58 10000 3.6 290 20:38 15.06.2022
883 Clouds 20 1018 57 10000 4.63 290 20:18 15.06.2022
884 Clouds 20 1018 49 10000 2.06 280 18:48 15.06.2022
885 Clouds 22 1019 52 10000 2.06 280 17:54 15.06.2022
886 Clouds 22 1018 48 10000 2.57 260 16:37 15.06.2022
887 Clouds 23 1018 46 10000 1.54 0 15:23 15.06.2022
888 Clear 22 1019 55 10000 1.54 250 13:43 15.06.2022
889 Clouds 21 1018 56 10000 0.89 220 12:53 15.06.2022
890 Clear 20 1018 61 10000 2.06 250 11:42 15.06.2022
891 Clouds 17 1018 69 10000 1.05 231 10:23 15.06.2022
892 Clouds 15 1018 75 10000 1.03 0 09:37 15.06.2022
893 Clouds 13 1018 80 10000 1.03 0 08:27 15.06.2022
894 Clouds 9 1017 86 10000 1.03 0 06:33 15.06.2022
895 Clouds 10 1018 79 10000 1.03 50 03:30 15.06.2022
896 Clouds 12 1018 72 10000 1.03 0 01:38 15.06.2022
897 Clouds 12 1018 68 10000 3.09 340 00:50 15.06.2022
898 Clouds 13 1019 67 10000 2.06 330 23:39 14.06.2022
899 Clouds 15 1020 66 10000 2.19 3 22:52 14.06.2022
900 Clouds 16 1019 55 10000 3.6 310 21:53 14.06.2022
901 Clouds 18 1018 49 10000 3.6 330 21:27 14.06.2022
902 Clouds 18 1019 51 10000 3.6 310 20:48 14.06.2022
903 Clouds 19 1019 50 10000 1.54 0 19:59 14.06.2022
904 Clouds 20 1018 46 10000 2.57 340 18:45 14.06.2022
905 Clouds 20 1019 47 10000 2.06 220 17:29 14.06.2022
906 Clouds 20 1019 46 10000 2.06 0 16:43 14.06.2022
907 Clouds 20 1020 44 10000 2.06 270 15:49 14.06.2022
908 Clouds 19 1021 47 10000 2.06 290 14:57 14.06.2022
909 Clouds 19 1021 51 10000 2.57 250 14:19 14.06.2022
910 Clouds 18 1020 49 10000 2.06 240 13:32 14.06.2022
911 Clouds 17 1021 51 10000 1.54 220 12:27 14.06.2022
912 Haze 17 1021 55 1000 2.57 220 11:27 14.06.2022
913 Clear 16 1021 61 10000 1.03 0 10:33 14.06.2022
914 Clouds 14 1021 72 10000 1.03 0 09:28 14.06.2022
915 Clouds 14 1021 72 10000 1.03 0 09:28 14.06.2022
916 Clear 13 1021 77 10000 0.51 0 08:41 14.06.2022
917 Clouds 10 1021 82 10000 0.51 320 06:54 14.06.2022
918 Clouds 9 1023 84 10000 0.91 174 04:35 14.06.2022
919 Clouds 9 1023 78 10000 0.89 148 02:43 14.06.2022
920 Clouds 11 1024 72 10000 0.51 0 00:27 14.06.2022
921 Clouds 13 1023 66 10000 0.51 0 23:18 13.06.2022
922 Clouds 14 1023 65 10000 2.06 300 22:24 13.06.2022
923 Clouds 14 1023 64 10000 3.09 310 21:41 13.06.2022
924 Clouds 15 1023 62 10000 4.12 300 19:59 13.06.2022
925 Clouds 16 1023 63 10000 4.12 300 19:25 13.06.2022
926 Clouds 17 1023 58 10000 3.6 280 17:57 13.06.2022
927 Clouds 16 1024 59 10000 4.12 300 17:27 13.06.2022
928 Clouds 16 1024 60 10000 4.12 290 16:32 13.06.2022
929 Clouds 16 1025 59 10000 4.12 250 14:53 13.06.2022
930 Clouds 16 1024 56 10000 4.12 250 14:33 13.06.2022
931 Clouds 16 1024 65 10000 5.14 290 13:39 13.06.2022
932 Clouds 15 1024 66 10000 4.63 290 12:23 13.06.2022
933 Clouds 15 1024 69 10000 3.6 280 10:58 13.06.2022
934 Clouds 14 1024 70 10000 5.14 290 10:26 13.06.2022
935 Clouds 13 1023 78 10000 3.6 270 08:59 13.06.2022
936 Clouds 12 1023 82 10000 3.6 290 06:53 13.06.2022
937 Clouds 12 1023 84 10000 4.12 280 05:35 13.06.2022
938 Clouds 12 1023 86 10000 2.57 280 02:27 13.06.2022
939 Clouds 12 1023 83 10000 3.09 290 01:36 13.06.2022
940 Clouds 13 1022 75 10000 4.63 260 23:49 12.06.2022
941 Clouds 14 1021 70 10000 5.14 260 22:44 12.06.2022
942 Clouds 14 1021 66 10000 5.14 270 21:53 12.06.2022
943 Clouds 15 1021 64 10000 7.72 260 20:53 12.06.2022
944 Clouds 15 1021 62 10000 7.2 270 19:59 12.06.2022
945 Clouds 16 1021 61 10000 8.23 260 19:30 12.06.2022
946 Clouds 16 1021 61 10000 7.72 270 17:40 12.06.2022
947 Clouds 17 1021 51 10000 8.23 260 15:54 12.06.2022
948 Clouds 17 1021 53 10000 7.72 280 14:51 12.06.2022
949 Clouds 17 1021 50 10000 6.69 270 14:19 12.06.2022
950 Clouds 17 1021 49 10000 6.69 270 13:46 12.06.2022
951 Clouds 16 1022 53 10000 6.69 270 12:32 12.06.2022
952 Clouds 15 1022 61 10000 6.69 270 11:22 12.06.2022
953 Clouds 14 1021 68 10000 6.69 260 10:21 12.06.2022
954 Clouds 13 1021 80 10000 6.17 250 08:52 12.06.2022
955 Clouds 13 1021 80 10000 6.17 250 08:33 12.06.2022
956 Clouds 13 1020 85 10000 4.12 240 06:49 12.06.2022
957 Clouds 13 1021 85 10000 2.06 210 04:35 12.06.2022
958 Clouds 13 1021 82 10000 3.09 220 02:32 12.06.2022
959 Clouds 14 1021 77 10000 4.12 220 01:36 12.06.2022
960 Clouds 14 1020 75 10000 4.12 220 00:57 12.06.2022
961 Clouds 14 1020 75 10000 3.6 220 00:19 12.06.2022
962 Clouds 14 1020 75 10000 3.6 220 00:19 12.06.2022
963 Clouds 15 1020 72 10000 5.66 230 23:21 11.06.2022
964 Clouds 15 1020 70 10000 7.2 240 22:37 11.06.2022
965 Clouds 15 1019 68 10000 7.2 230 21:36 11.06.2022
966 Clouds 17 1018 56 10000 8.75 240 20:27 11.06.2022
967 Clouds 18 1019 55 10000 8.75 240 19:37 11.06.2022
968 Clouds 18 1017 50 10000 9.77 240 18:45 11.06.2022
969 Clouds 18 1017 50 10000 10.8 240 18:27 11.06.2022
970 Clouds 19 1017 50 10000 8.75 240 17:48 11.06.2022
971 Clouds 19 1017 49 10000 10.29 250 17:26 11.06.2022
972 Clouds 19 1017 49 10000 10.29 250 17:26 11.06.2022
973 Clouds 19 1017 50 10000 9.26 250 16:44 11.06.2022
974 Clouds 19 1017 53 10000 7.72 260 16:18 11.06.2022
975 Clouds 19 1017 56 10000 8.23 230 14:57 11.06.2022
976 Clouds 18 1017 59 10000 6.69 220 13:52 11.06.2022
977 Clouds 17 1017 62 10000 9.26 230 12:19 11.06.2022
978 Clouds 17 1016 67 10000 5.66 220 10:32 11.06.2022
979 Clouds 16 1016 71 10000 5.14 220 09:41 11.06.2022
980 Clouds 15 1016 76 10000 3.6 200 08:44 11.06.2022
981 Clouds 12 1015 85 10000 2.24 98 06:33 11.06.2022
982 Clouds 12 1015 85 10000 3.6 200 05:53 11.06.2022
983 Clouds 13 1015 82 10000 3.6 200 03:31 11.06.2022
984 Clear 13 1015 77 10000 2.57 190 01:51 11.06.2022
985 Clear 14 1015 76 10000 4.12 210 01:25 11.06.2022
986 Clear 14 1015 76 10000 4.12 210 01:25 11.06.2022
987 Clear 15 1015 67 10000 4.12 220 23:27 10.06.2022
988 Clear 16 1015 62 10000 4.63 240 22:21 10.06.2022
989 Clear 17 1015 57 10000 6.17 230 21:44 10.06.2022
990 Clear 19 1015 47 10000 8.23 250 20:39 10.06.2022
991 Clear 19 1015 50 10000 9.77 240 20:19 10.06.2022
992 Clouds 20 1015 56 10000 6.17 220 19:19 10.06.2022
993 Clouds 20 1015 56 10000 6.17 220 19:19 10.06.2022
994 Clouds 20 1014 54 10000 9.77 230 18:32 10.06.2022
995 Clouds 21 1013 50 10000 5.66 210 17:50 10.06.2022
996 Clouds 21 1014 53 10000 6.69 220 17:21 10.06.2022
997 Clouds 21 1014 51 10000 6.17 220 16:26 10.06.2022
998 Clouds 21 1015 54 10000 5.14 220 15:38 10.06.2022
999 Clouds 20 1014 53 10000 6.17 220 13:58 10.06.2022
1000 Clouds 19 1014 62 10000 4.63 210 12:51 10.06.2022
1001 Clouds 18 1014 68 10000 4.63 210 11:53 10.06.2022
1002 Clouds 17 1014 68 10000 3.6 200 10:45 10.06.2022
1003 Clear 16 1014 73 10000 4.12 210 09:55 10.06.2022
1004 Clouds 14 1014 81 10000 3.6 210 08:44 10.06.2022
1005 Clouds 13 1014 83 10000 2.24 116 07:30 10.06.2022
1006 Clouds 12 1013 84 10000 2.57 190 06:45 10.06.2022
1007 Clouds 12 1013 85 10000 3.09 190 06:26 10.06.2022
1008 Clouds 13 1013 83 10000 3.6 200 03:56 10.06.2022
1009 Clouds 14 1013 85 10000 3.09 200 01:42 10.06.2022
1010 Clouds 15 1013 83 10000 2.57 210 00:32 10.06.2022
1011 Clouds 15 1013 84 10000 3.09 200 23:47 09.06.2022
1012 Clouds 16 1011 84 10000 2.06 190 22:18 09.06.2022
1013 Clouds 17 1011 80 10000 2.57 180 21:37 09.06.2022
1014 Clouds 17 1011 79 10000 3.09 190 20:54 09.06.2022
1015 Clouds 17 1011 79 10000 3.6 190 20:21 09.06.2022
1016 Clouds 17 1011 77 10000 3.6 190 19:29 09.06.2022
1017 Clouds 16 1011 81 10000 3.09 190 18:34 09.06.2022
1018 Clouds 16 1012 82 9000 3.6 180 16:56 09.06.2022
1019 Rain 15 1013 76 10000 3.09 190 15:49 09.06.2022
1020 Clouds 16 1013 72 10000 4.63 210 14:35 09.06.2022
1021 Clouds 16 1012 73 10000 5.14 220 13:54 09.06.2022
1022 Rain 16 1012 69 10000 3.6 220 13:28 09.06.2022
1023 Clouds 17 1012 67 10000 1.34 265 11:54 09.06.2022
1024 Clouds 16 1012 70 10000 4.12 230 11:18 09.06.2022
1025 Clouds 15 1012 76 10000 2.57 220 09:44 09.06.2022
1026 Clouds 14 1011 80 10000 3.09 220 09:24 09.06.2022
1027 Clouds 11 1011 89 10000 1.54 190 07:52 09.06.2022
1028 Clouds 10 1010 91 10000 1.54 180 06:33 09.06.2022
1029 Clear 11 1008 92 10000 2.06 220 02:52 09.06.2022
1030 Clouds 13 1007 85 10000 1.54 160 23:39 08.06.2022
1031 Clouds 13 1007 81 10000 1.03 0 22:58 08.06.2022
1032 Clear 14 1006 78 10000 3.09 270 22:27 08.06.2022
1033 Clouds 15 1006 76 10000 3.6 300 21:54 08.06.2022
1034 Clouds 15 1006 77 10000 3.09 280 21:21 08.06.2022
1035 Clouds 16 1005 80 10000 3.6 260 20:20 08.06.2022
1036 Clouds 16 1004 78 10000 3.6 260 19:38 08.06.2022
1037 Clouds 17 1004 69 10000 7.72 280 18:43 08.06.2022
1038 Clouds 17 1003 68 10000 3.6 270 16:54 08.06.2022
1039 Rain 17 1003 67 10000 4.63 270 15:44 08.06.2022
1040 Clouds 17 1002 74 10000 5.66 250 13:44 08.06.2022
1041 Clouds 16 1001 83 10000 5.14 230 11:52 08.06.2022
1042 Rain 16 1001 81 10000 3.6 210 11:29 08.06.2022
1043 Clouds 16 1001 89 10000 2.06 200 09:55 08.06.2022
1044 Clouds 15 1001 90 10000 2.57 210 09:21 08.06.2022
1045 Clouds 14 1000 93 10000 3.09 200 08:22 08.06.2022
1046 Clouds 14 1000 94 10000 1.54 180 05:51 08.06.2022
1047 Rain 14 1002 92 10000 1.54 0 03:52 08.06.2022
1048 Rain 15 1005 88 800 2.06 150 00:29 08.06.2022
1049 Rain 17 1006 76 10000 1.03 0 23:27 07.06.2022
1050 Clouds 17 1007 71 10000 1.03 0 22:44 07.06.2022
1051 Clouds 17 1007 70 10000 1.54 140 22:22 07.06.2022
1052 Clouds 19 1007 63 10000 1.54 0 21:28 07.06.2022
1053 Clouds 19 1008 62 10000 2.06 0 20:53 07.06.2022
1054 Clouds 20 1008 55 10000 1.03 0 20:31 07.06.2022
1055 Clouds 20 1008 52 10000 2.06 190 19:27 07.06.2022
1056 Clouds 20 1009 59 10000 2.57 170 18:19 07.06.2022
1057 Clouds 20 1010 58 10000 2.06 0 17:21 07.06.2022
1058 Clouds 20 1010 58 10000 2.06 170 16:41 07.06.2022
1059 Clouds 20 1010 57 10000 2.06 160 15:43 07.06.2022
1060 Clouds 20 1010 55 10000 1.79 141 15:23 07.06.2022
1061 Clouds 19 1011 61 10000 1.54 0 14:46 07.06.2022
1062 Clouds 18 1011 61 10000 2.06 210 13:58 07.06.2022
1063 Clouds 18 1011 65 10000 3.09 210 13:29 07.06.2022
1064 Clouds 18 1012 65 10000 1.54 210 12:44 07.06.2022
1065 Clouds 17 1011 62 10000 1.03 0 11:22 07.06.2022
1066 Clouds 16 1011 71 10000 0.51 0 10:19 07.06.2022
1067 Clouds 13 1012 82 10000 0.51 0 08:36 07.06.2022
1068 Clouds 11 1012 91 8000 2.06 40 07:23 07.06.2022
1069 Mist 10 1012 92 4500 1.03 110 05:56 07.06.2022
1070 Clouds 10 1013 91 10000 0.51 0 02:48 07.06.2022
1071 Clouds 12 1013 85 10000 1.03 170 00:35 07.06.2022
1072 Clouds 12 1013 84 10000 1.54 230 23:34 06.06.2022
1073 Clouds 13 1013 80 10000 1.03 260 22:41 06.06.2022
1074 Clouds 14 1013 78 10000 1.54 270 21:43 06.06.2022
1075 Clouds 14 1013 75 10000 1.54 220 20:19 06.06.2022
1076 Clouds 15 1013 74 10000 2.06 210 19:23 06.06.2022
1077 Clouds 15 1014 73 10000 1.54 220 18:46 06.06.2022
1078 Clouds 15 1015 74 10000 1.54 220 17:51 06.06.2022
1079 Clouds 15 1015 73 10000 0.51 0 16:39 06.06.2022
1080 Clouds 14 1015 75 10000 1.54 270 15:40 06.06.2022
1081 Clouds 14 1015 74 10000 1.54 270 15:40 06.06.2022
1082 Clouds 13 1015 78 10000 1.03 0 14:56 06.06.2022
1083 Clouds 13 1015 83 10000 2.06 300 13:31 06.06.2022
1084 Clouds 13 1015 79 10000 1.54 310 12:39 06.06.2022
1085 Clouds 12 1015 80 10000 0.51 0 12:20 06.06.2022
1086 Clouds 12 1015 79 10000 0.51 0 11:42 06.06.2022
1087 Clouds 11 1014 86 10000 1.54 320 09:41 06.06.2022
1088 Clouds 11 1015 89 10000 1.54 310 08:35 06.06.2022
1089 Clouds 10 1015 91 10000 1.54 40 07:40 06.06.2022
1090 Clouds 10 1013 88 10000 3.09 30 05:34 06.06.2022
1091 Clouds 10 1014 89 10000 2.06 10 03:47 06.06.2022
1092 Clouds 11 1015 88 10000 1.54 340 01:29 06.06.2022
1093 Clouds 11 1015 87 10000 2.06 30 00:43 06.06.2022
1094 Clouds 11 1016 89 10000 2.57 40 23:50 05.06.2022
1095 Clouds 11 1016 87 10000 1.54 40 22:53 05.06.2022
1096 Clouds 11 1016 86 10000 2.06 60 21:26 05.06.2022
1097 Clouds 12 1016 88 10000 3.09 50 19:52 05.06.2022
1098 Clouds 12 1016 91 10000 3.09 30 18:42 05.06.2022
1099 Clouds 12 1016 88 10000 2.06 70 17:56 05.06.2022
1100 Clouds 12 1016 89 10000 3.6 20 17:27 05.06.2022
1101 Clouds 12 1016 88 10000 4.12 20 16:58 05.06.2022
1102 Clouds 12 1016 89 10000 4.12 20 16:37 05.06.2022
1103 Clouds 12 1016 89 10000 4.12 20 16:37 05.06.2022
1104 Clouds 12 1017 87 10000 4.12 60 14:46 05.06.2022
1105 Clouds 11 1018 90 10000 3.09 60 13:21 05.06.2022
1106 Clouds 10 1018 91 9000 2.06 70 11:51 05.06.2022
1107 Clouds 10 1017 90 9000 5.66 60 10:43 05.06.2022
1108 Clouds 10 1018 89 10000 5.66 60 10:23 05.06.2022
1109 Clouds 10 1018 81 10000 3.6 50 08:41 05.06.2022
1110 Clouds 10 1018 81 10000 4.63 50 08:20 05.06.2022
1111 Clouds 10 1020 83 10000 3.09 80 05:23 05.06.2022
1112 Clouds 10 1020 82 10000 1.34 349 04:30 05.06.2022
1113 Clouds 10 1020 79 10000 2.06 80 01:33 05.06.2022
1114 Clouds 11 1021 77 10000 2.06 70 00:52 05.06.2022
1115 Clouds 12 1022 73 10000 2.06 90 22:43 04.06.2022
1116 Clouds 14 1021 65 10000 3.09 70 20:42 04.06.2022
1117 Clouds 16 1022 61 10000 4.63 70 18:51 04.06.2022
1118 Clouds 17 1023 59 10000 4.12 0 16:47 04.06.2022
1119 Clouds 16 1023 60 10000 5.14 80 16:18 04.06.2022
1120 Clouds 16 1024 63 10000 4.63 0 14:54 04.06.2022
1121 Clouds 17 1024 59 10000 4.63 80 13:37 04.06.2022
1122 Clouds 14 1024 64 10000 4.12 90 11:22 04.06.2022
1123 Clouds 14 1024 65 10000 6.17 60 10:49 04.06.2022
1124 Clouds 13 1023 69 10000 4.63 60 09:45 04.06.2022
1125 Clouds 12 1023 75 10000 3.6 70 08:43 04.06.2022
1126 Clouds 11 1023 78 10000 3.6 70 07:42 04.06.2022
1127 Clouds 10 1023 80 10000 4.12 50 05:30 04.06.2022
1128 Clouds 11 1022 79 10000 5.14 60 02:20 04.06.2022
1129 Clouds 12 1022 70 10000 5.66 60 00:19 04.06.2022
1130 Clouds 14 1022 66 10000 5.14 50 22:40 03.06.2022
1131 Clouds 16 1021 58 10000 5.14 70 21:39 03.06.2022
1132 Clouds 17 1021 58 10000 5.14 80 20:37 03.06.2022
1133 Clouds 18 1020 52 10000 4.63 80 18:41 03.06.2022
1134 Clouds 19 1020 42 10000 4.63 80 16:52 03.06.2022
1135 Clouds 19 1020 45 10000 4.12 80 15:37 03.06.2022
1136 Clouds 19 1020 48 10000 3.09 110 13:48 03.06.2022
1137 Clouds 13 1020 77 10000 4.12 30 11:50 03.06.2022
1138 Rain 12 1018 82 10000 2.06 60 09:50 03.06.2022
1139 Clouds 12 1018 84 10000 2.57 80 09:28 03.06.2022
1140 Rain 12 1019 87 10000 1.03 0 07:27 03.06.2022
1141 Clouds 12 1018 90 10000 2.06 70 06:44 03.06.2022
1142 Clouds 12 1018 90 5000 2.06 60 06:26 03.06.2022
1143 Rain 14 1018 78 10000 3.09 80 01:23 03.06.2022
1144 Rain 15 1018 71 10000 1.36 90 23:31 02.06.2022
1145 Clouds 16 1018 60 10000 1.03 0 21:57 02.06.2022
1146 Clouds 18 1018 56 10000 1.54 130 20:25 02.06.2022
1147 Clouds 18 1018 54 10000 1.03 0 19:52 02.06.2022
1148 Clouds 18 1018 54 10000 1.03 0 19:33 02.06.2022
1149 Clouds 19 1018 46 10000 1.54 180 17:58 02.06.2022
1150 Clouds 20 1019 48 10000 2.53 172 16:28 02.06.2022
1151 Clouds 19 1019 49 10000 2.06 220 14:34 02.06.2022
1152 Clouds 19 1019 53 10000 0.89 284 13:30 02.06.2022
1153 Clouds 18 1020 57 10000 2.57 180 12:40 02.06.2022
1154 Clouds 15 1020 68 10000 1.54 190 10:20 02.06.2022
1155 Clear 13 1019 77 10000 0.51 0 09:28 02.06.2022
1156 Clear 11 1019 88 10000 0.45 135 08:28 02.06.2022
1157 Clear 8 1019 93 10000 0.51 0 07:34 02.06.2022
1158 Fog 8 1019 91 3000 1.03 80 05:29 02.06.2022
1159 Clouds 9 1019 90 10000 1.54 160 03:45 02.06.2022
1160 Clouds 12 1019 78 10000 2.06 280 23:52 01.06.2022
1161 Clouds 13 1019 74 10000 1.54 310 22:54 01.06.2022
1162 Clouds 14 1019 76 10000 0.51 0 21:39 01.06.2022
1163 Clouds 15 1019 72 10000 1.03 220 21:19 01.06.2022
1164 Clouds 15 1019 72 10000 1.54 170 20:37 01.06.2022
1165 Clouds 17 1017 59 10000 3.09 330 19:31 01.06.2022
1166 Clouds 16 1018 65 10000 3.6 340 17:46 01.06.2022
1167 Clouds 16 1017 60 10000 3.09 280 16:40 01.06.2022
1168 Clouds 16 1016 59 10000 3.6 290 15:18 01.06.2022
1169 Clouds 15 1016 68 10000 0.45 315 13:54 01.06.2022
1170 Clouds 15 1015 68 10000 3.09 270 12:28 01.06.2022
1171 Clouds 11 1015 91 10000 2.06 250 09:48 01.06.2022
1172 Clouds 11 1015 94 10000 2.06 240 09:24 01.06.2022
1173 Mist 8 1014 94 4000 1.03 130 07:25 01.06.2022
1174 Fog 7 1013 93 250 1.03 0 06:30 01.06.2022
1175 Clouds 9 1014 89 10000 2.57 250 00:48 01.06.2022
1176 Clouds 10 1014 84 10000 2.57 290 23:30 31.05.2022
1177 Clouds 10 1014 84 10000 2.57 290 23:30 31.05.2022
1178 Clouds 11 1013 82 10000 2.57 270 22:37 31.05.2022
1179 Clouds 11 1013 78 10000 2.57 280 21:46 31.05.2022
1180 Clouds 12 1012 68 10000 4.63 280 20:46 31.05.2022
1181 Clouds 13 1012 67 10000 6.69 290 20:20 31.05.2022
1182 Clouds 13 1011 71 10000 6.69 300 18:53 31.05.2022
1183 Clouds 13 1011 71 10000 5.66 300 17:50 31.05.2022
1184 Clouds 14 1011 69 10000 7.2 280 17:18 31.05.2022
1185 Clouds 13 1010 69 10000 4.63 290 15:41 31.05.2022
1186 Clouds 13 1010 84 10000 3.09 290 14:18 31.05.2022
1187 Clouds 12 1009 83 10000 3.6 280 12:21 31.05.2022
1188 Clouds 11 1009 86 10000 4.12 260 10:55 31.05.2022
1189 Clouds 11 1009 86 10000 4.12 260 10:55 31.05.2022
1190 Clouds 10 1009 91 10000 2.06 220 09:31 31.05.2022
1191 Clouds 9 1009 93 10000 1.54 190 07:25 31.05.2022
1192 Clouds 9 1009 91 10000 0.51 0 05:20 31.05.2022
1193 Clouds 9 1010 90 10000 1.03 0 00:52 31.05.2022
1194 Clouds 10 1010 86 10000 1.03 150 23:27 30.05.2022
1195 Clouds 10 1010 85 10000 1.03 160 22:56 30.05.2022
1196 Clouds 10 1009 84 10000 1.03 200 21:52 30.05.2022
1197 Clouds 11 1009 83 10000 1.03 200 21:32 30.05.2022
1198 Rain 11 1009 79 10000 1.54 250 20:20 30.05.2022
1199 Clouds 12 1009 76 10000 3.6 260 18:41 30.05.2022
1200 Clouds 12 1010 80 10000 3.6 270 17:36 30.05.2022
1201 Clouds 11 1010 87 4000 3.6 290 16:41 30.05.2022
1202 Rain 11 1010 83 10000 4.12 270 14:49 30.05.2022
1203 Rain 11 1011 83 10000 3.6 230 12:24 30.05.2022
1204 Rain 10 1011 90 10000 2.57 210 10:41 30.05.2022
1205 Rain 9 1011 88 10000 2.06 220 09:21 30.05.2022
1206 Clouds 8 1012 90 10000 2.06 180 07:18 30.05.2022
1207 Clouds 9 1013 86 10000 2.06 200 05:49 30.05.2022
1208 Clouds 10 1016 81 10000 1.54 200 01:48 30.05.2022
1209 Clouds 11 1017 71 10000 1.03 80 23:19 29.05.2022
1210 Clouds 11 1017 70 10000 2.06 50 22:37 29.05.2022
1211 Clouds 13 1017 62 10000 2.24 11 20:55 29.05.2022
1212 Clouds 13 1018 61 10000 2.57 90 19:33 29.05.2022
1213 Clouds 14 1017 57 10000 3.09 10 18:53 29.05.2022
1214 Clouds 13 1019 56 10000 5.14 30 17:31 29.05.2022
1215 Clouds 13 1020 57 10000 2.57 10 15:48 29.05.2022
1216 Clouds 13 1020 58 10000 2.57 310 14:58 29.05.2022
1217 Clouds 13 1021 65 10000 2.57 280 13:53 29.05.2022
1218 Clouds 11 1021 65 10000 2.06 20 11:41 29.05.2022
1219 Clouds 10 1021 71 10000 4.12 40 10:38 29.05.2022
1220 Clouds 10 1022 74 10000 1.03 0 09:18 29.05.2022
1221 Clouds 9 1022 80 10000 1.54 60 06:18 29.05.2022
1222 Clouds 9 1022 79 7000 1.03 0 04:45 29.05.2022
1223 Clouds 9 1023 79 10000 2.57 50 03:47 29.05.2022
1224 Clouds 11 1024 81 10000 2.06 60 23:50 28.05.2022
1225 Clouds 11 1024 81 10000 2.06 60 23:50 28.05.2022
1226 Clouds 11 1024 77 10000 6.17 50 23:26 28.05.2022
1227 Rain 13 1024 58 10000 3.09 300 22:36 28.05.2022
1228 Clouds 14 1024 55 10000 3.6 320 21:38 28.05.2022
1229 Clouds 16 1024 55 10000 5.66 300 19:49 28.05.2022
1230 Clouds 16 1024 57 10000 5.66 310 18:50 28.05.2022
1231 Clouds 17 1025 55 10000 3.6 300 17:37 28.05.2022
1232 Clouds 17 1025 53 10000 3.6 280 16:38 28.05.2022
1233 Clouds 16 1025 54 10000 3.6 290 15:43 28.05.2022
1234 Clouds 16 1026 54 10000 4.12 280 14:23 28.05.2022
1235 Clouds 16 1025 55 10000 3.09 280 12:44 28.05.2022
1236 Clouds 15 1026 60 10000 1.03 0 12:18 28.05.2022
1237 Clouds 14 1026 65 10000 2.06 300 10:51 28.05.2022
1238 Clouds 12 1026 75 10000 2.06 310 09:57 28.05.2022
1239 Clouds 11 1026 86 10000 1.54 330 08:45 28.05.2022
1240 Clouds 8 1026 90 10000 1.54 190 07:23 28.05.2022
1241 Clouds 8 1026 88 10000 2.06 320 05:28 28.05.2022
1242 Clouds 9 1026 80 10000 1.54 240 02:44 28.05.2022
1243 Clouds 10 1026 74 10000 3.6 290 00:32 28.05.2022
1244 Clouds 11 1026 72 10000 4.63 300 22:51 27.05.2022
1245 Clouds 12 1025 69 10000 6.17 300 21:43 27.05.2022
1246 Clouds 13 1025 69 10000 7.2 300 20:49 27.05.2022
1247 Clouds 13 1025 67 10000 7.72 300 20:23 27.05.2022
1248 Clouds 13 1025 66 10000 6.17 300 19:42 27.05.2022
1249 Clouds 14 1025 64 10000 8.23 290 19:21 27.05.2022
1250 Clouds 14 1025 62 10000 7.2 290 17:52 27.05.2022
1251 Clouds 14 1025 62 10000 7.72 290 16:38 27.05.2022
1252 Clouds 15 1025 59 10000 6.69 290 15:22 27.05.2022
1253 Clouds 14 1024 62 10000 8.23 280 13:44 27.05.2022
1254 Clouds 13 1024 64 10000 7.72 270 12:35 27.05.2022
1255 Clouds 12 1024 65 10000 7.2 270 11:33 27.05.2022
1256 Clouds 12 1023 68 10000 7.2 280 10:54 27.05.2022
1257 Clouds 12 1023 69 10000 5.66 270 10:26 27.05.2022
1258 Clouds 12 1023 72 10000 5.14 270 09:32 27.05.2022
1259 Clouds 10 1022 74 10000 4.12 250 07:42 27.05.2022
1260 Clouds 10 1021 69 10000 4.63 280 05:32 27.05.2022
1261 Clouds 11 1021 71 10000 4.12 270 02:25 27.05.2022
1262 Clouds 12 1019 80 10000 1.34 230 00:19 27.05.2022
1263 Clouds 13 1018 74 10000 2.57 270 22:30 26.05.2022
1264 Clouds 14 1019 72 10000 4.63 270 21:34 26.05.2022
1265 Clouds 16 1017 72 10000 7.72 280 19:51 26.05.2022
1266 Clouds 16 1017 75 10000 6.69 270 19:19 26.05.2022
1267 Clouds 15 1017 87 4000 6.17 250 17:36 26.05.2022
1268 Clouds 15 1017 91 4000 5.66 270 16:36 26.05.2022
1269 Drizzle 16 1017 88 10000 6.69 250 15:41 26.05.2022
1270 Drizzle 16 1016 83 10000 9.26 240 14:21 26.05.2022
1271 Rain 15 1016 87 10000 9.26 240 12:35 26.05.2022
1272 Rain 14 1016 91 10000 4.63 210 11:21 26.05.2022
1273 Rain 12 1016 89 10000 4.12 210 09:40 26.05.2022
1274 Clouds 12 1016 82 10000 2.57 190 08:57 26.05.2022
1275 Clouds 12 1016 81 10000 2.57 210 07:38 26.05.2022
1276 Clouds 12 1016 82 10000 3.6 220 02:59 26.05.2022
1277 Clouds 13 1014 76 10000 3.09 230 00:21 26.05.2022
1278 Clouds 14 1013 73 10000 4.12 250 23:22 25.05.2022
1279 Clouds 15 1012 68 10000 4.12 260 21:47 25.05.2022
1280 Clouds 15 1012 68 10000 5.14 270 21:28 25.05.2022
1281 Clouds 16 1011 65 10000 8.23 270 19:59 25.05.2022
1282 Clouds 16 1010 65 10000 7.72 270 19:19 25.05.2022
1283 Clouds 16 1009 68 10000 7.2 270 17:30 25.05.2022
1284 Clouds 16 1008 67 10000 7.72 270 16:36 25.05.2022
1285 Clouds 16 1008 72 10000 8.75 270 15:53 25.05.2022
1286 Clouds 16 1007 72 10000 5.66 260 14:51 25.05.2022
1287 Clouds 15 1007 76 10000 5.66 260 14:32 25.05.2022
1288 Clouds 14 1006 90 10000 5.14 220 13:28 25.05.2022
1289 Rain 14 1006 90 10000 1.34 87 12:24 25.05.2022
1290 Clouds 13 1005 81 10000 5.14 210 10:42 25.05.2022
1291 Rain 11 1006 87 10000 4.12 190 09:53 25.05.2022
1292 Clouds 11 1006 88 10000 1.79 144 08:22 25.05.2022
1293 Clouds 11 1006 83 10000 2.24 101 06:45 25.05.2022
1294 Clouds 11 1008 79 10000 2.57 190 02:55 25.05.2022
1295 Clouds 11 1009 79 10000 2.57 220 23:52 24.05.2022
1296 Clouds 11 1008 72 10000 2.06 200 23:23 24.05.2022
1297 Clear 13 1007 63 10000 2.06 270 22:18 24.05.2022
1298 Clear 13 1008 61 10000 2.57 280 21:38 24.05.2022
1299 Clear 14 1007 58 10000 3.6 290 21:19 24.05.2022
1300 Clouds 15 1007 56 10000 6.17 270 19:32 24.05.2022
1301 Clouds 16 1006 52 10000 6.69 300 18:49 24.05.2022
1302 Clouds 16 1005 51 10000 7.72 280 16:40 24.05.2022
1303 Clouds 15 1005 59 10000 6.69 280 15:54 24.05.2022
1304 Clouds 15 1004 61 10000 5.66 290 14:45 24.05.2022
1305 Clouds 14 1004 63 10000 5.66 270 13:48 24.05.2022
1306 Clouds 14 1004 70 10000 6.17 270 12:42 24.05.2022
1307 Clouds 12 1002 81 10000 6.17 260 10:18 24.05.2022
1308 Clouds 11 1002 81 10000 4.63 290 09:41 24.05.2022
1309 Clouds 11 1001 82 10000 4.12 280 08:43 24.05.2022
1310 Clouds 10 1000 86 10000 3.6 290 06:45 24.05.2022
1311 Clouds 10 1000 87 10000 3.09 280 03:48 24.05.2022
1312 Clouds 11 999 85 10000 2.06 270 01:48 24.05.2022
1313 Clouds 11 1000 83 10000 3.6 280 00:57 24.05.2022
1314 Clouds 12 999 76 10000 2.57 290 22:29 23.05.2022
1315 Clouds 12 999 74 10000 3.6 300 21:53 23.05.2022
1316 Clouds 13 1000 74 10000 5.14 290 20:55 23.05.2022
1317 Clouds 14 999 67 10000 5.66 270 20:26 23.05.2022
1318 Clouds 14 1000 68 10000 5.14 280 19:31 23.05.2022
1319 Clouds 15 999 69 10000 4.63 290 18:42 23.05.2022
1320 Clouds 15 999 69 10000 4.12 290 18:22 23.05.2022
1321 Rain 14 1000 72 10000 4.12 300 16:51 23.05.2022
1322 Clouds 15 1000 70 10000 4.12 270 14:49 23.05.2022
1323 Clouds 16 1001 69 10000 2.57 250 12:30 23.05.2022
1324 Clouds 15 1001 69 10000 2.06 230 11:25 23.05.2022
1325 Clouds 13 1002 82 10000 2.57 210 09:49 23.05.2022
1326 Clouds 13 1002 84 10000 1.03 0 08:51 23.05.2022
1327 Clouds 12 1002 88 10000 1.54 190 07:46 23.05.2022
1328 Clouds 11 1002 88 10000 2.57 200 06:43 23.05.2022
1329 Clouds 11 1004 86 10000 2.06 190 04:43 23.05.2022
1330 Clouds 13 1006 90 10000 2.06 180 02:19 23.05.2022
1331 Clouds 13 1006 92 10000 1.54 180 01:34 23.05.2022
1332 Clouds 14 1007 84 10000 2.57 200 23:42 22.05.2022
1333 Clouds 15 1007 84 10000 3.6 210 22:34 22.05.2022
1334 Clouds 16 1006 76 10000 4.63 260 21:54 22.05.2022
1335 Rain 17 1007 71 10000 4.12 210 20:51 22.05.2022
1336 Clouds 18 1007 69 10000 4.12 210 20:23 22.05.2022
1337 Clouds 18 1008 69 10000 4.12 210 19:54 22.05.2022
1338 Clouds 18 1008 69 10000 4.12 210 19:54 22.05.2022
1339 Clouds 19 1007 66 10000 4.63 220 18:53 22.05.2022
1340 Clouds 19 1009 68 10000 5.14 220 18:24 22.05.2022
1341 Clouds 19 1009 65 10000 3.6 210 17:28 22.05.2022
1342 Clouds 19 1010 66 10000 3.6 200 15:59 22.05.2022
1343 Clouds 18 1010 68 10000 2.57 0 14:48 22.05.2022
1344 Clouds 18 1011 69 10000 3.6 200 13:27 22.05.2022
1345 Clouds 18 1011 68 10000 3.6 190 12:50 22.05.2022
1346 Clouds 16 1012 76 10000 3.6 210 11:32 22.05.2022
1347 Clouds 14 1013 81 10000 2.06 170 09:41 22.05.2022
1348 Clouds 13 1013 80 10000 2.57 180 08:21 22.05.2022
1349 Clouds 12 1014 81 10000 2.06 180 07:21 22.05.2022
1350 Clouds 12 1015 78 10000 2.57 190 05:22 22.05.2022
1351 Clouds 12 1016 78 10000 2.06 170 01:26 22.05.2022
1352 Clouds 12 1016 72 10000 2.57 210 00:39 22.05.2022
1353 Clouds 13 1018 71 10000 2.06 220 23:50 21.05.2022
1354 Clouds 15 1017 65 10000 2.06 240 22:26 21.05.2022
1355 Clouds 15 1018 68 10000 1.54 230 21:41 21.05.2022
1356 Clouds 17 1018 64 10000 2.06 210 20:51 21.05.2022
1357 Clouds 17 1018 66 10000 1.54 200 20:21 21.05.2022
1358 Clouds 17 1017 63 10000 2.57 250 19:25 21.05.2022
1359 Clouds 17 1019 62 10000 3.6 270 17:47 21.05.2022
1360 Clouds 17 1018 61 10000 5.14 240 15:44 21.05.2022
1361 Clouds 17 1019 62 10000 6.17 240 14:37 21.05.2022
1362 Clouds 16 1018 64 10000 5.66 230 13:41 21.05.2022
1363 Clouds 16 1019 66 10000 3.6 220 12:41 21.05.2022
1364 Clouds 14 1019 73 10000 3.6 250 11:56 21.05.2022
1365 Clouds 13 1019 79 10000 2.57 210 10:22 21.05.2022
1366 Clouds 12 1019 84 10000 2.06 200 09:38 21.05.2022
1367 Clouds 12 1018 85 10000 0.89 256 08:52 21.05.2022
1368 Clouds 11 1017 88 10000 0.45 315 06:28 21.05.2022
1369 Clouds 12 1016 92 10000 4.12 220 02:26 21.05.2022
1370 Clouds 12 1014 87 10000 4.12 230 23:47 20.05.2022
1371 Clouds 13 1014 87 10000 4.63 230 22:42 20.05.2022
1372 Clouds 13 1013 88 10000 3.09 230 22:23 20.05.2022
1373 Clouds 14 1013 83 10000 7.2 240 21:32 20.05.2022
1374 Clouds 14 1012 83 10000 8.23 230 20:53 20.05.2022
1375 Clouds 14 1012 83 10000 2.06 190 19:56 20.05.2022
1376 Rain 14 1012 82 10000 1.03 0 18:59 20.05.2022
1377 Rain 14 1012 79 10000 2.06 230 18:27 20.05.2022
1378 Clouds 17 1014 67 10000 3.6 220 16:51 20.05.2022
1379 Clouds 15 1014 71 10000 3.6 210 15:57 20.05.2022
1380 Clouds 15 1014 71 10000 3.6 210 15:39 20.05.2022
1381 Clouds 15 1015 71 10000 4.63 210 14:29 20.05.2022
1382 Clouds 15 1014 72 10000 4.12 210 13:44 20.05.2022
1383 Clouds 14 1016 69 10000 2.57 200 10:56 20.05.2022
1384 Clouds 13 1016 73 10000 2.06 180 09:50 20.05.2022
1385 Clouds 11 1017 82 10000 1.54 190 08:38 20.05.2022
1386 Clouds 10 1016 83 10000 1.54 150 06:45 20.05.2022
1387 Clouds 10 1017 83 10000 1.03 0 05:53 20.05.2022
1388 Clouds 10 1018 81 10000 1.54 160 03:53 20.05.2022
1389 Clouds 13 1019 65 10000 1.54 310 23:54 19.05.2022
1390 Clouds 14 1019 61 10000 2.57 300 22:44 19.05.2022
1391 Clouds 15 1019 59 10000 1.86 279 21:53 19.05.2022
1392 Clouds 16 1018 53 10000 2.57 300 21:24 19.05.2022
1393 Clouds 17 1018 52 10000 3.09 300 20:54 19.05.2022
1394 Clouds 18 1018 50 10000 3.6 280 20:20 19.05.2022
1395 Clouds 19 1017 46 10000 2.06 220 19:25 19.05.2022
1396 Clouds 19 1018 45 10000 2.57 240 17:47 19.05.2022
1397 Clouds 19 1018 45 10000 2.57 240 17:47 19.05.2022
1398 Clouds 19 1018 47 10000 2.06 0 16:22 19.05.2022
1399 Clouds 17 1018 55 10000 3.09 290 14:50 19.05.2022
1400 Clouds 17 1019 58 10000 2.57 260 14:21 19.05.2022
1401 Clouds 17 1019 58 10000 2.57 260 14:21 19.05.2022
1402 Clouds 14 1018 71 10000 3.09 260 12:19 19.05.2022
1403 Clouds 13 1016 83 10000 2.57 260 10:31 19.05.2022
1404 Clouds 12 1015 92 10000 2.06 210 08:46 19.05.2022
1405 Clouds 11 1015 94 10000 1.54 190 07:33 19.05.2022
1406 Clouds 11 1014 91 10000 2.06 200 04:23 19.05.2022
1407 Clouds 13 1014 88 10000 2.57 180 01:28 19.05.2022
1408 Clouds 13 1014 86 10000 3.09 200 23:43 18.05.2022
1409 Clouds 14 1014 78 10000 3.6 190 22:44 18.05.2022
1410 Rain 16 1015 78 10000 4.76 177 21:45 18.05.2022
1411 Rain 17 1013 64 10000 1.54 140 21:24 18.05.2022
1412 Clouds 18 1013 59 10000 2.06 160 20:22 18.05.2022
1413 Clouds 19 1014 57 10000 2.06 170 19:18 18.05.2022
1414 Clouds 19 1015 54 10000 3.6 180 18:18 18.05.2022
1415 Clouds 20 1015 52 10000 3.6 190 17:40 18.05.2022
1416 Clouds 20 1016 52 10000 4.12 180 17:22 18.05.2022
1417 Clouds 20 1016 51 10000 2.68 97 15:58 18.05.2022
1418 Clouds 20 1016 53 10000 4.63 170 15:35 18.05.2022
1419 Clouds 19 1018 58 10000 2.57 190 14:25 18.05.2022
1420 Clouds 18 1018 60 10000 3.09 190 12:58 18.05.2022
1421 Clouds 17 1018 62 10000 1.34 107 12:25 18.05.2022
1422 Clouds 17 1018 63 10000 3.6 210 11:33 18.05.2022
1423 Clouds 16 1018 66 10000 2.57 220 10:48 18.05.2022
1424 Clouds 12 1017 84 10000 1.79 135 08:25 18.05.2022
1425 Clouds 11 1016 86 10000 1.54 0 07:27 18.05.2022
1426 Clouds 11 1015 88 10000 2.57 180 04:26 18.05.2022
1427 Clouds 13 1014 80 10000 4.12 220 00:51 18.05.2022
1428 Clouds 16 1013 89 10000 4.12 190 23:41 17.05.2022
1429 Clouds 18 1011 84 10000 4.12 180 21:23 17.05.2022
1430 Clouds 18 1010 82 10000 3.09 180 20:44 17.05.2022
1431 Clouds 20 1010 60 10000 3.6 140 19:45 17.05.2022
1432 Clouds 21 1011 63 10000 3.6 130 19:24 17.05.2022
1433 Clouds 22 1011 59 10000 3.6 0 17:49 17.05.2022
1434 Clouds 22 1013 58 10000 3.6 170 16:57 17.05.2022
1435 Clouds 22 1013 58 10000 4.12 180 15:59 17.05.2022
1436 Clouds 21 1014 62 10000 3.6 190 14:55 17.05.2022
1437 Clouds 20 1014 62 10000 2.57 180 14:28 17.05.2022
1438 Clouds 20 1015 64 10000 3.13 142 13:24 17.05.2022
1439 Clouds 17 1016 74 10000 3.09 180 10:42 17.05.2022
1440 Clouds 14 1016 87 10000 2.06 170 08:51 17.05.2022
1441 Clouds 12 1016 91 10000 2.06 160 07:55 17.05.2022
1442 Clouds 12 1015 91 10000 1.54 0 06:23 17.05.2022
1443 Clouds 12 1015 91 10000 1.03 130 01:23 17.05.2022
1444 Clouds 13 1014 89 10000 1.54 180 23:46 16.05.2022
1445 Clouds 15 1014 84 10000 1.03 0 22:39 16.05.2022
1446 Clouds 16 1013 85 10000 3.09 220 21:24 16.05.2022
1447 Clouds 17 1013 80 10000 4.63 210 20:42 16.05.2022
1448 Rain 19 1011 80 10000 0.51 0 18:51 16.05.2022
1449 Clouds 20 1012 64 10000 2.06 0 17:18 16.05.2022
1450 Clouds 19 1012 72 10000 3.09 180 15:35 16.05.2022
1451 Clouds 18 1012 87 10000 2.06 180 13:48 16.05.2022
1452 Clouds 15 1011 94 10000 1.54 170 12:41 16.05.2022
1453 Clouds 14 1010 88 9000 1.54 200 10:36 16.05.2022
1454 Clouds 13 1009 92 10000 1.54 90 07:59 16.05.2022
1455 Clouds 13 1009 88 10000 2.57 90 05:46 16.05.2022
1456 Rain 13 1011 91 7000 3.6 80 01:43 16.05.2022
1457 Clouds 16 1012 73 10000 2.57 90 22:44 15.05.2022
1458 Clouds 17 1012 72 10000 2.57 120 21:59 15.05.2022
1459 Clouds 17 1013 73 10000 2.57 120 21:36 15.05.2022
1460 Clouds 17 1013 71 10000 2.06 110 20:47 15.05.2022
1461 Clouds 19 1013 63 10000 2.57 110 18:46 15.05.2022
1462 Clouds 20 1014 62 10000 3.6 120 16:54 15.05.2022
1463 Clouds 21 1015 52 10000 3.6 0 14:34 15.05.2022
1464 Clouds 18 1016 55 10000 3.6 80 13:46 15.05.2022
1465 Clouds 15 1017 67 10000 2.06 0 11:59 15.05.2022
1466 Clouds 15 1017 67 10000 1.54 120 10:49 15.05.2022
1467 Clouds 14 1017 77 10000 1.54 100 09:51 15.05.2022
1468 Clouds 14 1017 75 10000 2.06 90 07:23 15.05.2022
1469 Clouds 13 1017 77 10000 1.82 97 06:55 15.05.2022
1470 Clouds 14 1017 72 10000 1.03 0 02:55 15.05.2022
1471 Clear 15 1018 66 10000 1.54 110 00:24 15.05.2022
1472 Clear 15 1019 66 10000 1.54 90 23:36 14.05.2022
1473 Clear 16 1019 70 10000 0.93 94 21:50 14.05.2022
1474 Clear 19 1018 54 10000 1.03 50 21:25 14.05.2022
1475 Clouds 21 1019 46 10000 1.03 0 20:26 14.05.2022
1476 Clouds 21 1019 46 10000 1.54 220 19:20 14.05.2022
1477 Clouds 21 1019 49 10000 1.54 250 18:57 14.05.2022
1478 Clouds 21 1019 48 10000 1.54 270 17:44 14.05.2022
1479 Haze 21 1020 49 2900 1.54 0 15:58 14.05.2022
1480 Clouds 19 1021 56 10000 1.54 0 14:38 14.05.2022
1481 Clouds 19 1021 56 10000 1.54 0 14:38 14.05.2022
1482 Clouds 18 1020 59 10000 2.57 260 13:27 14.05.2022
1483 Clouds 16 1020 68 10000 2.57 260 11:45 14.05.2022
1484 Clouds 15 1020 74 10000 3.09 270 10:43 14.05.2022
1485 Clouds 14 1020 76 10000 2.06 230 10:18 14.05.2022
1486 Clouds 13 1020 85 10000 1.54 190 09:23 14.05.2022
1487 Clouds 11 1019 89 10000 1.54 170 07:26 14.05.2022
1488 Clouds 11 1018 86 10000 2.57 190 04:32 14.05.2022
1489 Clouds 12 1018 80 10000 0.45 238 00:27 14.05.2022
1490 Clouds 13 1018 77 10000 3.37 240 23:25 13.05.2022
1491 Clouds 13 1018 75 10000 2.06 200 22:54 13.05.2022
1492 Clouds 14 1017 73 10000 2.06 210 22:21 13.05.2022
1493 Clouds 16 1017 62 10000 5.66 250 20:58 13.05.2022
1494 Clouds 16 1017 60 10000 6.17 240 20:32 13.05.2022
1495 Clouds 17 1016 58 10000 6.17 250 19:51 13.05.2022
1496 Clouds 17 1016 55 10000 7.2 250 18:47 13.05.2022
1497 Clouds 17 1015 57 10000 8.23 250 17:29 13.05.2022
1498 Clouds 17 1015 59 10000 9.26 240 16:29 13.05.2022
1499 Clouds 17 1015 60 10000 8.75 240 15:45 13.05.2022
1500 Clouds 16 1015 57 10000 7.72 250 14:29 13.05.2022
1501 Clouds 15 1015 60 10000 7.2 240 12:47 13.05.2022
1502 Clouds 14 1015 64 10000 6.69 240 11:39 13.05.2022
1503 Clouds 12 1015 71 10000 3.6 220 09:43 13.05.2022
1504 Clouds 12 1015 73 10000 5.14 230 08:51 13.05.2022
1505 Clouds 11 1014 75 10000 4.63 220 07:49 13.05.2022
1506 Clouds 11 1014 74 10000 4.12 210 06:44 13.05.2022
1507 Clouds 11 1014 75 10000 4.12 220 04:54 13.05.2022
1508 Clouds 11 1014 76 10000 4.12 210 00:42 13.05.2022
1509 Clouds 12 1013 68 10000 3.6 210 22:47 12.05.2022
1510 Clouds 12 1013 68 10000 3.6 210 22:29 12.05.2022
1511 Clouds 13 1014 59 10000 5.14 220 20:41 12.05.2022
1512 Clouds 14 1014 52 10000 6.69 250 19:24 12.05.2022
1513 Clouds 15 1014 52 10000 6.69 250 18:19 12.05.2022
1514 Clouds 15 1015 49 10000 8.23 250 16:34 12.05.2022
1515 Clouds 15 1016 58 10000 4.63 260 14:51 12.05.2022
1516 Clouds 14 1016 57 10000 6.17 260 13:47 12.05.2022
1517 Clouds 12 1016 79 10000 6.17 260 11:25 12.05.2022
1518 Clouds 11 1015 81 10000 3.6 230 09:37 12.05.2022
1519 Clouds 10 1015 84 10000 2.57 200 08:52 12.05.2022
1520 Clouds 9 1014 88 10000 2.06 180 07:57 12.05.2022
1521 Clouds 8 1014 87 10000 2.06 180 06:55 12.05.2022
1522 Clouds 9 1013 84 10000 2.06 170 03:31 12.05.2022
1523 Clear 10 1012 77 10000 2.06 180 00:41 12.05.2022
1524 Clear 11 1010 71 10000 0.45 18 22:41 11.05.2022
1525 Clear 12 1010 66 10000 2.57 250 21:56 11.05.2022
1526 Clear 13 1009 60 10000 3.6 280 21:24 11.05.2022
1527 Clouds 14 1008 58 10000 7.2 280 19:42 11.05.2022
1528 Clouds 14 1005 64 10000 9.26 280 17:24 11.05.2022
1529 Clouds 14 1005 78 10000 3.6 250 15:59 11.05.2022
1530 Rain 13 1004 86 10000 3.09 230 14:39 11.05.2022
1531 Clouds 13 1004 86 10000 3.09 230 14:39 11.05.2022
1532 Clouds 12 1004 90 10000 2.57 230 14:19 11.05.2022
1533 Rain 11 1005 92 6000 2.57 200 11:55 11.05.2022
1534 Rain 11 1005 93 10000 2.57 190 11:30 11.05.2022
1535 Rain 11 1004 92 9000 3.6 210 08:55 11.05.2022
1536 Rain 11 1005 78 10000 3.09 200 05:45 11.05.2022
1537 Clouds 12 1008 67 10000 4.12 210 01:28 11.05.2022
1538 Clouds 13 1010 56 10000 5.14 230 22:32 10.05.2022
1539 Clouds 14 1009 56 10000 5.66 220 21:58 10.05.2022
1540 Clouds 14 1010 55 10000 4.12 230 20:58 10.05.2022
1541 Clouds 15 1011 51 10000 5.66 250 20:21 10.05.2022
1542 Clouds 17 1011 46 10000 10.29 230 18:35 10.05.2022
1543 Clouds 17 1010 50 10000 8.75 230 17:37 10.05.2022
1544 Clouds 17 1010 59 10000 9.26 240 15:43 10.05.2022
1545 Clouds 15 1010 71 10000 1.34 131 12:48 10.05.2022
1546 Clouds 15 1010 67 10000 5.14 220 11:51 10.05.2022
1547 Clouds 15 1011 72 10000 4.63 220 11:21 10.05.2022
1548 Clouds 14 1010 70 10000 4.63 210 10:54 10.05.2022
1549 Clouds 13 1010 70 10000 5.14 230 09:27 10.05.2022
1550 Clouds 12 1010 74 10000 5.14 220 07:32 10.05.2022
1551 Clouds 13 1010 81 10000 4.12 210 04:34 10.05.2022
1552 Clouds 14 1012 69 10000 4.63 200 01:36 10.05.2022
1553 Clouds 15 1013 66 10000 4.63 200 23:37 09.05.2022
1554 Clouds 15 1013 60 10000 5.14 210 22:29 09.05.2022
1555 Rain 16 1013 59 10000 7.2 210 21:21 09.05.2022
1556 Clouds 17 1014 64 10000 3.09 200 19:37 09.05.2022
1557 Clear 17 1015 61 10000 3.58 141 17:56 09.05.2022
1558 Clouds 17 1016 60 10000 4.12 180 16:49 09.05.2022
1559 Clouds 17 1017 58 10000 3.6 190 15:53 09.05.2022
1560 Rain 17 1017 56 10000 3.09 180 15:31 09.05.2022
1561 Clouds 17 1018 52 10000 4.12 180 14:32 09.05.2022
1562 Clouds 18 1018 55 10000 4.63 190 13:50 09.05.2022
1563 Clouds 17 1020 55 10000 4.12 190 12:30 09.05.2022
1564 Clouds 16 1020 52 10000 3.09 180 11:43 09.05.2022
1565 Clouds 15 1021 57 10000 3.09 170 10:44 09.05.2022
1566 Clouds 14 1021 66 10000 2.06 160 09:38 09.05.2022
1567 Clouds 11 1023 77 10000 2.06 170 07:54 09.05.2022
1568 Clouds 12 1024 72 10000 2.57 180 03:40 09.05.2022
1569 Clouds 14 1025 68 10000 2.06 130 00:20 09.05.2022
1570 Clouds 14 1026 69 10000 1.54 130 22:56 08.05.2022
1571 Clouds 15 1026 68 10000 0.51 0 21:56 08.05.2022
1572 Clear 17 1026 60 10000 2.57 200 20:37 08.05.2022
1573 Clouds 18 1026 56 10000 2.06 190 19:45 08.05.2022
1574 Clouds 19 1026 59 10000 2.57 170 18:54 08.05.2022
1575 Clouds 19 1026 57 10000 3.09 190 18:18 08.05.2022
1576 Clouds 18 1027 61 10000 2.57 190 16:56 08.05.2022
1577 Clouds 16 1028 64 10000 1.54 0 15:40 08.05.2022
1578 Clouds 15 1028 68 10000 2.06 0 14:57 08.05.2022
1579 Clouds 13 1029 70 10000 2.57 160 12:33 08.05.2022
1580 Clouds 12 1029 72 10000 1.54 130 10:32 08.05.2022
1581 Clouds 11 1029 75 10000 1.03 0 09:58 08.05.2022
1582 Clouds 11 1029 75 10000 1.03 0 09:58 08.05.2022
1583 Clouds 10 1029 79 10000 0.51 0 08:57 08.05.2022
1584 Clouds 8 1028 83 10000 1.03 70 07:25 08.05.2022
1585 Clouds 9 1028 70 10000 1.03 0 03:40 08.05.2022
1586 Clouds 9 1028 69 10000 2.06 70 02:47 08.05.2022
1587 Clouds 11 1028 74 10000 2.57 80 00:28 08.05.2022
1588 Clouds 12 1028 75 10000 2.57 90 23:50 07.05.2022
1589 Clouds 12 1028 76 10000 2.57 80 22:46 07.05.2022
1590 Clouds 13 1027 75 10000 3.09 80 21:59 07.05.2022
1591 Clouds 13 1027 74 10000 3.09 80 21:34 07.05.2022
1592 Clouds 15 1027 70 10000 3.6 80 20:28 07.05.2022
1593 Clouds 16 1027 65 10000 2.06 80 19:23 07.05.2022
1594 Clouds 16 1027 63 10000 2.57 60 17:35 07.05.2022
1595 Clouds 17 1027 60 10000 2.57 310 15:46 07.05.2022
1596 Clouds 16 1027 63 10000 1.03 0 13:39 07.05.2022
1597 Clouds 13 1026 89 10000 1.54 310 10:41 07.05.2022
1598 Clouds 10 1026 95 10000 2.57 290 08:57 07.05.2022
1599 Clouds 10 1025 97 8000 2.06 280 07:50 07.05.2022
1600 Mist 9 1025 94 5000 2.06 290 06:43 07.05.2022
1601 Mist 10 1024 96 4900 1.54 280 04:35 07.05.2022
1602 Clouds 12 1023 95 10000 3.09 320 01:19 07.05.2022
1603 Clouds 12 1022 95 4900 0.51 190 23:36 06.05.2022
1604 Clouds 13 1022 95 6000 1.03 0 22:26 06.05.2022
1605 Rain 13 1022 93 10000 1.54 190 21:41 06.05.2022
1606 Rain 13 1022 92 9000 1.54 200 20:24 06.05.2022
1607 Rain 13 1022 91 10000 2.57 220 19:29 06.05.2022
1608 Rain 13 1022 91 10000 2.57 220 19:29 06.05.2022
1609 Rain 14 1022 89 7000 3.09 220 18:54 06.05.2022
1610 Rain 15 1022 77 10000 6.17 240 17:38 06.05.2022
1611 Clouds 16 1022 71 10000 4.63 230 15:56 06.05.2022
1612 Clouds 16 1022 72 10000 4.63 230 15:38 06.05.2022
1613 Clouds 16 1022 71 10000 7.72 250 14:23 06.05.2022
1614 Clouds 16 1022 71 10000 4.63 220 12:53 06.05.2022
1615 Clouds 16 1023 75 10000 3.6 230 12:30 06.05.2022
1616 Clouds 15 1022 75 10000 2.57 220 11:33 06.05.2022
1617 Clouds 13 1023 77 10000 3.09 190 09:49 06.05.2022
1618 Clouds 12 1023 79 10000 2.06 190 09:19 06.05.2022
1619 Clouds 12 1023 83 10000 2.57 180 07:56 06.05.2022
1620 Clouds 11 1024 84 10000 2.06 190 06:29 06.05.2022
1621 Clouds 12 1023 84 10000 2.06 170 04:32 06.05.2022
1622 Clouds 12 1023 83 10000 0.51 0 02:40 06.05.2022
1623 Clouds 12 1024 75 10000 1.03 280 23:25 05.05.2022
1624 Clouds 14 1025 72 10000 1.54 270 21:51 05.05.2022
1625 Clouds 16 1024 67 10000 4.63 290 20:37 05.05.2022
1626 Clouds 17 1024 68 10000 4.63 280 19:20 05.05.2022
1627 Clouds 18 1024 59 10000 3.09 290 16:49 05.05.2022
1628 Clouds 18 1023 58 10000 4.12 290 15:46 05.05.2022
1629 Clouds 17 1023 63 10000 3.6 270 13:41 05.05.2022
1630 Clouds 16 1023 67 10000 3.09 270 13:18 05.05.2022
1631 Clouds 14 1023 73 10000 2.57 260 11:42 05.05.2022
1632 Clouds 12 1023 88 10000 2.06 240 09:46 05.05.2022
1633 Clouds 11 1022 93 10000 1.03 0 08:54 05.05.2022
1634 Clouds 9 1021 92 10000 2.57 290 06:28 05.05.2022
1635 Clouds 9 1020 84 10000 1.54 310 02:27 05.05.2022
1636 Clouds 9 1020 85 10000 2.06 280 01:44 05.05.2022
1637 Clouds 10 1020 84 10000 1.03 0 00:49 05.05.2022
1638 Clouds 10 1020 82 10000 1.34 325 23:18 04.05.2022
1639 Clouds 11 1019 79 10000 5.14 280 21:59 04.05.2022
1640 Clouds 12 1019 78 10000 5.14 280 21:34 04.05.2022
1641 Clouds 12 1018 75 10000 4.12 280 20:52 04.05.2022
1642 Clouds 12 1018 72 10000 3.6 290 20:18 04.05.2022
1643 Clouds 12 1018 74 10000 4.12 290 19:35 04.05.2022
1644 Clouds 12 1017 82 10000 5.66 290 18:42 04.05.2022
1645 Clouds 12 1017 85 10000 6.69 290 18:18 04.05.2022
1646 Clouds 13 1018 84 10000 6.69 290 16:36 04.05.2022
1647 Clouds 12 1017 89 9000 5.66 290 15:32 04.05.2022
1648 Clouds 13 1017 89 10000 6.69 280 14:41 04.05.2022
1649 Clouds 13 1016 91 10000 6.17 280 14:19 04.05.2022
1650 Clouds 12 1016 95 10000 2.57 230 12:39 04.05.2022
1651 Rain 12 1016 95 7000 2.06 200 11:28 04.05.2022
1652 Clouds 11 1016 97 4500 2.06 190 09:57 04.05.2022
1653 Clouds 10 1016 95 5000 1.54 180 09:20 04.05.2022
1654 Clouds 10 1016 95 4000 1.03 0 07:51 04.05.2022
1655 Rain 11 1017 90 4700 2.06 190 04:45 04.05.2022
1656 Clouds 11 1017 87 8000 1.03 0 02:33 04.05.2022
1657 Clouds 12 1019 84 10000 1.03 170 22:59 03.05.2022
1658 Clouds 13 1018 79 10000 1.54 200 21:50 03.05.2022
1659 Clouds 13 1019 80 10000 1.54 210 21:23 03.05.2022
1660 Clouds 14 1020 75 10000 1.54 200 20:39 03.05.2022
1661 Clouds 14 1020 73 10000 1.54 170 19:32 03.05.2022
1662 Clouds 14 1020 77 10000 1.54 180 18:43 03.05.2022
1663 Clouds 14 1020 72 10000 1.54 180 17:21 03.05.2022
1664 Clouds 14 1020 74 10000 1.54 0 15:51 03.05.2022
1665 Clouds 13 1021 74 10000 2.06 180 14:23 03.05.2022
1666 Clouds 12 1021 80 10000 1.03 0 12:35 03.05.2022
1667 Clouds 10 1022 83 10000 1.34 137 11:24 03.05.2022
1668 Clouds 9 1022 84 10000 0.51 0 10:26 03.05.2022
1669 Clouds 9 1021 87 10000 0.51 70 08:19 03.05.2022
1670 Clouds 8 1021 89 10000 0.51 60 06:45 03.05.2022
1671 Clouds 9 1022 94 6000 2.06 60 01:59 03.05.2022
1672 Rain 11 1022 90 4000 3.6 50 22:56 02.05.2022
1673 Rain 12 1022 88 7000 2.57 50 22:28 02.05.2022
1674 Clouds 12 1021 90 10000 4.63 30 21:27 02.05.2022
1675 Clouds 14 1020 78 10000 2.57 310 19:22 02.05.2022
1676 Clouds 15 1020 74 10000 2.06 310 18:25 02.05.2022
1677 Clouds 14 1021 77 10000 3.09 310 17:38 02.05.2022
1678 Clouds 15 1020 72 10000 2.57 300 16:37 02.05.2022
1679 Clouds 15 1021 70 10000 2.06 330 15:41 02.05.2022
1680 Clouds 15 1022 76 10000 2.06 280 14:27 02.05.2022
1681 Clouds 15 1021 77 8000 1.54 320 13:19 02.05.2022
1682 Clouds 13 1021 83 9000 0.51 0 11:41 02.05.2022
1683 Clouds 12 1020 90 8000 0.51 0 09:32 02.05.2022
1684 Clouds 11 1020 91 6000 0.51 110 07:57 02.05.2022
1685 Clouds 10 1021 91 7000 0.51 0 06:31 02.05.2022
1686 Clouds 12 1020 85 10000 1.03 170 00:44 02.05.2022
1687 Clouds 12 1020 84 10000 1.03 0 00:21 02.05.2022
1688 Clouds 12 1020 82 10000 1.03 180 22:53 01.05.2022
1689 Clouds 12 1021 82 10000 0.51 0 21:41 01.05.2022
1690 Clouds 13 1020 77 10000 1.54 200 20:30 01.05.2022
1691 Clouds 13 1020 77 10000 2.06 190 19:21 01.05.2022
1692 Clouds 13 1020 75 10000 2.06 200 18:52 01.05.2022
1693 Clouds 13 1020 75 10000 2.06 190 17:49 01.05.2022
1694 Clouds 14 1020 74 10000 3.6 180 16:29 01.05.2022
1695 Clouds 13 1021 75 10000 2.06 200 15:46 01.05.2022
1696 Clouds 13 1021 76 10000 1.54 160 14:45 01.05.2022
1697 Clouds 11 1022 90 10000 2.06 200 12:24 01.05.2022
1698 Clouds 9 1021 91 10000 0.45 103 10:22 01.05.2022
1699 Rain 8 1021 94 7000 2.57 180 08:49 01.05.2022
1700 Drizzle 8 1021 95 2200 1.54 190 06:31 01.05.2022
1701 Clouds 9 1024 87 10000 1.03 0 01:56 01.05.2022
1702 Rain 11 1025 76 10000 1.54 280 22:18 30.04.2022
1703 Rain 11 1024 74 10000 3.09 320 21:32 30.04.2022
1704 Clouds 13 1026 65 10000 3.6 300 19:53 30.04.2022
1705 Clouds 14 1026 51 10000 5.14 300 18:53 30.04.2022
1706 Clouds 15 1027 50 10000 3.6 230 17:26 30.04.2022
1707 Clouds 16 1028 46 10000 3.6 220 15:51 30.04.2022
1708 Clouds 16 1028 48 10000 4.12 210 15:18 30.04.2022
1709 Clouds 16 1029 48 10000 3.6 230 13:52 30.04.2022
1710 Clouds 14 1030 56 10000 2.06 210 11:41 30.04.2022
1711 Clouds 12 1030 60 10000 1.54 210 10:56 30.04.2022
1712 Clouds 10 1030 67 10000 1.54 190 09:54 30.04.2022
1713 Clouds 4 1030 84 10000 1.03 110 07:47 30.04.2022
1714 Clear 5 1031 81 10000 1.03 0 03:58 30.04.2022
1715 Clear 9 1032 66 10000 1.54 110 23:55 29.04.2022
1716 Clear 10 1031 59 10000 1.54 90 22:37 29.04.2022
1717 Clear 11 1032 56 10000 1.54 100 21:56 29.04.2022
1718 Clear 13 1031 51 10000 2.06 100 21:24 29.04.2022
1719 Clouds 14 1031 44 10000 1.54 120 19:55 29.04.2022
1720 Clear 15 1031 43 10000 2.57 120 19:26 29.04.2022
1721 Clear 16 1031 42 10000 2.06 120 17:34 29.04.2022
1722 Clear 16 1032 44 10000 1.03 0 16:36 29.04.2022
1723 Clear 14 1033 48 10000 2.06 60 14:34 29.04.2022
1724 Clouds 14 1033 48 10000 2.57 20 13:36 29.04.2022
1725 Clouds 12 1034 52 10000 2.06 0 12:36 29.04.2022
1726 Clear 10 1032 62 10000 1.54 80 10:29 29.04.2022
1727 Clouds 5 1032 86 10000 1.03 80 07:52 29.04.2022
1728 Clouds 5 1032 86 10000 1.54 60 07:25 29.04.2022
1729 Clouds 5 1032 82 10000 1.54 50 06:29 29.04.2022
1730 Clouds 8 1032 72 10000 1.54 90 00:52 29.04.2022
1731 Clouds 9 1032 70 10000 1.03 80 23:55 28.04.2022
1732 Clouds 9 1032 68 10000 1.03 0 23:25 28.04.2022
1733 Clouds 9 1032 65 10000 1.03 0 22:19 28.04.2022
1734 Clouds 9 1032 64 10000 1.03 0 21:41 28.04.2022
1735 Clouds 10 1032 65 10000 2.06 80 20:43 28.04.2022
1736 Clouds 10 1031 62 10000 2.06 90 19:49 28.04.2022
1737 Clouds 10 1032 63 10000 2.57 80 19:24 28.04.2022
1738 Clouds 10 1031 63 10000 2.57 70 18:45 28.04.2022
1739 Clouds 10 1032 60 10000 2.06 90 17:32 28.04.2022
1740 Clouds 10 1032 61 10000 2.06 110 16:50 28.04.2022
1741 Clouds 10 1032 60 10000 2.06 0 16:20 28.04.2022
1742 Clouds 10 1032 59 10000 2.06 0 16:20 28.04.2022
1743 Clouds 10 1032 59 10000 2.57 90 15:41 28.04.2022
1744 Clouds 10 1032 59 10000 2.57 80 14:55 28.04.2022
1745 Clouds 10 1032 59 10000 2.06 70 13:23 28.04.2022
1746 Clouds 9 1032 63 10000 3.09 60 12:28 28.04.2022
1747 Clouds 8 1032 63 10000 3.09 50 10:51 28.04.2022
1748 Clouds 8 1032 64 10000 2.06 60 10:26 28.04.2022
1749 Clouds 8 1032 65 10000 1.54 60 09:41 28.04.2022
1750 Clouds 7 1031 69 10000 1.54 60 07:38 28.04.2022
1751 Clouds 6 1032 68 10000 1.54 70 06:37 28.04.2022
1752 Clouds 6 1032 68 10000 1.03 0 05:39 28.04.2022
1753 Clouds 6 1032 65 10000 1.03 90 04:41 28.04.2022
1754 Clouds 7 1032 63 10000 2.57 80 00:36 28.04.2022
1755 Clouds 8 1031 62 10000 2.57 80 22:49 27.04.2022
1756 Clouds 9 1030 57 10000 2.57 90 21:57 27.04.2022
1757 Clouds 9 1029 55 10000 2.06 0 21:29 27.04.2022
1758 Clouds 10 1029 54 10000 2.57 100 20:43 27.04.2022
1759 Clouds 12 1028 49 10000 2.57 120 19:39 27.04.2022
1760 Clouds 12 1028 49 10000 2.57 120 19:39 27.04.2022
1761 Clouds 12 1028 49 10000 2.57 120 19:39 27.04.2022
1762 Clouds 12 1028 49 10000 2.57 120 19:39 27.04.2022
1763 Clouds 12 1028 48 10000 2.06 90 19:19 27.04.2022
1764 Clouds 12 1029 51 10000 3.09 90 18:35 27.04.2022
1765 Clouds 13 1028 46 10000 2.57 0 17:26 27.04.2022
1766 Clouds 12 1028 48 10000 1.54 0 15:43 27.04.2022
1767 Clouds 10 1029 53 10000 3.09 70 12:31 27.04.2022
1768 Clouds 9 1029 56 10000 3.6 60 11:23 27.04.2022
1769 Clear 8 1028 63 10000 4.12 50 09:59 27.04.2022
1770 Clouds 5 1027 87 10000 0 0 07:25 27.04.2022
1771 Clouds 4 1027 87 10000 0.51 0 05:50 27.04.2022
1772 Clouds 6 1026 76 10000 0.51 0 01:52 27.04.2022
1773 Clouds 7 1026 75 10000 3.09 60 00:52 27.04.2022
1774 Clouds 8 1025 72 10000 1.54 70 23:57 26.04.2022
1775 Clouds 8 1025 73 10000 2.57 60 23:23 26.04.2022
1776 Clouds 8 1025 71 10000 3.6 60 22:41 26.04.2022
1777 Clouds 10 1024 67 10000 3.09 70 21:48 26.04.2022
1778 Clouds 11 1024 59 10000 3.09 70 20:54 26.04.2022
1779 Clouds 12 1024 56 10000 3.09 70 20:34 26.04.2022
1780 Clouds 13 1024 54 10000 4.63 60 19:33 26.04.2022
1781 Clouds 14 1023 47 10000 2.06 90 18:51 26.04.2022
1782 Clouds 13 1023 48 10000 3.09 80 18:18 26.04.2022
1783 Clouds 14 1023 47 10000 2.57 40 17:22 26.04.2022
1784 Clouds 14 1024 50 10000 2.06 0 14:28 26.04.2022
1785 Clouds 13 1024 56 10000 1.54 80 13:33 26.04.2022
1786 Clouds 12 1023 59 10000 1.54 0 11:58 26.04.2022
1787 Clouds 10 1022 68 10000 1.03 0 10:44 26.04.2022
1788 Clouds 9 1022 73 10000 1.03 0 09:36 26.04.2022
1789 Clouds 6 1021 82 10000 1.03 60 07:54 26.04.2022
1790 Clouds 7 1021 84 10000 2.57 60 04:33 26.04.2022
1791 Clouds 8 1020 78 10000 2.06 70 01:30 26.04.2022
1792 Clouds 9 1020 77 10000 1.54 70 00:26 26.04.2022
1793 Clouds 9 1020 75 10000 2.57 70 22:46 25.04.2022
1794 Clouds 10 1019 69 10000 1.54 100 21:42 25.04.2022
1795 Clouds 12 1018 63 10000 2.06 90 20:40 25.04.2022
1796 Clouds 13 1017 51 10000 2.06 90 18:58 25.04.2022
1797 Clouds 13 1017 51 10000 2.57 70 17:54 25.04.2022
1798 Clouds 13 1017 55 10000 2.57 50 16:59 25.04.2022
1799 Clouds 12 1017 57 10000 3.09 40 15:29 25.04.2022
1800 Clouds 12 1018 62 10000 3.77 75 14:42 25.04.2022
1801 Clouds 11 1017 68 10000 2.57 70 13:33 25.04.2022
1802 Clouds 9 1017 63 10000 1.54 0 11:38 25.04.2022
1803 Clouds 8 1016 70 10000 2.57 40 10:26 25.04.2022
1804 Clouds 6 1016 87 10000 3.6 30 08:39 25.04.2022
1805 Clouds 4 1016 88 10000 2.06 40 06:39 25.04.2022
1806 Clouds 5 1016 82 10000 2.57 40 04:27 25.04.2022
1807 Clouds 8 1015 70 10000 2.57 60 00:57 25.04.2022
1808 Clouds 8 1015 72 10000 4.63 60 23:51 24.04.2022
1809 Clouds 9 1014 72 10000 4.63 50 22:43 24.04.2022
1810 Clouds 9 1014 71 10000 5.66 50 22:20 24.04.2022
1811 Clouds 11 1014 65 10000 5.66 60 21:24 24.04.2022
1812 Clouds 12 1014 59 10000 4.63 70 20:48 24.04.2022
1813 Clouds 13 1013 55 10000 5.14 60 20:29 24.04.2022
1814 Clouds 14 1013 53 10000 6.17 60 19:45 24.04.2022
1815 Clouds 15 1013 47 10000 4.12 70 18:20 24.04.2022
1816 Clouds 15 1013 47 10000 6.17 50 17:27 24.04.2022
1817 Clouds 16 1012 43 10000 5.66 60 16:58 24.04.2022
1818 Clouds 15 1013 45 10000 5.66 60 16:32 24.04.2022
1819 Clouds 15 1013 43 10000 6.17 60 15:54 24.04.2022
1820 Clouds 15 1012 46 10000 5.14 60 14:57 24.04.2022
1821 Clouds 15 1012 48 10000 5.66 60 13:51 24.04.2022
1822 Clouds 15 1012 48 10000 6.17 70 13:23 24.04.2022
1823 Clouds 13 1012 62 10000 5.14 50 11:55 24.04.2022
1824 Clear 12 1011 69 10000 1.34 61 11:27 24.04.2022
1825 Clouds 10 1011 75 10000 8.23 40 09:51 24.04.2022
1826 Clouds 8 1011 81 10000 4.12 40 08:31 24.04.2022
1827 Clear 7 1010 83 10000 6.17 60 05:46 24.04.2022
1828 Clear 8 1010 80 10000 6.17 50 02:59 24.04.2022
1829 Clear 8 1010 79 10000 5.66 50 01:18 24.04.2022
1830 Clear 9 1009 76 10000 7.2 50 23:55 23.04.2022
1831 Clear 9 1009 75 10000 7.2 50 23:25 23.04.2022
1832 Clear 10 1009 72 10000 7.2 50 22:42 23.04.2022
1833 Clear 11 1009 65 10000 5.14 60 21:49 23.04.2022
1834 Clear 12 1008 60 10000 6.69 60 21:30 23.04.2022
1835 Clouds 13 1008 49 10000 7.72 60 20:27 23.04.2022
1836 Clouds 15 1007 46 10000 8.75 60 19:21 23.04.2022
1837 Clouds 15 1007 48 10000 10.29 40 18:55 23.04.2022
1838 Clouds 15 1007 51 10000 7.72 60 18:32 23.04.2022
1839 Clouds 15 1007 52 10000 6.69 70 17:47 23.04.2022
1840 Clouds 16 1007 48 10000 9.26 60 16:46 23.04.2022
1841 Clouds 15 1007 50 10000 8.75 60 15:53 23.04.2022
1842 Clouds 15 1007 50 10000 8.75 60 15:53 23.04.2022
1843 Clouds 13 1008 70 10000 8.23 70 13:33 23.04.2022
1844 Clouds 12 1008 77 10000 7.2 50 11:57 23.04.2022
1845 Clouds 11 1008 77 10000 8.23 50 10:37 23.04.2022
1846 Clouds 9 1008 81 10000 6.17 50 08:27 23.04.2022
1847 Clouds 8 1008 84 10000 4.12 60 04:18 23.04.2022
1848 Clouds 8 1009 82 10000 5.14 40 03:27 23.04.2022
1849 Clouds 9 1010 72 10000 4.12 60 23:37 22.04.2022
1850 Clouds 9 1010 72 10000 5.66 60 23:18 22.04.2022
1851 Clouds 11 1010 68 10000 3.6 70 21:58 22.04.2022
1852 Clouds 11 1010 64 10000 3.6 70 21:39 22.04.2022
1853 Clear 13 1010 52 10000 4.63 80 20:34 22.04.2022
1854 Clouds 15 1010 44 10000 6.69 70 19:26 22.04.2022
1855 Clouds 16 1010 41 10000 7.2 70 18:57 22.04.2022
1856 Clouds 16 1010 41 10000 8.23 60 18:26 22.04.2022
1857 Clouds 17 1011 42 10000 6.69 70 16:57 22.04.2022
1858 Clouds 17 1011 43 10000 7.72 80 15:59 22.04.2022
1859 Clouds 17 1011 42 10000 5.66 70 15:24 22.04.2022
1860 Clouds 17 1010 40 10000 7.2 80 14:38 22.04.2022
1861 Clouds 16 1011 45 10000 4.63 80 13:41 22.04.2022
1862 Clouds 14 1011 62 10000 6.69 50 12:36 22.04.2022
1863 Clouds 13 1011 67 10000 5.14 40 11:23 22.04.2022
1864 Clouds 13 1012 67 10000 4.63 40 10:56 22.04.2022
1865 Clouds 12 1012 69 10000 4.63 40 10:32 22.04.2022
1866 Clouds 11 1012 74 10000 5.66 30 09:57 22.04.2022
1867 Clouds 10 1012 75 10000 6.17 40 09:21 22.04.2022
1868 Clouds 9 1012 78 10000 5.66 40 08:42 22.04.2022
1869 Clouds 8 1012 76 10000 5.14 50 06:38 22.04.2022
1870 Clouds 9 1014 68 10000 3.6 50 00:56 22.04.2022
1871 Clouds 10 1014 67 10000 4.12 50 23:31 21.04.2022
1872 Clouds 11 1014 63 10000 3.6 60 22:36 21.04.2022
1873 Clear 12 1015 54 10000 5.66 50 21:36 21.04.2022
1874 Clouds 14 1014 45 10000 5.66 70 20:30 21.04.2022
1875 Clouds 16 1014 46 10000 3.6 90 18:49 21.04.2022
1876 Clouds 16 1014 46 10000 3.6 90 18:49 21.04.2022
1877 Clouds 17 1014 44 10000 4.63 70 18:26 21.04.2022
1878 Clouds 18 1014 42 10000 4.63 70 17:19 21.04.2022
1879 Clouds 17 1014 44 10000 4.12 0 15:24 21.04.2022
1880 Clear 17 1014 46 10000 4.12 100 14:52 21.04.2022
1881 Clouds 17 1014 42 10000 3.6 0 13:59 21.04.2022
1882 Clouds 16 1015 46 10000 4.63 80 13:21 21.04.2022
1883 Clouds 16 1015 46 10000 4.63 80 13:21 21.04.2022
1884 Clouds 14 1014 45 10000 4.63 70 11:46 21.04.2022
1885 Clouds 10 1014 60 10000 4.12 80 09:33 21.04.2022
1886 Clouds 8 1014 71 10000 3.6 70 08:38 21.04.2022
1887 Clouds 7 1015 78 10000 2.57 70 06:36 21.04.2022
1888 Clouds 8 1015 62 10000 1.54 70 03:39 21.04.2022
1889 Clouds 8 1015 62 10000 1.54 90 03:20 21.04.2022
1890 Clouds 8 1015 60 10000 2.06 110 02:44 21.04.2022
1891 Clouds 10 1015 66 10000 3.6 80 00:27 21.04.2022
1892 Clouds 11 1015 66 10000 3.09 80 23:25 20.04.2022
1893 Clouds 11 1015 63 10000 3.6 80 22:59 20.04.2022
1894 Clouds 11 1015 63 10000 3.6 80 22:59 20.04.2022
1895 Clouds 11 1015 61 10000 3.6 80 22:33 20.04.2022
1896 Clouds 12 1016 47 10000 2.06 80 21:36 20.04.2022
1897 Clouds 14 1016 39 10000 3.09 80 20:43 20.04.2022
1898 Clouds 15 1015 37 10000 2.57 80 20:21 20.04.2022
1899 Clouds 15 1016 41 10000 3.09 0 19:39 20.04.2022
1900 Clouds 16 1016 39 10000 3.09 100 18:45 20.04.2022
1901 Clouds 17 1017 41 10000 3.6 90 17:18 20.04.2022
1902 Clouds 16 1017 41 10000 3.6 100 16:39 20.04.2022
1903 Clouds 16 1018 46 10000 3.09 0 14:55 20.04.2022
1904 Clouds 14 1019 51 10000 2.06 100 12:18 20.04.2022
1905 Clouds 14 1019 54 10000 2.06 90 11:36 20.04.2022
1906 Clouds 11 1019 68 10000 1.54 20 10:30 20.04.2022
1907 Clouds 9 1019 78 10000 2.57 40 09:27 20.04.2022
1908 Clouds 7 1019 80 10000 3.6 40 08:25 20.04.2022
1909 Clouds 7 1019 80 10000 3.6 40 08:25 20.04.2022
1910 Clouds 6 1019 84 10000 3.09 30 07:44 20.04.2022
1911 Clouds 7 1019 76 10000 2.06 360 05:19 20.04.2022
1912 Clouds 8 1021 90 10000 2.06 30 01:20 20.04.2022
1913 Clouds 9 1020 83 10000 2.57 40 00:21 20.04.2022
1914 Clouds 10 1020 86 10000 1.03 20 22:44 19.04.2022
1915 Clouds 10 1020 86 10000 1.03 30 22:22 19.04.2022
1916 Clouds 11 1020 85 10000 1.54 110 21:38 19.04.2022
1917 Clouds 11 1019 73 10000 3.09 330 20:57 19.04.2022
1918 Clouds 12 1019 71 10000 3.09 330 20:37 19.04.2022
1919 Clouds 13 1018 65 10000 2.57 260 19:32 19.04.2022
1920 Clouds 13 1017 53 10000 2.57 50 18:26 19.04.2022
1921 Clouds 14 1017 49 10000 2.57 320 16:47 19.04.2022
1922 Clouds 14 1018 49 10000 4.12 330 16:25 19.04.2022
1923 Clouds 14 1018 46 10000 2.57 350 15:23 19.04.2022
1924 Clouds 14 1018 49 10000 1.54 340 14:40 19.04.2022
1925 Clouds 13 1017 52 10000 2.57 320 12:52 19.04.2022
1926 Clouds 13 1018 60 10000 2.06 360 12:29 19.04.2022
1927 Clouds 11 1017 66 10000 2.06 30 11:23 19.04.2022
1928 Clouds 8 1017 86 10000 0.51 0 09:27 19.04.2022
1929 Clouds 4 1017 93 10000 0.51 0 07:37 19.04.2022
1930 Clouds 6 1015 89 10000 1.03 160 04:23 19.04.2022
1931 Clouds 9 1016 73 10000 1.03 240 01:18 19.04.2022
1932 Clouds 10 1016 71 10000 1.54 250 23:40 18.04.2022
1933 Clouds 11 1016 67 10000 2.06 290 21:56 18.04.2022
1934 Clouds 11 1015 63 10000 1.03 0 21:24 18.04.2022
1935 Clouds 11 1015 63 10000 2.57 290 20:38 18.04.2022
1936 Clouds 11 1015 63 10000 2.57 290 20:38 18.04.2022
1937 Clouds 12 1015 59 10000 3.09 300 19:59 18.04.2022
1938 Clouds 12 1015 59 10000 3.6 310 19:30 18.04.2022
1939 Clouds 13 1015 56 10000 4.63 300 18:37 18.04.2022
1940 Clouds 13 1016 49 10000 2.57 220 17:39 18.04.2022
1941 Clouds 13 1016 49 10000 2.57 220 17:39 18.04.2022
1942 Clouds 13 1016 51 10000 1.54 220 17:19 18.04.2022
1943 Clouds 14 1016 47 10000 3.09 240 16:36 18.04.2022
1944 Clouds 14 1015 48 10000 3.09 270 15:30 18.04.2022
1945 Clouds 13 1017 55 10000 3.09 270 13:55 18.04.2022
1946 Clouds 12 1017 65 10000 3.6 280 12:41 18.04.2022
1947 Clouds 11 1016 71 10000 3.6 230 11:48 18.04.2022
1948 Clouds 10 1015 82 10000 3.6 240 10:46 18.04.2022
1949 Clouds 9 1015 89 10000 2.57 210 09:31 18.04.2022
1950 Clouds 9 1015 86 10000 2.06 200 08:39 18.04.2022
1951 Clouds 9 1014 87 10000 1.54 190 06:44 18.04.2022
1952 Clouds 11 1014 90 10000 1.54 180 02:27 18.04.2022
1953 Clouds 14 1015 67 10000 2.06 220 22:55 17.04.2022
1954 Clouds 14 1015 52 10000 4.67 220 22:32 17.04.2022
1955 Clouds 15 1015 52 10000 1.54 170 21:34 17.04.2022
1956 Clouds 17 1015 50 10000 2.06 180 20:51 17.04.2022
1957 Clouds 17 1014 46 10000 2.57 180 20:18 17.04.2022
1958 Clouds 18 1016 42 10000 4.63 180 18:42 17.04.2022
1959 Clouds 19 1017 45 10000 5.14 190 17:20 17.04.2022
1960 Clouds 19 1017 46 10000 3.6 170 15:34 17.04.2022
1961 Clouds 18 1019 51 10000 4.12 150 14:38 17.04.2022
1962 Clouds 18 1020 50 10000 3.09 160 13:23 17.04.2022
1963 Clouds 17 1021 53 10000 2.57 0 12:31 17.04.2022
1964 Clouds 15 1021 54 10000 2.06 0 10:48 17.04.2022
1965 Clouds 14 1022 57 10000 2.57 140 10:29 17.04.2022
1966 Clouds 13 1022 61 10000 2.57 150 09:50 17.04.2022
1967 Clouds 11 1023 73 10000 1.03 0 08:59 17.04.2022
1968 Clouds 11 1023 77 10000 1.03 0 08:29 17.04.2022
1969 Clouds 12 1024 71 10000 2.06 160 05:33 17.04.2022
1970 Clouds 13 1025 68 10000 2.57 150 01:47 17.04.2022
1971 Clouds 14 1025 69 10000 2.57 140 23:59 16.04.2022
1972 Clouds 15 1026 69 10000 1.54 0 22:56 16.04.2022
1973 Clouds 16 1026 66 10000 1.03 0 21:44 16.04.2022
1974 Clouds 18 1026 61 10000 2.06 180 20:54 16.04.2022
1975 Clouds 20 1027 52 10000 3.09 180 19:21 16.04.2022
1976 Clouds 20 1027 52 10000 3.6 200 18:35 16.04.2022
1977 Clouds 20 1028 52 10000 3.6 200 16:44 16.04.2022
1978 Clouds 20 1027 54 10000 3.6 180 15:46 16.04.2022
1979 Clouds 20 1027 55 10000 3.09 190 14:57 16.04.2022
1980 Clouds 20 1027 56 10000 3.09 180 14:29 16.04.2022
1981 Clear 19 1028 57 10000 3.6 200 13:41 16.04.2022
1982 Clouds 18 1028 64 10000 3.09 180 12:35 16.04.2022
1983 Clouds 16 1028 73 10000 2.57 150 11:24 16.04.2022
1984 Clouds 12 1028 85 10000 0.51 0 09:59 16.04.2022
1985 Clouds 11 1028 90 8000 1.03 0 09:32 16.04.2022
1986 Clouds 10 1028 92 9000 0.51 0 08:41 16.04.2022
1987 Mist 9 1027 91 5000 1.54 140 06:59 16.04.2022
1988 Clouds 9 1027 91 6000 1.03 150 04:36 16.04.2022
1989 Clouds 11 1026 82 10000 1.39 122 00:38 16.04.2022
1990 Clouds 12 1026 76 10000 1.54 260 23:35 15.04.2022
1991 Clouds 13 1026 74 10000 2.06 0 22:38 15.04.2022
1992 Clouds 14 1026 71 10000 1.03 100 21:59 15.04.2022
1993 Clouds 16 1025 68 10000 1.03 80 21:20 15.04.2022
1994 Clouds 17 1025 65 10000 1.03 90 20:31 15.04.2022
1995 Clouds 18 1025 61 10000 0.51 0 19:41 15.04.2022
1996 Clouds 18 1025 58 10000 1.54 210 18:55 15.04.2022
1997 Clouds 18 1025 58 10000 1.54 210 18:26 15.04.2022
1998 Clouds 18 1025 58 10000 2.06 200 17:49 15.04.2022
1999 Clouds 18 1025 56 10000 2.57 210 17:22 15.04.2022
2000 Clouds 19 1025 52 10000 2.57 170 16:24 15.04.2022
2001 Clouds 18 1025 56 10000 3.09 200 15:37 15.04.2022
2002 Clouds 18 1025 57 10000 2.57 180 13:55 15.04.2022
2003 Clouds 17 1025 60 10000 3.09 210 12:46 15.04.2022
2004 Clouds 16 1025 70 10000 1.54 0 11:59 15.04.2022
2005 Clouds 15 1025 71 10000 1.54 0 11:40 15.04.2022
2006 Clouds 14 1025 72 10000 2.06 150 10:45 15.04.2022
2007 Clouds 12 1025 75 10000 1.03 0 09:50 15.04.2022
2008 Clouds 12 1025 78 10000 1.03 0 09:21 15.04.2022
2009 Clouds 9 1024 85 10000 0.51 0 07:53 15.04.2022
2010 Clouds 9 1023 83 10000 1.54 110 06:46 15.04.2022
2011 Clouds 11 1023 78 10000 1.03 110 03:47 15.04.2022
2012 Clouds 12 1022 74 10000 1.03 120 23:32 14.04.2022
2013 Clouds 13 1022 71 10000 1.03 130 22:50 14.04.2022
2014 Clouds 13 1022 71 10000 1.03 130 22:32 14.04.2022
2015 Clouds 13 1022 68 10000 0.51 130 21:59 14.04.2022
2016 Clouds 14 1022 66 10000 0.51 0 21:30 14.04.2022
2017 Clouds 16 1021 58 10000 1.03 0 19:24 14.04.2022
2018 Clouds 16 1021 58 10000 1.54 180 18:30 14.04.2022
2019 Clouds 15 1021 58 10000 2.06 210 17:44 14.04.2022
2020 Clouds 15 1021 59 10000 1.54 0 16:46 14.04.2022
2021 Clouds 15 1021 61 10000 2.06 190 15:28 14.04.2022
2022 Clouds 15 1021 64 10000 2.57 230 13:47 14.04.2022
2023 Clouds 14 1021 72 10000 2.06 200 12:58 14.04.2022
2024 Clouds 14 1021 72 10000 1.54 210 12:31 14.04.2022
2025 Clouds 12 1021 81 10000 2.06 180 11:30 14.04.2022
2026 Clouds 11 1020 87 10000 1.54 150 10:54 14.04.2022
2027 Clouds 10 1020 93 10000 1.03 0 10:27 14.04.2022
2028 Clouds 8 1020 94 10000 0.51 0 09:25 14.04.2022
2029 Clouds 6 1019 96 7000 1.03 0 07:36 14.04.2022
2030 Fog 6 1019 94 10000 0.51 0 04:35 14.04.2022
2031 Clouds 9 1018 85 10000 1.03 140 23:45 13.04.2022
2032 Clouds 11 1018 78 10000 1.54 290 22:24 13.04.2022
2033 Clouds 12 1018 74 10000 1.54 270 21:42 13.04.2022
2034 Clouds 14 1017 64 10000 2.57 300 20:25 13.04.2022
2035 Clouds 15 1017 64 10000 3.09 310 19:39 13.04.2022
2036 Clouds 16 1016 59 10000 4.12 290 18:36 13.04.2022
2037 Clouds 15 1014 64 10000 3.6 270 17:24 13.04.2022
2038 Clouds 15 1015 67 10000 4.12 270 16:41 13.04.2022
2039 Clouds 15 1014 67 10000 3.6 280 15:43 13.04.2022
2040 Clouds 14 1014 70 10000 4.63 280 14:53 13.04.2022
2041 Clouds 14 1014 75 10000 3.6 240 14:30 13.04.2022
2042 Clouds 13 1013 74 10000 3.6 240 13:36 13.04.2022
2043 Clouds 12 1013 81 10000 4.12 250 12:38 13.04.2022
2044 Clouds 11 1012 89 9000 3.6 240 10:58 13.04.2022
2045 Clouds 11 1011 91 9000 3.09 230 09:45 13.04.2022
2046 Clouds 10 1010 91 9000 1.54 220 08:43 13.04.2022
2047 Clouds 10 1008 92 10000 1.03 0 07:18 13.04.2022
2048 Clouds 10 1009 95 10000 1.03 200 06:46 13.04.2022
2049 Clouds 10 1008 92 10000 1.54 190 06:18 13.04.2022
2050 Clouds 12 1006 87 10000 2.06 180 00:25 13.04.2022
2051 Clouds 12 1006 86 10000 3.09 190 23:46 12.04.2022
2052 Clouds 13 1005 87 10000 3.09 170 22:20 12.04.2022
2053 Clouds 13 1005 87 10000 2.06 170 21:39 12.04.2022
2054 Clouds 13 1004 84 10000 2.57 170 20:42 12.04.2022
2055 Clouds 13 1003 84 10000 2.57 160 19:54 12.04.2022
2056 Clouds 13 1003 84 10000 2.57 160 19:33 12.04.2022
2057 Clouds 13 1003 82 10000 2.06 140 18:50 12.04.2022
2058 Clouds 13 1003 79 10000 2.06 160 17:34 12.04.2022
2059 Clouds 13 1003 84 8000 2.06 150 16:25 12.04.2022
2060 Clouds 12 1003 85 9000 1.54 150 15:33 12.04.2022
2061 Clouds 11 1002 87 9000 1.54 80 14:32 12.04.2022
2062 Clouds 11 1002 89 8000 3.6 60 13:38 12.04.2022
2063 Rain 10 1003 88 5000 2.06 70 12:53 12.04.2022
2064 Rain 10 1004 87 8000 1.54 90 11:47 12.04.2022
2065 Rain 10 1003 86 9000 2.06 70 11:24 12.04.2022
2066 Clouds 10 1003 69 10000 1.03 0 09:25 12.04.2022
2067 Clouds 9 1004 77 10000 1.54 70 07:59 12.04.2022
2068 Clouds 9 1005 75 10000 2.06 60 06:32 12.04.2022
2069 Clouds 9 1005 73 10000 2.06 70 05:35 12.04.2022
2070 Clouds 10 1006 66 10000 3.09 100 00:59 12.04.2022
2071 Clouds 11 1006 59 10000 3.09 0 22:53 11.04.2022
2072 Clouds 12 1006 49 10000 3.6 120 21:49 11.04.2022
2073 Clouds 13 1006 44 10000 3.09 120 20:59 11.04.2022
2074 Clouds 13 1005 41 10000 3.6 0 20:29 11.04.2022
2075 Clouds 13 1005 41 10000 3.09 0 19:55 11.04.2022
2076 Clouds 14 1005 43 10000 3.09 100 19:18 11.04.2022
2077 Clouds 14 1005 44 10000 4.12 90 18:47 11.04.2022
2078 Clouds 14 1005 40 10000 3.09 0 17:57 11.04.2022
2079 Clouds 15 1005 40 10000 3.09 120 16:54 11.04.2022
2080 Clouds 15 1005 40 10000 3.09 120 16:54 11.04.2022
2081 Clouds 15 1007 41 10000 4.12 0 15:58 11.04.2022
2082 Clouds 15 1008 42 10000 4.63 120 14:33 11.04.2022
2083 Clouds 13 1009 48 10000 3.09 0 12:53 11.04.2022
2084 Clouds 12 1009 50 10000 3.09 0 12:33 11.04.2022
2085 Clouds 11 1009 53 10000 4.12 100 11:33 11.04.2022
2086 Clouds 10 1010 55 10000 2.06 100 10:28 11.04.2022
2087 Clouds 8 1011 61 10000 2.57 80 09:20 11.04.2022
2088 Clouds 7 1012 58 10000 2.06 100 06:44 11.04.2022
2089 Clouds 9 1014 54 10000 2.06 130 01:55 11.04.2022
2090 Clouds 9 1015 52 10000 1.54 0 22:37 10.04.2022
2091 Clouds 10 1014 48 10000 1.54 0 21:55 10.04.2022
2092 Clouds 10 1015 50 10000 1.03 0 21:29 10.04.2022
2093 Clouds 11 1015 45 10000 1.03 0 20:30 10.04.2022
2094 Clouds 11 1016 42 10000 2.06 180 19:43 10.04.2022
2095 Clouds 11 1016 41 10000 2.06 180 19:20 10.04.2022
2096 Clouds 12 1016 40 10000 2.06 180 18:41 10.04.2022
2097 Clouds 12 1015 39 10000 1.54 180 17:52 10.04.2022
2098 Clouds 12 1016 41 10000 1.54 180 17:32 10.04.2022
2099 Clouds 12 1017 42 10000 3.09 0 15:56 10.04.2022
2100 Clouds 12 1018 45 10000 3.09 210 14:51 10.04.2022
2101 Clouds 11 1018 46 10000 3.09 180 13:49 10.04.2022
2102 Clouds 9 1019 55 10000 3.09 210 12:33 10.04.2022
2103 Clouds 9 1019 60 10000 2.06 150 11:45 10.04.2022
2104 Clouds 8 1019 66 10000 2.06 180 11:24 10.04.2022
2105 Clouds 7 1019 71 10000 1.54 170 10:38 10.04.2022
2106 Clouds 4 1019 82 10000 0.51 0 09:49 10.04.2022
2107 Clouds 2 1019 89 10000 1.03 120 08:55 10.04.2022
2108 Clouds 1 1019 90 10000 1.03 120 08:20 10.04.2022
2109 Clouds 0 1018 90 10000 1.03 0 06:59 10.04.2022
2110 Clouds 0 1019 85 10000 1.54 160 04:36 10.04.2022
2111 Clouds 1 1019 86 10000 1.54 160 02:19 10.04.2022
2112 Clouds 3 1019 76 10000 1.54 190 23:54 09.04.2022
2113 Clouds 4 1018 70 10000 2.57 260 22:56 09.04.2022
2114 Clouds 4 1018 69 10000 2.57 260 22:38 09.04.2022
2115 Clouds 6 1018 64 10000 4.12 280 21:23 09.04.2022
2116 Clouds 7 1017 60 10000 5.66 290 20:30 09.04.2022
2117 Clouds 8 1017 55 10000 5.14 290 19:57 09.04.2022
2118 Clouds 8 1017 57 10000 5.14 290 19:39 09.04.2022
2119 Clouds 9 1017 58 10000 7.2 300 18:23 09.04.2022
2120 Clouds 9 1016 59 10000 7.72 310 17:49 09.04.2022
2121 Clouds 9 1015 52 10000 7.2 280 16:57 09.04.2022
2122 Clouds 9 1015 52 10000 7.2 280 16:38 09.04.2022
2123 Clouds 9 1015 52 10000 7.2 280 16:38 09.04.2022
2124 Clouds 9 1015 52 10000 7.2 280 16:38 09.04.2022
2125 Clouds 9 1015 52 10000 7.2 280 16:38 09.04.2022
2126 Clouds 9 1015 52 10000 7.2 280 16:38 09.04.2022
2127 Clouds 9 1015 53 10000 7.72 270 15:50 09.04.2022
2128 Clouds 9 1015 63 10000 5.66 270 15:25 09.04.2022
2129 Clouds 9 1015 56 10000 5.66 310 14:25 09.04.2022
2130 Clouds 9 1015 53 10000 5.66 290 13:27 09.04.2022
2131 Clouds 9 1014 53 10000 4.63 270 12:54 09.04.2022
2132 Clouds 7 1014 54 10000 5.14 320 11:45 09.04.2022
2133 Clouds 6 1013 76 10000 4.12 290 10:51 09.04.2022
2134 Clouds 6 1013 84 10000 2.57 280 10:18 09.04.2022
2135 Clouds 4 1013 87 10000 2.57 280 09:22 09.04.2022
2136 Clouds 1 1012 92 10000 1.03 210 07:49 09.04.2022
2137 Clear 1 1010 90 10000 1.54 170 04:37 09.04.2022
2138 Clouds 2 1008 90 10000 2.06 170 00:34 09.04.2022
2139 Clouds 2 1007 85 10000 1.88 324 23:22 08.04.2022
2140 Clouds 4 1005 82 10000 0.51 0 21:44 08.04.2022
2141 Clouds 5 1004 80 10000 3.6 70 20:43 08.04.2022
2142 Clouds 6 1004 78 10000 2.57 80 19:46 08.04.2022
2143 Clouds 8 1002 68 10000 5.14 310 18:42 08.04.2022
2144 Clouds 8 1002 62 10000 3.6 20 18:18 08.04.2022
2145 Clouds 9 1001 50 10000 5.66 330 17:27 08.04.2022
2146 Clouds 9 1001 51 10000 4.63 300 16:55 08.04.2022
2147 Clouds 10 1001 41 10000 4.12 310 16:26 08.04.2022
2148 Clouds 10 1000 42 10000 4.12 320 15:33 08.04.2022
2149 Clouds 10 999 45 10000 4.12 340 14:45 08.04.2022
2150 Clouds 10 999 49 10000 2.57 310 13:59 08.04.2022
2151 Clouds 9 1000 55 10000 3.09 310 13:30 08.04.2022
2152 Clouds 9 1000 56 10000 2.57 0 12:49 08.04.2022
2153 Clouds 7 998 69 10000 1.54 0 11:26 08.04.2022
2154 Clear 4 997 86 10000 0 0 09:57 08.04.2022
2155 Clear 2 997 91 10000 1.03 120 08:59 08.04.2022
2156 Clouds 1 997 90 10000 0.51 110 07:43 08.04.2022
2157 Clouds 2 997 88 10000 1.54 160 06:44 08.04.2022
2158 Clear 3 998 84 10000 2.06 220 02:37 08.04.2022
2159 Clear 4 997 79 10000 3.64 281 00:29 08.04.2022
2160 Clear 5 997 78 10000 3.09 230 23:43 07.04.2022
2161 Clouds 5 996 71 10000 4.12 250 22:41 07.04.2022
2162 Clouds 5 996 69 10000 3.09 220 22:23 07.04.2022
2163 Clouds 5 995 68 10000 2.06 230 21:58 07.04.2022
2164 Clouds 5 995 66 10000 3.09 270 21:28 07.04.2022
2165 Clouds 6 994 64 10000 4.12 280 20:42 07.04.2022
2166 Clouds 6 993 77 10000 6.69 310 19:25 07.04.2022
2167 Rain 6 989 84 10000 8.75 300 17:28 07.04.2022
2168 Rain 6 988 85 10000 8.23 310 16:51 07.04.2022
2169 Rain 6 988 83 10000 9.77 300 16:33 07.04.2022
2170 Clouds 7 986 76 10000 9.26 290 15:39 07.04.2022
2171 Clouds 7 983 80 10000 10.8 270 13:52 07.04.2022
2172 Clouds 8 983 80 10000 9.26 270 13:23 07.04.2022
2173 Clouds 7 981 88 10000 8.23 270 11:49 07.04.2022
2174 Clouds 7 979 81 10000 8.75 270 10:40 07.04.2022
2175 Clouds 6 977 85 10000 9.77 270 08:43 07.04.2022
2176 Clouds 6 976 87 1900 5.66 250 06:58 07.04.2022
2177 Rain 7 977 80 10000 9.77 230 04:36 07.04.2022
2178 Clouds 7 980 77 10000 7.72 230 02:32 07.04.2022
2179 Clouds 7 980 79 10000 5.14 220 00:42 07.04.2022
2180 Clouds 8 982 84 2400 5.66 220 23:21 06.04.2022
2181 Clouds 9 982 78 10000 5.14 210 22:44 06.04.2022
2182 Clouds 9 983 76 10000 5.66 220 21:47 06.04.2022
2183 Clouds 10 984 74 10000 5.66 200 20:43 06.04.2022
2184 Clouds 10 985 71 10000 6.17 220 19:59 06.04.2022
2185 Clouds 11 986 66 10000 9.26 230 19:19 06.04.2022
2186 Clouds 11 986 65 10000 8.23 230 18:47 06.04.2022
2187 Clouds 11 987 64 10000 9.77 240 17:35 06.04.2022
2188 Clouds 11 988 69 10000 10.8 240 16:39 06.04.2022
2189 Clouds 11 989 64 10000 9.26 230 15:57 06.04.2022
2190 Clouds 11 988 66 10000 9.26 230 15:39 06.04.2022
2191 Clouds 9 990 88 10000 5.14 210 13:31 06.04.2022
2192 Rain 9 991 89 6000 4.12 210 12:28 06.04.2022
2193 Clouds 10 992 73 10000 7.72 230 10:57 06.04.2022
2194 Clouds 10 993 79 10000 6.17 220 10:32 06.04.2022
2195 Clouds 9 993 80 10000 4.63 230 09:43 06.04.2022
2196 Clouds 9 994 83 10000 4.63 230 08:36 06.04.2022
2197 Clouds 9 994 85 10000 5.14 230 07:56 06.04.2022
2198 Clouds 9 996 94 10000 4.12 210 04:42 06.04.2022
2199 Clouds 10 1000 84 10000 6.17 220 23:57 05.04.2022
2200 Clouds 10 1001 84 10000 6.17 220 23:33 05.04.2022
2201 Rain 10 1002 79 10000 6.69 230 21:31 05.04.2022
2202 Rain 10 1002 77 10000 4.12 230 20:54 05.04.2022
2203 Rain 11 1002 74 10000 7.2 240 20:23 05.04.2022
2204 Clouds 11 1004 66 10000 7.2 250 18:26 05.04.2022
2205 Clouds 12 1005 69 10000 9.77 260 17:20 05.04.2022
2206 Clouds 12 1005 69 10000 9.77 260 16:41 05.04.2022
2207 Clouds 11 1005 73 10000 9.77 280 15:49 05.04.2022
2208 Clouds 11 1006 75 10000 9.26 270 15:29 05.04.2022
2209 Clouds 11 1006 78 10000 10.8 260 13:42 05.04.2022
2210 Drizzle 9 1006 94 4900 7.2 260 11:51 05.04.2022
2211 Drizzle 9 1006 94 4900 7.2 260 11:33 05.04.2022
2212 Rain 9 1006 92 8000 7.72 260 10:57 05.04.2022
2213 Clouds 9 1007 94 10000 7.2 260 09:29 05.04.2022
2214 Rain 9 1006 97 9000 6.69 270 07:32 05.04.2022
2215 Rain 10 1008 95 7000 7.2 270 02:43 05.04.2022
2216 Clouds 10 1008 95 10000 6.69 270 23:18 04.04.2022
2217 Clouds 10 1008 96 10000 6.17 270 22:29 04.04.2022
2218 Clouds 10 1008 96 10000 5.66 270 21:22 04.04.2022
2219 Rain 10 1008 96 10000 7.2 280 20:53 04.04.2022
2220 Clouds 10 1008 96 10000 7.2 280 20:35 04.04.2022
2221 Clouds 11 1008 96 5000 6.69 280 19:26 04.04.2022
2222 Clouds 11 1008 93 3000 7.2 280 18:39 04.04.2022
2223 Clouds 11 1008 92 10000 7.2 280 16:41 04.04.2022
2224 Clouds 11 1008 91 10000 6.69 280 16:23 04.04.2022
2225 Clouds 11 1008 92 10000 8.75 290 15:33 04.04.2022
2226 Clouds 11 1008 92 10000 6.69 280 14:46 04.04.2022
2227 Clouds 11 1008 93 10000 7.2 280 13:40 04.04.2022
2228 Clouds 11 1008 95 10000 7.72 290 12:41 04.04.2022
2229 Clouds 10 1008 96 10000 7.2 280 11:29 04.04.2022
2230 Clouds 10 1008 97 3500 6.69 270 09:53 04.04.2022
2231 Drizzle 8 1010 97 2200 5.14 250 05:33 04.04.2022
2232 Rain 6 1014 91 10000 3.09 210 02:47 04.04.2022
2233 Clouds 7 1020 69 10000 3.09 230 22:49 03.04.2022
2234 Clouds 7 1019 66 10000 4.12 260 21:58 03.04.2022
2235 Clouds 7 1020 66 10000 4.63 270 21:25 03.04.2022
2236 Clouds 7 1021 66 10000 5.66 280 20:21 03.04.2022
2237 Clouds 8 1021 56 10000 6.69 280 18:37 03.04.2022
2238 Clouds 9 1022 52 10000 6.69 280 17:50 03.04.2022
2239 Clouds 9 1023 52 10000 6.69 290 17:32 03.04.2022
2240 Clouds 10 1023 48 10000 6.17 270 16:49 03.04.2022
2241 Clouds 10 1023 52 10000 7.2 290 15:42 03.04.2022
2242 Clouds 9 1024 62 10000 6.17 270 13:58 03.04.2022
2243 Clouds 8 1025 67 10000 4.12 270 12:58 03.04.2022
2244 Clouds 7 1026 74 10000 1.54 240 11:34 03.04.2022
2245 Clouds 3 1026 84 10000 1.03 0 09:41 03.04.2022
2246 Clouds 2 1026 84 10000 0.51 0 08:52 03.04.2022
2247 Clouds 0 1026 87 10000 0.51 0 05:45 03.04.2022
2248 Clouds 0 1026 87 10000 0.51 0 05:45 03.04.2022
2249 Clouds 0 1026 85 10000 1.03 100 02:55 03.04.2022
2250 Clouds 3 1026 73 10000 1.54 80 23:27 02.04.2022
2251 Clouds 4 1026 72 10000 1.03 70 22:41 02.04.2022
2252 Clouds 5 1025 67 10000 1.54 90 21:55 02.04.2022
2253 Clouds 6 1025 64 10000 2.57 60 21:19 02.04.2022
2254 Clouds 7 1024 59 10000 2.06 90 20:36 02.04.2022
2255 Clouds 8 1024 47 10000 2.06 20 18:47 02.04.2022
2256 Clouds 9 1023 43 10000 2.06 100 18:19 02.04.2022
2257 Clouds 9 1023 44 10000 1.54 110 16:45 02.04.2022
2258 Clouds 9 1023 49 10000 1.03 0 15:27 02.04.2022
2259 Clouds 9 1023 47 10000 1.54 0 14:52 02.04.2022
2260 Clouds 9 1023 51 10000 1.54 60 14:26 02.04.2022
2261 Clouds 8 1023 56 10000 1.54 0 13:31 02.04.2022
2262 Clouds 7 1024 63 10000 1.54 70 12:20 02.04.2022
2263 Clouds 4 1022 85 10000 1.03 0 10:22 02.04.2022
2264 Clouds 1 1021 93 10000 1.03 50 07:48 02.04.2022
2265 Clouds 1 1022 94 10000 1.03 100 04:34 02.04.2022
2266 Clouds 2 1021 88 10000 1.03 0 01:21 02.04.2022
2267 Clouds 3 1021 87 10000 1.54 190 23:54 01.04.2022
2268 Clouds 3 1022 84 10000 0.51 0 22:46 01.04.2022
2269 Clouds 5 1021 75 10000 2.57 290 20:55 01.04.2022
2270 Clouds 6 1020 73 10000 2.57 290 20:35 01.04.2022
2271 Clouds 6 1021 66 10000 5.66 310 19:41 01.04.2022
2272 Clouds 7 1020 55 10000 6.17 320 19:23 01.04.2022
2273 Clouds 8 1020 47 10000 6.17 320 18:36 01.04.2022
2274 Clouds 8 1020 45 10000 6.17 330 17:36 01.04.2022
2275 Rain 8 1021 47 10000 5.66 350 15:46 01.04.2022
2276 Clouds 8 1020 51 10000 4.63 350 14:51 01.04.2022
2277 Clouds 7 1020 57 10000 5.14 350 13:39 01.04.2022
2278 Clouds 6 1021 63 10000 4.63 350 12:33 01.04.2022
2279 Clouds 5 1020 69 10000 4.12 30 11:45 01.04.2022
2280 Clouds 4 1020 74 10000 4.12 330 10:49 01.04.2022
2281 Clouds 2 1020 82 10000 2.57 260 09:35 01.04.2022
2282 Clouds 1 1018 84 10000 2.57 350 07:24 01.04.2022
2283 Clouds 1 1017 81 10000 3.6 350 04:57 01.04.2022
2284 Clouds 1 1017 80 10000 3.6 350 04:39 01.04.2022
2285 Clouds 1 1018 79 10000 4.12 320 02:32 01.04.2022
2286 Clouds 2 1018 78 10000 4.12 350 01:31 01.04.2022
2287 Clouds 3 1016 75 10000 7.2 20 22:23 31.03.2022
2288 Clouds 3 1017 73 10000 6.17 20 21:37 31.03.2022
2289 Clouds 4 1016 72 10000 7.2 10 20:50 31.03.2022
2290 Clouds 4 1015 66 10000 5.66 10 20:28 31.03.2022
2291 Clouds 6 1014 68 10000 7.72 10 19:18 31.03.2022
2292 Clouds 6 1014 68 10000 8.23 20 18:31 31.03.2022
2293 Clouds 7 1014 45 10000 8.23 20 16:46 31.03.2022
2294 Clouds 7 1014 50 10000 7.72 20 15:54 31.03.2022
2295 Clouds 7 1014 51 10000 7.2 30 15:22 31.03.2022
2296 Clouds 7 1014 50 10000 7.72 30 14:44 31.03.2022
2297 Clouds 6 1014 58 10000 7.72 20 13:27 31.03.2022
2298 Clouds 4 1014 74 10000 8.23 20 11:29 31.03.2022
2299 Clouds 2 1013 82 10000 8.75 20 10:19 31.03.2022
2300 Snow 1 1012 87 10000 5.14 10 08:52 31.03.2022
2301 Clouds 1 1011 87 10000 2.57 330 07:24 31.03.2022
2302 Clouds 2 1009 78 10000 5.14 10 00:46 31.03.2022
2303 Clouds 2 1010 79 10000 4.63 40 23:23 30.03.2022
2304 Clouds 2 1009 79 10000 7.2 60 21:43 30.03.2022
2305 Clouds 2 1008 82 10000 8.23 40 21:25 30.03.2022
2306 Clouds 3 1008 83 10000 6.69 30 20:21 30.03.2022
2307 Clouds 3 1007 81 10000 5.66 50 19:38 30.03.2022
2308 Clouds 4 1007 81 10000 5.14 50 18:34 30.03.2022
2309 Clouds 5 1007 81 10000 5.14 60 17:48 30.03.2022
2310 Rain 5 1007 85 10000 4.63 50 16:57 30.03.2022
2311 Rain 5 1007 85 10000 4.63 50 16:38 30.03.2022
2312 Rain 6 1007 84 10000 3.6 60 15:38 30.03.2022
2313 Rain 5 1007 83 10000 5.66 50 13:57 30.03.2022
2314 Rain 5 1007 82 10000 5.14 50 13:18 30.03.2022
2315 Clouds 5 1007 84 10000 3.6 60 11:36 30.03.2022
2316 Clouds 5 1007 88 10000 7.2 20 10:31 30.03.2022
2317 Haze 6 1007 88 3800 1.34 25 09:25 30.03.2022
2318 Haze 7 1007 85 3000 0 0 07:41 30.03.2022
2319 Haze 7 1008 91 4600 1.03 260 05:41 30.03.2022
2320 Clouds 7 1009 82 8000 0.51 0 04:19 30.03.2022
2321 Clouds 8 1010 81 8000 0.51 70 00:42 30.03.2022
2322 Clouds 9 1010 80 6000 1.03 0 22:34 29.03.2022
2323 Clouds 9 1010 77 7000 1.54 70 21:45 29.03.2022
2324 Clouds 10 1009 74 9000 0.89 39 20:54 29.03.2022
2325 Clouds 10 1009 72 10000 1.03 0 20:19 29.03.2022
2326 Clouds 12 1009 69 10000 1.03 0 18:56 29.03.2022
2327 Clouds 12 1009 69 8000 1.03 0 18:21 29.03.2022
2328 Clouds 13 1010 71 8000 1.54 70 17:35 29.03.2022
2329 Clouds 13 1010 66 10000 1.54 100 16:57 29.03.2022
2330 Clouds 13 1011 62 10000 2.57 50 15:57 29.03.2022
2331 Clouds 14 1012 58 10000 1.54 260 14:53 29.03.2022
2332 Clouds 13 1013 62 10000 2.06 20 13:58 29.03.2022
2333 Clouds 13 1014 62 10000 1.03 0 12:51 29.03.2022
2334 Clouds 12 1013 71 10000 1.03 0 11:43 29.03.2022
2335 Clouds 9 1013 84 10000 2.06 60 10:30 29.03.2022
2336 Clear 7 1014 88 10000 3.09 60 09:42 29.03.2022
2337 Mist 6 1014 90 3800 0.51 0 06:58 29.03.2022
2338 Clouds 7 1015 89 8000 0.51 60 03:54 29.03.2022
2339 Clear 9 1017 81 10000 1.54 100 00:33 29.03.2022
2340 Clear 10 1017 76 10000 2.06 80 23:22 28.03.2022
2341 Clear 10 1017 76 10000 1.54 100 22:51 28.03.2022
2342 Clear 10 1017 76 10000 1.03 110 22:23 28.03.2022
2343 Clouds 12 1017 60 10000 0.51 220 20:54 28.03.2022
2344 Clouds 14 1017 54 10000 1.54 240 20:20 28.03.2022
2345 Clouds 14 1018 60 10000 2.06 250 19:41 28.03.2022
2346 Clouds 15 1019 55 10000 2.57 260 18:54 28.03.2022
2347 Clouds 15 1019 56 10000 2.57 260 18:20 28.03.2022
2348 Clouds 16 1020 58 10000 2.57 300 17:32 28.03.2022
2349 Clouds 15 1021 61 10000 2.06 300 15:54 28.03.2022
2350 Clouds 14 1022 60 10000 1.03 0 14:27 28.03.2022
2351 Clouds 13 1022 63 10000 1.03 0 13:35 28.03.2022
2352 Clouds 12 1023 71 10000 1.03 0 11:57 28.03.2022
2353 Clouds 11 1023 79 10000 1.54 190 10:50 28.03.2022
2354 Clouds 10 1023 82 10000 1.03 0 09:41 28.03.2022
2355 Clouds 10 1025 85 10000 2.06 230 08:49 28.03.2022
2356 Clouds 10 1025 82 10000 1.03 0 08:21 28.03.2022
2357 Clouds 10 1025 82 10000 1.03 0 08:21 28.03.2022
2358 Clouds 10 1024 82 10000 1.03 0 07:27 28.03.2022
2359 Clouds 11 1027 79 10000 1.54 140 02:48 28.03.2022
2360 Clouds 12 1028 74 10000 1.03 130 23:24 27.03.2022
2361 Clouds 13 1028 73 10000 1.54 130 22:22 27.03.2022
2362 Clouds 13 1029 70 10000 1.54 110 21:40 27.03.2022
2363 Clouds 13 1029 70 10000 1.54 110 21:40 27.03.2022
2364 Clouds 14 1029 67 10000 1.54 110 20:53 27.03.2022
2365 Clouds 15 1029 65 10000 1.54 0 19:44 27.03.2022
2366 Clouds 16 1030 64 10000 1.54 0 18:47 27.03.2022
2367 Clouds 16 1030 64 10000 1.54 0 18:47 27.03.2022
2368 Clouds 16 1030 64 10000 2.06 0 18:26 27.03.2022
2369 Clouds 16 1030 63 10000 2.06 0 17:38 27.03.2022
2370 Clouds 17 1031 56 10000 3.09 80 15:57 27.03.2022
2371 Clouds 16 1032 56 10000 3.09 90 14:22 27.03.2022
2372 Clouds 15 1033 59 10000 2.57 100 13:42 27.03.2022
2373 Clouds 13 1034 76 10000 0.51 0 11:46 27.03.2022
2374 Clouds 10 1033 85 10000 1.54 50 10:23 27.03.2022
2375 Clouds 6 1033 89 10000 1.54 120 07:55 27.03.2022
2376 Clear 7 1033 82 10000 1.54 110 05:18 27.03.2022
2377 Clouds 9 1034 79 10000 2.06 50 00:30 27.03.2022
2378 Clouds 11 1034 75 10000 2.06 70 22:58 26.03.2022
2379 Clouds 11 1034 73 10000 2.57 90 22:27 26.03.2022
2380 Clouds 12 1033 66 10000 2.06 90 21:31 26.03.2022
2381 Clouds 15 1033 55 10000 2.57 90 19:45 26.03.2022
2382 Clouds 17 1033 42 10000 3.09 70 18:44 26.03.2022
2383 Clouds 18 1033 42 10000 3.09 60 17:44 26.03.2022
2384 Clouds 18 1033 41 10000 3.09 90 16:47 26.03.2022
2385 Clouds 19 1033 39 10000 3.09 110 15:43 26.03.2022
2386 Clouds 19 1034 47 10000 3.6 40 14:18 26.03.2022
2387 Clouds 19 1034 45 10000 1.54 30 13:47 26.03.2022
2388 Clouds 18 1034 48 10000 1.03 0 12:31 26.03.2022
2389 Clouds 14 1034 60 10000 0.51 0 10:49 26.03.2022
2390 Clear 10 1034 74 10000 0.51 0 09:21 26.03.2022
2391 Clear 7 1034 80 10000 0.51 80 07:34 26.03.2022
2392 Clear 6 1032 76 10000 1.54 50 05:49 26.03.2022
2393 Clear 8 1033 69 10000 1.03 70 02:34 26.03.2022
2394 Clouds 10 1032 59 10000 1.03 0 22:47 25.03.2022
2395 Clouds 12 1032 50 10000 1.03 340 20:58 25.03.2022
2396 Clouds 13 1031 47 10000 1.03 300 20:26 25.03.2022
2397 Clouds 13 1031 47 10000 1.03 300 20:26 25.03.2022
2398 Clouds 16 1031 38 10000 0.51 0 19:19 25.03.2022
2399 Clouds 17 1031 36 10000 1.54 150 18:36 25.03.2022
2400 Clear 18 1031 33 10000 2.06 170 17:34 25.03.2022
2401 Clouds 18 1032 29 6000 2.06 220 16:27 25.03.2022
2402 Clouds 19 1031 28 10000 1.54 100 15:37 25.03.2022
2403 Clear 18 1033 31 10000 2.06 200 13:32 25.03.2022
2404 Clouds 15 1033 42 10000 0.51 0 11:25 25.03.2022
2405 Clouds 11 1032 61 10000 1.03 80 09:37 25.03.2022
2406 Clouds 9 1031 65 10000 0.51 0 08:50 25.03.2022
2407 Clouds 7 1031 67 10000 1.54 70 07:46 25.03.2022
2408 Clouds 7 1031 70 10000 1.03 90 07:19 25.03.2022
2409 Clouds 8 1030 63 10000 1.54 140 02:37 25.03.2022
2410 Clouds 10 1030 55 10000 0.51 120 23:49 24.03.2022
2411 Clouds 11 1030 50 10000 1.03 0 22:24 24.03.2022
2412 Clouds 13 1029 54 10000 1.54 290 20:58 24.03.2022
2413 Clouds 14 1030 48 10000 1.28 32 19:49 24.03.2022
2414 Clouds 16 1029 31 10000 2.57 260 18:45 24.03.2022
2415 Clear 18 1029 32 10000 3.09 270 17:36 24.03.2022
2416 Clear 18 1029 32 10000 3.09 270 17:36 24.03.2022
2417 Clouds 18 1029 31 10000 1.54 270 16:28 24.03.2022
2418 Clouds 19 1030 30 10000 2.06 240 14:51 24.03.2022
2419 Clouds 18 1030 35 10000 1.54 0 14:22 24.03.2022
2420 Clear 18 1030 38 10000 1.03 0 13:33 24.03.2022
2421 Clear 16 1031 51 10000 1.54 260 12:24 24.03.2022
2422 Clear 14 1030 61 10000 1.03 0 10:48 24.03.2022
2423 Clear 9 1029 76 10000 1.54 120 09:24 24.03.2022
2424 Clear 7 1030 76 10000 1.54 120 08:32 24.03.2022
2425 Clouds 8 1028 69 10000 2.06 90 04:52 24.03.2022
2426 Clouds 9 1030 63 10000 2.06 100 23:41 23.03.2022
2427 Clouds 10 1029 65 10000 1.54 120 22:18 23.03.2022
2428 Clouds 11 1029 59 10000 1.03 140 21:21 23.03.2022
2429 Clouds 14 1029 47 10000 1.54 230 19:51 23.03.2022
2430 Clear 15 1028 42 10000 0.51 0 19:25 23.03.2022
2431 Clear 17 1029 36 10000 2.06 200 17:47 23.03.2022
2432 Clear 18 1029 33 10000 2.06 150 17:18 23.03.2022
2433 Clear 19 1029 29 10000 3.13 165 15:21 23.03.2022
2434 Clear 18 1030 29 10000 2.57 140 14:42 23.03.2022
2435 Clear 18 1031 34 10000 2.57 200 13:30 23.03.2022
2436 Clear 14 1029 53 10000 1.54 110 10:37 23.03.2022
2437 Clear 7 1028 77 10000 0.51 0 07:56 23.03.2022
2438 Clear 8 1028 74 10000 2.06 80 05:40 23.03.2022
2439 Clouds 10 1028 72 10000 1.03 0 01:41 23.03.2022
2440 Clouds 11 1028 69 10000 2.06 130 00:24 23.03.2022
2441 Clouds 13 1028 71 10000 2.36 104 21:33 22.03.2022
2442 Clouds 14 1027 66 10000 2.57 90 20:55 22.03.2022
2443 Clouds 14 1028 63 10000 2.06 90 19:56 22.03.2022
2444 Clouds 15 1027 61 10000 2.06 100 19:25 22.03.2022
2445 Clouds 16 1027 55 10000 2.57 100 18:45 22.03.2022
2446 Clouds 17 1027 48 10000 3.09 0 17:42 22.03.2022
2447 Clouds 18 1027 45 10000 2.57 0 16:35 22.03.2022
2448 Clouds 18 1027 45 10000 3.6 110 15:37 22.03.2022
2449 Clouds 18 1028 48 10000 3.6 0 15:18 22.03.2022
2450 Clouds 17 1028 51 10000 4.12 150 14:41 22.03.2022
2451 Clear 17 1028 45 10000 4.12 140 13:37 22.03.2022
2452 Clouds 15 1029 56 10000 2.57 130 11:52 22.03.2022
2453 Clouds 14 1028 61 10000 1.03 0 10:51 22.03.2022
2454 Clouds 10 1027 69 10000 1.54 0 08:40 22.03.2022
2455 Clouds 7 1027 86 10000 1.03 80 06:58 22.03.2022
2456 Clouds 8 1027 66 10000 1.03 110 03:54 22.03.2022
2457 Clouds 8 1027 61 10000 1.03 0 00:34 22.03.2022
2458 Clouds 8 1027 61 10000 1.54 0 22:46 21.03.2022
2459 Clouds 9 1027 58 10000 1.03 0 21:20 21.03.2022
2460 Clouds 9 1027 57 10000 1.54 120 20:42 21.03.2022
2461 Clouds 10 1027 57 10000 1.03 0 19:59 21.03.2022
2462 Clouds 10 1026 55 10000 1.03 0 19:35 21.03.2022
2463 Clouds 11 1026 53 10000 1.03 0 18:46 21.03.2022
2464 Clouds 11 1026 49 10000 1.03 0 17:32 21.03.2022
2465 Clouds 11 1026 48 10000 1.54 120 16:53 21.03.2022
2466 Clouds 11 1026 46 10000 1.54 140 16:24 21.03.2022
2467 Clouds 11 1026 44 10000 1.79 125 15:21 21.03.2022
2468 Clouds 11 1026 43 10000 2.06 180 14:28 21.03.2022
2469 Clouds 11 1026 42 10000 2.57 180 12:53 21.03.2022
2470 Clouds 10 1027 49 10000 3.09 200 11:54 21.03.2022
2471 Clouds 8 1026 57 10000 2.57 180 10:49 21.03.2022
2472 Clear 4 1026 84 7000 0.51 60 09:21 21.03.2022
2473 Mist 1 1025 83 4200 0.51 0 06:59 21.03.2022
2474 Clear 2 1025 77 7000 0 0 03:29 21.03.2022
2475 Clear 3 1026 81 9000 1.54 50 00:35 21.03.2022
2476 Clear 5 1026 75 10000 2.06 80 22:55 20.03.2022
2477 Clear 5 1026 70 10000 2.06 80 21:57 20.03.2022
2478 Clear 6 1026 68 10000 1.54 100 21:29 20.03.2022
2479 Clear 7 1026 60 10000 1.54 90 20:45 20.03.2022
2480 Clear 8 1025 55 10000 1.54 90 20:00 20.03.2022
2481 Clear 8 1025 51 10000 1.54 90 19:38 20.03.2022
2482 Clear 10 1026 45 10000 1.54 0 18:40 20.03.2022
2483 Clear 11 1026 45 10000 2.06 0 17:37 20.03.2022
2484 Clear 11 1026 42 10000 3.6 110 16:57 20.03.2022
2485 Clouds 11 1026 43 10000 3.6 130 15:43 20.03.2022
2486 Clouds 11 1026 44 10000 4.12 100 14:36 20.03.2022
2487 Clouds 10 1028 53 10000 3.09 90 13:18 20.03.2022
2488 Clear 9 1030 67 10000 2.57 0 11:32 20.03.2022
2489 Clear 6 1029 75 10000 2.57 100 09:39 20.03.2022
2490 Clear 4 1030 79 10000 1.54 30 07:49 20.03.2022
2491 Clear 4 1030 80 10000 3.09 90 05:48 20.03.2022
2492 Clear 5 1032 75 10000 4.63 100 02:45 20.03.2022
2493 Clear 6 1033 66 10000 3.6 0 00:48 20.03.2022
2494 Clear 7 1033 61 10000 3.6 0 23:20 19.03.2022
2495 Clear 7 1033 59 10000 4.63 90 21:32 19.03.2022
2496 Clear 9 1033 51 10000 5.14 90 20:58 19.03.2022
2497 Clear 12 1034 54 10000 3.09 90 18:59 19.03.2022
2498 Clear 13 1034 52 10000 4.12 90 18:24 19.03.2022
2499 Clear 14 1035 51 10000 4.12 90 17:40 19.03.2022
2500 Clear 16 1035 42 10000 3.09 0 16:24 19.03.2022
2501 Clear 15 1036 42 10000 4.63 0 15:19 19.03.2022
2502 Clear 14 1038 48 10000 4.63 0 13:20 19.03.2022
2503 Clear 13 1039 53 10000 5.14 100 12:41 19.03.2022
2504 Clear 13 1038 53 10000 4.63 100 11:54 19.03.2022
2505 Clear 12 1040 60 10000 5.14 100 11:25 19.03.2022
2506 Clear 8 1040 71 10000 3.6 100 07:59 19.03.2022
2507 Clear 7 1041 76 10000 1.03 0 03:53 19.03.2022
2508 Clear 8 1042 73 10000 1.54 40 02:30 19.03.2022
2509 Clear 9 1042 75 10000 2.57 90 23:46 18.03.2022
2510 Clear 10 1042 74 10000 3.09 90 22:28 18.03.2022
2511 Clear 10 1042 69 10000 2.06 100 21:46 18.03.2022
2512 Clear 12 1042 59 10000 1.54 120 19:52 18.03.2022
2513 Clear 12 1042 59 10000 1.54 120 19:52 18.03.2022
2514 Clear 13 1042 55 10000 1.54 120 19:21 18.03.2022
2515 Clouds 15 1042 55 10000 2.57 130 17:52 18.03.2022
2516 Clouds 15 1042 49 10000 2.06 140 16:49 18.03.2022
2517 Clouds 16 1042 50 10000 3.09 180 15:32 18.03.2022
2518 Clouds 15 1042 55 9000 2.57 180 14:23 18.03.2022
2519 Clouds 14 1043 61 10000 2.57 160 12:36 18.03.2022
2520 Clouds 11 1043 79 10000 0.51 0 10:53 18.03.2022
2521 Clouds 7 1041 90 10000 1.54 90 09:30 18.03.2022
2522 Fog 5 1041 90 10000 1.03 0 08:32 18.03.2022
2523 Fog 4 1040 90 600 1.03 60 06:37 18.03.2022
2524 Clouds 6 1037 91 6000 1.54 150 02:57 18.03.2022
2525 Clouds 8 1035 87 10000 2.06 150 00:23 18.03.2022
2526 Clouds 8 1035 84 10000 2.06 170 23:24 17.03.2022
2527 Clouds 9 1033 81 10000 2.57 230 22:24 17.03.2022
2528 Clouds 9 1033 79 10000 2.57 210 21:48 17.03.2022
2529 Clouds 10 1033 80 10000 2.06 190 21:23 17.03.2022
2530 Clouds 10 1032 77 10000 2.57 200 20:44 17.03.2022
2531 Clouds 10 1032 75 10000 2.06 190 19:48 17.03.2022
2532 Clouds 12 1030 68 10000 3.09 200 18:59 17.03.2022
2533 Clouds 12 1030 68 10000 5.66 230 18:39 17.03.2022
2534 Clouds 12 1028 67 10000 8.23 240 16:49 17.03.2022
2535 Clouds 12 1028 66 10000 9.26 240 15:44 17.03.2022
2536 Clouds 12 1028 66 10000 8.23 240 15:24 17.03.2022
2537 Clouds 11 1028 64 10000 6.69 230 14:28 17.03.2022
2538 Clouds 11 1027 68 10000 5.14 210 12:54 17.03.2022
2539 Clouds 11 1027 70 10000 4.63 200 12:23 17.03.2022
2540 Clouds 9 1028 77 10000 3.09 200 11:27 17.03.2022
2541 Clouds 7 1027 83 10000 3.6 200 10:29 17.03.2022
2542 Clouds 3 1026 90 10000 2.57 170 08:34 17.03.2022
2543 Clouds 2 1026 90 10000 2.57 160 07:33 17.03.2022
2544 Clear 3 1024 90 10000 2.57 170 05:47 17.03.2022
2545 Clouds 4 1023 87 10000 2.57 280 01:23 17.03.2022
2546 Clouds 5 1022 90 10000 4.63 290 23:45 16.03.2022
2547 Clouds 6 1021 91 10000 4.12 300 22:45 16.03.2022
2548 Clouds 6 1021 93 10000 3.6 300 22:21 16.03.2022
2549 Clouds 6 1021 93 10000 5.14 300 21:37 16.03.2022
2550 Clouds 6 1018 90 10000 3.09 290 19:40 16.03.2022
2551 Rain 6 1018 90 10000 3.09 310 19:19 16.03.2022
2552 Rain 6 1018 90 10000 4.12 310 18:35 16.03.2022
2553 Rain 6 1018 90 7000 4.63 300 17:41 16.03.2022
2554 Rain 7 1017 86 10000 5.66 300 16:50 16.03.2022
2555 Rain 9 1017 85 4700 4.12 300 15:53 16.03.2022
2556 Clouds 11 1017 76 10000 2.06 280 14:24 16.03.2022
2557 Clouds 11 1017 78 10000 1.03 0 13:22 16.03.2022
2558 Clouds 10 1018 81 8000 1.03 0 11:51 16.03.2022
2559 Clouds 10 1019 83 8000 1.54 210 11:19 16.03.2022
2560 Clouds 9 1018 85 10000 1.03 0 10:18 16.03.2022
2561 Clouds 8 1018 86 10000 1.03 0 08:38 16.03.2022
2562 Clouds 8 1017 82 10000 1.54 170 04:35 16.03.2022
2563 Clouds 10 1018 74 10000 1.54 170 00:42 16.03.2022
2564 Clouds 10 1017 65 10000 1.54 170 22:37 15.03.2022
2565 Clouds 11 1017 64 10000 2.06 180 21:50 15.03.2022
2566 Clouds 11 1017 60 10000 2.06 190 19:47 15.03.2022
2567 Clouds 12 1017 57 10000 2.57 190 18:41 15.03.2022
2568 Clouds 13 1018 57 10000 4.12 190 16:47 15.03.2022
2569 Clouds 13 1017 54 10000 4.12 190 16:18 15.03.2022
2570 Clouds 13 1018 56 10000 3.6 180 14:55 15.03.2022
2571 Clear 13 1018 57 10000 3.09 190 14:30 15.03.2022
2572 Clouds 12 1020 64 10000 3.09 170 13:24 15.03.2022
2573 Clouds 10 1021 69 10000 2.57 170 11:48 15.03.2022
2574 Clouds 10 1020 65 10000 2.57 170 10:56 15.03.2022
2575 Clouds 6 1022 82 10000 0.51 0 09:31 15.03.2022
2576 Clouds 4 1021 77 10000 0.51 0 08:32 15.03.2022
2577 Clouds 3 1021 78 10000 1.54 300 07:44 15.03.2022
2578 Clear 2 1021 81 10000 1.03 100 06:32 15.03.2022
2579 Clear 4 1023 75 10000 2.06 130 01:59 15.03.2022
2580 Clouds 7 1025 68 10000 2.06 180 23:32 14.03.2022
2581 Clouds 7 1025 67 10000 2.06 180 22:54 14.03.2022
2582 Clouds 7 1026 67 10000 2.27 193 21:56 14.03.2022
2583 Clouds 8 1025 69 10000 2.06 190 21:18 14.03.2022
2584 Clouds 8 1024 69 10000 2.06 200 20:30 14.03.2022
2585 Clouds 8 1023 65 10000 2.06 190 19:33 14.03.2022
2586 Clouds 9 1022 66 10000 3.09 210 18:20 14.03.2022
2587 Clouds 9 1022 57 10000 7.72 260 17:42 14.03.2022
2588 Clouds 11 1021 44 10000 7.72 250 16:37 14.03.2022
2589 Clouds 12 1021 44 10000 6.69 220 14:58 14.03.2022
2590 Clouds 12 1021 47 10000 5.66 230 13:58 14.03.2022
2591 Clear 9 1022 70 10000 3.6 210 11:27 14.03.2022
2592 Clear 7 1020 84 10000 3.09 200 09:57 14.03.2022
2593 Clear 6 1019 86 10000 3.09 200 09:38 14.03.2022
2594 Clear 5 1019 89 10000 2.06 180 08:58 14.03.2022
2595 Clear 4 1018 90 10000 1.54 180 08:30 14.03.2022
2596 Clouds 4 1017 90 10000 1.54 160 06:47 14.03.2022
2597 Clear 5 1014 87 10000 2.06 180 03:27 14.03.2022
2598 Clouds 5 1012 86 10000 1.54 170 01:39 14.03.2022
2599 Clouds 6 1011 83 10000 2.06 180 00:29 14.03.2022
2600 Clouds 8 1009 78 10000 2.06 170 21:49 13.03.2022
2601 Clouds 8 1008 77 10000 2.06 0 21:21 13.03.2022
2602 Clouds 8 1008 77 10000 2.06 170 20:46 13.03.2022
2603 Clouds 9 1007 74 10000 1.54 180 20:22 13.03.2022
2604 Clouds 9 1006 74 10000 2.57 180 19:42 13.03.2022
2605 Clouds 9 1006 76 10000 1.54 170 19:22 13.03.2022
2606 Clouds 10 1005 68 10000 2.57 180 18:45 13.03.2022
2607 Clouds 10 1004 64 10000 2.57 170 18:25 13.03.2022
2608 Clouds 11 1003 59 10000 3.6 210 17:36 13.03.2022
2609 Clouds 12 1003 58 10000 5.14 190 16:45 13.03.2022
2610 Clouds 12 1003 55 10000 5.66 180 16:21 13.03.2022
2611 Clouds 12 1002 56 10000 4.63 180 15:39 13.03.2022
2612 Clouds 12 1001 54 10000 5.14 180 14:37 13.03.2022
2613 Clouds 12 1001 56 10000 5.66 170 13:28 13.03.2022
2614 Clouds 11 1001 64 10000 5.66 170 12:22 13.03.2022
2615 Clouds 11 1001 67 10000 4.63 160 11:38 13.03.2022
2616 Clouds 10 1000 73 10000 4.63 160 10:49 13.03.2022
2617 Clouds 10 1000 76 10000 4.63 170 10:25 13.03.2022
2618 Clouds 9 1000 81 10000 4.63 160 09:42 13.03.2022
2619 Clouds 8 1000 85 10000 4.12 140 08:49 13.03.2022
2620 Clouds 8 1000 85 10000 5.66 150 08:23 13.03.2022
2621 Clouds 8 999 81 10000 5.14 150 06:40 13.03.2022
2622 Clouds 8 1001 78 10000 5.66 160 03:56 13.03.2022
2623 Clouds 9 1002 70 10000 4.63 140 00:48 13.03.2022
2624 Clouds 9 1003 66 10000 5.14 150 22:48 12.03.2022
2625 Clouds 9 1003 62 10000 4.63 140 20:59 12.03.2022
2626 Clouds 9 1004 63 10000 4.63 140 19:58 12.03.2022
2627 Clouds 10 1004 60 10000 4.63 140 19:39 12.03.2022
2628 Clouds 10 1005 65 10000 4.12 150 18:31 12.03.2022
2629 Clouds 11 1005 61 10000 4.12 170 17:46 12.03.2022
2630 Clouds 12 1005 56 10000 3.6 0 16:25 12.03.2022
2631 Clouds 12 1004 51 10000 4.12 170 15:24 12.03.2022
2632 Clouds 12 1004 54 10000 4.12 180 14:52 12.03.2022
2633 Clouds 11 1005 62 10000 4.12 190 13:53 12.03.2022
2634 Clouds 11 1005 62 10000 4.12 190 13:53 12.03.2022
2635 Clouds 10 1004 68 10000 3.6 180 12:25 12.03.2022
2636 Clouds 10 1004 70 10000 4.63 190 11:51 12.03.2022
2637 Clouds 10 1003 73 10000 4.12 180 11:19 12.03.2022
2638 Clouds 8 1003 80 10000 3.6 190 09:58 12.03.2022
2639 Clouds 8 1003 80 10000 3.6 190 09:38 12.03.2022
2640 Clouds 8 1001 84 10000 4.63 190 07:50 12.03.2022
2641 Clouds 9 1000 84 10000 2.57 150 04:50 12.03.2022
2642 Clouds 9 1000 84 10000 2.57 150 00:21 12.03.2022
2643 Rain 8 1000 85 10000 3.09 160 23:28 11.03.2022
2644 Clouds 9 999 87 10000 2.57 170 21:47 11.03.2022
2645 Rain 9 998 88 10000 4.12 190 20:57 11.03.2022
2646 Rain 9 998 88 10000 4.12 190 20:37 11.03.2022
2647 Rain 9 998 88 10000 4.12 190 20:37 11.03.2022
2648 Rain 9 997 88 10000 4.63 150 19:52 11.03.2022
2649 Rain 9 997 91 10000 3.6 150 19:22 11.03.2022
2650 Clouds 11 996 82 6000 3.6 130 17:34 11.03.2022
2651 Rain 11 997 83 10000 3.09 140 16:38 11.03.2022
2652 Clouds 12 996 70 10000 4.63 130 15:55 11.03.2022
2653 Clouds 13 998 65 10000 6.17 140 14:20 11.03.2022
2654 Clouds 12 999 65 10000 5.66 130 12:45 11.03.2022
2655 Clouds 12 999 68 10000 5.66 130 12:21 11.03.2022
2656 Clouds 12 999 67 10000 5.66 140 11:53 11.03.2022
2657 Clouds 11 1002 70 10000 4.63 140 09:59 11.03.2022
2658 Clouds 10 1001 73 10000 4.63 130 08:56 11.03.2022
2659 Clouds 10 1003 78 10000 4.12 130 08:24 11.03.2022
2660 Clouds 10 1002 75 10000 5.14 130 07:45 11.03.2022
2661 Clouds 11 1003 75 10000 3.09 120 05:44 11.03.2022
2662 Clouds 11 1006 78 10000 3.09 130 03:41 11.03.2022
2663 Clouds 12 1008 72 10000 3.09 130 23:36 10.03.2022
2664 Clouds 12 1009 73 10000 3.09 140 22:30 10.03.2022
2665 Clouds 11 1010 74 10000 2.57 150 21:27 10.03.2022
2666 Clouds 11 1010 73 10000 2.57 160 20:55 10.03.2022
2667 Clouds 12 1010 66 10000 2.06 0 19:23 10.03.2022
2668 Clouds 12 1010 65 10000 2.06 210 18:40 10.03.2022
2669 Clouds 13 1011 59 10000 5.14 190 17:19 10.03.2022
2670 Clouds 14 1011 56 10000 5.14 180 15:50 10.03.2022
2671 Clouds 14 1012 53 10000 4.63 180 14:39 10.03.2022
2672 Clouds 12 1012 61 10000 5.14 170 12:53 10.03.2022
2673 Clouds 11 1013 72 10000 3.6 160 11:42 10.03.2022
2674 Clouds 11 1014 75 10000 4.12 0 10:24 10.03.2022
2675 Clouds 10 1013 73 10000 3.6 140 08:49 10.03.2022
2676 Clouds 9 1012 73 10000 4.12 150 06:36 10.03.2022
2677 Clouds 9 1013 77 10000 3.09 140 03:52 10.03.2022
2678 Clouds 10 1014 75 10000 3.6 150 00:51 10.03.2022
2679 Clouds 10 1013 71 10000 4.12 160 22:46 09.03.2022
2680 Clouds 10 1013 71 10000 3.6 150 21:48 09.03.2022
2681 Clouds 10 1013 70 10000 2.57 160 21:23 09.03.2022
2682 Clouds 11 1012 65 10000 3.6 160 19:40 09.03.2022
2683 Clouds 11 1011 62 10000 3.6 160 18:19 09.03.2022
2684 Clouds 12 1010 57 10000 4.12 170 17:26 09.03.2022
2685 Clouds 12 1010 52 10000 6.17 170 16:23 09.03.2022
2686 Clouds 12 1011 57 10000 5.14 170 14:27 09.03.2022
2687 Clouds 12 1011 57 10000 5.14 180 13:51 09.03.2022
2688 Clouds 11 1011 61 10000 4.63 170 12:27 09.03.2022
2689 Clouds 11 1011 65 10000 4.63 180 11:48 09.03.2022
2690 Clouds 10 1012 71 10000 4.63 180 10:59 09.03.2022
2691 Clouds 9 1011 73 10000 4.63 160 09:40 09.03.2022
2692 Clouds 8 1011 81 10000 3.09 160 08:45 09.03.2022
2693 Clouds 8 1011 83 10000 3.09 170 06:25 09.03.2022
2694 Clouds 8 1012 74 10000 3.76 159 00:59 09.03.2022
2695 Clouds 9 1011 72 10000 3.09 0 23:48 08.03.2022
2696 Clouds 9 1012 71 10000 3.6 170 22:46 08.03.2022
2697 Clouds 9 1011 66 10000 4.12 180 21:51 08.03.2022
2698 Clouds 9 1010 63 10000 3.09 160 21:21 08.03.2022
2699 Clouds 10 1010 59 10000 3.09 150 20:21 08.03.2022
2700 Clouds 10 1009 59 10000 4.63 140 18:57 08.03.2022
2701 Clouds 10 1008 57 10000 4.63 140 18:21 08.03.2022
2702 Clouds 11 1009 55 10000 4.63 160 16:40 08.03.2022
2703 Clouds 10 1009 52 10000 3.6 150 14:36 08.03.2022
2704 Clear 9 1010 53 10000 4.12 140 13:23 08.03.2022
2705 Clear 7 1011 55 10000 4.12 150 12:20 08.03.2022
2706 Clear 6 1011 59 10000 3.09 120 11:41 08.03.2022
2707 Clear 4 1011 62 10000 3.09 0 10:27 08.03.2022
2708 Clear 2 1011 69 10000 4.12 130 08:54 08.03.2022
2709 Clear 1 1013 72 10000 2.57 110 05:49 08.03.2022
2710 Clouds 3 1016 71 10000 3.6 130 01:49 08.03.2022
2711 Clouds 3 1018 72 10000 3.6 110 22:41 07.03.2022
2712 Clear 4 1018 74 10000 3.09 100 21:36 07.03.2022
2713 Clear 4 1018 72 10000 3.6 90 20:55 07.03.2022
2714 Clear 4 1020 73 10000 2.57 100 20:26 07.03.2022
2715 Clear 5 1020 70 10000 3.6 90 19:41 07.03.2022
2716 Clouds 6 1019 62 10000 2.57 0 18:47 07.03.2022
2717 Clouds 7 1020 56 10000 3.6 110 17:58 07.03.2022
2718 Clouds 8 1021 56 10000 2.57 0 16:56 07.03.2022
2719 Clouds 8 1021 55 10000 4.12 90 16:30 07.03.2022
2720 Clouds 7 1024 62 10000 3.6 130 14:31 07.03.2022
2721 Clouds 6 1026 71 10000 2.57 120 12:33 07.03.2022
2722 Clouds 5 1027 72 10000 1.03 0 10:45 07.03.2022
2723 Clouds 4 1027 72 10000 1.03 0 10:24 07.03.2022
2724 Clouds 1 1028 87 10000 1.54 50 06:35 07.03.2022
2725 Clear 1 1031 80 10000 1.03 0 00:23 07.03.2022
2726 Clouds 2 1030 76 10000 2.06 70 23:41 06.03.2022
2727 Clear 3 1030 72 10000 1.03 0 22:58 06.03.2022
2728 Clear 3 1030 73 10000 2.06 270 22:24 06.03.2022
2729 Clear 3 1030 73 10000 2.06 270 22:24 06.03.2022
2730 Clouds 4 1030 65 10000 1.03 0 20:51 06.03.2022
2731 Clear 5 1029 63 10000 1.54 80 20:26 06.03.2022
2732 Clear 6 1029 59 10000 3.09 80 19:23 06.03.2022
2733 Clouds 8 1029 52 10000 3.09 60 18:25 06.03.2022
2734 Clouds 9 1030 54 10000 5.14 50 17:21 06.03.2022
2735 Clouds 9 1030 52 10000 4.12 40 16:43 06.03.2022
2736 Clouds 9 1030 49 10000 4.12 50 15:54 06.03.2022
2737 Clouds 9 1030 53 10000 3.09 70 14:57 06.03.2022
2738 Clouds 9 1030 51 10000 3.09 70 14:33 06.03.2022
2739 Clouds 8 1032 58 10000 5.14 50 13:30 06.03.2022
2740 Clouds 7 1033 65 10000 4.12 70 12:35 06.03.2022
2741 Clouds 6 1032 72 10000 3.09 20 11:18 06.03.2022
2742 Clouds 5 1032 81 10000 4.12 350 10:27 06.03.2022
2743 Clouds 2 1031 85 10000 2.57 300 08:30 06.03.2022
2744 Clouds 2 1031 86 10000 2.57 300 08:30 06.03.2022
2745 Clouds 2 1032 89 10000 1.54 330 07:35 06.03.2022
2746 Clouds 3 1031 89 10000 2.57 360 06:19 06.03.2022
2747 Clouds 4 1030 81 10000 4.12 360 00:53 06.03.2022
2748 Clouds 4 1030 80 10000 3.6 10 00:31 06.03.2022
2749 Clouds 4 1031 83 10000 5.14 20 23:23 05.03.2022
2750 Clouds 4 1030 77 10000 4.12 10 22:53 05.03.2022
2751 Clouds 4 1030 76 10000 5.66 10 21:56 05.03.2022
2752 Clouds 4 1030 74 10000 5.14 360 21:23 05.03.2022
2753 Clouds 6 1028 69 10000 7.72 20 19:44 05.03.2022
2754 Clouds 6 1028 63 10000 7.72 30 18:54 05.03.2022
2755 Clouds 7 1027 61 10000 6.17 30 18:27 05.03.2022
2756 Clouds 8 1027 50 10000 7.72 10 16:34 05.03.2022
2757 Clouds 8 1027 51 10000 9.26 20 15:31 05.03.2022
2758 Clouds 8 1027 50 10000 7.72 30 14:47 05.03.2022
2759 Clouds 8 1027 51 10000 7.2 10 14:29 05.03.2022
2760 Clouds 8 1027 55 10000 6.69 10 13:21 05.03.2022
2761 Clouds 6 1027 68 10000 6.17 350 11:48 05.03.2022
2762 Clouds 6 1027 67 10000 4.63 340 11:18 05.03.2022
2763 Clear 4 1027 78 10000 2.57 340 09:59 05.03.2022
2764 Clear 3 1026 84 10000 2.57 330 08:59 05.03.2022
2765 Clouds 2 1025 81 10000 2.57 330 07:38 05.03.2022
2766 Clouds 3 1024 87 10000 2.57 330 05:43 05.03.2022
2767 Clouds 4 1023 86 10000 1.54 350 02:27 05.03.2022
2768 Clouds 4 1022 89 10000 2.06 330 23:37 04.03.2022
2769 Clouds 4 1022 85 10000 2.57 320 22:42 04.03.2022
2770 Clouds 5 1021 84 10000 2.06 310 21:48 04.03.2022
2771 Clouds 5 1022 84 10000 2.57 300 20:52 04.03.2022
2772 Clouds 5 1022 84 10000 2.57 290 20:22 04.03.2022
2773 Clouds 6 1022 83 10000 3.6 300 19:35 04.03.2022
2774 Clouds 7 1021 73 10000 5.14 290 18:43 04.03.2022
2775 Clouds 8 1021 70 10000 5.66 290 17:31 04.03.2022
2776 Clouds 9 1021 69 10000 5.66 290 16:43 04.03.2022
2777 Clouds 9 1020 70 10000 5.66 290 15:28 04.03.2022
2778 Clouds 8 1020 73 10000 5.66 300 14:19 04.03.2022
2779 Clouds 8 1020 77 10000 5.14 290 13:24 04.03.2022
2780 Clouds 7 1019 87 10000 3.09 290 11:41 04.03.2022
2781 Clouds 6 1019 90 10000 1.54 290 10:42 04.03.2022
2782 Clouds 5 1019 91 10000 2.06 330 09:40 04.03.2022
2783 Clouds 5 1018 92 10000 2.06 310 08:34 04.03.2022
2784 Clouds 5 1017 94 10000 0.89 197 07:23 04.03.2022
2785 Rain 5 1016 94 10000 4.63 300 03:43 04.03.2022
2786 Rain 6 1016 93 10000 5.14 310 00:22 04.03.2022
2787 Drizzle 7 1015 93 3900 4.63 300 22:21 03.03.2022
2788 Drizzle 7 1016 95 3500 5.14 310 21:39 03.03.2022
2789 Drizzle 7 1015 93 4500 4.12 300 21:18 03.03.2022
2790 Drizzle 8 1014 92 800 1.54 290 19:48 03.03.2022
2791 Mist 8 1014 91 1200 1.03 50 18:51 03.03.2022
2792 Drizzle 8 1013 89 1200 1.03 30 18:22 03.03.2022
2793 Haze 8 1013 88 3900 1.54 40 17:27 03.03.2022
2794 Rain 9 1013 83 3500 1.03 0 15:48 03.03.2022
2795 Haze 8 1014 90 2500 1.03 0 14:59 03.03.2022
2796 Drizzle 8 1014 92 2500 1.03 0 14:33 03.03.2022
2797 Haze 8 1014 90 3300 0.51 0 13:18 03.03.2022
2798 Haze 8 1014 90 3300 0.51 0 13:18 03.03.2022
2799 Haze 8 1014 90 3300 0.51 0 13:18 03.03.2022
2800 Clouds 8 1014 87 7000 1.03 0 11:45 03.03.2022
2801 Clouds 7 1014 88 7000 2.06 160 10:40 03.03.2022
2802 Clouds 6 1013 89 7000 1.54 120 08:45 03.03.2022
2803 Clouds 6 1012 86 6000 2.57 140 07:25 03.03.2022
2804 Clouds 6 1012 85 6000 3.09 140 06:34 03.03.2022
2805 Clouds 6 1014 80 10000 3.09 130 01:45 03.03.2022
2806 Clouds 6 1015 85 10000 3.09 130 23:29 02.03.2022
2807 Clouds 6 1015 84 10000 3.09 140 22:50 02.03.2022
2808 Clouds 6 1015 84 10000 3.09 140 22:50 02.03.2022
2809 Clouds 7 1015 88 10000 3.09 120 21:29 02.03.2022
2810 Clouds 7 1015 86 10000 3.6 120 20:44 02.03.2022
2811 Clouds 7 1016 86 10000 3.6 120 19:56 02.03.2022
2812 Clouds 7 1017 89 10000 3.6 120 19:34 02.03.2022
2813 Clouds 7 1017 89 10000 4.12 120 18:44 02.03.2022
2814 Clouds 7 1016 86 10000 3.09 130 17:57 02.03.2022
2815 Clouds 7 1016 85 10000 2.57 0 17:21 02.03.2022
2816 Rain 7 1017 85 10000 2.57 0 16:42 02.03.2022
2817 Rain 7 1018 85 10000 3.09 100 14:43 02.03.2022
2818 Rain 7 1020 89 10000 2.57 100 13:24 02.03.2022
2819 Clouds 7 1020 88 10000 2.06 0 12:42 02.03.2022
2820 Clouds 7 1020 88 10000 3.09 100 11:40 02.03.2022
2821 Clouds 7 1020 88 10000 3.6 100 11:21 02.03.2022
2822 Rain 6 1021 92 10000 3.09 100 09:41 02.03.2022
2823 Clouds 6 1021 91 10000 3.6 100 08:54 02.03.2022
2824 Clouds 6 1021 90 10000 3.6 0 07:28 02.03.2022
2825 Clouds 6 1021 91 10000 3.6 100 06:40 02.03.2022
2826 Clouds 6 1026 83 10000 4.12 90 01:32 02.03.2022
2827 Clouds 6 1026 78 10000 3.6 90 23:47 01.03.2022
2828 Clouds 6 1026 78 10000 4.63 80 22:45 01.03.2022
2829 Clouds 6 1027 76 10000 3.6 70 21:58 01.03.2022
2830 Clouds 6 1026 75 10000 5.14 80 21:24 01.03.2022
2831 Clouds 6 1026 75 10000 3.6 90 20:30 01.03.2022
2832 Clouds 6 1026 75 10000 3.6 90 20:30 01.03.2022
2833 Clouds 7 1026 69 10000 4.12 80 19:28 01.03.2022
2834 Clouds 7 1026 67 10000 3.6 80 18:49 01.03.2022
2835 Clouds 8 1026 63 10000 4.12 80 18:19 01.03.2022
2836 Clouds 9 1027 62 10000 3.09 90 17:19 01.03.2022
2837 Clouds 9 1027 57 10000 4.12 60 16:31 01.03.2022
2838 Clouds 10 1027 53 10000 5.66 50 15:32 01.03.2022
2839 Clouds 10 1028 56 10000 4.12 60 14:34 01.03.2022
2840 Clouds 9 1029 62 10000 3.09 80 13:45 01.03.2022
2841 Clouds 9 1029 64 10000 2.06 80 13:22 01.03.2022
2842 Clouds 7 1030 69 10000 4.12 50 12:27 01.03.2022
2843 Clouds 4 1029 87 10000 2.06 50 10:33 01.03.2022
2844 Fog 2 1029 90 10000 2.57 350 08:41 01.03.2022
2845 Fog 2 1028 92 10000 0.51 0 07:40 01.03.2022
2846 Mist 3 1027 94 3000 2.06 340 04:50 01.03.2022
2847 Clouds 5 1025 94 10000 2.06 340 01:43 01.03.2022
2848 Clouds 6 1024 92 10000 1.54 310 23:48 28.02.2022
2849 Clouds 6 1025 95 10000 1.03 320 23:19 28.02.2022
2850 Rain 7 1024 95 10000 2.06 300 21:59 28.02.2022
2851 Clouds 7 1023 98 10000 2.06 300 21:24 28.02.2022
2852 Rain 7 1021 90 10000 3.09 310 19:52 28.02.2022
2853 Rain 8 1021 90 7000 3.6 310 19:26 28.02.2022
2854 Rain 8 1020 90 8000 3.6 310 18:36 28.02.2022
2855 Rain 9 1019 93 6000 3.09 190 17:24 28.02.2022
2856 Rain 10 1018 90 4300 2.06 200 16:33 28.02.2022
2857 Clouds 10 1018 89 10000 3.09 180 15:23 28.02.2022
2858 Clouds 10 1018 87 4000 3.6 180 14:31 28.02.2022
2859 Clouds 10 1020 83 10000 3.09 190 13:34 28.02.2022
2860 Clouds 10 1019 80 10000 3.6 180 12:37 28.02.2022
2861 Clouds 9 1019 88 10000 3.6 180 11:40 28.02.2022
2862 Clouds 8 1018 88 10000 3.09 180 10:44 28.02.2022
2863 Rain 8 1018 86 10000 3.09 160 10:19 28.02.2022
2864 Rain 8 1019 89 10000 2.57 160 09:30 28.02.2022
2865 Rain 7 1019 85 8000 2.57 160 08:26 28.02.2022
2866 Rain 7 1018 85 10000 1.34 312 07:19 28.02.2022
2867 Clouds 6 1019 84 10000 2.06 0 04:31 28.02.2022
2868 Clouds 6 1019 79 10000 2.57 160 03:30 28.02.2022
2869 Clear 6 1019 66 10000 3.6 160 23:26 27.02.2022
2870 Clear 7 1019 60 10000 3.6 170 22:33 27.02.2022
2871 Clear 7 1020 58 10000 3.6 160 21:47 27.02.2022
2872 Clear 7 1019 56 10000 3.6 140 20:54 27.02.2022
2873 Clear 8 1019 55 10000 3.6 140 20:27 27.02.2022
2874 Clear 8 1020 60 10000 3.6 140 19:56 27.02.2022
2875 Clear 8 1019 57 10000 2.57 140 19:26 27.02.2022
2876 Clear 9 1019 58 10000 3.09 140 18:39 27.02.2022
2877 Clear 10 1018 52 10000 4.12 150 17:54 27.02.2022
2878 Clear 11 1019 50 10000 4.12 160 16:37 27.02.2022
2879 Clear 10 1019 52 10000 4.12 140 15:55 27.02.2022
2880 Clear 7 1022 66 10000 4.12 0 12:53 27.02.2022
2881 Clear 7 1022 67 10000 4.63 160 12:29 27.02.2022
2882 Clear 5 1023 72 10000 3.09 160 10:50 27.02.2022
2883 Clear 4 1022 75 10000 3.09 140 09:58 27.02.2022
2884 Clear 3 1022 77 10000 3.6 140 09:29 27.02.2022
2885 Clear 3 1022 77 10000 3.6 140 08:59 27.02.2022
2886 Clear 3 1021 73 10000 3.6 150 06:43 27.02.2022
2887 Clear 3 1022 71 10000 3.6 0 05:35 27.02.2022
2888 Clouds 5 1022 64 10000 3.6 0 00:37 27.02.2022
2889 Clouds 6 1023 64 10000 4.12 150 22:51 26.02.2022
2890 Clouds 7 1022 62 10000 4.12 150 21:38 26.02.2022
2891 Clouds 7 1022 58 10000 3.09 0 20:48 26.02.2022
2892 Clouds 8 1022 62 10000 3.6 150 19:59 26.02.2022
2893 Clouds 8 1023 65 10000 3.6 150 19:37 26.02.2022
2894 Clouds 9 1022 61 10000 2.57 170 18:46 26.02.2022
2895 Clouds 9 1023 62 10000 4.12 180 17:40 26.02.2022
2896 Clouds 10 1023 59 10000 4.12 180 16:48 26.02.2022
2897 Clouds 10 1023 58 10000 5.66 180 15:48 26.02.2022
2898 Clouds 10 1024 57 10000 5.66 180 15:20 26.02.2022
2899 Clouds 10 1024 61 10000 5.66 180 14:52 26.02.2022
2900 Clouds 10 1024 62 10000 5.14 190 14:25 26.02.2022
2901 Clouds 9 1025 69 10000 5.14 190 13:18 26.02.2022
2902 Clouds 8 1026 76 10000 3.09 180 11:54 26.02.2022
2903 Clouds 7 1027 79 10000 3.09 170 11:28 26.02.2022
2904 Clouds 6 1027 78 10000 2.57 170 10:31 26.02.2022
2905 Clouds 3 1027 85 10000 2.06 0 08:48 26.02.2022
2906 Clouds 3 1026 83 10000 1.34 345 06:46 26.02.2022
2907 Clouds 5 1028 78 10000 2.57 180 00:38 26.02.2022
2908 Clouds 5 1028 77 10000 1.54 170 22:45 25.02.2022
2909 Clouds 5 1028 76 10000 1.03 0 21:40 25.02.2022
2910 Clouds 6 1029 78 10000 1.54 180 21:21 25.02.2022
2911 Clouds 6 1028 79 10000 1.54 180 20:32 25.02.2022
2912 Clouds 8 1027 69 10000 1.03 0 18:41 25.02.2022
2913 Clouds 8 1027 63 10000 4.12 270 17:23 25.02.2022
2914 Clouds 9 1026 63 10000 4.63 280 16:21 25.02.2022
2915 Clouds 9 1026 66 10000 4.12 300 15:42 25.02.2022
2916 Clouds 9 1026 64 10000 4.63 290 15:20 25.02.2022
2917 Clouds 9 1026 63 10000 6.69 280 14:41 25.02.2022
2918 Clouds 9 1025 66 10000 6.69 280 13:36 25.02.2022
2919 Clouds 8 1025 70 10000 6.69 280 12:45 25.02.2022
2920 Clouds 8 1023 75 10000 4.63 300 11:28 25.02.2022
2921 Clouds 6 1022 81 10000 5.66 290 10:29 25.02.2022
2922 Clouds 6 1022 82 10000 5.66 280 09:53 25.02.2022
2923 Clouds 5 1020 80 10000 5.66 270 08:46 25.02.2022
2924 Clouds 5 1018 79 10000 6.69 280 07:37 25.02.2022
2925 Clouds 5 1016 81 10000 7.2 270 05:47 25.02.2022
2926 Clouds 5 1016 84 10000 6.69 260 03:34 25.02.2022
2927 Rain 3 1010 85 9000 4.63 200 23:42 24.02.2022
2928 Clouds 4 1010 76 10000 2.24 346 21:56 24.02.2022
2929 Clouds 4 1010 77 10000 3.6 210 21:37 24.02.2022
2930 Clouds 4 1010 75 10000 5.14 220 21:18 24.02.2022
2931 Clouds 5 1009 70 10000 6.17 240 19:38 24.02.2022
2932 Clouds 5 1008 68 10000 7.2 260 18:38 24.02.2022
2933 Clouds 5 1008 67 10000 9.26 260 18:18 24.02.2022
2934 Clouds 5 1008 67 10000 10.29 270 17:33 24.02.2022
2935 Clouds 5 1008 67 10000 10.29 270 17:33 24.02.2022
2936 Clouds 5 1006 68 10000 9.77 270 16:29 24.02.2022
2937 Clouds 5 1006 66 10000 10.29 280 15:47 24.02.2022
2938 Clouds 5 1005 74 10000 3.58 118 14:53 24.02.2022
2939 Clouds 4 1005 70 10000 11.32 270 14:26 24.02.2022
2940 Clouds 5 1005 72 10000 8.23 270 13:39 24.02.2022
2941 Clouds 4 1004 83 10000 10.29 250 12:49 24.02.2022
2942 Clouds 4 1003 80 10000 5.14 220 10:40 24.02.2022
2943 Clouds 3 1003 86 10000 4.12 210 08:58 24.02.2022
2944 Clouds 3 1003 86 10000 4.12 210 08:39 24.02.2022
2945 Rain 4 1004 82 10000 5.14 220 05:52 24.02.2022
2946 Clouds 5 1007 93 10000 4.12 250 01:56 24.02.2022
2947 Rain 9 1006 81 10000 6.17 210 22:38 23.02.2022
2948 Clouds 9 1007 74 10000 5.66 200 21:40 23.02.2022
2949 Clouds 9 1008 75 10000 5.14 200 20:31 23.02.2022
2950 Clouds 9 1008 75 10000 5.14 200 19:46 23.02.2022
2951 Clouds 9 1009 77 10000 5.66 200 18:32 23.02.2022
2952 Clouds 9 1010 79 10000 4.12 200 17:36 23.02.2022
2953 Clouds 10 1012 71 10000 6.69 210 14:42 23.02.2022
2954 Clouds 9 1015 69 10000 1.79 327 12:42 23.02.2022
2955 Clouds 9 1015 72 10000 5.14 210 11:34 23.02.2022
2956 Clouds 8 1016 73 10000 5.14 200 10:31 23.02.2022
2957 Clouds 7 1017 72 10000 4.63 200 08:59 23.02.2022
2958 Clouds 6 1018 73 10000 3.09 190 07:58 23.02.2022
2959 Clouds 6 1020 77 10000 5.66 230 03:48 23.02.2022
2960 Clear 7 1020 79 10000 0.89 32 00:26 23.02.2022
2961 Clouds 6 1020 79 10000 3.09 200 23:35 22.02.2022
2962 Clear 6 1019 80 10000 0.45 90 22:31 22.02.2022
2963 Clear 6 1018 80 10000 0.89 111 21:49 22.02.2022
2964 Clouds 6 1018 76 10000 0.45 81 21:30 22.02.2022
2965 Clear 7 1018 72 10000 4.63 270 20:52 22.02.2022
2966 Clear 7 1019 77 10000 5.66 260 20:29 22.02.2022
2967 Clear 7 1017 77 10000 4.63 260 19:36 22.02.2022
2968 Clouds 7 1017 76 10000 5.14 260 19:18 22.02.2022
2969 Clouds 9 1016 66 10000 8.75 270 17:46 22.02.2022
2970 Clouds 9 1014 64 10000 9.26 270 17:20 22.02.2022
2971 Clouds 9 1014 63 10000 9.77 280 16:36 22.02.2022
2972 Clouds 9 1013 69 10000 9.26 270 15:39 22.02.2022
2973 Clouds 9 1013 72 10000 9.77 280 14:44 22.02.2022
2974 Clouds 8 1010 82 10000 7.72 280 12:21 22.02.2022
2975 Clouds 10 1007 89 9000 7.72 230 10:39 22.02.2022
2976 Clouds 9 1009 84 10000 4.12 200 07:52 22.02.2022
2977 Clouds 9 1010 87 10000 3.6 190 07:26 22.02.2022
2978 Clouds 7 1014 88 10000 3.6 180 04:31 22.02.2022
2979 Clouds 6 1017 83 10000 2.57 190 01:44 22.02.2022
2980 Clouds 6 1017 83 10000 2.57 190 01:44 22.02.2022
2981 Clouds 6 1018 88 10000 2.57 250 22:44 21.02.2022
2982 Clouds 6 1018 81 10000 2.06 270 21:31 21.02.2022
2983 Clear 7 1017 74 10000 2.06 290 20:34 21.02.2022
2984 Clear 7 1017 74 10000 2.06 290 20:34 21.02.2022
2985 Clouds 8 1015 72 10000 7.2 300 18:42 21.02.2022
2986 Clouds 9 1013 70 10000 9.77 300 16:56 21.02.2022
2987 Clouds 9 1009 73 10000 12.35 300 14:52 21.02.2022
2988 Clouds 9 1009 73 10000 12.35 300 14:52 21.02.2022
2989 Clouds 9 1009 78 7000 10.8 300 14:21 21.02.2022
2990 Rain 8 1006 74 10000 12.35 300 12:59 21.02.2022
2991 Clouds 9 1005 75 10000 11.32 310 12:23 21.02.2022
2992 Rain 8 1000 84 10000 11.83 290 10:51 21.02.2022
2993 Clouds 8 997 83 5000 15.95 270 09:30 21.02.2022
2994 Clouds 8 997 83 5000 15.95 270 09:30 21.02.2022
2995 Clouds 5 997 74 10000 9.26 260 02:58 21.02.2022
2996 Clouds 4 994 79 10000 11.32 260 23:29 20.02.2022
2997 Rain 4 995 74 10000 11.32 270 22:20 20.02.2022
2998 Clouds 5 994 74 10000 10.8 270 21:41 20.02.2022
2999 Clouds 5 992 71 10000 2.68 105 20:52 20.02.2022
3000 Rain 5 991 70 10000 12.86 280 20:22 20.02.2022
3001 Clouds 6 990 85 10000 13.89 280 19:29 20.02.2022
3002 Clouds 6 988 87 5000 12.86 260 18:49 20.02.2022
3003 Rain 7 988 85 10000 11.83 260 18:30 20.02.2022
3004 Rain 8 987 83 10000 8.75 250 17:30 20.02.2022
3005 Rain 11 989 93 5000 6.69 220 15:30 20.02.2022
3006 Rain 11 991 90 9000 6.17 220 14:39 20.02.2022
3007 Clouds 11 993 85 10000 9.26 220 13:22 20.02.2022
3008 Clouds 11 993 85 10000 9.26 220 13:22 20.02.2022
3009 Clouds 11 993 85 10000 9.26 220 13:22 20.02.2022
3010 Rain 11 995 87 10000 8.75 220 12:20 20.02.2022
3011 Clouds 10 996 91 8000 6.17 210 10:21 20.02.2022
3012 Rain 10 997 91 5000 5.66 210 09:52 20.02.2022
3013 Rain 10 998 87 7000 9.77 230 06:44 20.02.2022
3014 Rain 4 1003 91 10000 2.57 160 00:33 20.02.2022
3015 Rain 3 1005 90 10000 2.06 170 23:39 19.02.2022
3016 Clouds 3 1006 93 10000 1.54 160 22:25 19.02.2022
3017 Clouds 3 1007 93 10000 1.54 170 21:54 19.02.2022
3018 Clouds 3 1007 93 10000 1.54 190 20:48 19.02.2022
3019 Clouds 3 1007 90 10000 1.54 260 19:36 19.02.2022
3020 Clouds 3 1005 87 10000 2.57 280 18:41 19.02.2022
3021 Clouds 3 1004 87 10000 3.6 330 17:59 19.02.2022
3022 Clouds 4 1004 86 10000 3.6 330 17:32 19.02.2022
3023 Clouds 4 1000 90 10000 4.12 220 15:59 19.02.2022
3024 Clouds 4 999 91 10000 5.14 210 14:55 19.02.2022
3025 Rain 3 999 89 10000 5.14 190 13:58 19.02.2022
3026 Rain 3 1003 89 9000 2.06 170 11:58 19.02.2022
3027 Rain 3 1004 87 9000 2.57 140 11:29 19.02.2022
3028 Clouds 3 1006 83 10000 2.57 190 09:21 19.02.2022
3029 Clouds 3 1006 78 10000 0.89 63 06:49 19.02.2022
3030 Clouds 4 1002 82 9948 2.24 179 00:50 19.02.2022
3031 Clouds 4 1001 75 10000 11.83 270 22:33 18.02.2022
3032 Clouds 4 998 75 10000 8.75 260 21:26 18.02.2022
3033 Clouds 4 996 78 10000 10.8 260 20:25 18.02.2022
3034 Clouds 4 996 73 10000 12.35 270 19:50 18.02.2022
3035 Clouds 5 994 71 10000 13.38 270 18:37 18.02.2022
3036 Clouds 5 993 72 10000 13.89 260 18:18 18.02.2022
3037 Clouds 5 990 70 10000 15.43 270 17:18 18.02.2022
3038 Clouds 5 980 89 10000 9.26 270 14:30 18.02.2022
3039 Clouds 5 978 87 10000 8.23 270 13:46 18.02.2022
3040 Rain 6 975 86 10000 1.34 328 12:50 18.02.2022
3041 Rain 6 978 81 10000 4.63 190 11:57 18.02.2022
3042 Clouds 6 980 77 10000 6.69 220 10:42 18.02.2022
3043 Clouds 8 985 89 10000 5.14 190 07:21 18.02.2022
3044 Clouds 6 988 89 10000 3.6 150 05:52 18.02.2022
3045 Rain 6 988 89 10000 3.6 150 05:34 18.02.2022
3046 Clouds 5 1006 83 10000 2.57 180 21:59 17.02.2022
3047 Clouds 5 1006 83 10000 2.57 180 21:33 17.02.2022
3048 Clouds 5 1006 87 10000 2.57 200 20:42 17.02.2022
3049 Clouds 5 1007 88 10000 2.57 200 19:55 17.02.2022
3050 Clouds 5 1007 87 10000 4.12 220 18:57 17.02.2022
3051 Clouds 5 1007 87 10000 4.12 240 18:29 17.02.2022
3052 Clouds 6 1006 89 10000 3.09 260 17:30 17.02.2022
3053 Rain 5 1006 81 10000 4.63 260 15:50 17.02.2022
3054 Clouds 8 1006 62 10000 7.2 250 14:29 17.02.2022
3055 Clouds 8 1006 69 10000 6.69 250 13:30 17.02.2022
3056 Clouds 7 1006 68 10000 8.23 260 11:36 17.02.2022
3057 Clouds 6 1003 72 10000 7.2 260 09:38 17.02.2022
3058 Clouds 7 1000 69 10000 10.29 260 06:37 17.02.2022
3059 Clouds 9 990 68 10000 13.38 260 23:21 16.02.2022
3060 Clouds 9 988 64 10000 15.95 260 22:20 16.02.2022
3061 Clear 11 987 64 10000 12.86 250 20:19 16.02.2022
3062 Clouds 11 986 64 10000 12.86 260 18:43 16.02.2022
3063 Clouds 12 986 78 10000 14.4 260 17:54 16.02.2022
3064 Clouds 13 985 81 10000 8.23 220 15:58 16.02.2022
3065 Clouds 14 986 80 10000 11.32 230 15:20 16.02.2022
3066 Clouds 12 989 77 10000 5.66 220 13:31 16.02.2022
3067 Clouds 12 990 74 10000 3.6 200 12:20 16.02.2022
3068 Clouds 12 991 75 10000 4.63 230 11:31 16.02.2022
3069 Clouds 12 992 78 10000 4.63 220 10:34 16.02.2022
3070 Clouds 12 991 77 10000 7.72 240 08:24 16.02.2022
3071 Clouds 12 989 86 10000 5.14 230 06:43 16.02.2022
3072 Rain 7 995 88 10000 3.09 170 23:45 15.02.2022
3073 Rain 7 997 88 10000 3.09 180 22:33 15.02.2022
3074 Clouds 7 997 78 10000 2.06 190 21:49 15.02.2022
3075 Rain 7 998 77 10000 2.57 180 21:29 15.02.2022
3076 Clouds 7 998 76 10000 3.09 200 20:56 15.02.2022
3077 Clouds 7 998 78 10000 4.12 210 19:59 15.02.2022
3078 Clouds 7 999 78 10000 4.12 210 19:26 15.02.2022
3079 Clouds 7 1000 77 10000 4.63 240 18:24 15.02.2022
3080 Clouds 8 999 68 10000 3.6 250 17:52 15.02.2022
3081 Clouds 8 1000 71 10000 4.63 250 17:21 15.02.2022
3082 Clouds 8 1000 74 10000 5.66 260 15:32 15.02.2022
3083 Clouds 8 1000 70 10000 7.72 280 13:28 15.02.2022
3084 Clouds 9 1001 77 10000 8.75 260 12:53 15.02.2022
3085 Clouds 8 999 90 10000 3.09 220 11:40 15.02.2022
3086 Rain 7 999 91 10000 5.14 190 09:47 15.02.2022
3087 Rain 5 1002 83 10000 4.63 190 06:59 15.02.2022
3088 Clouds 4 1003 83 10000 3.09 180 05:32 15.02.2022
3089 Clouds 6 1006 80 10000 5.14 280 23:34 14.02.2022
3090 Clouds 6 1005 83 10000 7.2 290 21:54 14.02.2022
3091 Clouds 7 1003 79 10000 6.69 280 20:40 14.02.2022
3092 Clouds 7 1003 83 10000 7.2 280 19:44 14.02.2022
3093 Clouds 7 1002 83 10000 7.2 290 19:25 14.02.2022
3094 Clouds 7 1001 83 10000 6.69 300 18:23 14.02.2022
3095 Clouds 7 1000 87 10000 8.23 290 17:26 14.02.2022
3096 Clouds 8 998 82 10000 6.69 290 16:25 14.02.2022
3097 Clouds 7 996 89 10000 3.6 300 14:31 14.02.2022
3098 Rain 6 996 91 10000 3.6 290 13:33 14.02.2022
3099 Rain 6 996 91 10000 3.6 290 13:33 14.02.2022
3100 Rain 5 995 90 10000 5.14 300 12:52 14.02.2022
3101 Clouds 5 994 90 10000 5.66 270 11:55 14.02.2022
3102 Rain 5 993 89 10000 5.14 270 10:58 14.02.2022
3103 Clouds 6 991 91 10000 5.14 260 08:45 14.02.2022
3104 Rain 6 990 90 10000 5.66 260 07:32 14.02.2022
3105 Clouds 6 989 90 10000 5.14 250 05:56 14.02.2022
3106 Clouds 7 988 87 10000 4.63 250 22:43 13.02.2022
3107 Clouds 7 988 89 10000 3.6 250 22:25 13.02.2022
3108 Clouds 8 987 89 10000 4.63 270 21:32 13.02.2022
3109 Clouds 8 987 90 3300 5.14 280 20:40 13.02.2022
3110 Clouds 9 986 89 4900 4.12 200 19:45 13.02.2022
3111 Rain 10 986 86 10000 4.12 190 18:54 13.02.2022
3112 Clouds 10 986 86 10000 4.12 190 18:35 13.02.2022
3113 Rain 9 986 88 10000 5.66 180 16:38 13.02.2022
3114 Rain 9 989 88 10000 5.14 180 15:25 13.02.2022
3115 Clouds 9 989 85 10000 5.14 170 14:36 13.02.2022
3116 Clouds 8 993 85 10000 4.12 170 12:51 13.02.2022
3117 Rain 8 995 89 10000 5.14 180 11:59 13.02.2022
3118 Rain 8 996 88 10000 4.63 170 10:35 13.02.2022
3119 Rain 9 997 90 7000 4.12 180 09:47 13.02.2022
3120 Clouds 9 999 91 10000 4.12 180 07:51 13.02.2022
3121 Clouds 8 1006 89 10000 2.24 343 00:36 13.02.2022
3122 Clouds 8 1006 89 10000 4.12 190 23:53 12.02.2022
3123 Clouds 8 1007 87 10000 5.14 200 22:33 12.02.2022
3124 Clouds 7 1007 88 10000 4.63 190 21:36 12.02.2022
3125 Clouds 7 1008 88 10000 4.12 180 20:52 12.02.2022
3126 Clouds 7 1008 84 10000 5.66 190 19:47 12.02.2022
3127 Clouds 7 1008 83 10000 4.63 180 18:53 12.02.2022
3128 Clouds 7 1008 83 10000 4.63 180 18:35 12.02.2022
3129 Clouds 7 1009 82 10000 5.14 180 17:37 12.02.2022
3130 Clouds 7 1009 82 10000 5.66 190 16:43 12.02.2022
3131 Clouds 7 1010 86 10000 5.14 190 15:51 12.02.2022
3132 Clouds 6 1011 86 7000 5.66 190 14:55 12.02.2022
3133 Rain 7 1011 80 10000 4.12 190 14:24 12.02.2022
3134 Clouds 6 1014 71 10000 5.66 190 11:18 12.02.2022
3135 Clouds 6 1015 71 10000 4.63 180 10:23 12.02.2022
3136 Rain 6 1016 73 10000 4.63 190 09:32 12.02.2022
3137 Clouds 6 1016 77 10000 4.12 180 08:45 12.02.2022
3138 Clouds 5 1019 75 10000 3.09 0 05:40 12.02.2022
3139 Clouds 5 1020 75 10000 3.6 180 04:33 12.02.2022
3140 Clouds 5 1022 78 10000 3.6 190 02:18 12.02.2022
3141 Clouds 4 1027 78 10000 2.57 180 22:57 11.02.2022
3142 Clouds 4 1027 75 10000 3.6 170 22:20 11.02.2022
3143 Clouds 5 1027 72 10000 3.09 180 20:52 11.02.2022
3144 Clouds 5 1028 74 10000 2.57 180 19:50 11.02.2022
3145 Clouds 5 1029 74 10000 2.06 180 19:27 11.02.2022
3146 Clouds 6 1029 72 10000 2.57 200 18:28 11.02.2022
3147 Clouds 6 1028 69 10000 2.57 200 17:26 11.02.2022
3148 Clouds 7 1029 70 10000 3.09 210 16:26 11.02.2022
3149 Clouds 7 1030 68 10000 3.09 210 14:57 11.02.2022
3150 Clouds 7 1030 70 10000 2.57 200 14:36 11.02.2022
3151 Clouds 7 1030 71 10000 2.57 200 14:18 11.02.2022
3152 Clouds 7 1030 73 10000 2.57 0 13:39 11.02.2022
3153 Clouds 5 1031 82 10000 1.54 200 12:19 11.02.2022
3154 Clouds 3 1030 95 10000 1.03 150 10:24 11.02.2022
3155 Clouds 2 1030 94 10000 1.54 150 08:49 11.02.2022
3156 Clouds 2 1029 94 10000 1.54 180 08:27 11.02.2022
3157 Clouds 2 1029 91 10000 1.54 180 07:22 11.02.2022
3158 Clouds 4 1026 86 10000 2.06 260 02:40 11.02.2022
3159 Clouds 4 1026 86 10000 2.06 260 02:40 11.02.2022
3160 Clouds 4 1025 87 10000 1.54 270 02:19 11.02.2022
3161 Clouds 5 1025 83 10000 5.09 300 23:20 10.02.2022
3162 Clouds 5 1023 81 10000 5.14 280 21:53 10.02.2022
3163 Clouds 5 1022 80 10000 7.2 280 21:21 10.02.2022
3164 Clouds 5 1022 79 10000 7.2 280 20:45 10.02.2022
3165 Clouds 5 1021 85 10000 4.12 290 19:26 10.02.2022
3166 Clouds 5 1020 84 10000 4.63 260 18:47 10.02.2022
3167 Clouds 6 1021 73 10000 7.72 270 17:27 10.02.2022
3168 Clouds 6 1019 67 10000 8.23 270 16:55 10.02.2022
3169 Clouds 7 1019 64 10000 9.77 270 15:51 10.02.2022
3170 Clouds 7 1019 64 10000 7.72 270 15:31 10.02.2022
3171 Clouds 7 1019 65 10000 7.2 280 14:48 10.02.2022
3172 Clouds 7 1019 65 10000 7.72 280 14:24 10.02.2022
3173 Clouds 7 1020 67 10000 7.72 280 13:29 10.02.2022
3174 Clouds 6 1020 68 10000 6.69 260 12:50 10.02.2022
3175 Clouds 6 1019 75 10000 5.14 250 11:34 10.02.2022
3176 Clouds 5 1019 74 10000 0.89 206 10:55 10.02.2022
3177 Clouds 4 1019 77 10000 3.09 220 09:59 10.02.2022
3178 Clouds 4 1019 78 10000 2.06 190 09:24 10.02.2022
3179 Clouds 4 1019 78 10000 5.14 240 07:28 10.02.2022
3180 Clouds 4 1019 81 10000 4.63 240 04:55 10.02.2022
3181 Clouds 5 1020 86 10000 3.09 230 01:48 10.02.2022
3182 Clouds 5 1020 85 10000 4.37 259 00:47 10.02.2022
3183 Clouds 5 1021 84 10000 4.25 264 00:28 10.02.2022
3184 Clouds 6 1021 82 10000 2.57 220 23:22 09.02.2022
3185 Clouds 6 1021 85 10000 3.09 230 22:35 09.02.2022
3186 Clouds 6 1021 82 10000 2.06 210 21:51 09.02.2022
3187 Rain 6 1021 81 10000 2.06 200 21:29 09.02.2022
3188 Clouds 6 1020 74 10000 1.54 200 20:47 09.02.2022
3189 Clouds 6 1021 77 10000 1.54 200 20:24 09.02.2022
3190 Clouds 6 1021 74 10000 2.06 250 19:45 09.02.2022
3191 Clouds 6 1020 67 10000 2.57 270 19:22 09.02.2022
3192 Clouds 7 1021 66 10000 4.12 280 17:35 09.02.2022
3193 Clouds 8 1021 61 10000 5.66 290 16:34 09.02.2022
3194 Clouds 9 1021 62 10000 6.17 270 15:40 09.02.2022
3195 Clouds 9 1021 65 10000 6.69 290 14:25 09.02.2022
3196 Clouds 8 1022 79 10000 5.66 290 12:27 09.02.2022
3197 Clouds 8 1020 85 10000 4.63 270 10:47 09.02.2022
3198 Clouds 7 1020 90 10000 4.12 270 09:59 09.02.2022
3199 Drizzle 8 1020 88 10000 5.66 260 09:23 09.02.2022
3200 Rain 8 1019 89 10000 4.63 250 08:58 09.02.2022
3201 Clouds 8 1019 90 10000 2.06 240 07:34 09.02.2022
3202 Clouds 8 1019 93 1700 6.17 300 05:30 09.02.2022
3203 Clouds 8 1019 93 1700 6.17 300 05:30 09.02.2022
3204 Rain 10 1018 87 4400 5.14 210 03:50 09.02.2022
3205 Clouds 10 1019 83 10000 5.14 200 00:21 09.02.2022
3206 Clouds 10 1020 83 10000 4.12 210 23:30 08.02.2022
3207 Clouds 10 1020 83 10000 4.63 210 22:43 08.02.2022
3208 Clouds 10 1019 83 10000 5.14 210 22:21 08.02.2022
3209 Clouds 11 1019 83 10000 5.14 210 21:38 08.02.2022
3210 Clouds 11 1020 83 10000 5.66 210 21:19 08.02.2022
3211 Clouds 11 1020 83 10000 6.17 220 20:41 08.02.2022
3212 Clouds 11 1020 82 10000 5.66 210 19:41 08.02.2022
3213 Rain 11 1020 84 10000 6.69 230 18:25 08.02.2022
3214 Clouds 11 1020 80 10000 7.72 230 17:36 08.02.2022
3215 Clouds 12 1020 78 10000 7.72 230 15:55 08.02.2022
3216 Clouds 12 1020 78 10000 8.75 230 15:28 08.02.2022
3217 Clouds 13 1020 76 10000 8.23 240 13:54 08.02.2022
3218 Clouds 12 1021 76 10000 9.77 230 12:39 08.02.2022
3219 Clouds 11 1020 80 10000 6.69 220 11:20 08.02.2022
3220 Clouds 11 1020 80 10000 8.75 240 09:51 08.02.2022
3221 Clouds 11 1020 81 10000 8.75 240 08:54 08.02.2022
3222 Clouds 11 1019 83 10000 8.23 230 06:50 08.02.2022
3223 Clouds 11 1020 78 10000 6.17 230 04:40 08.02.2022
3224 Clouds 11 1020 79 10000 5.66 230 04:22 08.02.2022
3225 Clouds 11 1020 79 10000 7.2 240 03:36 08.02.2022
3226 Clouds 11 1020 79 10000 7.2 230 03:18 08.02.2022
3227 Clouds 11 1020 79 10000 5.14 240 02:59 08.02.2022
3228 Clouds 10 1020 79 10000 5.14 240 02:36 08.02.2022
3229 Clouds 10 1020 79 10000 4.12 210 02:18 08.02.2022
3230 Clouds 10 1020 79 10000 5.14 220 01:45 08.02.2022
3231 Clouds 10 1020 79 10000 5.14 220 01:45 08.02.2022
3232 Clouds 10 1020 81 10000 4.12 210 01:25 08.02.2022
3233 Clouds 10 1020 79 10000 4.12 210 00:55 08.02.2022
3234 Clouds 10 1020 80 10000 0.89 330 00:32 08.02.2022
3235 Clouds 10 1020 78 10000 4.63 210 23:44 07.02.2022
3236 Clouds 10 1021 77 10000 4.63 210 23:18 07.02.2022
3237 Clouds 10 1020 78 10000 5.14 220 22:59 07.02.2022
3238 Clouds 10 1020 79 10000 5.14 220 22:19 07.02.2022
3239 Clouds 10 1021 80 10000 4.12 220 21:51 07.02.2022
3240 Clouds 10 1020 85 10000 5.14 220 21:27 07.02.2022
3241 Clouds 10 1021 89 10000 3.6 230 20:45 07.02.2022
3242 Clouds 10 1021 90 10000 3.09 230 20:27 07.02.2022
3243 Clouds 10 1021 90 10000 3.09 280 19:47 07.02.2022
3244 Clouds 10 1020 88 9000 4.63 220 18:37 07.02.2022
3245 Rain 10 1020 84 10000 0.89 300 17:23 07.02.2022
3246 Clouds 10 1020 84 10000 3.6 210 16:52 07.02.2022
3247 Clouds 9 1021 84 10000 3.09 180 15:48 07.02.2022
3248 Clouds 7 1023 91 10000 2.57 190 13:58 07.02.2022
3249 Clouds 7 1023 89 4000 3.09 220 13:27 07.02.2022
3250 Clouds 7 1023 80 10000 0.45 242 12:18 07.02.2022
3251 Clouds 6 1023 83 10000 0.89 312 11:38 07.02.2022
3252 Clouds 5 1023 86 10000 0.89 315 10:59 07.02.2022
3253 Clouds 4 1023 87 10000 0.45 320 10:41 07.02.2022
3254 Clouds 4 1023 89 10000 0.89 317 10:22 07.02.2022
3255 Clouds 3 1023 90 10000 0.89 315 09:47 07.02.2022
3256 Clouds 3 1023 91 10000 2.06 170 09:18 07.02.2022
3257 Clouds 2 1022 90 10000 1.54 180 07:34 07.02.2022
3258 Clouds 2 1021 90 10000 2.06 170 06:34 07.02.2022
3259 Clouds 3 1019 86 10000 2.06 290 04:22 07.02.2022
3260 Clouds 4 1016 82 10000 0.45 122 01:29 07.02.2022
3261 Clouds 4 1014 81 10000 3.09 260 23:50 06.02.2022
3262 Clouds 4 1013 78 10000 0.89 218 23:19 06.02.2022
3263 Clouds 4 1012 77 10000 2.24 156 22:38 06.02.2022
3264 Clouds 5 1010 75 10000 2.68 188 21:37 06.02.2022
3265 Clouds 5 1009 74 10000 2.24 141 20:58 06.02.2022
3266 Clouds 5 1009 77 10000 2.24 133 20:37 06.02.2022
3267 Clouds 5 1007 68 10000 3.13 140 19:50 06.02.2022
3268 Clouds 5 1005 76 10000 2.24 197 18:52 06.02.2022
3269 Clouds 5 1004 73 10000 2.68 176 18:26 06.02.2022
3270 Clouds 6 1003 72 10000 3.58 160 17:29 06.02.2022
3271 Clouds 7 1002 76 10000 3.13 152 16:50 06.02.2022
3272 Clouds 7 1001 75 10000 3.58 156 15:50 06.02.2022
3273 Clouds 7 1000 79 10000 2.68 171 15:28 06.02.2022
3274 Rain 7 1000 72 10000 4.02 173 14:52 06.02.2022
3275 Clouds 7 1000 80 10000 3.13 128 13:53 06.02.2022
3276 Clouds 7 1000 85 10000 3.13 126 13:20 06.02.2022
3277 Clouds 7 1000 88 10000 2.68 103 11:44 06.02.2022
3278 Clouds 7 1000 86 10000 2.24 82 10:31 06.02.2022
3279 Clouds 7 1000 90 10000 8.75 270 09:26 06.02.2022
3280 Clouds 7 1000 89 10000 7.72 260 08:41 06.02.2022
3281 Rain 7 999 90 8000 1.79 138 06:19 06.02.2022
3282 Clouds 8 1001 88 10000 0.89 360 03:31 06.02.2022
3283 Clouds 8 1003 89 10000 1.34 123 02:25 06.02.2022
3284 Rain 9 1003 85 10000 1.79 100 00:30 06.02.2022
3285 Clouds 9 1004 87 10000 1.79 49 23:18 05.02.2022
3286 Rain 9 1005 89 10000 1.79 133 21:33 05.02.2022
3287 Rain 9 1006 86 10000 1.79 284 20:25 05.02.2022
3288 Rain 9 1006 86 10000 1.79 119 19:49 05.02.2022
3289 Rain 9 1006 88 7000 1.79 336 19:18 05.02.2022
3290 Rain 8 1008 87 7000 1.79 104 17:45 05.02.2022
3291 Rain 8 1008 87 7000 1.34 37 17:27 05.02.2022
3292 Rain 8 1009 86 8000 1.79 354 15:42 05.02.2022
3293 Rain 8 1010 87 6000 1.34 49 15:22 05.02.2022
3294 Rain 8 1012 83 10000 1.79 37 12:54 05.02.2022
3295 Rain 7 1012 83 10000 0.89 342 12:31 05.02.2022
3296 Clouds 7 1013 80 10000 1.79 354 10:52 05.02.2022
3297 Clouds 6 1013 83 10000 0.89 2 10:22 05.02.2022
3298 Clouds 5 1014 82 10000 1.79 284 09:44 05.02.2022
3299 Clouds 3 1015 84 10000 0.89 9 07:54 05.02.2022
3300 Clouds 3 1016 84 10000 0.89 58 06:57 05.02.2022
3301 Clouds 4 1016 84 10000 0.45 108 04:30 05.02.2022
3302 Clouds 4 1015 85 10000 1.79 108 01:19 05.02.2022
3303 Clouds 4 1015 84 10000 1.79 91 00:53 05.02.2022
3304 Clouds 4 1014 84 10000 2.68 137 23:46 04.02.2022
3305 Clouds 4 1015 87 10000 5.66 260 23:28 04.02.2022
3306 Rain 4 1013 85 10000 0.89 96 21:54 04.02.2022
3307 Clouds 4 1013 86 10000 0.89 123 21:36 04.02.2022
3308 Clouds 4 1013 86 10000 0.45 92 21:18 04.02.2022
3309 Clouds 4 1011 80 10000 0.45 120 19:59 04.02.2022
3310 Clouds 6 1010 72 10000 2.68 229 17:43 04.02.2022
3311 Clouds 6 1008 79 10000 2.68 162 15:39 04.02.2022
3312 Clouds 6 1008 74 10000 2.68 78 14:54 04.02.2022
3313 Rain 6 1007 79 10000 3.58 95 13:31 04.02.2022
3314 Clouds 6 1007 82 10000 1.79 68 12:43 04.02.2022
3315 Clouds 5 1007 86 10000 0.89 98 11:41 04.02.2022
3316 Clouds 4 1006 88 10000 0.45 303 10:36 04.02.2022
3317 Clouds 4 1005 89 10000 0.45 88 08:34 04.02.2022
3318 Clouds 4 1005 87 10000 0.45 93 06:47 04.02.2022
3319 Rain 6 1003 90 10000 1.34 170 02:44 04.02.2022
3320 Rain 7 1003 86 5000 1.79 143 01:48 04.02.2022
3321 Clouds 10 1004 81 10000 1.79 322 23:29 03.02.2022
3322 Clouds 10 1004 79 10000 0.89 341 22:33 03.02.2022
3323 Clouds 10 1005 79 10000 0.89 352 21:49 03.02.2022
3324 Clouds 10 1006 78 10000 1.79 315 20:36 03.02.2022
3325 Clouds 10 1006 78 10000 1.79 346 20:18 03.02.2022
3326 Clouds 10 1006 79 10000 1.34 25 19:26 03.02.2022
3327 Clouds 10 1006 76 10000 1.34 143 18:34 03.02.2022
3328 Clouds 11 1007 73 10000 1.34 45 17:32 03.02.2022
3329 Clouds 11 1007 70 10000 1.79 71 16:24 03.02.2022
3330 Clouds 11 1009 73 10000 1.34 113 14:28 03.02.2022
3331 Clouds 10 1010 79 10000 1.34 158 12:40 03.02.2022
3332 Clouds 8 1011 87 10000 0.89 63 10:36 03.02.2022
3333 Clouds 8 1011 88 10000 0.45 135 08:23 03.02.2022
3334 Clouds 9 1014 84 10000 0.89 313 03:28 03.02.2022
3335 Clouds 9 1016 86 10000 1.34 294 00:30 03.02.2022
3336 Clouds 9 1017 86 10000 0.45 90 22:47 02.02.2022
3337 Clouds 9 1018 89 10000 0.45 315 21:53 02.02.2022
3338 Clouds 9 1018 88 10000 0.45 45 21:29 02.02.2022
3339 Clouds 9 1018 85 10000 2.57 250 20:28 02.02.2022
3340 Clouds 9 1018 85 10000 1.34 109 19:49 02.02.2022
3341 Clouds 9 1019 82 10000 0.89 194 19:20 02.02.2022
3342 Clouds 9 1019 82 10000 0.89 194 19:20 02.02.2022
3343 Clouds 10 1019 81 10000 0.89 128 18:26 02.02.2022
3344 Clouds 10 1019 83 10000 1.79 84 17:37 02.02.2022
3345 Clouds 10 1020 81 10000 1.34 97 17:18 02.02.2022
3346 Clouds 11 1020 81 10000 1.34 163 16:20 02.02.2022
3347 Clouds 10 1021 86 10000 1.34 110 12:50 02.02.2022
3348 Clouds 10 1021 89 9000 1.34 117 11:51 02.02.2022
3349 Clouds 10 1021 89 10000 1.79 93 11:31 02.02.2022
3350 Clouds 9 1020 89 10000 1.34 119 09:22 02.02.2022
3351 Clouds 10 1020 88 10000 1.34 164 05:29 02.02.2022
3352 Clouds 10 1019 81 10000 2.24 135 22:36 01.02.2022
3353 Clouds 10 1019 80 10000 1.79 174 20:58 01.02.2022
3354 Clouds 10 1019 77 10000 2.24 187 19:39 01.02.2022
3355 Clouds 11 1018 76 10000 2.24 243 17:37 01.02.2022
3356 Clouds 11 1018 79 10000 2.68 99 16:31 01.02.2022
3357 Clouds 11 1018 79 10000 3.58 221 13:27 01.02.2022
3358 Clouds 11 1018 81 10000 3.58 247 12:28 01.02.2022
3359 Drizzle 9 1018 95 2500 2.24 189 08:52 01.02.2022
3360 Drizzle 8 1021 92 4300 2.24 86 02:21 01.02.2022
3361 Clouds 7 1023 88 10000 1.34 103 23:38 31.01.2022
3362 Clouds 7 1024 87 10000 1.79 91 22:42 31.01.2022
3363 Clouds 7 1025 86 10000 1.34 176 21:35 31.01.2022
3364 Clouds 7 1025 79 10000 1.34 129 20:35 31.01.2022
3365 Clouds 7 1025 81 10000 0.45 106 19:58 31.01.2022
3366 Clouds 7 1025 82 10000 1.34 50 18:32 31.01.2022
3367 Clouds 7 1025 82 10000 1.34 50 18:32 31.01.2022
3368 Clouds 7 1025 79 10000 1.79 187 17:57 31.01.2022
3369 Clouds 7 1026 78 10000 7.2 290 17:18 31.01.2022
3370 Clouds 7 1025 67 10000 1.34 143 16:21 31.01.2022
3371 Clouds 7 1025 58 10000 2.24 190 14:53 31.01.2022
3372 Clouds 7 1026 58 10000 6.17 330 13:31 31.01.2022
3373 Clouds 7 1025 57 10000 6.17 320 12:37 31.01.2022
3374 Clouds 6 1024 64 10000 7.72 330 11:20 31.01.2022
3375 Clouds 5 1023 63 10000 1.79 165 10:47 31.01.2022
3376 Clouds 5 1022 64 10000 2.68 169 09:36 31.01.2022
3377 Clouds 5 1020 64 10000 2.68 123 08:56 31.01.2022
3378 Clouds 5 1020 65 10000 2.68 209 08:20 31.01.2022
3379 Clouds 5 1020 68 10000 2.24 190 07:37 31.01.2022
3380 Clouds 6 1018 71 10000 2.68 155 05:24 31.01.2022
3381 Rain 7 1016 74 10000 2.68 108 00:23 31.01.2022
3382 Clouds 7 1016 79 10000 4.47 99 22:33 30.01.2022
3383 Clouds 8 1015 90 10000 4.02 222 21:45 30.01.2022
3384 Clouds 8 1015 90 10000 2.68 106 21:24 30.01.2022
3385 Rain 7 1016 91 10000 1.34 15 20:51 30.01.2022
3386 Clouds 7 1016 89 5000 1.79 300 20:31 30.01.2022
3387 Clouds 6 1018 86 7000 1.34 73 19:55 30.01.2022
3388 Clouds 6 1020 77 10000 0.89 329 18:51 30.01.2022
3389 Clouds 7 1021 73 10000 0.89 140 18:22 30.01.2022
3390 Clouds 7 1023 72 10000 1.34 310 17:30 30.01.2022
3391 Clouds 7 1024 70 10000 1.34 354 16:42 30.01.2022
3392 Clouds 7 1025 70 10000 0.45 283 16:23 30.01.2022
3393 Clouds 7 1026 69 10000 0.89 215 15:54 30.01.2022
3394 Clouds 7 1026 68 10000 1.34 317 15:32 30.01.2022
3395 Clouds 7 1027 65 10000 1.79 4 14:47 30.01.2022
3396 Clouds 8 1029 70 10000 1.34 153 13:44 30.01.2022
3397 Clouds 6 1031 82 10000 2.57 210 12:44 30.01.2022
3398 Clouds 3 1031 87 10000 2.06 180 10:39 30.01.2022
3399 Clouds 2 1032 90 10000 1.54 140 09:58 30.01.2022
3400 Clouds 1 1032 90 10000 1.03 0 09:22 30.01.2022
3401 Clouds 2 1032 89 10000 1.54 130 07:58 30.01.2022
3402 Clouds 4 1032 77 10000 0.45 184 02:44 30.01.2022
3403 Clouds 5 1032 78 10000 2.06 280 01:54 30.01.2022
3404 Clouds 6 1031 75 10000 0.89 123 23:49 29.01.2022
3405 Clouds 7 1031 72 10000 0.45 115 22:50 29.01.2022
3406 Clouds 7 1030 72 10000 1.79 164 21:29 29.01.2022
3407 Clouds 7 1029 69 10000 1.79 196 20:53 29.01.2022
3408 Clouds 8 1028 70 10000 2.24 196 19:51 29.01.2022
3409 Clouds 8 1027 68 10000 2.24 132 19:30 29.01.2022
3410 Clouds 8 1027 69 10000 1.79 138 18:44 29.01.2022
3411 Clouds 8 1026 66 10000 10.29 290 17:54 29.01.2022
3412 Clouds 9 1024 62 10000 3.13 183 16:44 29.01.2022
3413 Clouds 10 1024 61 10000 4.47 76 15:25 29.01.2022
3414 Clouds 11 1023 61 10000 4.47 110 13:48 29.01.2022
3415 Clouds 11 1023 66 10000 3.13 135 13:26 29.01.2022
3416 Clouds 11 1023 71 10000 3.58 141 12:52 29.01.2022
3417 Clouds 12 1021 73 10000 3.13 179 11:39 29.01.2022
3418 Clouds 12 1021 72 10000 3.58 172 10:31 29.01.2022
3419 Clouds 11 1022 78 10000 1.34 129 07:57 29.01.2022
3420 Clouds 10 1025 82 10000 0.45 340 01:38 29.01.2022
3421 Clouds 10 1026 83 10000 0.45 106 00:31 29.01.2022
3422 Clouds 10 1026 83 10000 0.45 106 00:31 29.01.2022
3423 Clouds 10 1026 84 10000 1.34 130 23:29 28.01.2022
3424 Clouds 10 1026 85 10000 2.57 220 22:46 28.01.2022
3425 Clouds 10 1026 85 10000 2.06 190 22:18 28.01.2022
3426 Clouds 10 1027 87 10000 0.45 181 20:40 28.01.2022
3427 Clouds 10 1027 87 10000 0.89 306 19:53 28.01.2022
3428 Clouds 10 1027 85 10000 0.45 282 18:51 28.01.2022
3429 Clouds 10 1028 84 10000 0.89 294 17:52 28.01.2022
3430 Clouds 9 1029 79 10000 0.89 331 15:46 28.01.2022
3431 Clouds 9 1030 82 10000 1.34 336 14:20 28.01.2022
3432 Clouds 7 1031 85 10000 0.45 274 12:35 28.01.2022
3433 Clouds 6 1032 90 10000 2.06 170 11:38 28.01.2022
3434 Clouds 6 1032 90 10000 2.06 170 11:38 28.01.2022
3435 Clouds 5 1033 94 10000 1.54 180 10:22 28.01.2022
3436 Clouds 5 1033 94 10000 0.45 331 10:22 28.01.2022
3437 Clouds 5 1033 95 10000 0.45 318 09:45 28.01.2022
3438 Clouds 4 1032 96 10000 1.54 170 07:40 28.01.2022
3439 Clouds 4 1033 95 6000 1.54 170 05:30 28.01.2022
3440 Fog 4 1033 95 200 2.06 170 03:48 28.01.2022
3441 Fog 4 1033 92 400 1.54 200 02:23 28.01.2022
3442 Mist 5 1033 95 3500 1.54 190 01:35 28.01.2022
3443 Clouds 5 1032 91 10000 1.54 220 23:47 27.01.2022
3444 Clouds 6 1031 90 10000 0.45 80 21:54 27.01.2022
3445 Clouds 6 1031 90 10000 0.45 122 21:32 27.01.2022
3446 Clouds 7 1030 88 10000 0.45 55 20:53 27.01.2022
3447 Clouds 8 1030 82 10000 0.45 95 19:30 27.01.2022
3448 Clouds 9 1029 79 10000 0.45 156 17:56 27.01.2022
3449 Clouds 10 1027 68 10000 1.34 176 15:31 27.01.2022
3450 Clouds 10 1026 71 10000 1.34 112 13:39 27.01.2022
3451 Clouds 10 1025 75 10000 1.34 202 12:46 27.01.2022
3452 Clouds 9 1024 80 10000 1.79 157 10:46 27.01.2022
3453 Clouds 9 1023 86 10000 0.89 158 09:19 27.01.2022
3454 Clouds 9 1022 87 10000 1.34 129 08:37 27.01.2022
3455 Clouds 10 1021 94 7000 2.24 109 05:59 27.01.2022
3456 Rain 9 1022 87 10000 0.45 50 02:57 27.01.2022
3457 Clouds 8 1023 78 10000 0.89 4 23:33 26.01.2022
3458 Clouds 8 1024 75 10000 1.34 330 22:25 26.01.2022
3459 Clouds 7 1024 76 10000 1.79 315 21:36 26.01.2022
3460 Clouds 7 1026 77 10000 1.34 315 20:41 26.01.2022
3461 Clouds 7 1026 77 10000 1.34 315 20:22 26.01.2022
3462 Clouds 7 1026 77 10000 0.89 287 19:20 26.01.2022
3463 Clouds 7 1026 76 10000 0.89 116 18:45 26.01.2022
3464 Clouds 8 1028 78 10000 3.6 240 17:50 26.01.2022
3465 Clouds 8 1027 74 10000 0.89 107 17:23 26.01.2022
3466 Clouds 8 1028 77 10000 4.63 250 16:31 26.01.2022
3467 Clouds 9 1028 73 10000 1.34 93 15:49 26.01.2022
3468 Clouds 9 1028 73 10000 1.34 93 15:49 26.01.2022
3469 Clouds 9 1030 77 10000 4.63 240 13:58 26.01.2022
3470 Clouds 7 1031 81 10000 0.89 155 11:48 26.01.2022
3471 Clouds 5 1032 90 10000 2.06 180 10:27 26.01.2022
3472 Clouds 5 1032 88 10000 2.06 160 09:45 26.01.2022
3473 Clouds 5 1030 83 10000 0.45 325 07:37 26.01.2022
3474 Clouds 3 1032 88 7000 1.54 200 01:54 26.01.2022
3475 Clouds 4 1032 88 9000 1.54 190 23:56 25.01.2022
3476 Clouds 4 1032 88 9000 1.54 200 22:56 25.01.2022
3477 Clouds 4 1032 88 9000 1.54 180 22:21 25.01.2022
3478 Clouds 4 1032 87 10000 1.54 200 21:52 25.01.2022
3479 Clouds 4 1032 88 10000 1.03 0 20:46 25.01.2022
3480 Clouds 4 1032 86 9000 1.54 190 20:22 25.01.2022
3481 Clouds 3 1032 86 9000 0.45 315 19:46 25.01.2022
3482 Clouds 3 1032 88 7000 1.03 0 18:24 25.01.2022
3483 Clouds 3 1031 85 10000 0.45 320 17:42 25.01.2022
3484 Clouds 3 1032 87 6000 0.45 315 16:35 25.01.2022
3485 Clouds 3 1032 86 7000 0.45 16 15:47 25.01.2022
3486 Clouds 3 1032 86 6000 1.03 0 15:28 25.01.2022
3487 Clouds 3 1032 84 6000 1.54 230 14:57 25.01.2022
3488 Clouds 2 1033 88 6000 2.06 240 13:28 25.01.2022
3489 Clouds 1 1034 92 6000 2.06 220 10:35 25.01.2022
3490 Clouds 1 1033 91 7000 1.03 0 08:34 25.01.2022
3491 Haze 1 1032 88 5000 0.45 135 07:28 25.01.2022
3492 Haze 2 1032 88 4600 0.51 0 06:29 25.01.2022
3493 Mist 2 1033 90 4600 0.45 68 01:36 25.01.2022
3494 Mist 2 1033 91 4300 0.89 315 23:37 24.01.2022
3495 Mist 2 1033 89 4500 0.45 340 23:18 24.01.2022
3496 Mist 2 1033 91 4600 1.54 190 22:59 24.01.2022
3497 Mist 2 1033 91 4600 0.45 0 22:41 24.01.2022
3498 Mist 2 1033 91 5000 1.03 0 21:45 24.01.2022
3499 Haze 3 1033 91 5000 0.45 188 21:27 24.01.2022
3500 Clouds 3 1033 89 6000 0.51 0 20:29 24.01.2022
3501 Clouds 3 1033 89 6000 0.45 134 19:39 24.01.2022
3502 Clouds 3 1033 89 6000 1.54 200 18:55 24.01.2022
3503 Clouds 3 1032 88 7000 2.06 220 17:44 24.01.2022
3504 Clouds 3 1032 88 9000 0.45 324 17:23 24.01.2022
3505 Clouds 3 1032 88 9000 2.06 200 16:32 24.01.2022
3506 Clouds 4 1032 88 8000 0.89 315 15:52 24.01.2022
3507 Haze 4 1032 88 5000 1.54 180 14:27 24.01.2022
3508 Clouds 3 1033 88 7000 0.45 136 12:36 24.01.2022
3509 Clouds 3 1033 86 7000 1.54 180 11:45 24.01.2022
3510 Clouds 2 1032 88 7000 1.54 180 10:24 24.01.2022
3511 Clouds 2 1033 92 6000 2.06 190 09:46 24.01.2022
3512 Clouds 2 1032 88 9000 0.45 294 08:18 24.01.2022
3513 Clouds 3 1032 84 10000 1.34 312 02:29 24.01.2022
3514 Clouds 3 1032 84 10000 0.89 315 01:27 24.01.2022
3515 Clouds 3 1032 84 10000 0.89 315 01:27 24.01.2022
3516 Clouds 4 1031 84 10000 0.89 326 00:32 24.01.2022
3517 Clouds 4 1031 83 10000 0.89 332 23:46 23.01.2022
3518 Clouds 4 1032 83 10000 0.45 315 22:21 23.01.2022
3519 Clouds 4 1032 84 10000 0.45 315 21:41 23.01.2022
3520 Clouds 4 1032 83 10000 1.54 160 21:23 23.01.2022
3521 Clouds 4 1032 84 10000 0.89 311 20:23 23.01.2022
3522 Clouds 4 1032 83 10000 1.54 170 19:19 23.01.2022
3523 Clouds 4 1032 84 10000 0.45 315 18:41 23.01.2022
3524 Clouds 5 1032 84 10000 1.34 325 17:25 23.01.2022
3525 Clouds 5 1032 84 10000 0.89 337 16:18 23.01.2022
3526 Clouds 5 1033 84 10000 1.34 313 14:52 23.01.2022
3527 Clouds 5 1033 87 10000 1.34 315 14:19 23.01.2022
3528 Clouds 5 1034 87 10000 0.89 191 12:46 23.01.2022
3529 Clouds 5 1034 85 10000 0.89 61 12:21 23.01.2022
3530 Clouds 5 1034 86 10000 0.45 311 11:27 23.01.2022
3531 Clouds 5 1034 87 10000 0.45 90 10:58 23.01.2022
3532 Clouds 5 1035 89 10000 2.06 190 10:25 23.01.2022
3533 Clouds 5 1035 89 10000 1.54 180 09:32 23.01.2022
3534 Clouds 6 1034 93 10000 1.54 220 08:50 23.01.2022
3535 Clouds 6 1035 97 8000 0.51 0 03:59 23.01.2022
3536 Clouds 6 1036 94 10000 1.03 0 01:40 23.01.2022
3537 Clouds 6 1036 94 10000 1.03 0 00:47 23.01.2022
3538 Clouds 6 1036 93 10000 1.03 230 00:18 23.01.2022
3539 Clouds 6 1036 93 10000 2.57 250 22:55 22.01.2022
3540 Clouds 6 1036 93 10000 2.57 250 22:33 22.01.2022
3541 Clouds 6 1036 94 10000 1.03 150 20:46 22.01.2022
3542 Clouds 7 1035 91 10000 0.45 90 19:46 22.01.2022
3543 Clouds 7 1035 91 10000 0.45 121 18:38 22.01.2022
3544 Clouds 7 1035 88 10000 1.34 92 17:49 22.01.2022
3545 Clouds 7 1035 90 10000 1.34 165 17:29 22.01.2022
3546 Clouds 7 1035 87 10000 0.89 77 16:54 22.01.2022
3547 Clouds 7 1036 83 10000 0.89 132 15:45 22.01.2022
3548 Clouds 7 1036 81 10000 1.34 144 14:55 22.01.2022
3549 Clouds 7 1036 78 10000 0.89 61 13:31 22.01.2022
3550 Clouds 7 1037 82 10000 2.57 270 12:40 22.01.2022
3551 Clouds 7 1036 75 10000 0.89 115 12:20 22.01.2022
3552 Clouds 7 1036 78 10000 0.45 128 10:54 22.01.2022
3553 Clouds 6 1036 76 10000 0.45 105 10:25 22.01.2022
3554 Clouds 6 1036 79 10000 0.45 90 09:00 22.01.2022
3555 Clouds 6 1036 80 10000 2.06 280 08:39 22.01.2022
3556 Clouds 6 1036 83 10000 1.03 250 06:56 22.01.2022
3557 Clouds 5 1036 79 10000 0.89 137 02:40 22.01.2022
3558 Clouds 6 1037 80 10000 2.57 280 23:52 21.01.2022
3559 Clouds 6 1037 80 10000 2.57 280 23:21 21.01.2022
3560 Clouds 6 1038 79 10000 3.09 300 21:45 21.01.2022
3561 Clouds 6 1037 78 10000 4.12 300 19:48 21.01.2022
3562 Clouds 6 1038 78 10000 4.63 290 17:53 21.01.2022
3563 Clouds 7 1038 75 10000 4.63 290 16:37 21.01.2022
3564 Clouds 7 1037 76 10000 1.34 183 15:23 21.01.2022
3565 Clouds 6 1038 86 10000 2.45 284 12:48 21.01.2022
3566 Clouds 4 1038 89 10000 0.51 0 11:29 21.01.2022
3567 Clouds 3 1038 89 10000 1.03 210 10:51 21.01.2022
3568 Clouds 2 1038 88 10000 1.03 0 09:24 21.01.2022
3569 Clouds 2 1038 85 10000 1.54 170 08:20 21.01.2022
3570 Clear -1 1039 88 10000 1.54 180 01:55 21.01.2022
3571 Clouds 0 1039 84 10000 0.45 338 22:51 20.01.2022
3572 Clouds 0 1039 85 10000 0.51 180 21:49 20.01.2022
3573 Clouds 1 1039 79 10000 0.51 0 21:25 20.01.2022
3574 Clouds 2 1039 72 10000 1.54 280 19:54 20.01.2022
3575 Clouds 2 1038 70 10000 0.45 180 19:18 20.01.2022
3576 Clouds 3 1038 63 10000 1.54 260 17:37 20.01.2022
3577 Clear 5 1038 58 10000 0.89 149 16:24 20.01.2022
3578 Clear 5 1037 55 10000 0.89 187 15:31 20.01.2022
3579 Clear 5 1038 60 10000 0.89 178 14:20 20.01.2022
3580 Clear 3 1039 80 10000 1.54 280 12:53 20.01.2022
3581 Clear 3 1039 89 10000 1.03 0 12:29 20.01.2022
3582 Clear 2 1037 91 10000 0.51 0 11:19 20.01.2022
3583 Clear 0 1036 91 10000 0.51 0 10:18 20.01.2022
3584 Clear 0 1035 84 10000 2 16 08:51 20.01.2022
3585 Clear 1 1034 84 10000 1.45 347 06:57 20.01.2022
3586 Clear 3 1030 87 10000 3.09 300 00:40 20.01.2022
3587 Clear 4 1029 84 10000 3.6 320 22:38 19.01.2022
3588 Clear 5 1029 85 10000 0.45 180 21:34 19.01.2022
3589 Clear 5 1028 82 10000 0.45 122 20:56 19.01.2022
3590 Clear 5 1028 83 10000 0.45 180 20:30 19.01.2022
3591 Clouds 6 1027 79 10000 0.45 173 18:59 19.01.2022
3592 Clouds 6 1026 77 10000 1.34 160 17:51 19.01.2022
3593 Clouds 7 1026 78 10000 6.69 310 17:18 19.01.2022
3594 Clouds 7 1025 73 10000 0.89 174 17:18 19.01.2022
3595 Clouds 7 1026 78 10000 6.69 310 17:18 19.01.2022
3596 Clouds 8 1025 69 10000 2.24 138 15:32 19.01.2022
3597 Clouds 8 1024 73 10000 2.24 161 13:25 19.01.2022
3598 Clouds 8 1024 77 10000 2.68 212 11:59 19.01.2022
3599 Clouds 8 1024 84 10000 5.66 290 11:38 19.01.2022
3600 Rain 8 1021 93 10000 0.89 117 09:35 19.01.2022
3601 Drizzle 7 1022 94 10000 0.89 83 08:38 19.01.2022
3602 Clouds 5 1024 86 10000 0.45 315 05:20 19.01.2022
3603 Clouds 4 1029 89 10000 1.34 324 00:21 19.01.2022
3604 Clouds 3 1030 89 10000 1.54 180 23:18 18.01.2022
3605 Clouds 4 1031 87 10000 0.45 315 21:45 18.01.2022
3606 Clouds 4 1032 88 10000 0.89 321 20:34 18.01.2022
3607 Clouds 5 1031 86 10000 0.89 343 19:49 18.01.2022
3608 Clouds 5 1032 86 10000 0.89 343 19:31 18.01.2022
3609 Clouds 5 1032 84 10000 0.89 315 18:19 18.01.2022
3610 Clouds 5 1033 80 10000 1.54 190 17:32 18.01.2022
3611 Clouds 6 1033 75 10000 2.57 180 16:22 18.01.2022
3612 Clouds 7 1034 77 10000 0.89 307 15:25 18.01.2022
3613 Clouds 7 1034 76 10000 0.89 114 14:22 18.01.2022
3614 Clouds 3 1036 91 7000 1.54 100 11:37 18.01.2022
3615 Clouds 1 1035 94 10000 1.03 130 10:25 18.01.2022
3616 Clouds 1 1035 93 10000 0.51 0 08:29 18.01.2022
3617 Clouds 1 1035 93 10000 1.03 160 07:43 18.01.2022
3618 Mist 1 1037 92 1500 1.54 80 00:39 18.01.2022
3619 Fog 2 1037 93 450 1.03 130 22:40 17.01.2022
3620 Mist 2 1037 93 1200 1.54 100 21:42 17.01.2022
3621 Fog 2 1037 94 900 1.54 120 20:44 17.01.2022
3622 Clouds 4 1037 93 9000 1.03 0 18:46 17.01.2022
3623 Clouds 4 1037 91 10000 1.03 130 18:25 17.01.2022
3624 Clouds 6 1037 88 10000 1.03 0 17:22 17.01.2022
3625 Clouds 7 1037 86 10000 1.54 50 15:54 17.01.2022
3626 Clouds 7 1038 87 10000 0.45 201 14:58 17.01.2022
3627 Clouds 7 1038 89 10000 2.57 330 14:31 17.01.2022
3628 Clouds 7 1039 92 10000 2.57 310 13:18 17.01.2022
3629 Clouds 6 1039 100 10000 0.51 0 11:51 17.01.2022
3630 Clouds 5 1038 88 10000 0.84 268 10:52 17.01.2022
3631 Clouds 4 1036 86 5876 0.62 221 09:35 17.01.2022
3632 Clouds 4 1036 86 4476 0.84 254 08:43 17.01.2022
3633 Clouds 4 1036 91 9856 1.06 260 07:20 17.01.2022
3634 Clear 5 1033 88 10000 1.25 259 00:59 17.01.2022
3635 Clear 4 1032 87 10000 0.45 315 23:27 16.01.2022
3636 Clouds 5 1031 83 10000 0.45 126 20:50 16.01.2022
3637 Clouds 5 1031 83 10000 2.57 270 19:55 16.01.2022
3638 Clouds 6 1030 79 10000 2.57 290 18:45 16.01.2022
3639 Clouds 7 1029 81 10000 3.6 290 17:46 16.01.2022
3640 Clouds 7 1027 76 10000 1.34 93 16:50 16.01.2022
3641 Clouds 8 1026 78 10000 1.34 100 15:34 16.01.2022
3642 Clouds 8 1025 90 10000 0.45 166 14:29 16.01.2022
3643 Clouds 7 1025 95 10000 1.03 0 12:57 16.01.2022
3644 Clouds 7 1024 91 10000 0.45 323 11:49 16.01.2022
3645 Mist 6 1023 96 5000 1.54 150 10:58 16.01.2022
3646 Clouds 6 1023 96 10000 2.06 230 10:26 16.01.2022
3647 Clouds 5 1022 95 10000 2.06 230 09:56 16.01.2022
3648 Clouds 5 1022 95 10000 1.54 190 09:23 16.01.2022
3649 Clouds 5 1021 94 10000 1.03 0 08:47 16.01.2022
3650 Clouds 5 1020 89 8000 0.45 315 03:58 16.01.2022
3651 Clouds 5 1020 85 6000 1.54 170 23:50 15.01.2022
3652 Clouds 5 1020 86 6000 2.06 180 22:35 15.01.2022
3653 Haze 4 1021 88 5000 1.54 170 21:20 15.01.2022
3654 Clouds 4 1020 88 10000 1.54 170 20:40 15.01.2022
3655 Clouds 4 1021 85 7000 1.54 180 19:30 15.01.2022
3656 Clouds 4 1021 85 8000 1.54 190 18:47 15.01.2022
3657 Clouds 4 1021 84 8000 1.54 190 17:30 15.01.2022
3658 Clouds 6 1021 78 10000 0.45 3 15:59 15.01.2022
3659 Clouds 5 1022 81 10000 1.54 180 13:56 15.01.2022
3660 Clouds 4 1024 88 10000 0.51 0 12:18 15.01.2022
3661 Clouds 2 1024 88 10000 0.51 100 10:38 15.01.2022
3662 Clear 0 1025 90 10000 2.06 180 08:31 15.01.2022
3663 Mist 2 1030 89 3600 1.03 0 00:28 15.01.2022
3664 Clear 2 1031 94 10000 1.03 140 21:52 14.01.2022
3665 Clear 2 1031 94 10000 1.03 140 21:52 14.01.2022
3666 Clear 2 1031 89 10000 1.03 100 20:41 14.01.2022
3667 Clear 3 1031 90 10000 0.95 91 20:20 14.01.2022
3668 Clouds 3 1032 90 9000 1.03 110 18:49 14.01.2022
3669 Clouds 4 1033 88 10000 0.51 240 17:57 14.01.2022
3670 Clouds 6 1033 83 10000 0.51 40 16:48 14.01.2022
3671 Clouds 7 1033 80 10000 1.03 0 15:39 14.01.2022
3672 Clouds 6 1034 81 10000 0.51 0 14:42 14.01.2022
3673 Clouds 6 1035 85 10000 1.03 240 13:35 14.01.2022
3674 Clouds 5 1035 92 7000 1.03 0 12:24 14.01.2022
3675 Mist 4 1036 94 1600 2.06 190 10:53 14.01.2022
3676 Clouds 4 1035 94 10000 1.03 0 08:54 14.01.2022
3677 Clouds 4 1035 94 10000 1.03 0 08:34 14.01.2022
3678 Clouds 4 1036 94 10000 0.51 0 05:29 14.01.2022
3679 Clouds 5 1038 92 10000 0.51 200 00:59 14.01.2022
3680 Mist 5 1038 93 1500 1.03 0 22:46 13.01.2022
3681 Clouds 5 1038 93 10000 1.54 160 21:31 13.01.2022
3682 Clouds 5 1038 91 10000 1.03 0 20:56 13.01.2022
3683 Clouds 5 1038 93 10000 1.54 170 19:32 13.01.2022
3684 Clouds 5 1038 92 10000 0.51 0 18:57 13.01.2022
3685 Clouds 7 1038 85 10000 0.45 144 17:25 13.01.2022
3686 Clear 8 1038 85 10000 0.89 109 16:19 13.01.2022
3687 Clear 8 1038 87 10000 0.45 198 15:35 13.01.2022
3688 Clear 7 1039 90 10000 1.54 220 13:47 13.01.2022
3689 Clouds 5 1040 94 10000 2.06 210 12:25 13.01.2022
3690 Clouds 3 1039 93 10000 1.54 200 09:38 13.01.2022
3691 Clouds 3 1039 96 10000 1.03 0 08:54 13.01.2022
3692 Clouds 3 1039 96 10000 2.06 170 08:24 13.01.2022
3693 Clouds 3 1039 96 10000 2.06 180 07:21 13.01.2022
3694 Fog 4 1039 94 300 1.54 190 05:57 13.01.2022
3695 Fog 3 1039 95 5000 1.03 220 05:18 13.01.2022
3696 Clouds 4 1040 96 8000 1.54 160 01:49 13.01.2022
3697 Clouds 4 1041 99 6000 1.54 180 23:54 12.01.2022
3698 Clouds 4 1040 96 6000 1.54 180 23:35 12.01.2022
3699 Fog 5 1040 96 5000 1.54 160 22:56 12.01.2022
3700 Clouds 5 1040 96 7000 2.06 160 21:56 12.01.2022
3701 Clouds 5 1040 96 8000 1.54 160 21:21 12.01.2022
3702 Mist 5 1040 96 3300 1.54 140 20:56 12.01.2022
3703 Clouds 6 1040 95 8000 1.54 150 19:28 12.01.2022
3704 Clouds 6 1040 93 8000 0.51 0 18:29 12.01.2022
3705 Clouds 8 1039 85 10000 0.51 0 16:59 12.01.2022
3706 Clouds 8 1039 88 10000 1.03 0 15:58 12.01.2022
3707 Clouds 8 1040 90 10000 0.89 315 14:47 12.01.2022
3708 Clouds 6 1040 93 10000 1.03 0 12:58 12.01.2022
3709 Clouds 6 1040 93 10000 1.03 0 12:58 12.01.2022
3710 Clouds 3 1040 96 10000 1.54 150 09:59 12.01.2022
3711 Clear 3 1039 96 10000 1.03 160 08:36 12.01.2022
3712 Clouds 3 1038 96 10000 0.51 0 07:34 12.01.2022
3713 Clouds 3 1037 95 6000 2.06 150 06:21 12.01.2022
3714 Fog 2 1035 95 7000 0.51 0 23:30 11.01.2022
3715 Fog 2 1035 95 7000 2.06 150 22:41 11.01.2022
3716 Fog 3 1035 95 7000 1.54 160 22:21 11.01.2022
3717 Fog 3 1034 95 9000 1.03 0 20:49 11.01.2022
3718 Fog 4 1033 94 10000 1.54 150 19:42 11.01.2022
3719 Clouds 5 1032 93 10000 0.51 0 18:25 11.01.2022
3720 Clouds 7 1032 89 10000 1.54 260 17:18 11.01.2022
3721 Clouds 7 1031 85 10000 1.03 270 16:36 11.01.2022
3722 Clouds 8 1030 82 10000 2.06 290 14:59 11.01.2022
3723 Clouds 8 1030 83 10000 2.06 290 14:40 11.01.2022
3724 Clouds 8 1029 89 10000 1.54 300 13:54 11.01.2022
3725 Clouds 8 1029 91 10000 0.45 161 13:31 11.01.2022
3726 Clouds 8 1029 90 10000 2.06 290 12:37 11.01.2022
3727 Clear 7 1028 94 10000 2.06 290 10:52 11.01.2022
3728 Drizzle 8 1026 94 10000 0.45 180 08:53 11.01.2022
3729 Clouds 8 1024 95 4900 0.45 47 06:22 11.01.2022
3730 Clouds 9 1019 91 10000 1.34 320 00:30 11.01.2022
3731 Clouds 9 1019 90 10000 1.34 337 23:41 10.01.2022
3732 Clouds 9 1020 94 10000 2.57 160 22:43 10.01.2022
3733 Clouds 9 1020 94 10000 2.57 180 22:18 10.01.2022
3734 Clouds 9 1018 89 10000 1.34 315 21:42 10.01.2022
3735 Clouds 8 1019 94 10000 2.57 180 21:18 10.01.2022
3736 Clouds 8 1019 94 10000 2.57 190 20:55 10.01.2022
3737 Clouds 8 1018 94 10000 3.09 170 20:24 10.01.2022
3738 Clouds 8 1018 94 10000 2.06 180 19:41 10.01.2022
3739 Clouds 8 1018 93 10000 3.09 180 19:19 10.01.2022
3740 Clouds 8 1017 89 10000 0.89 332 18:47 10.01.2022
3741 Clouds 8 1016 84 10000 1.34 324 16:51 10.01.2022
3742 Clouds 8 1016 84 10000 0.89 319 16:33 10.01.2022
3743 Clouds 8 1015 80 10000 0.89 315 14:50 10.01.2022
3744 Clouds 8 1015 79 10000 1.79 310 13:35 10.01.2022
3745 Clouds 7 1016 89 10000 2.06 0 11:57 10.01.2022
3746 Clouds 7 1015 88 10000 2.06 150 11:24 10.01.2022
3747 Clouds 6 1014 85 10000 1.54 150 09:40 10.01.2022
3748 Clouds 5 1010 87 10000 1.54 170 05:52 10.01.2022
3749 Clouds 5 1010 86 10000 1.03 0 04:48 10.01.2022
3750 Clouds 5 1007 89 10000 1.03 160 01:22 10.01.2022
3751 Clouds 5 1006 86 10000 0.89 315 00:22 10.01.2022
3752 Clouds 5 1005 85 10000 0.89 315 22:48 09.01.2022
3753 Clouds 5 1005 87 10000 0.89 336 22:21 09.01.2022
3754 Clouds 5 1004 85 10000 0.89 315 21:42 09.01.2022
3755 Clouds 6 1004 85 10000 0.45 315 21:22 09.01.2022
3756 Clouds 6 1003 84 10000 0.45 315 20:47 09.01.2022
3757 Clouds 6 1003 85 10000 0.89 308 20:29 09.01.2022
3758 Clouds 6 1002 84 10000 0.89 315 19:42 09.01.2022
3759 Rain 6 1002 83 10000 1.34 336 19:21 09.01.2022
3760 Clouds 6 1002 83 10000 0.45 315 18:47 09.01.2022
3761 Clouds 6 1001 80 10000 0.89 92 18:28 09.01.2022
3762 Clouds 7 1000 78 10000 0.89 100 17:30 09.01.2022
3763 Clouds 7 1001 79 10000 3.6 250 16:50 09.01.2022
3764 Clouds 7 999 81 10000 2.24 100 15:52 09.01.2022
3765 Clouds 7 999 79 10000 0.89 63 15:33 09.01.2022
3766 Clouds 7 999 83 10000 0.89 181 14:39 09.01.2022
3767 Clouds 7 999 83 10000 0.45 60 13:49 09.01.2022
3768 Clouds 6 998 84 10000 0.45 324 12:26 09.01.2022
3769 Clouds 5 998 84 10000 0.89 73 11:46 09.01.2022
3770 Clouds 4 997 89 10000 3.6 210 09:55 09.01.2022
3771 Clouds 4 997 89 10000 0.45 8 09:29 09.01.2022
3772 Clouds 4 997 86 10000 1.34 115 08:18 09.01.2022
3773 Clouds 5 994 88 10000 3.6 260 01:31 09.01.2022
3774 Clouds 5 993 85 10000 1.34 183 00:53 09.01.2022
3775 Clouds 5 993 87 10000 1.34 124 23:37 08.01.2022
3776 Clouds 5 992 87 10000 1.79 102 22:58 08.01.2022
3777 Clouds 5 992 83 10000 0.89 130 21:32 08.01.2022
3778 Clouds 5 992 82 10000 1.34 119 20:44 08.01.2022
3779 Clouds 5 992 83 10000 0.45 94 20:23 08.01.2022
3780 Clouds 5 992 83 10000 1.79 290 19:46 08.01.2022
3781 Clouds 6 990 79 10000 1.79 174 17:49 08.01.2022
3782 Clouds 7 990 81 10000 0.89 151 16:57 08.01.2022
3783 Clouds 7 990 84 10000 1.79 107 15:35 08.01.2022
3784 Clouds 7 991 90 10000 0.45 105 14:33 08.01.2022
3785 Rain 7 992 89 10000 0.89 129 12:35 08.01.2022
3786 Rain 7 994 93 10000 2.24 315 10:43 08.01.2022
3787 Rain 7 994 90 9000 2.68 313 10:23 08.01.2022
3788 Rain 7 994 90 9000 2.68 313 10:23 08.01.2022
3789 Rain 6 995 94 10000 2.68 315 09:34 08.01.2022
3790 Clouds 5 1000 93 10000 2.68 302 07:18 08.01.2022
3791 Clouds 2 1008 88 10000 0.45 315 01:49 08.01.2022
3792 Clouds 2 1010 93 10000 0.45 310 00:22 08.01.2022
3793 Clouds 2 1009 91 10000 0.45 315 22:21 07.01.2022
3794 Clouds 2 1008 90 10000 2.06 230 20:35 07.01.2022
3795 Clouds 2 1008 90 10000 2.06 230 20:35 07.01.2022
3796 Clouds 3 1007 85 10000 4.12 290 19:27 07.01.2022
3797 Clouds 3 1007 88 10000 0.89 132 18:49 07.01.2022
3798 Clouds 3 1007 90 10000 0.45 108 18:24 07.01.2022
3799 Clouds 3 1006 93 10000 0.45 303 17:24 07.01.2022
3800 Clouds 4 1005 83 10000 0.45 131 14:56 07.01.2022
3801 Clouds 4 1005 82 10000 0.45 118 13:52 07.01.2022
3802 Clouds 4 1005 82 10000 0.45 118 13:52 07.01.2022
3803 Rain 4 1005 86 10000 0.89 131 12:57 07.01.2022
3804 Clouds 3 1005 85 10000 0.45 91 11:58 07.01.2022
3805 Clouds 3 1003 78 10000 0.89 304 04:56 07.01.2022
3806 Clouds 3 1003 80 10000 0.89 243 02:53 07.01.2022
3807 Clouds 3 1005 85 10000 4.63 220 01:49 07.01.2022
3808 Clouds 3 1005 86 10000 4.12 220 01:26 07.01.2022
3809 Clouds 4 1005 85 10000 4.12 210 00:31 07.01.2022
3810 Clouds 4 1004 85 10000 0.89 294 22:33 06.01.2022
3811 Clouds 5 1003 88 10000 1.34 308 20:51 06.01.2022
3812 Clouds 5 1003 89 10000 0.89 347 20:18 06.01.2022
3813 Rain 5 1003 89 10000 2.24 98 19:38 06.01.2022
3814 Clouds 5 1004 87 10000 2.68 311 17:51 06.01.2022
3815 Clouds 5 1004 89 10000 2.24 337 17:27 06.01.2022
3816 Clouds 4 1005 87 10000 3.58 305 16:38 06.01.2022
3817 Clouds 4 1005 88 10000 3.13 297 15:44 06.01.2022
3818 Clouds 4 1006 88 10000 2.68 321 15:22 06.01.2022
3819 Clouds 3 1007 89 10000 2.24 315 14:20 06.01.2022
3820 Rain 2 1009 92 10000 2.24 338 13:39 06.01.2022
3821 Rain 2 1011 77 10000 4.63 180 12:20 06.01.2022
3822 Rain 3 1012 73 10000 4.12 160 11:30 06.01.2022
3823 Clouds 3 1013 74 10000 2.57 170 10:50 06.01.2022
3824 Clouds 1 1016 77 10000 0.45 323 06:38 06.01.2022
3825 Clear -1 1019 89 10000 1.03 170 00:34 06.01.2022
3826 Clear -1 1019 86 10000 1.54 180 23:22 05.01.2022
3827 Clear -1 1018 90 10000 1.54 140 22:48 05.01.2022
3828 Clear -1 1018 90 10000 2.06 150 22:21 05.01.2022
3829 Clear 0 1018 84 10000 0 0 21:28 05.01.2022
3830 Clear 1 1018 77 10000 2.06 300 20:30 05.01.2022
3831 Clouds 2 1017 76 10000 3.09 350 19:29 05.01.2022
3832 Clouds 3 1017 71 10000 0.45 135 18:21 05.01.2022
3833 Clouds 4 1016 64 10000 0.89 166 16:56 05.01.2022
3834 Clouds 5 1015 64 10000 0.89 192 16:18 05.01.2022
3835 Clouds 6 1014 65 10000 0.89 143 14:56 05.01.2022
3836 Clouds 5 1013 69 10000 1.34 155 13:34 05.01.2022
3837 Clear 5 1013 80 10000 4.63 300 12:20 05.01.2022
3838 Clouds 3 1009 83 10000 0.89 122 08:29 05.01.2022
3839 Clouds 4 1007 82 10000 0.45 90 06:37 05.01.2022
3840 Clouds 4 1005 75 10000 1.79 146 01:24 05.01.2022
3841 Clouds 3 1004 86 10000 0.89 63 23:42 04.01.2022
3842 Clouds 3 1004 85 10000 1.34 135 23:19 04.01.2022
3843 Clouds 3 1004 70 10000 1.34 231 21:36 04.01.2022
3844 Clouds 3 1004 73 10000 0.45 203 20:41 04.01.2022
3845 Clear 3 1003 66 10000 1.34 190 18:35 04.01.2022
3846 Clouds 4 1002 63 10000 2.24 162 17:19 04.01.2022
3847 Clear 4 1002 63 10000 1.34 170 16:31 04.01.2022
3848 Clear 4 1001 64 10000 2.24 202 14:58 04.01.2022
3849 Clear 4 1001 64 10000 2.24 152 14:37 04.01.2022
3850 Clear 4 1002 65 10000 2.24 134 13:55 04.01.2022
3851 Clouds 3 1002 76 10000 0.89 117 12:20 04.01.2022
3852 Clouds 1 1001 83 10000 2.57 330 10:21 04.01.2022
3853 Clouds 1 1000 83 10000 0.45 156 08:49 04.01.2022
3854 Clouds 2 999 88 10000 0.45 150 06:28 04.01.2022
3855 Clouds 7 997 86 10000 0.45 75 00:42 04.01.2022
3856 Clouds 7 997 86 10000 0.45 338 23:49 03.01.2022
3857 Clouds 7 998 84 10000 1.79 315 22:22 03.01.2022
3858 Clouds 8 999 83 10000 0.89 315 21:38 03.01.2022
3859 Clouds 8 999 80 10000 1.79 320 20:40 03.01.2022
3860 Clouds 9 999 82 10000 0.45 167 18:55 03.01.2022
3861 Clouds 9 1000 80 10000 0.45 102 18:30 03.01.2022
3862 Clouds 9 1000 78 10000 0.45 100 17:20 03.01.2022
3863 Clouds 10 1000 75 10000 0.89 82 16:31 03.01.2022
3864 Clouds 10 1001 73 10000 0.89 103 14:31 03.01.2022
3865 Clouds 10 1003 79 10000 4.12 210 12:52 03.01.2022
3866 Clouds 9 1003 77 10000 2.24 321 11:50 03.01.2022
3867 Clouds 8 1003 81 10000 1.79 353 10:37 03.01.2022
3868 Clouds 8 1002 77 10000 1.34 301 09:27 03.01.2022
3869 Clouds 8 1002 77 10000 0.89 338 07:52 03.01.2022
3870 Clouds 9 1004 75 10000 1.34 158 02:28 03.01.2022
3871 Clouds 9 1003 79 10000 1.34 212 23:22 02.01.2022
3872 Clouds 9 1003 80 10000 1.34 29 22:56 02.01.2022
3873 Clouds 9 1003 82 10000 0.89 22 21:52 02.01.2022
3874 Clouds 9 1003 87 10000 1.34 314 20:45 02.01.2022
3875 Clouds 9 1003 88 10000 1.34 225 20:25 02.01.2022
3876 Clouds 9 1003 84 10000 2.24 292 19:31 02.01.2022
3877 Clouds 9 1003 84 10000 1.79 315 18:51 02.01.2022
3878 Clouds 9 1002 85 10000 0.89 303 17:56 02.01.2022
3879 Clouds 9 1002 85 10000 1.34 320 17:38 02.01.2022
3880 Clouds 9 1002 85 10000 0.89 315 17:19 02.01.2022
3881 Clouds 9 1003 89 10000 2.57 200 16:27 02.01.2022
3882 Rain 10 1003 81 4000 1.34 305 14:38 02.01.2022
3883 Clouds 10 1005 79 10000 1.79 304 12:57 02.01.2022
3884 Clouds 10 1005 80 10000 2.24 306 12:25 02.01.2022
3885 Clouds 10 1005 86 10000 1.79 287 11:33 02.01.2022
3886 Clouds 9 1005 88 10000 1.34 338 10:49 02.01.2022
3887 Clouds 8 1005 89 10000 1.34 286 09:45 02.01.2022
3888 Rain 10 1005 90 7000 0.45 52 05:51 02.01.2022
3889 Clouds 11 1008 79 10000 3.09 0 02:19 02.01.2022
3890 Clouds 12 1010 79 10000 3.6 210 23:40 01.01.2022
3891 Clouds 11 1010 83 10000 2.57 190 22:58 01.01.2022
3892 Clouds 11 1010 83 10000 3.6 190 22:23 01.01.2022
3893 Clouds 12 1009 76 10000 1.79 277 21:44 01.01.2022
3894 Clouds 12 1009 75 10000 1.79 307 20:55 01.01.2022
3895 Clouds 12 1009 74 10000 2.68 315 19:58 01.01.2022
3896 Clouds 12 1010 78 10000 4.12 200 19:26 01.01.2022
3897 Clouds 13 1010 71 10000 2.24 315 17:59 01.01.2022
3898 Clouds 14 1010 72 10000 1.79 322 16:41 01.01.2022
3899 Clouds 14 1009 71 10000 1.79 285 16:19 01.01.2022
3900 Clouds 14 1009 78 10000 1.34 348 15:26 01.01.2022
3901 Clouds 14 1010 81 10000 2.24 305 13:58 01.01.2022
3902 Clouds 14 1010 77 10000 2.68 305 12:50 01.01.2022
3903 Clouds 14 1009 78 10000 3.58 325 11:56 01.01.2022
3904 Clouds 13 1010 79 10000 3.13 301 11:23 01.01.2022
3905 Clouds 13 1009 79 10000 1.79 311 10:27 01.01.2022
3906 Clouds 13 1010 81 10000 2.24 315 09:46 01.01.2022
3907 Clouds 13 1010 84 10000 4.63 180 08:26 01.01.2022
3908 Clouds 13 1011 83 10000 4.63 170 07:44 01.01.2022
3909 Clouds 13 1012 83 10000 3.6 170 06:47 01.01.2022
3910 Clouds 13 1012 83 10000 4.12 170 05:27 01.01.2022
3911 Clouds 13 1013 86 10000 3.09 170 04:38 01.01.2022
3912 Clouds 13 1015 89 10000 3.09 170 01:59 01.01.2022
3913 Clouds 12 1014 81 10000 0.89 0 23:36 31.12.2021
3914 Clouds 12 1015 84 10000 0.89 342 21:53 31.12.2021
3915 Clouds 13 1015 83 10000 0.89 342 20:37 31.12.2021
3916 Clouds 13 1014 83 10000 1.34 335 19:30 31.12.2021
3917 Clouds 12 1015 87 10000 3.6 220 18:35 31.12.2021
3918 Clouds 13 1013 82 10000 0.89 85 17:38 31.12.2021
3919 Clouds 13 1013 80 10000 0.89 85 17:18 31.12.2021
3920 Clouds 13 1012 78 10000 0.45 72 16:25 31.12.2021
3921 Clear 13 1011 76 10000 1.34 103 15:57 31.12.2021
3922 Clouds 14 1011 75 10000 1.79 117 15:28 31.12.2021
3923 Clouds 14 1011 75 10000 2.24 56 14:52 31.12.2021
3924 Clouds 14 1011 76 10000 2.24 77 14:29 31.12.2021
3925 Clouds 14 1011 76 10000 1.79 132 13:36 31.12.2021
3926 Clouds 14 1010 84 10000 0.89 358 12:45 31.12.2021
3927 Clouds 14 1009 89 10000 1.34 298 11:47 31.12.2021
3928 Clouds 13 1009 90 10000 1.34 295 11:29 31.12.2021
3929 Clouds 13 1008 91 10000 1.79 303 10:35 31.12.2021
3930 Rain 13 1008 91 6000 0.89 223 09:54 31.12.2021
3931 Clouds 13 1007 87 10000 1.34 263 09:32 31.12.2021
3932 Rain 13 1007 85 10000 0.45 135 08:27 31.12.2021
3933 Clouds 14 1007 85 10000 0.89 360 07:30 31.12.2021
3934 Clouds 13 1007 84 10000 2.24 326 23:23 30.12.2021
3935 Clouds 13 1007 82 10000 2.68 318 22:33 30.12.2021
3936 Clouds 14 1007 82 10000 2.68 318 22:33 30.12.2021
3937 Clouds 13 1007 83 10000 1.79 353 21:56 30.12.2021
3938 Clouds 13 1006 83 10000 1.79 323 21:56 30.12.2021
3939 Clouds 13 1006 82 10000 1.34 328 21:37 30.12.2021
3940 Clouds 13 1006 84 10000 1.79 317 20:46 30.12.2021
3941 Rain 13 1006 85 10000 1.79 25 20:25 30.12.2021
3942 Clouds 14 1007 86 10000 1.34 324 19:47 30.12.2021
3943 Rain 14 1006 88 10000 0.89 265 18:45 30.12.2021
3944 Rain 14 1006 89 10000 1.79 287 18:18 30.12.2021
3945 Rain 13 1006 94 8000 1.79 342 16:19 30.12.2021
3946 Rain 13 1006 94 10000 2.24 308 15:51 30.12.2021
3947 Rain 13 1006 94 7000 1.34 320 14:39 30.12.2021
3948 Rain 14 1006 90 10000 2.24 332 13:49 30.12.2021
3949 Clouds 14 1006 87 10000 2.24 283 12:40 30.12.2021
3950 Clouds 14 1005 88 10000 0.89 105 10:58 30.12.2021
3951 Clouds 13 1005 87 10000 0.89 323 09:58 30.12.2021
3952 Clouds 13 1004 87 10000 1.79 320 08:58 30.12.2021
3953 Rain 13 1003 93 4900 1.79 295 06:52 30.12.2021
3954 Rain 12 1002 94 3900 1.79 329 03:42 30.12.2021
3955 Rain 12 1002 93 5000 0.45 309 02:47 30.12.2021
3956 Clouds 11 1002 86 10000 1.34 333 23:43 29.12.2021
3957 Clouds 10 1002 86 10000 1.34 315 23:22 29.12.2021
3958 Clouds 10 1002 84 10000 0.89 333 22:21 29.12.2021
3959 Clouds 10 1001 82 10000 0.89 346 21:33 29.12.2021
3960 Clouds 10 1001 81 10000 0.45 332 20:38 29.12.2021
3961 Clouds 10 1001 82 10000 1.34 100 19:48 29.12.2021
3962 Clouds 10 1000 82 10000 0.45 112 18:52 29.12.2021
3963 Clouds 11 1000 78 10000 0.45 93 17:56 29.12.2021
3964 Clouds 11 1000 77 10000 2.57 220 17:28 29.12.2021
3965 Clouds 12 999 72 10000 1.34 70 16:24 29.12.2021
3966 Clouds 12 998 73 10000 1.79 196 15:48 29.12.2021
3967 Clouds 13 996 85 10000 0.89 119 14:24 29.12.2021
3968 Clouds 11 994 91 10000 2.24 318 12:39 29.12.2021
3969 Clouds 9 993 89 10000 3.13 326 11:43 29.12.2021
3970 Rain 8 995 91 10000 0.45 320 09:59 29.12.2021
3971 Rain 7 998 90 10000 2.57 150 07:52 29.12.2021
3972 Clouds 6 999 90 10000 1.54 160 06:39 29.12.2021
3973 Clouds 6 999 90 10000 1.54 160 06:18 29.12.2021
3974 Clouds 6 999 92 10000 1.03 0 05:36 29.12.2021
3975 Clouds 5 1001 93 10000 1.03 0 02:46 29.12.2021
3976 Clouds 6 1001 90 10000 0.45 130 00:23 29.12.2021
3977 Clouds 7 1001 89 10000 0.45 103 23:34 28.12.2021
3978 Clouds 7 1000 91 10000 2.06 250 22:42 28.12.2021
3979 Clouds 8 1000 91 10000 4.12 250 22:24 28.12.2021
3980 Clouds 8 1000 91 10000 1.54 240 21:37 28.12.2021
3981 Clouds 8 999 91 10000 0.45 161 20:39 28.12.2021
3982 Clouds 8 998 91 10000 0.89 105 19:24 28.12.2021
3983 Clouds 8 997 91 10000 3.6 290 18:37 28.12.2021
3984 Clouds 8 996 91 10000 1.34 135 17:59 28.12.2021
3985 Clouds 8 995 95 10000 4.63 270 16:34 28.12.2021
3986 Clouds 9 992 93 10000 0.89 76 15:49 28.12.2021
3987 Clouds 9 992 91 10000 0.89 163 15:20 28.12.2021
3988 Clouds 9 991 91 10000 0.89 107 14:47 28.12.2021
3989 Clouds 9 990 94 10000 0.89 220 14:20 28.12.2021
3990 Clouds 9 989 93 8000 1.34 116 13:42 28.12.2021
3991 Clouds 9 989 99 10000 4.63 290 13:24 28.12.2021
3992 Clouds 8 988 99 10000 4.63 290 12:49 28.12.2021
3993 Clouds 8 985 95 10000 0.45 180 11:33 28.12.2021
3994 Rain 8 982 95 1800 0.51 110 07:41 28.12.2021
3995 Mist 8 983 94 5000 0.45 180 06:41 28.12.2021
3996 Clouds 8 985 91 10000 0.45 207 23:43 27.12.2021
3997 Clouds 8 985 90 10000 2.57 50 22:58 27.12.2021
3998 Clouds 8 985 89 10000 2.06 40 21:38 27.12.2021
3999 Clouds 8 986 94 10000 1.54 110 20:57 27.12.2021
4000 Clouds 8 986 93 10000 3.09 90 19:58 27.12.2021
4001 Clouds 8 986 92 10000 3.09 90 19:39 27.12.2021
4002 Clouds 8 987 90 10000 3.09 90 18:23 27.12.2021
4003 Clouds 8 987 90 10000 3.6 80 17:46 27.12.2021
4004 Clouds 8 988 90 10000 4.12 90 16:38 27.12.2021
4005 Clouds 8 988 89 10000 0.89 154 15:51 27.12.2021
4006 Clouds 7 990 94 10000 2.57 90 14:32 27.12.2021
4007 Clouds 7 990 94 10000 3.09 90 13:39 27.12.2021
4008 Clouds 7 992 91 10000 2.06 120 11:53 27.12.2021
4009 Clouds 6 991 93 10000 0.89 335 10:29 27.12.2021
4010 Clouds 6 991 94 10000 0.89 331 09:39 27.12.2021
4011 Drizzle 6 992 94 3500 0.51 70 07:35 27.12.2021
4012 Clouds 6 993 95 10000 0.51 0 06:56 27.12.2021
4013 Clouds 6 995 95 8000 1.03 0 01:59 27.12.2021
4014 Clouds 6 996 92 10000 1.03 0 23:58 26.12.2021
4015 Clouds 6 996 92 10000 1.03 0 23:35 26.12.2021
4016 Clouds 5 997 91 10000 1.03 0 21:59 26.12.2021
4017 Clouds 6 998 91 10000 0.45 315 20:54 26.12.2021
4018 Clouds 5 998 91 10000 0.45 340 19:46 26.12.2021
4019 Clouds 5 998 91 10000 0.89 322 18:23 26.12.2021
4020 Clouds 5 998 90 10000 0.45 343 15:57 26.12.2021
4021 Clouds 5 999 93 3500 1.03 0 14:27 26.12.2021
4022 Rain 5 1000 93 10000 1.03 0 13:40 26.12.2021
4023 Clouds 4 1000 94 10000 1.54 100 13:18 26.12.2021
4024 Clouds 4 1000 94 10000 2.57 100 12:27 26.12.2021
4025 Clouds 3 1000 88 10000 0.89 113 10:22 26.12.2021
4026 Clouds 3 999 88 10000 0.45 185 09:19 26.12.2021
4027 Clouds 3 999 88 10000 0.45 144 08:40 26.12.2021
4028 Rain 3 1000 94 9000 3.09 90 07:25 26.12.2021
4029 Rain 3 1001 86 8000 0.89 269 01:24 26.12.2021
4030 Rain 3 1003 88 10000 5.14 90 23:53 25.12.2021
4031 Rain 3 1003 88 10000 5.66 100 23:27 25.12.2021
4032 Clouds 3 1002 79 10000 1.79 54 22:23 25.12.2021
4033 Clouds 3 1003 82 10000 4.63 90 20:48 25.12.2021
4034 Clouds 3 1004 85 10000 4.63 100 19:23 25.12.2021
4035 Clouds 3 1004 85 10000 4.63 100 18:54 25.12.2021
4036 Clouds 4 1003 79 10000 2.68 72 17:29 25.12.2021
4037 Clouds 4 1004 79 10000 1.34 151 16:35 25.12.2021
4038 Clouds 4 1004 75 10000 1.34 17 14:38 25.12.2021
4039 Clouds 4 1005 74 10000 1.34 264 12:49 25.12.2021
4040 Clouds 4 1006 77 10000 5.66 90 11:45 25.12.2021
4041 Clouds 4 1005 78 10000 2.24 179 09:50 25.12.2021
4042 Clouds 5 1003 81 10000 1.79 273 08:19 25.12.2021
4043 Rain 6 1003 88 10000 4.63 80 02:22 25.12.2021
4044 Rain 6 1003 89 10000 6.17 80 00:33 25.12.2021
4045 Rain 6 1003 89 10000 4.63 90 23:39 24.12.2021
4046 Clouds 7 1002 88 10000 4.63 70 19:40 24.12.2021
4047 Clouds 7 1002 88 10000 4.63 80 19:22 24.12.2021
4048 Clouds 7 1002 89 10000 3.6 90 16:50 24.12.2021
4049 Clouds 8 1001 85 10000 1.34 203 16:21 24.12.2021
4050 Clouds 8 1002 92 10000 4.63 90 15:46 24.12.2021
4051 Clouds 8 1002 89 10000 2.57 70 14:46 24.12.2021
4052 Clouds 8 1002 85 10000 0.45 150 14:23 24.12.2021
4053 Clouds 9 1003 84 10000 1.03 0 13:37 24.12.2021
4054 Clouds 8 1003 89 10000 1.54 0 12:48 24.12.2021
4055 Clouds 8 1002 90 10000 1.03 0 11:52 24.12.2021
4056 Clouds 8 1002 93 10000 1.03 0 11:26 24.12.2021
4057 Clouds 7 1002 91 10000 1.03 0 10:50 24.12.2021
4058 Clouds 7 1003 93 10000 2.06 180 10:18 24.12.2021
4059 Clouds 7 1002 92 10000 1.54 190 08:24 24.12.2021
4060 Clouds 7 1002 92 10000 1.54 170 07:48 24.12.2021
4061 Clouds 8 1003 91 10000 2.06 180 02:52 24.12.2021
4062 Clouds 7 1003 91 10000 0.45 315 23:56 23.12.2021
4063 Clouds 7 1003 92 10000 0.45 315 23:22 23.12.2021
4064 Clouds 7 1003 94 10000 0.45 302 22:37 23.12.2021
4065 Clouds 7 1003 92 10000 2.06 200 22:19 23.12.2021
4066 Clouds 8 1003 91 10000 2.57 210 20:59 23.12.2021
4067 Clouds 9 1004 94 10000 2.57 200 20:18 23.12.2021
4068 Clouds 9 1004 94 10000 2.57 200 20:18 23.12.2021
4069 Clouds 9 1003 94 10000 3.09 210 18:36 23.12.2021
4070 Clouds 9 1002 94 9000 0.45 307 17:57 23.12.2021
4071 Clouds 9 1002 91 10000 2.57 180 16:44 23.12.2021
4072 Clouds 9 1001 92 10000 0.45 315 16:24 23.12.2021
4073 Clouds 9 1001 92 7000 0.45 328 15:31 23.12.2021
4074 Clouds 9 1002 92 6000 0.45 353 14:52 23.12.2021
4075 Mist 8 1002 94 4800 2.06 190 14:30 23.12.2021
4076 Mist 8 1003 92 3500 0.89 315 12:54 23.12.2021
4077 Rain 7 1004 94 8000 1.54 160 10:52 23.12.2021
4078 Clouds 6 1004 93 6000 1.54 160 09:42 23.12.2021
4079 Clouds 6 1004 92 7000 2.06 150 08:59 23.12.2021
4080 Clouds 6 1005 91 8000 2.06 190 06:55 23.12.2021
4081 Clouds 5 1006 91 9000 1.54 180 04:30 23.12.2021
4082 Rain 4 1010 92 10000 1.54 170 22:59 22.12.2021
4083 Clouds 4 1010 93 10000 1.54 170 22:39 22.12.2021
4084 Clouds 4 1010 94 6000 2.57 150 21:54 22.12.2021
4085 Rain 4 1011 93 5000 2.57 180 21:29 22.12.2021
4086 Rain 4 1011 92 6000 1.54 0 20:44 22.12.2021
4087 Rain 4 1012 89 10000 2.06 170 20:25 22.12.2021
4088 Rain 3 1012 91 10000 2.57 0 19:19 22.12.2021
4089 Rain 3 1013 84 9000 2.57 150 17:42 22.12.2021
4090 Rain 4 1014 73 10000 2.06 140 16:38 22.12.2021
4091 Clouds 4 1014 74 10000 1.54 140 15:39 22.12.2021
4092 Clouds 3 1016 80 10000 1.54 160 13:32 22.12.2021
4093 Clouds 3 1017 82 10000 2.06 140 12:39 22.12.2021
4094 Clouds 2 1018 85 10000 2.57 130 09:54 22.12.2021
4095 Clouds 2 1018 85 10000 2.57 130 09:35 22.12.2021
4096 Clouds 1 1018 81 10000 1.54 120 07:25 22.12.2021
4097 Clouds 1 1019 85 9000 1.54 120 05:42 22.12.2021
4098 Clouds 1 1020 86 9000 1.54 130 05:24 22.12.2021
4099 Clouds 1 1020 82 9000 1.03 0 04:47 22.12.2021
4100 Clouds 2 1020 81 10000 1.54 130 04:22 22.12.2021
4101 Clouds 2 1020 81 10000 0.89 358 03:32 22.12.2021
4102 Clouds 3 1023 79 10000 2.57 170 00:29 22.12.2021
4103 Clouds 3 1023 79 10000 2.06 160 22:51 21.12.2021
4104 Clouds 3 1023 79 10000 2.06 170 22:27 21.12.2021
4105 Clouds 3 1023 79 10000 1.54 150 21:43 21.12.2021
4106 Clouds 3 1022 79 10000 0.45 329 20:53 21.12.2021
4107 Clouds 3 1022 79 10000 1.54 0 20:20 21.12.2021
4108 Clouds 3 1022 79 10000 1.03 0 19:41 21.12.2021
4109 Clouds 3 1022 78 10000 0.89 306 18:43 21.12.2021
4110 Clouds 3 1023 82 10000 1.54 130 18:21 21.12.2021
4111 Clouds 3 1023 77 10000 0.89 344 17:40 21.12.2021
4112 Clouds 4 1023 74 10000 1.03 0 15:47 21.12.2021
4113 Clouds 4 1023 74 10000 1.03 0 15:19 21.12.2021
4114 Clouds 4 1024 77 10000 0.45 335 13:47 21.12.2021
4115 Clouds 4 1024 78 10000 0.89 342 13:29 21.12.2021
4116 Clouds 3 1025 78 10000 0.89 343 10:56 21.12.2021
4117 Clouds 3 1025 78 10000 0.89 301 09:59 21.12.2021
4118 Clouds 3 1024 78 10000 0.89 349 09:18 21.12.2021
4119 Clouds 3 1025 82 10000 1.54 120 07:54 21.12.2021
4120 Clouds 4 1025 76 10000 0.45 338 07:25 21.12.2021
4121 Clouds 4 1025 78 10000 1.03 0 04:56 21.12.2021
4122 Clouds 4 1026 76 10000 0.45 315 02:39 21.12.2021
4123 Clouds 4 1027 78 10000 1.54 90 23:58 20.12.2021
4124 Clouds 4 1028 82 10000 1.03 0 22:49 20.12.2021
4125 Clouds 4 1028 82 10000 1.54 120 22:28 20.12.2021
4126 Clouds 4 1028 83 10000 2.06 130 21:42 20.12.2021
4127 Clouds 4 1028 82 10000 1.54 130 21:22 20.12.2021
4128 Clouds 4 1028 83 10000 1.54 120 20:40 20.12.2021
4129 Clouds 5 1028 83 10000 1.03 0 19:39 20.12.2021
4130 Clouds 5 1028 77 10000 0.45 183 19:20 20.12.2021
4131 Clouds 5 1028 77 10000 0.45 27 18:35 20.12.2021
4132 Clouds 5 1028 77 10000 0.89 289 17:51 20.12.2021
4133 Clouds 5 1029 80 10000 1.54 90 16:53 20.12.2021
4134 Clouds 5 1029 80 10000 1.54 90 16:35 20.12.2021
4135 Clouds 5 1029 82 10000 2.57 100 15:43 20.12.2021
4136 Clouds 5 1029 86 10000 2.06 100 14:40 20.12.2021
4137 Clouds 5 1029 87 10000 0.45 223 12:41 20.12.2021
4138 Clouds 5 1030 99 10000 2.57 60 10:51 20.12.2021
4139 Clouds 5 1029 94 10000 2.11 90 09:44 20.12.2021
4140 Clouds 4 1029 96 10000 1.03 0 08:56 20.12.2021
4141 Clouds 4 1029 96 10000 1.03 0 08:38 20.12.2021
4142 Clouds 5 1029 95 10000 1.03 90 07:44 20.12.2021
4143 Mist 4 1029 94 3100 0.51 0 06:39 20.12.2021
4144 Fog 4 1031 94 550 0.51 0 01:33 20.12.2021
4145 Mist 3 1033 100 1400 0.51 0 23:28 19.12.2021
4146 Mist 4 1033 100 1400 0.51 0 22:44 19.12.2021
4147 Fog 3 1033 93 250 0.51 320 21:33 19.12.2021
4148 Fog 3 1032 89 150 1.03 0 20:44 19.12.2021
4149 Fog 3 1032 89 150 1.03 0 20:23 19.12.2021
4150 Fog 3 1032 92 150 0.51 0 19:42 19.12.2021
4151 Clouds 3 1032 85 10000 2.83 55 18:46 19.12.2021
4152 Clouds 3 1032 84 10000 2.46 60 17:54 19.12.2021
4153 Clouds 3 1032 83 10000 2.46 60 17:35 19.12.2021
4154 Clouds 3 1033 87 10000 2.06 62 16:41 19.12.2021
4155 Fog 3 1034 100 150 1.03 0 15:56 19.12.2021
4156 Fog 4 1033 93 200 0.51 0 15:25 19.12.2021
4157 Fog 4 1033 90 200 0.51 0 14:45 19.12.2021
4158 Fog 4 1034 93 250 0.51 0 13:35 19.12.2021
4159 Fog 5 1034 96 150 0.51 0 12:59 19.12.2021
4160 Fog 5 1035 95 250 1.03 0 12:31 19.12.2021
4161 Fog 1 1036 100 250 1.03 0 11:37 19.12.2021
4162 Clouds 3 1036 80 10000 1 68 10:50 19.12.2021
4163 Clouds 3 1036 83 10000 0.75 66 10:22 19.12.2021
4164 Clouds 2 1036 84 10000 0.76 59 08:50 19.12.2021
4165 Fog 3 1037 93 150 0.51 0 06:45 19.12.2021
4166 Fog 4 1038 95 150 0.51 0 01:51 19.12.2021
4167 Fog 4 1038 91 150 0.51 0 00:54 19.12.2021
4168 Fog 5 1038 96 200 1.03 0 22:59 18.12.2021
4169 Fog 5 1038 94 300 0.51 0 22:24 18.12.2021
4170 Fog 5 1038 93 350 0.45 315 21:43 18.12.2021
4171 Fog 5 1038 93 900 1.03 0 21:22 18.12.2021
4172 Mist 5 1038 95 2300 1.03 0 20:25 18.12.2021
4173 Clouds 5 1038 95 6000 1.03 0 19:34 18.12.2021
4174 Clouds 5 1038 92 9000 1.54 190 18:24 18.12.2021
4175 Clouds 5 1038 91 8000 2.06 190 17:49 18.12.2021
4176 Clouds 6 1039 92 10000 1.03 0 16:28 18.12.2021
4177 Clouds 6 1039 87 10000 1.54 200 15:48 18.12.2021
4178 Clouds 7 1038 81 10000 0.45 297 14:54 18.12.2021
4179 Clouds 6 1040 90 10000 1.54 180 13:44 18.12.2021
4180 Clouds 6 1040 92 10000 0 0 11:55 18.12.2021
4181 Clouds 5 1041 93 10000 1.03 0 09:54 18.12.2021
4182 Clouds 5 1040 93 10000 1.03 60 09:30 18.12.2021
4183 Clouds 5 1040 96 10000 1.54 50 08:36 18.12.2021
4184 Mist 5 1039 95 4600 2.57 30 06:27 18.12.2021
4185 Mist 5 1040 93 3100 1.03 140 00:42 18.12.2021
4186 Mist 5 1041 95 4100 1.03 0 23:46 17.12.2021
4187 Clouds 5 1041 98 6000 0 0 22:37 17.12.2021
4188 Clouds 5 1040 92 10000 1.2 79 21:28 17.12.2021
4189 Clouds 6 1040 90 10000 1.2 79 20:42 17.12.2021
4190 Clouds 6 1040 91 10000 1.19 96 19:50 17.12.2021
4191 Clouds 6 1040 91 8000 1.03 0 18:39 17.12.2021
4192 Clouds 7 1040 90 10000 0.45 188 17:46 17.12.2021
4193 Clouds 7 1040 85 10000 1.54 100 16:50 17.12.2021
4194 Clouds 8 1040 84 10000 0.45 216 16:25 17.12.2021
4195 Clouds 8 1040 80 10000 0.45 123 15:25 17.12.2021
4196 Clouds 9 1040 79 10000 1.03 20 14:41 17.12.2021
4197 Clear 8 1041 82 10000 1.03 0 13:30 17.12.2021
4198 Fog 6 1042 99 10000 1.54 240 12:21 17.12.2021
4199 Fog 6 1042 99 10000 1.54 240 12:21 17.12.2021
4200 Clouds 5 1041 90 10000 1.22 78 10:38 17.12.2021
4201 Fog 5 1041 91 10000 0.51 0 09:34 17.12.2021
4202 Fog 5 1040 95 10000 1.03 100 08:31 17.12.2021
4203 Fog 5 1040 95 9000 1.54 100 07:18 17.12.2021
4204 Fog 6 1040 95 8000 0.51 0 04:39 17.12.2021
4205 Clouds 7 1040 91 10000 0.51 0 23:47 16.12.2021
4206 -273 0 0 0 0 0 22:24 16.12.2021
4207 Clouds 7 1039 91 10000 0.51 0 22:24 16.12.2021
4208 -273 0 0 0 0 0 22:24 16.12.2021
4209 Clouds 7 1039 91 10000 0.51 0 22:23 16.12.2021
4210 Clouds 7 1039 91 10000 0.51 0 22:23 16.12.2021
4211 Clouds 7 1039 91 10000 0.51 0 22:23 16.12.2021
4212 Clouds 7 1039 91 10000 0.51 0 22:23 16.12.2021
4213 Clouds 8 1039 91 10000 0.51 0 21:44 16.12.2021
4214 Clouds 8 1039 89 10000 1.03 260 20:55 16.12.2021
4215 Clouds 8 1039 89 10000 1.03 260 20:27 16.12.2021
4216 Clouds 8 1038 88 10000 0.51 0 19:33 16.12.2021
4217 Clouds 9 1038 88 10000 1.03 0 18:37 16.12.2021
4218 Clouds 9 1038 90 10000 1.03 0 17:48 16.12.2021
4219 Clouds 9 1038 89 10000 1.54 230 16:44 16.12.2021
4220 Clouds 9 1037 90 10000 1.03 220 16:18 16.12.2021
4221 Clouds 10 1037 92 10000 1.54 190 14:23 16.12.2021
4222 Clouds 9 1037 96 10000 1.03 0 12:34 16.12.2021
4223 Clouds 8 1036 96 8000 1.03 0 11:19 16.12.2021
4224 Clouds 8 1037 96 8000 1.03 0 11:19 16.12.2021
4225 Clouds 8 1036 96 10000 0.45 315 10:45 16.12.2021
4226 Clouds 7 1036 97 10000 1.54 110 09:51 16.12.2021
4227 Clear 6 1034 94 10000 0.55 202 07:19 16.12.2021
4228 Fog 6 1034 92 9000 0.51 0 06:18 16.12.2021
4229 Clear 6 1032 91 10000 2.06 160 00:35 16.12.2021
4230 Clear 7 1031 94 10000 1.54 140 23:20 15.12.2021
4231 Clear 7 1031 93 10000 1.54 140 22:21 15.12.2021
4232 Clear 7 1031 93 10000 1.54 140 22:21 15.12.2021
4233 Clear 7 1031 92 10000 1.54 150 21:44 15.12.2021
4234 Clear 7 1030 91 10000 2.57 180 21:24 15.12.2021
4235 Clear 8 1030 86 10000 2.06 190 19:54 15.12.2021
4236 Clear 9 1030 85 10000 2.06 180 19:18 15.12.2021
4237 Clear 10 1029 84 10000 0.45 297 18:20 15.12.2021
4238 Clear 10 1028 83 10000 2.06 170 17:45 15.12.2021
4239 Clouds 10 1029 84 10000 1.54 190 17:21 15.12.2021
4240 Clouds 11 1028 78 10000 3.09 220 15:49 15.12.2021
4241 Clouds 12 1027 76 10000 0.89 116 15:30 15.12.2021
4242 Clouds 12 1027 75 10000 0.89 5 14:48 15.12.2021
4243 Clear 12 1027 77 10000 0.89 132 13:34 15.12.2021
4244 Clouds 10 1027 85 10000 0.45 97 11:52 15.12.2021
4245 Clear 8 1026 90 10000 0.89 297 10:20 15.12.2021
4246 Clouds 8 1025 88 10000 0.45 277 08:25 15.12.2021
4247 Clouds 8 1025 91 10000 2.06 180 05:53 15.12.2021
4248 Clouds 9 1024 89 10000 0.89 350 00:37 15.12.2021
4249 Clouds 9 1023 89 10000 0.89 318 23:27 14.12.2021
4250 Clouds 9 1023 89 10000 1.34 309 22:44 14.12.2021
4251 Clouds 9 1023 88 10000 1.34 325 21:40 14.12.2021
4252 Clouds 9 1023 90 10000 3.09 200 20:21 14.12.2021
4253 Clouds 9 1023 91 10000 4.63 240 19:26 14.12.2021
4254 Clouds 9 1023 90 10000 1.54 210 18:38 14.12.2021
4255 Clouds 9 1022 88 10000 2.06 250 17:55 14.12.2021
4256 Clouds 10 1022 89 10000 2.57 230 16:43 14.12.2021
4257 Clouds 10 1022 91 10000 2.57 200 16:21 14.12.2021
4258 Clouds 9 1022 91 10000 0.45 131 13:59 14.12.2021
4259 Mist 8 1023 88 4500 1.54 180 12:48 14.12.2021
4260 Fog 7 1023 94 300 0.89 304 11:25 14.12.2021
4261 Fog 6 1023 95 900 0.45 51 10:45 14.12.2021
4262 Mist 6 1023 94 3000 0.45 61 09:54 14.12.2021
4263 Fog 6 1022 94 1200 1.03 0 08:48 14.12.2021
4264 Fog 6 1022 94 1500 0.45 315 08:21 14.12.2021
4265 Fog 6 1022 94 550 1.54 220 06:40 14.12.2021
4266 Clouds 7 1022 94 10000 1.54 60 23:42 13.12.2021
4267 Clouds 8 1022 93 6000 1.54 40 22:18 13.12.2021
4268 Rain 8 1021 93 3600 1.03 70 21:34 13.12.2021
4269 Rain 8 1021 93 5000 0.51 0 20:51 13.12.2021
4270 Rain 8 1021 93 8000 0.51 0 20:20 13.12.2021
4271 Drizzle 8 1021 91 4600 1.54 60 19:49 13.12.2021
4272 Rain 8 1020 90 3500 1.54 290 17:27 13.12.2021
4273 Mist 8 1020 92 4000 0.51 0 16:24 13.12.2021
4274 Rain 9 1019 92 5000 0.51 230 15:43 13.12.2021
4275 Rain 9 1020 85 5000 1.54 300 13:57 13.12.2021
4276 Clouds 9 1019 82 10000 1.03 0 13:31 13.12.2021
4277 Clouds 9 1019 82 10000 1.03 0 12:39 13.12.2021
4278 Clouds 9 1020 82 10000 1.03 10 11:43 13.12.2021
4279 Clouds 9 1020 86 10000 1.54 20 11:24 13.12.2021
4280 Rain 9 1019 84 10000 1.54 310 10:21 13.12.2021
4281 Clouds 9 1018 82 10000 2.06 300 08:31 13.12.2021
4282 Clouds 10 1016 85 10000 0.89 113 05:37 13.12.2021
4283 Clouds 11 1015 86 10000 0.89 359 03:57 13.12.2021
4284 Clouds 11 1015 83 10000 3.09 190 23:43 12.12.2021
4285 Clouds 12 1014 78 10000 2.68 58 21:56 12.12.2021
4286 Clouds 12 1015 84 10000 3.6 200 20:46 12.12.2021
4287 Clouds 12 1016 89 10000 3.6 200 19:33 12.12.2021
4288 Clouds 12 1014 89 10000 2.24 315 17:54 12.12.2021
4289 Clouds 13 1014 85 10000 1.79 315 16:29 12.12.2021
4290 Clouds 13 1014 84 10000 1.79 325 15:53 12.12.2021
4291 Clouds 13 1014 84 10000 1.34 315 15:28 12.12.2021
4292 Clouds 13 1014 83 10000 1.79 290 14:38 12.12.2021
4293 Clouds 13 1015 87 10000 0.89 304 13:43 12.12.2021
4294 Clouds 13 1015 93 10000 1.34 276 12:37 12.12.2021
4295 Clouds 12 1015 94 10000 1.34 303 11:45 12.12.2021
4296 Clouds 12 1015 94 10000 0.89 257 11:25 12.12.2021
4297 Clouds 11 1014 94 10000 0.89 344 10:39 12.12.2021
4298 Drizzle 11 1014 93 8000 2.06 190 09:45 12.12.2021
4299 Drizzle 10 1013 95 4100 0.51 0 08:38 12.12.2021
4300 Clouds 10 1013 95 1200 1.03 200 06:34 12.12.2021
4301 Drizzle 10 1012 95 1700 0.51 0 05:27 12.12.2021
4302 Clouds 11 1012 95 2900 0.89 127 03:58 12.12.2021
4303 Clouds 11 1011 92 10000 1.34 292 00:36 12.12.2021
4304 Rain 10 1010 91 10000 0.89 315 22:24 11.12.2021
4305 Clouds 10 1010 91 10000 0.89 288 21:52 11.12.2021
4306 Clouds 10 1010 93 10000 0.89 292 21:21 11.12.2021
4307 Clouds 9 1009 91 10000 1.34 315 19:37 11.12.2021
4308 Clouds 8 1009 91 10000 1.34 323 18:53 11.12.2021
4309 Clouds 8 1009 91 10000 0.89 324 18:30 11.12.2021
4310 Rain 8 1010 90 6000 1.79 283 17:37 11.12.2021
4311 Rain 7 1010 88 10000 1.79 325 15:55 11.12.2021
4312 Clouds 7 1011 92 10000 3.09 180 15:35 11.12.2021
4313 Clouds 7 1011 86 10000 1.34 315 13:21 11.12.2021
4314 Clouds 6 1012 89 10000 0.45 315 11:46 11.12.2021
4315 Clouds 5 1012 93 10000 1.54 150 09:47 11.12.2021
4316 Clouds 4 1012 93 10000 1.03 0 09:18 11.12.2021
4317 Clouds 4 1010 94 10000 0.45 315 02:40 11.12.2021
4318 Clouds 4 1008 91 10000 2.06 230 00:40 11.12.2021
4319 Clouds 4 1008 90 10000 2.57 220 23:24 10.12.2021
4320 Clouds 4 1007 90 10000 2.57 250 21:57 10.12.2021
4321 Clouds 4 1006 90 10000 2.57 250 21:36 10.12.2021
4322 Clouds 5 1005 87 10000 0.45 115 19:22 10.12.2021
4323 Clouds 5 1004 86 10000 0.45 182 18:39 10.12.2021
4324 Clouds 5 1002 85 10000 0.45 135 16:57 10.12.2021
4325 Rain 5 1002 85 10000 1.34 143 16:29 10.12.2021
4326 Rain 6 1001 83 10000 1.34 84 15:41 10.12.2021
4327 Clouds 6 1001 81 10000 1.34 206 15:21 10.12.2021
4328 Clouds 6 1000 86 10000 1.34 161 13:52 10.12.2021
4329 Clouds 6 999 84 10000 0.89 180 13:26 10.12.2021
4330 Clouds 6 999 86 10000 1.34 124 12:47 10.12.2021
4331 Clouds 5 998 89 10000 0.45 144 11:30 10.12.2021
4332 Clouds 5 997 89 10000 0.89 64 10:38 10.12.2021
4333 Clouds 4 996 87 10000 0.89 186 09:19 10.12.2021
4334 Clouds 4 993 87 10000 0.89 186 06:59 10.12.2021
4335 Clouds 6 990 81 10000 1.79 106 02:50 10.12.2021
4336 Clouds 7 989 89 10000 1.34 119 00:57 10.12.2021
4337 Clouds 7 988 92 10000 0.45 124 23:37 09.12.2021
4338 Clouds 7 989 94 9000 0.45 180 22:40 09.12.2021
4339 Clouds 7 989 94 5000 0.89 127 22:19 09.12.2021
4340 Clouds 6 989 92 10000 1.34 333 21:20 09.12.2021
4341 Clouds 6 991 93 6000 3.09 170 20:29 09.12.2021
4342 Rain 6 992 90 10000 3.09 160 19:22 09.12.2021
4343 Clouds 6 991 91 9000 0.45 336 18:49 09.12.2021
4344 Rain 6 993 87 7000 1.34 315 17:57 09.12.2021
4345 Rain 6 993 87 7000 1.34 315 17:57 09.12.2021
4346 Rain 6 995 85 10000 2.57 150 17:27 09.12.2021
4347 Clouds 6 995 85 10000 1.54 160 16:56 09.12.2021
4348 Clouds 7 995 80 10000 1.34 319 15:57 09.12.2021
4349 Clouds 7 996 76 10000 1.34 327 14:50 09.12.2021
4350 Clouds 7 998 83 10000 0.89 322 13:25 09.12.2021
4351 Clouds 7 998 81 10000 0.89 148 12:47 09.12.2021
4352 Clouds 6 998 89 10000 0.89 122 11:24 09.12.2021
4353 Clouds 6 998 88 10000 0.89 114 09:44 09.12.2021
4354 Clouds 7 997 89 5000 1.34 107 06:51 09.12.2021
4355 Clouds 7 995 92 10000 0.89 206 03:43 09.12.2021
4356 Clouds 6 992 89 10000 1.34 169 23:45 08.12.2021
4357 Rain 6 991 91 10000 0.45 163 23:21 08.12.2021
4358 Rain 6 991 91 2900 0.89 134 22:49 08.12.2021
4359 Clouds 6 990 91 6000 0.89 116 21:46 08.12.2021
4360 Clouds 6 990 89 10000 0.89 75 21:27 08.12.2021
4361 Clouds 6 988 92 5000 0.89 202 19:59 08.12.2021
4362 Clouds 6 988 92 5000 0.89 336 19:36 08.12.2021
4363 Rain 6 987 91 6000 0.89 101 18:46 08.12.2021
4364 Clouds 6 986 89 10000 1.79 38 17:47 08.12.2021
4365 Clouds 6 984 90 10000 1.34 62 15:57 08.12.2021
4366 Clouds 6 984 88 10000 2.24 100 15:29 08.12.2021
4367 Rain 6 983 88 10000 2.68 30 14:40 08.12.2021
4368 Clouds 6 980 89 10000 2.68 100 11:36 08.12.2021
4369 Rain 6 978 90 10000 1.79 124 10:31 08.12.2021
4370 Rain 5 976 94 4500 1.34 3 09:25 08.12.2021
4371 Rain 4 974 89 6000 2.68 318 07:26 08.12.2021
4372 Clouds 5 974 87 10000 2.68 310 04:57 08.12.2021
4373 Clouds 6 973 84 10000 7.2 170 23:34 07.12.2021
4374 Clouds 6 975 79 10000 4.63 170 21:51 07.12.2021
4375 Clouds 6 974 75 10000 4.47 300 21:23 07.12.2021
4376 Clouds 6 976 76 10000 3.13 322 20:20 07.12.2021
4377 Clouds 6 979 80 10000 3.6 160 18:43 07.12.2021
4378 Clouds 6 980 85 10000 4.63 160 17:52 07.12.2021
4379 Clouds 6 980 82 10000 3.6 160 17:19 07.12.2021
4380 Clouds 6 980 86 10000 1.34 6 16:31 07.12.2021
4381 Rain 6 982 86 10000 3.13 288 15:34 07.12.2021
4382 Clouds 7 984 82 10000 2.68 290 14:23 07.12.2021
4383 Rain 6 988 82 10000 3.13 360 12:55 07.12.2021
4384 Rain 5 993 76 10000 3.13 300 11:29 07.12.2021
4385 Clouds 4 995 77 10000 1.34 302 10:33 07.12.2021
4386 Clouds 3 1001 89 10000 2.57 140 08:26 07.12.2021
4387 Clouds 2 1003 87 10000 1.34 327 06:20 07.12.2021
4388 Clouds 2 1003 88 10000 0.45 330 05:37 07.12.2021
4389 Clouds 4 1004 88 10000 0.45 327 23:47 06.12.2021
4390 Rain 4 1004 88 10000 1.34 102 22:57 06.12.2021
4391 Rain 4 1004 88 10000 4.63 250 22:35 06.12.2021
4392 Clouds 4 1004 87 9000 0.45 110 21:51 06.12.2021
4393 Clouds 4 1003 86 10000 0.45 63 20:33 06.12.2021
4394 Clouds 5 1003 83 10000 0.89 145 19:56 06.12.2021
4395 Clouds 5 1002 82 10000 1.34 143 19:21 06.12.2021
4396 Clouds 5 1002 84 10000 0.89 120 18:28 06.12.2021
4397 Clouds 5 1001 85 10000 5.14 240 17:40 06.12.2021
4398 Clouds 5 1001 85 10000 5.14 240 17:40 06.12.2021
4399 Clouds 6 1001 87 10000 0.45 105 16:32 06.12.2021
4400 Clouds 6 1001 91 10000 0.89 301 15:38 06.12.2021
4401 Clouds 4 1002 90 10000 0.89 286 13:46 06.12.2021
4402 Rain 4 1003 88 7000 1.34 34 12:39 06.12.2021
4403 Clouds 4 1003 86 10000 2.24 293 11:36 06.12.2021
4404 Clouds 4 1008 89 10000 2.06 180 08:46 06.12.2021
4405 Clouds 3 1009 89 10000 0.45 322 06:40 06.12.2021
4406 Clouds 4 1015 87 10000 1.54 170 22:54 05.12.2021
4407 Clouds 5 1016 85 10000 1.54 270 21:43 05.12.2021
4408 Clouds 5 1016 85 10000 1.54 320 21:19 05.12.2021
4409 Clouds 5 1015 85 10000 3.6 310 20:19 05.12.2021
4410 Clouds 5 1015 84 10000 4.12 310 19:33 05.12.2021
4411 Clouds 5 1015 84 10000 3.6 290 18:43 05.12.2021
4412 Clouds 5 1015 84 10000 3.09 300 18:19 05.12.2021
4413 Clouds 6 1014 83 10000 3.6 290 17:48 05.12.2021
4414 Clouds 6 1012 78 10000 0.89 167 16:45 05.12.2021
4415 Clouds 6 1013 80 10000 2.57 310 16:26 05.12.2021
4416 Clouds 6 1012 77 10000 2.57 320 14:49 05.12.2021
4417 Clouds 6 1011 79 10000 4.63 320 14:31 05.12.2021
4418 Clouds 6 1011 79 10000 4.63 310 13:50 05.12.2021
4419 Clouds 6 1011 79 10000 4.12 320 13:22 05.12.2021
4420 Clouds 6 1010 77 10000 4.12 330 12:31 05.12.2021
4421 Clouds 6 1010 79 10000 5.66 310 11:57 05.12.2021
4422 Clouds 5 1009 79 10000 5.66 320 10:52 05.12.2021
4423 Clouds 5 1008 78 10000 6.17 320 09:58 05.12.2021
4424 Clouds 5 1005 78 10000 0.89 198 07:33 05.12.2021
4425 Clouds 5 1000 80 10000 1.79 140 02:28 05.12.2021
4426 Rain 6 997 81 10000 2.24 142 23:31 04.12.2021
4427 Rain 6 996 81 10000 2.68 187 21:54 04.12.2021
4428 Rain 6 995 84 10000 1.34 149 20:50 04.12.2021
4429 Rain 5 994 86 10000 1.79 144 19:54 04.12.2021
4430 Rain 5 994 86 10000 2.24 150 19:31 04.12.2021
4431 Clouds 5 992 89 8000 3.13 173 17:58 04.12.2021
4432 Rain 5 992 90 8000 2.24 172 17:37 04.12.2021
4433 Rain 6 992 88 10000 2.24 153 16:48 04.12.2021
4434 Rain 6 991 88 10000 3.13 257 16:30 04.12.2021
4435 Rain 6 991 88 4800 2.68 203 15:18 04.12.2021
4436 Rain 6 993 89 10000 1.79 198 11:47 04.12.2021
4437 Rain 6 993 89 10000 2.24 26 11:29 04.12.2021
4438 Rain 5 993 89 10000 1.34 107 10:43 04.12.2021
4439 Clouds 5 993 86 10000 1.79 171 08:46 04.12.2021
4440 Clouds 5 994 91 10000 2.57 250 06:24 04.12.2021
4441 Rain 6 994 92 9000 1.79 170 04:41 04.12.2021
4442 Clouds 6 996 92 10000 0.89 329 23:49 03.12.2021
4443 Clouds 6 996 92 10000 0.89 329 23:49 03.12.2021
4444 Clouds 6 997 92 10000 1.54 230 22:57 03.12.2021
4445 Clouds 6 997 92 10000 1.54 230 22:38 03.12.2021
4446 Clouds 6 998 92 10000 2.06 160 21:25 03.12.2021
4447 Clouds 7 998 92 10000 0.45 315 20:46 03.12.2021
4448 Clouds 7 998 91 10000 1.54 160 19:40 03.12.2021
4449 Clouds 7 999 89 10000 1.54 190 18:34 03.12.2021
4450 Clouds 7 999 87 10000 1.54 190 17:59 03.12.2021
4451 Clouds 8 1000 88 10000 0.45 125 14:47 03.12.2021
4452 Clouds 8 1002 92 10000 0.45 115 12:54 03.12.2021
4453 Clouds 8 1001 92 10000 3.09 240 11:38 03.12.2021
4454 Clouds 7 1001 95 10000 1.54 240 10:32 03.12.2021
4455 Drizzle 5 1001 94 5000 3.09 190 08:25 03.12.2021
4456 Drizzle 4 1001 92 3000 3.09 230 07:40 03.12.2021
4457 Rain 3 1005 90 10000 1.79 338 02:39 03.12.2021
4458 Rain 2 1008 86 10000 1.34 315 00:47 03.12.2021
4459 Rain 3 1010 80 10000 0.45 307 23:47 02.12.2021
4460 Rain 2 1011 79 10000 1.54 170 21:43 02.12.2021
4461 Rain 2 1011 79 10000 1.54 170 21:20 02.12.2021
4462 Clouds 2 1011 79 10000 0.45 315 20:38 02.12.2021
4463 Clouds 2 1013 76 10000 0.51 0 19:31 02.12.2021
4464 Clouds 2 1013 69 10000 1.54 270 17:43 02.12.2021
4465 Clouds 4 1013 59 10000 0.45 148 15:42 02.12.2021
4466 Clouds 4 1013 61 10000 1.34 182 14:59 02.12.2021
4467 Clouds 4 1013 61 10000 1.34 154 14:33 02.12.2021
4468 Clouds 4 1013 61 10000 0.89 157 12:52 02.12.2021
4469 Clouds 3 1014 74 10000 4.12 330 12:18 02.12.2021
4470 Clouds 2 1012 69 10000 0.89 112 10:36 02.12.2021
4471 Clouds 1 1011 72 10000 5.14 320 08:55 02.12.2021
4472 Clouds 2 1008 79 10000 1.03 0 04:54 02.12.2021
4473 Clear 1 1008 78 10000 0.45 184 00:53 02.12.2021
4474 Clear 2 1008 76 10000 0.45 180 23:28 01.12.2021
4475 Clear 2 1007 76 10000 0.89 151 22:24 01.12.2021
4476 Clear 3 1006 73 10000 1.34 164 20:53 01.12.2021
4477 Clear 3 1006 75 10000 5.66 340 19:57 01.12.2021
4478 Clouds 4 1004 72 10000 0.89 192 19:28 01.12.2021
4479 Clouds 5 1003 76 10000 7.2 360 17:50 01.12.2021
4480 Clouds 6 1001 82 10000 5.14 350 16:50 01.12.2021
4481 Clouds 6 997 86 10000 1.34 173 14:54 01.12.2021
4482 Clouds 7 996 86 10000 0.89 105 13:46 01.12.2021
4483 Clouds 8 995 85 10000 1.34 86 12:51 01.12.2021
4484 Clouds 8 995 84 10000 2.68 317 10:43 01.12.2021
4485 Clouds 7 995 88 10000 7.72 280 09:25 01.12.2021
4486 Clouds 8 994 80 10000 1.79 215 08:30 01.12.2021
4487 Clouds 8 995 84 10000 6.17 290 07:34 01.12.2021
4488 Clouds 8 993 87 10000 1.79 124 06:59 01.12.2021
4489 Rain 8 992 82 10000 3.58 197 03:46 01.12.2021
4490 Rain 10 991 92 5000 2.68 138 00:59 01.12.2021
4491 Rain 10 992 90 4600 1.79 58 23:55 30.11.2021
4492 Rain 10 993 87 10000 2.68 302 23:25 30.11.2021
4493 Rain 10 997 89 7000 2.24 307 21:39 30.11.2021
4494 Clouds 10 998 88 10000 1.34 336 20:44 30.11.2021
4495 Rain 10 1000 89 10000 1.34 296 19:53 30.11.2021
4496 Clouds 10 1000 89 10000 1.34 306 19:34 30.11.2021
4497 Clouds 10 1002 90 10000 1.34 307 18:37 30.11.2021
4498 Clouds 10 1005 92 10000 0.89 321 16:50 30.11.2021
4499 Clouds 11 1006 89 10000 0.89 108 15:38 30.11.2021
4500 Clouds 11 1008 93 10000 1.34 358 14:20 30.11.2021
4501 Clouds 11 1009 91 10000 1.34 199 13:26 30.11.2021
4502 Clouds 11 1009 93 10000 1.34 102 12:45 30.11.2021
4503 Clouds 10 1009 93 4900 1.79 187 11:49 30.11.2021
4504 Drizzle 10 1009 93 5000 0.89 189 11:19 30.11.2021
4505 Clouds 10 1010 93 3900 1.79 121 10:32 30.11.2021
4506 Clouds 10 1010 93 10000 2.24 76 08:52 30.11.2021
4507 Rain 10 1010 93 10000 2.24 74 08:22 30.11.2021
4508 Drizzle 10 1009 93 5000 1.34 120 07:47 30.11.2021
4509 Rain 9 1010 95 6000 2.24 122 02:41 30.11.2021
4510 Rain 9 1010 93 6000 1.79 118 01:41 30.11.2021
4511 Rain 9 1010 93 10000 1.79 116 00:24 30.11.2021
4512 Drizzle 8 1011 95 3800 1.34 105 23:24 29.11.2021
4513 Clouds 8 1011 95 2400 1.34 70 22:55 29.11.2021
4514 Drizzle 7 1011 95 2400 4.12 230 22:33 29.11.2021
4515 Drizzle 6 1011 95 4500 0.45 308 21:29 29.11.2021
4516 Drizzle 6 1011 93 4000 2.57 210 20:59 29.11.2021
4517 Drizzle 5 1011 93 4000 0.45 315 20:32 29.11.2021
4518 Drizzle 5 1011 95 7000 3.09 210 19:55 29.11.2021
4519 Drizzle 4 1011 95 7000 3.09 210 19:35 29.11.2021
4520 Clouds 3 1011 91 10000 0.45 291 18:51 29.11.2021
4521 Clouds 2 1013 91 10000 2.39 208 17:49 29.11.2021
4522 Clouds 2 1013 91 10000 2.32 210 17:18 29.11.2021
4523 Clouds 2 1013 92 10000 2.37 202 16:29 29.11.2021
4524 Clouds 2 1013 92 10000 2.37 202 15:45 29.11.2021
4525 Clouds 2 1014 92 10000 1.57 194 14:42 29.11.2021
4526 Clouds 2 1014 90 10000 1.6 212 13:32 29.11.2021
4527 Clouds 1 1015 89 10000 1.5 201 12:28 29.11.2021
4528 Clouds 1 1015 89 10000 1.5 201 11:35 29.11.2021
4529 Clouds 1 1015 89 10000 1.18 204 10:32 29.11.2021
4530 Fog -4 1014 93 600 1.54 220 09:24 29.11.2021
4531 Fog -4 1014 100 150 1.03 340 06:20 29.11.2021
4532 Fog -3 1012 100 150 0.51 0 01:40 29.11.2021
4533 Fog -3 1012 93 100 2.06 130 00:39 29.11.2021
4534 Fog -3 1011 100 100 0.51 0 23:43 28.11.2021
4535 Fog -2 1011 100 50 1.03 0 22:47 28.11.2021
4536 Fog -1 1011 93 150 1.54 280 21:42 28.11.2021
4537 Mist -1 1011 100 1500 1.54 310 21:19 28.11.2021
4538 Rain 0 1009 93 6000 2.06 330 19:58 28.11.2021
4539 Rain 0 1009 93 7000 2.06 330 18:45 28.11.2021
4540 Clouds 0 1008 93 4900 2.57 330 18:27 28.11.2021
4541 Clouds 0 1007 93 10000 1.03 300 17:54 28.11.2021
4542 Clouds 0 1007 93 9000 1.03 260 17:30 28.11.2021
4543 Snow 0 1007 93 3100 2.06 50 16:28 28.11.2021
4544 Snow 0 1007 93 7000 0.51 0 15:53 28.11.2021
4545 Snow 0 1007 93 3400 1.03 0 14:57 28.11.2021
4546 Snow 0 1007 93 3400 1.03 0 14:35 28.11.2021
4547 Snow 1 1008 69 10000 1.03 0 12:58 28.11.2021
4548 Snow 0 1008 74 10000 1.03 220 11:57 28.11.2021
4549 Clouds -1 1008 74 10000 0.51 0 10:37 28.11.2021
4550 Clouds -1 1008 74 10000 0.51 0 10:19 28.11.2021
4551 Clouds -2 1008 86 10000 1.03 0 09:36 28.11.2021
4552 Clouds -1 1008 69 10000 4.12 320 05:50 28.11.2021
4553 Clouds 1 1009 60 10000 2.57 360 23:23 27.11.2021
4554 Clouds 1 1009 60 10000 6.69 340 20:33 27.11.2021
4555 Clouds 2 1008 55 10000 6.69 320 18:49 27.11.2021
4556 Clouds 3 1006 56 10000 9.77 340 16:31 27.11.2021
4557 Clouds 4 1005 56 10000 13.38 340 15:32 27.11.2021
4558 Clouds 4 1004 60 10000 9.77 340 13:46 27.11.2021
4559 Clouds 4 1003 65 10000 8.75 340 12:29 27.11.2021
4560 Clouds 4 1000 70 10000 7.2 340 10:31 27.11.2021
4561 Clouds 3 1000 81 10000 9.26 350 09:41 27.11.2021
4562 Clouds 3 996 75 10000 11.32 340 07:44 27.11.2021
4563 Rain 3 991 87 10000 14.92 360 04:55 27.11.2021
4564 Rain 4 984 81 7000 13.89 320 00:31 27.11.2021
4565 Rain 4 985 81 10000 10.8 300 22:52 26.11.2021
4566 Rain 4 986 81 10000 12.35 300 22:24 26.11.2021
4567 Rain 6 986 61 10000 10.8 300 21:34 26.11.2021
4568 Clouds 6 987 65 10000 9.77 300 20:42 26.11.2021
4569 Clouds 6 988 65 10000 8.75 300 19:56 26.11.2021
4570 Clouds 6 988 61 10000 8.75 300 19:27 26.11.2021
4571 Clouds 5 990 60 10000 5.66 290 17:54 26.11.2021
4572 Clouds 5 990 60 10000 5.66 280 17:21 26.11.2021
4573 Clouds 7 991 76 10000 5.14 300 15:29 26.11.2021
4574 Clouds 7 990 81 10000 1.79 122 13:35 26.11.2021
4575 Clouds 8 991 82 10000 1.79 156 11:30 26.11.2021
4576 Clouds 8 991 87 10000 0.89 181 10:35 26.11.2021
4577 Clouds 8 991 85 10000 1.79 125 08:56 26.11.2021
4578 Rain 8 992 89 10000 1.79 137 08:21 26.11.2021
4579 Clouds 8 993 92 10000 1.79 53 07:24 26.11.2021
4580 Rain 7 995 93 5000 1.34 293 06:25 26.11.2021
4581 Rain 6 1001 92 6000 1.34 35 03:54 26.11.2021
4582 Rain 5 1007 91 9000 0.89 304 01:27 26.11.2021
4583 Rain 5 1007 91 9000 0.89 304 01:27 26.11.2021
4584 Clouds 4 1012 84 10000 2.06 180 22:43 25.11.2021
4585 Clouds 3 1014 82 10000 2.06 170 21:24 25.11.2021
4586 Clouds 3 1015 78 10000 1.03 180 19:55 25.11.2021
4587 Clouds 4 1016 72 10000 0.45 159 18:45 25.11.2021
4588 Clouds 4 1017 73 10000 0.89 146 17:41 25.11.2021
4589 Clouds 5 1017 71 10000 2.57 280 17:18 25.11.2021
4590 Clouds 5 1017 69 10000 0.89 135 16:29 25.11.2021
4591 Clouds 6 1018 66 10000 1.34 96 14:56 25.11.2021
4592 Clouds 6 1019 73 10000 0.89 158 13:25 25.11.2021
4593 Clear 5 1020 75 10000 3.09 330 12:20 25.11.2021
4594 Clear 5 1019 73 10000 0.45 160 11:48 25.11.2021
4595 Clear 2 1018 86 10000 0.89 158 09:25 25.11.2021
4596 Clear 2 1017 91 7000 0.51 0 04:24 25.11.2021
4597 Clear 2 1016 89 10000 0.51 0 02:45 25.11.2021
4598 Clouds 5 1016 89 10000 0.45 150 22:45 24.11.2021
4599 Clouds 5 1016 87 10000 2.06 330 22:23 24.11.2021
4600 Clouds 6 1015 86 10000 2.06 310 21:28 24.11.2021
4601 Clouds 7 1015 88 10000 2.57 320 20:42 24.11.2021
4602 Clouds 7 1015 87 10000 2.57 300 20:18 24.11.2021
4603 Clouds 7 1015 87 2500 0.45 315 18:30 24.11.2021
4604 Rain 8 1015 79 10000 0.45 295 17:24 24.11.2021
4605 Clouds 9 1017 74 10000 0.45 113 15:23 24.11.2021
4606 Clouds 9 1017 74 10000 1.34 329 14:47 24.11.2021
4607 Clouds 9 1018 75 10000 0.89 283 14:19 24.11.2021
4608 Clouds 8 1020 80 10000 0.45 52 11:51 24.11.2021
4609 Clouds 8 1021 80 10000 0.45 194 11:20 24.11.2021
4610 Clouds 7 1021 79 10000 0.45 116 10:47 24.11.2021
4611 Clouds 7 1022 79 10000 0.45 37 10:21 24.11.2021
4612 Clouds 7 1024 92 10000 3.6 240 07:46 24.11.2021
4613 Clouds 8 1023 84 10000 2.06 230 06:51 24.11.2021
4614 Clouds 8 1026 83 10000 0.89 173 03:50 24.11.2021
4615 Clouds 8 1029 92 10000 1.54 230 23:44 23.11.2021
4616 Clouds 8 1029 86 10000 0.45 108 22:39 23.11.2021
4617 Clouds 8 1029 91 10000 0.45 157 21:46 23.11.2021
4618 Clouds 8 1030 89 9000 0.89 173 20:48 23.11.2021
4619 Clouds 8 1030 88 3200 0.89 133 19:37 23.11.2021
4620 Clouds 8 1030 88 10000 2.57 290 18:39 23.11.2021
4621 Clouds 8 1030 87 10000 0.45 174 17:57 23.11.2021
4622 Clouds 9 1030 80 10000 0.89 135 16:55 23.11.2021
4623 Clouds 9 1031 79 10000 0.89 149 15:57 23.11.2021
4624 Clouds 9 1032 83 10000 3.6 330 15:19 23.11.2021
4625 Clouds 9 1032 79 10000 0.89 143 13:43 23.11.2021
4626 Clouds 8 1033 81 10000 0.89 162 11:40 23.11.2021
4627 Clouds 7 1032 91 10000 0.51 0 09:57 23.11.2021
4628 Clouds 6 1032 90 10000 0.51 0 08:44 23.11.2021
4629 Clouds 5 1032 90 10000 1.54 150 05:57 23.11.2021
4630 Clouds 4 1033 92 9000 1.54 120 03:42 23.11.2021
4631 Clouds 3 1033 92 10000 1.54 120 00:28 23.11.2021
4632 Clouds 4 1033 89 10000 1.03 0 23:20 22.11.2021
4633 Clouds 4 1033 89 10000 0.51 0 22:32 22.11.2021
4634 Clouds 4 1033 89 7000 1.54 120 21:46 22.11.2021
4635 Clear 3 1033 89 10000 1.54 130 21:26 22.11.2021
4636 Clouds 3 1033 89 10000 1.03 0 20:49 22.11.2021
4637 Clouds 4 1033 83 10000 2.06 320 19:31 22.11.2021
4638 Clouds 4 1032 81 10000 2.06 290 18:58 22.11.2021
4639 Clouds 4 1032 80 10000 2.06 290 18:35 22.11.2021
4640 Clouds 7 1033 70 10000 0.45 135 16:56 22.11.2021
4641 Clear 8 1033 71 10000 2.06 260 15:42 22.11.2021
4642 Clear 7 1034 81 10000 0.51 0 12:56 22.11.2021
4643 Clouds 5 1034 87 10000 1.03 130 11:39 22.11.2021
4644 Clear 3 1033 89 10000 1.03 140 10:36 22.11.2021
4645 Clear 1 1031 89 10000 1.03 0 08:46 22.11.2021
4646 Clear 1 1031 89 10000 2.57 340 08:25 22.11.2021
4647 Clear 2 1028 85 10000 2.25 12 02:31 22.11.2021
4648 Clear 3 1027 81 10000 2.57 30 23:22 21.11.2021
4649 Clear 4 1026 80 10000 0.89 192 22:46 21.11.2021
4650 Clouds 4 1027 84 10000 5.66 20 21:33 21.11.2021
4651 Clouds 4 1025 80 10000 1.34 170 20:38 21.11.2021
4652 Clouds 4 1025 75 10000 0.89 185 19:45 21.11.2021
4653 Clouds 5 1023 69 10000 0.89 156 17:59 21.11.2021
4654 Clouds 6 1023 69 10000 1.34 135 17:37 21.11.2021
4655 Clouds 6 1023 69 10000 1.34 135 17:37 21.11.2021
4656 Clouds 7 1022 62 10000 0.89 152 15:22 21.11.2021
4657 Clouds 7 1022 62 10000 0.89 162 14:43 21.11.2021
4658 Clear 7 1022 63 10000 1.34 138 13:31 21.11.2021
4659 Clouds 6 1023 75 10000 6.17 340 12:27 21.11.2021
4660 Clouds 6 1022 84 10000 3.6 330 11:39 21.11.2021
4661 Clear 4 1021 84 10000 3.09 330 10:19 21.11.2021
4662 Clear 4 1020 83 10000 2.57 330 09:47 21.11.2021
4663 Clouds 3 1019 86 10000 2.06 330 08:34 21.11.2021
4664 Clear 3 1019 87 10000 0.51 0 07:54 21.11.2021
4665 Clear 3 1019 89 10000 0.51 0 07:33 21.11.2021
4666 Clear 4 1018 89 10000 1.03 0 05:43 21.11.2021
4667 Clear 5 1018 86 10000 3.09 330 04:35 21.11.2021
4668 Clear 6 1018 84 10000 0.45 133 02:57 21.11.2021
4669 Clear 6 1018 84 10000 0.45 117 02:33 21.11.2021
4670 Clouds 7 1018 83 10000 3.6 270 00:51 21.11.2021
4671 Clouds 8 1018 83 10000 0.89 174 22:55 20.11.2021
4672 Clouds 9 1018 82 10000 0.89 96 21:34 20.11.2021
4673 Clouds 10 1018 81 10000 1.34 122 20:33 20.11.2021
4674 Clouds 10 1017 91 6000 0.45 148 18:45 20.11.2021
4675 Clouds 10 1017 91 6000 0.45 148 18:45 20.11.2021
4676 Rain 10 1018 90 10000 1.34 125 18:24 20.11.2021
4677 Clouds 11 1018 81 10000 0.89 92 17:22 20.11.2021
4678 Clouds 12 1019 71 10000 1.34 120 15:40 20.11.2021
4679 Clouds 12 1020 70 10000 1.79 49 14:39 20.11.2021
4680 Clouds 12 1020 70 10000 1.34 95 14:20 20.11.2021
4681 Clouds 11 1022 71 10000 1.34 81 11:56 20.11.2021
4682 Clouds 10 1024 79 10000 4.12 240 09:59 20.11.2021
4683 Clouds 10 1023 76 10000 0.89 103 08:48 20.11.2021
4684 Clouds 10 1024 78 10000 0.89 103 06:57 20.11.2021
4685 Clouds 10 1025 80 10000 0.45 67 05:21 20.11.2021
4686 Clouds 10 1025 81 10000 0.45 302 04:50 20.11.2021
4687 Clouds 10 1028 83 10000 2.57 210 00:45 20.11.2021
4688 Clouds 10 1027 79 10000 0.45 235 00:26 20.11.2021
4689 Clouds 11 1028 85 10000 3.6 230 22:54 19.11.2021
4690 Clouds 11 1028 93 10000 2.57 220 21:36 19.11.2021
4691 Clouds 11 1029 89 10000 1.03 230 20:48 19.11.2021
4692 Clouds 11 1029 88 10000 1.54 250 20:29 19.11.2021
4693 Clouds 12 1028 82 10000 0.45 113 19:47 19.11.2021
4694 Clouds 12 1029 84 10000 1.54 250 18:49 19.11.2021
4695 Clouds 12 1028 84 10000 2.06 260 17:45 19.11.2021
4696 Clouds 13 1028 75 10000 0.89 122 16:43 19.11.2021
4697 Clouds 13 1028 75 10000 0.89 122 16:43 19.11.2021
4698 Clouds 14 1028 75 10000 0.89 116 15:22 19.11.2021
4699 Clouds 13 1028 79 10000 0.45 96 11:54 19.11.2021
4700 Clouds 12 1029 88 10000 2.57 200 10:25 19.11.2021
4701 Clouds 11 1027 86 10000 0.45 118 08:39 19.11.2021
4702 Clouds 12 1026 81 10000 1.79 135 06:29 19.11.2021
4703 Clouds 13 1027 80 10000 1.34 97 04:19 19.11.2021
4704 Clouds 12 1027 89 10000 0.45 243 23:55 18.11.2021
4705 Clouds 12 1027 89 10000 0.45 300 23:29 18.11.2021
4706 Clouds 13 1026 86 10000 0.45 81 21:21 18.11.2021
4707 Clouds 13 1026 86 10000 1.54 210 20:46 18.11.2021
4708 Clouds 13 1026 86 10000 0.45 80 20:23 18.11.2021
4709 Clouds 13 1026 86 10000 4.63 230 19:42 18.11.2021
4710 Clouds 13 1025 86 10000 1.34 101 18:38 18.11.2021
4711 Clouds 13 1025 87 10000 0.89 99 17:53 18.11.2021
4712 Clouds 13 1025 86 10000 0.89 96 17:31 18.11.2021
4713 Clouds 13 1025 87 10000 0.45 103 16:42 18.11.2021
4714 Clouds 13 1025 91 10000 0.45 138 15:23 18.11.2021
4715 Clouds 13 1026 92 10000 1.34 113 13:21 18.11.2021
4716 Clouds 12 1026 95 4600 0.89 83 11:45 18.11.2021
4717 Drizzle 12 1026 95 2400 0.45 68 11:26 18.11.2021
4718 Clouds 12 1025 95 3500 0.45 79 10:44 18.11.2021
4719 Clouds 11 1024 89 10000 0.45 1 08:49 18.11.2021
4720 Rain 11 1023 87 10000 0.89 296 07:19 18.11.2021
4721 Clouds 11 1023 86 10000 0.45 72 05:46 18.11.2021
4722 Clouds 9 1024 84 10000 0.45 138 01:27 18.11.2021
4723 Clouds 9 1024 82 10000 2.06 190 23:46 17.11.2021
4724 Clouds 10 1024 79 10000 0.45 45 22:40 17.11.2021
4725 Clouds 10 1024 79 10000 0.89 31 22:20 17.11.2021
4726 Clouds 10 1024 79 10000 0.45 5 21:36 17.11.2021
4727 Clouds 10 1024 77 10000 0.45 161 20:18 17.11.2021
4728 Clouds 11 1023 77 10000 0.89 114 17:36 17.11.2021
4729 Clouds 11 1022 77 10000 1.34 104 16:45 17.11.2021
4730 Clouds 11 1022 83 10000 1.79 76 13:49 17.11.2021
4731 Clouds 11 1022 86 10000 0.89 135 12:39 17.11.2021
4732 Clouds 10 1022 88 10000 0.45 357 11:28 17.11.2021
4733 Clouds 8 1021 90 10000 0.45 315 09:58 17.11.2021
4734 Clouds 8 1020 90 10000 3.09 230 09:23 17.11.2021
4735 Clouds 8 1019 90 10000 2.57 230 07:41 17.11.2021
4736 Clouds 9 1017 84 10000 2.57 250 02:56 17.11.2021
4737 Clouds 10 1017 92 9000 0.89 135 00:42 17.11.2021
4738 Clouds 10 1016 90 10000 0.89 354 22:37 16.11.2021
4739 Rain 10 1017 86 10000 0.89 339 20:19 16.11.2021
4740 Rain 10 1017 86 10000 1.34 304 19:55 16.11.2021
4741 Clouds 10 1017 89 10000 0.45 288 18:52 16.11.2021
4742 Clouds 10 1016 89 10000 0.45 270 18:29 16.11.2021
4743 Clouds 10 1016 89 10000 1.34 281 17:29 16.11.2021
4744 Clouds 11 1016 86 10000 0.89 300 16:21 16.11.2021
4745 Clouds 11 1017 86 10000 1.34 281 15:44 16.11.2021
4746 Clouds 11 1019 90 8000 0.89 25 13:49 16.11.2021
4747 Mist 10 1020 95 5000 0.45 252 10:39 16.11.2021
4748 Mist 10 1021 95 2700 1.54 190 09:42 16.11.2021
4749 Mist 9 1021 95 1400 0.45 310 08:23 16.11.2021
4750 Fog 9 1022 95 400 1.03 230 07:30 16.11.2021
4751 Mist 10 1025 92 1000 0.51 0 23:54 15.11.2021
4752 Drizzle 10 1025 90 1700 1.03 270 22:43 15.11.2021
4753 Clouds 10 1025 90 1700 1.03 210 22:20 15.11.2021
4754 Clouds 10 1025 89 8000 1.03 0 21:46 15.11.2021
4755 Clouds 10 1026 92 8000 1.54 210 21:21 15.11.2021
4756 Clouds 10 1025 88 10000 0.51 0 19:39 15.11.2021
4757 Clouds 11 1025 85 10000 0.45 315 17:36 15.11.2021
4758 Clouds 11 1025 84 10000 0.45 297 15:56 15.11.2021
4759 Clouds 11 1025 84 10000 1.03 0 15:36 15.11.2021
4760 Clouds 11 1025 84 10000 1.03 0 14:39 15.11.2021
4761 Clouds 10 1026 87 10000 0.45 325 12:39 15.11.2021
4762 Clouds 9 1026 93 8000 1.03 0 10:33 15.11.2021
4763 Mist 8 1026 94 4700 0.51 0 09:23 15.11.2021
4764 Mist 8 1025 96 5000 1.54 170 07:23 15.11.2021
4765 Fog 7 1026 95 400 1.03 0 02:34 15.11.2021
4766 Clouds 8 1027 75 10000 1.32 127 22:45 14.11.2021
4767 Clouds 7 1027 76 10000 1.07 128 22:19 14.11.2021
4768 Fog 8 1026 91 8000 1.54 120 19:24 14.11.2021
4769 Fog 8 1026 91 7000 1.03 0 18:55 14.11.2021
4770 Fog 8 1026 90 7000 1.03 0 18:37 14.11.2021
4771 Fog 8 1026 89 9000 1.03 230 18:18 14.11.2021
4772 Fog 9 1026 88 10000 1.03 110 17:58 14.11.2021
4773 Fog 9 1026 88 10000 1.03 110 17:40 14.11.2021
4774 Clouds 10 1026 87 10000 1.03 100 17:22 14.11.2021
4775 Clouds 11 1025 87 10000 0.51 80 16:59 14.11.2021
4776 Clouds 11 1025 87 10000 0.51 80 16:40 14.11.2021
4777 Clouds 11 1025 87 10000 1.03 90 16:19 14.11.2021
4778 Clouds 12 1025 88 10000 0.51 0 15:20 14.11.2021
4779 Clouds 12 1025 86 10000 0.61 150 14:45 14.11.2021
4780 Clouds 12 1025 88 10000 1.03 0 14:22 14.11.2021
4781 Clouds 12 1025 88 10000 0.51 0 13:52 14.11.2021
4782 Clear 12 1025 85 10000 0.73 116 13:27 14.11.2021
4783 Clear 10 1026 95 10000 0.7 97 12:23 14.11.2021
4784 Clear 9 1026 94 10000 0.51 0 11:25 14.11.2021
4785 Clear 8 1025 95 10000 1.03 0 10:38 14.11.2021
4786 Fog 5 1024 95 10000 1.03 0 09:27 14.11.2021
4787 Fog 5 1024 94 10000 0 0 08:51 14.11.2021
4788 Fog 6 1022 94 350 1.54 110 04:47 14.11.2021
4789 Clear 8 1021 89 10000 1.14 57 22:50 13.11.2021
4790 Clear 9 1020 89 10000 1.08 45 21:59 13.11.2021
4791 Clear 9 1020 88 10000 1.08 45 21:32 13.11.2021
4792 Clear 9 1020 85 10000 1.54 360 20:43 13.11.2021
4793 Clouds 10 1019 83 10000 0.45 140 18:54 13.11.2021
4794 Clouds 11 1019 83 10000 0.45 180 18:32 13.11.2021
4795 Clear 11 1018 82 10000 0.45 135 17:38 13.11.2021
4796 Clouds 12 1017 75 10000 0.89 172 15:53 13.11.2021
4797 Clouds 13 1017 74 10000 0.45 167 14:43 13.11.2021
4798 Clouds 13 1017 75 10000 0.45 128 13:47 13.11.2021
4799 Clouds 13 1016 78 10000 0.89 171 12:43 13.11.2021
4800 Clouds 12 1016 82 10000 0.45 192 11:46 13.11.2021
4801 Clouds 12 1016 90 10000 4.63 300 11:18 13.11.2021
4802 Clouds 11 1015 88 10000 3.09 290 10:32 13.11.2021
4803 Clouds 11 1015 89 10000 1.54 300 09:45 13.11.2021
4804 Clouds 11 1014 89 10000 3.09 310 09:22 13.11.2021
4805 Clouds 11 1014 86 10000 4.12 310 08:42 13.11.2021
4806 Clouds 11 1012 88 10000 0.45 209 07:26 13.11.2021
4807 Clouds 11 1010 88 10000 1.34 108 04:40 13.11.2021
4808 Clouds 11 1008 90 10000 1.34 292 02:41 13.11.2021
4809 Rain 11 1006 86 10000 1.79 231 23:33 12.11.2021
4810 Rain 11 1005 90 7000 1.34 75 21:54 12.11.2021
4811 Rain 12 1004 85 6000 2.24 115 20:35 12.11.2021
4812 Clouds 12 1004 87 10000 2.24 45 19:31 12.11.2021
4813 Clouds 12 1003 86 10000 1.79 97 18:54 12.11.2021
4814 Clouds 12 1002 88 9000 1.34 126 17:36 12.11.2021
4815 Rain 13 1002 82 10000 0.89 24 15:54 12.11.2021
4816 Clouds 13 1003 82 10000 1.79 308 13:26 12.11.2021
4817 Clouds 12 1004 81 10000 2.68 311 11:24 12.11.2021
4818 Clouds 11 1005 87 10000 2.24 310 09:55 12.11.2021
4819 Clouds 11 1005 88 10000 1.34 315 08:50 12.11.2021
4820 Clouds 10 1007 88 10000 4.12 170 06:35 12.11.2021
4821 Clouds 11 1014 80 10000 1.34 321 23:55 11.11.2021
4822 Clouds 11 1015 80 10000 1.34 337 22:49 11.11.2021
4823 Clouds 12 1015 79 10000 1.79 301 21:43 11.11.2021
4824 Clouds 12 1017 84 10000 3.09 170 20:52 11.11.2021
4825 Clouds 12 1017 84 8000 3.09 170 19:48 11.11.2021
4826 Clouds 12 1018 86 10000 2.06 170 18:25 11.11.2021
4827 Clouds 12 1018 89 10000 2.06 0 17:40 11.11.2021
4828 Clouds 12 1019 85 10000 1.34 285 15:21 11.11.2021
4829 Clouds 12 1019 88 10000 0.89 283 14:38 11.11.2021
4830 Clouds 12 1020 87 10000 2.06 170 14:19 11.11.2021
4831 Clouds 11 1020 87 10000 0.45 315 13:35 11.11.2021
4832 Clouds 11 1021 89 10000 1.54 160 12:23 11.11.2021
4833 Fog 9 1021 95 800 0.45 308 09:54 11.11.2021
4834 Fog 9 1021 95 500 1.54 200 08:28 11.11.2021
4835 Fog 9 1021 95 400 1.03 0 06:44 11.11.2021
4836 Clouds 10 1021 93 7000 0.51 0 00:37 11.11.2021
4837 Clouds 10 1022 92 8000 1.03 0 22:38 10.11.2021
4838 Clouds 10 1022 92 9000 1.03 180 21:46 10.11.2021
4839 Clouds 10 1022 92 7000 1.03 0 20:53 10.11.2021
4840 Clouds 11 1022 92 7000 1.03 160 19:48 10.11.2021
4841 Clouds 11 1022 91 9000 1.03 160 19:30 10.11.2021
4842 Clouds 11 1021 90 10000 0.45 315 16:50 10.11.2021
4843 Clouds 12 1021 88 10000 0.45 315 15:46 10.11.2021
4844 Haze 11 1022 92 2900 1.54 210 14:23 10.11.2021
4845 Clouds 11 1022 93 10000 0.83 247 13:27 10.11.2021
4846 Mist 11 1022 94 3000 0.45 288 11:39 10.11.2021
4847 Mist 10 1021 95 1500 1.03 0 09:18 10.11.2021
4848 Mist 10 1021 95 3000 0.51 0 08:40 10.11.2021
4849 Mist 10 1020 95 2800 0.45 315 06:43 10.11.2021
4850 Clouds 10 1020 94 1600 1.03 160 05:53 10.11.2021
4851 Clouds 11 1019 93 6000 0.51 0 01:44 10.11.2021
4852 Rain 13 1018 89 10000 0.45 162 21:59 09.11.2021
4853 Clouds 13 1018 90 9000 1.34 310 20:34 09.11.2021
4854 Drizzle 14 1018 88 4200 1.34 275 19:26 09.11.2021
4855 Rain 14 1018 84 10000 0.89 282 18:44 09.11.2021
4856 Rain 15 1017 83 10000 0.45 270 16:29 09.11.2021
4857 Clouds 15 1017 81 10000 1.34 301 14:59 09.11.2021
4858 Clouds 15 1018 79 10000 0.89 313 13:25 09.11.2021
4859 Clouds 14 1018 79 10000 1.34 310 12:22 09.11.2021
4860 Clouds 13 1018 76 10000 1.79 310 10:46 09.11.2021
4861 Clouds 12 1018 79 10000 0.89 291 09:43 09.11.2021
4862 Clouds 12 1018 80 10000 2.24 294 08:42 09.11.2021
4863 Clouds 12 1018 88 10000 1.34 309 06:51 09.11.2021
4864 Clouds 12 1018 84 10000 0.89 304 02:30 09.11.2021
4865 Clouds 12 1018 85 10000 1.34 273 01:50 09.11.2021
4866 Clouds 12 1018 89 10000 1.34 270 00:19 09.11.2021
4867 Clouds 13 1018 87 10000 1.34 307 23:20 08.11.2021
4868 Clouds 13 1018 87 10000 1.34 306 22:32 08.11.2021
4869 Clouds 13 1019 87 10000 1.34 288 21:21 08.11.2021
4870 Clouds 13 1019 88 10000 0.45 294 20:31 08.11.2021
4871 Clouds 12 1019 90 10000 0.89 315 18:57 08.11.2021
4872 Clouds 12 1018 93 10000 1.34 301 17:23 08.11.2021
4873 Clouds 13 1019 79 8000 1.34 315 15:31 08.11.2021
4874 Clouds 13 1019 79 10000 1.79 285 14:53 08.11.2021
4875 Clouds 12 1020 78 10000 1.34 319 13:56 08.11.2021
4876 Clouds 12 1020 78 10000 1.34 291 12:44 08.11.2021
4877 Clouds 10 1022 82 10000 2.06 170 11:28 08.11.2021
4878 Clouds 8 1021 86 10000 2.06 180 10:00 08.11.2021
4879 Clouds 7 1021 88 10000 0.45 315 08:56 08.11.2021
4880 Clouds 7 1021 91 10000 1.54 170 07:38 08.11.2021
4881 Clouds 6 1021 91 10000 1.03 0 06:50 08.11.2021
4882 Clouds 6 1021 90 10000 2.06 160 03:34 08.11.2021
4883 Clouds 8 1021 81 10000 0.45 90 23:51 07.11.2021
4884 Clouds 9 1021 76 10000 0.89 90 22:30 07.11.2021
4885 Clouds 10 1020 75 10000 0.89 116 21:22 07.11.2021
4886 Clouds 10 1020 73 10000 1.34 158 19:55 07.11.2021
4887 Clouds 10 1020 74 10000 0.89 92 18:26 07.11.2021
4888 Clouds 10 1020 78 10000 5.66 280 17:38 07.11.2021
4889 Clouds 11 1019 70 10000 1.79 135 15:55 07.11.2021
4890 Clouds 11 1019 67 10000 2.68 100 14:42 07.11.2021
4891 Clouds 11 1019 69 10000 2.68 120 13:55 07.11.2021
4892 Clouds 11 1019 67 10000 1.79 168 11:53 07.11.2021
4893 Clouds 10 1019 72 10000 0.89 100 10:19 07.11.2021
4894 Clouds 9 1018 71 10000 1.34 98 08:48 07.11.2021
4895 Clouds 10 1017 70 10000 1.79 113 02:46 07.11.2021
4896 Clouds 11 1016 68 10000 2.24 126 23:42 06.11.2021
4897 Clouds 11 1016 76 10000 1.79 110 22:52 06.11.2021
4898 Clouds 11 1015 74 10000 1.79 139 21:36 06.11.2021
4899 Clouds 11 1015 77 10000 2.24 105 20:52 06.11.2021
4900 Clouds 13 1014 90 10000 1.34 57 18:56 06.11.2021
4901 Clouds 12 1015 88 7000 2.24 132 17:18 06.11.2021
4902 Rain 12 1015 88 2900 0.89 2 15:31 06.11.2021
4903 Clouds 13 1017 76 10000 1.79 100 13:39 06.11.2021
4904 Clouds 12 1019 83 10000 0.89 353 12:29 06.11.2021
4905 Clouds 10 1021 88 10000 1.34 310 09:39 06.11.2021
4906 Clouds 10 1022 87 9000 0.45 332 07:57 06.11.2021
4907 Clouds 10 1024 91 7000 0.45 324 02:40 06.11.2021
4908 Haze 10 1025 93 4900 0.45 120 23:38 05.11.2021
4909 Haze 10 1025 93 5000 0.45 273 22:39 05.11.2021
4910 Clouds 10 1025 95 7000 0.45 46 21:54 05.11.2021
4911 Clouds 10 1025 93 10000 0.45 90 20:20 05.11.2021
4912 Clouds 10 1025 93 10000 2.57 220 19:48 05.11.2021
4913 Clouds 10 1025 93 10000 2.57 220 18:41 05.11.2021
4914 Clouds 10 1025 93 7000 3.6 250 17:30 05.11.2021
4915 Clouds 10 1025 93 10000 4.12 240 15:43 05.11.2021
4916 Clouds 10 1025 95 10000 1.82 248 13:55 05.11.2021
4917 Mist 6 1025 95 4000 1.03 0 11:31 05.11.2021
4918 Clouds 3 1024 90 10000 0.45 135 08:41 05.11.2021
4919 Clouds 2 1023 93 10000 0.51 0 07:39 05.11.2021
4920 Clouds 2 1023 93 10000 0.51 0 07:39 05.11.2021
4921 Clouds 1 1023 100 8000 1.03 120 05:33 05.11.2021
4922 Clouds 1 1023 100 8000 1.03 120 05:33 05.11.2021
4923 Clouds 1 1023 93 10000 1.54 150 02:26 05.11.2021
4924 Clouds 2 1021 91 10000 1.03 160 00:52 05.11.2021
4925 Clouds 2 1021 89 10000 0.51 0 23:24 04.11.2021
4926 Clouds 3 1021 88 10000 0.51 0 22:19 04.11.2021
4927 Clouds 3 1020 87 10000 0 0 21:38 04.11.2021
4928 Clouds 3 1020 82 10000 1.03 270 20:50 04.11.2021
4929 Clouds 4 1020 79 10000 2.06 290 20:22 04.11.2021
4930 Clouds 4 1019 76 10000 1.03 280 19:47 04.11.2021
4931 Clouds 5 1019 72 10000 2.57 320 18:44 04.11.2021
4932 Clouds 7 1018 67 10000 0.45 162 17:54 04.11.2021
4933 Clouds 8 1018 65 10000 0.89 163 16:47 04.11.2021
4934 Clouds 9 1017 64 10000 0.89 143 14:42 04.11.2021
4935 Clouds 8 1018 73 10000 4.63 330 12:32 04.11.2021
4936 Clouds 5 1015 85 10000 3.6 290 09:37 04.11.2021
4937 Clouds 4 1014 85 10000 2.57 310 08:31 04.11.2021
4938 Clouds 4 1014 84 10000 3.6 320 07:34 04.11.2021
4939 Clouds 6 1012 86 10000 0.89 135 02:37 04.11.2021
4940 Clouds 7 1011 87 10000 3.09 320 22:50 03.11.2021
4941 Clouds 7 1011 90 10000 3.09 330 21:49 03.11.2021
4942 Clouds 8 1010 87 10000 0.45 136 21:28 03.11.2021
4943 Clouds 8 1009 86 10000 0.45 180 20:35 03.11.2021
4944 Clouds 8 1009 86 10000 3.09 340 19:47 03.11.2021
4945 Clouds 8 1008 86 10000 0.45 135 18:56 03.11.2021
4946 Rain 9 1008 82 4900 0.45 180 18:21 03.11.2021
4947 Rain 9 1007 77 10000 1.34 166 17:35 03.11.2021
4948 Clouds 10 1006 74 10000 0.89 161 16:25 03.11.2021
4949 Clouds 10 1006 73 10000 1.34 173 15:42 03.11.2021
4950 Clouds 10 1005 75 10000 1.34 155 13:49 03.11.2021
4951 Clouds 9 1006 87 10000 3.09 330 11:39 03.11.2021
4952 Clouds 8 1004 94 8000 1.03 0 10:53 03.11.2021
4953 Clouds 7 1004 95 6000 1.03 240 10:28 03.11.2021
4954 Clouds 7 1004 95 7000 0.51 0 09:29 03.11.2021
4955 Clouds 6 1003 94 6000 0.51 0 08:22 03.11.2021
4956 Clouds 6 1002 94 7000 0.51 0 07:38 03.11.2021
4957 Clouds 6 1001 94 10000 1.03 0 04:24 03.11.2021
4958 Clouds 6 1000 95 9000 1.03 0 01:48 03.11.2021
4959 Clouds 6 1000 95 9000 1.03 0 01:48 03.11.2021
4960 Clouds 6 999 93 8000 1.54 120 23:33 02.11.2021
4961 Clouds 6 999 94 10000 1.54 150 22:29 02.11.2021
4962 Clouds 6 999 90 10000 2.06 170 20:54 02.11.2021
4963 Clouds 7 998 91 10000 1.54 200 20:30 02.11.2021
4964 Clouds 7 998 89 10000 1.03 0 19:47 02.11.2021
4965 Rain 8 998 87 10000 1.03 180 18:43 02.11.2021
4966 Clouds 9 997 84 10000 1.54 200 17:57 02.11.2021
4967 Rain 9 997 82 10000 0.45 122 17:31 02.11.2021
4968 Rain 10 997 79 10000 2.57 230 16:27 02.11.2021
4969 Clouds 10 996 79 10000 2.57 240 14:59 02.11.2021
4970 Clouds 11 997 82 10000 2.57 230 13:50 02.11.2021
4971 Clouds 10 997 82 10000 2.06 220 13:26 02.11.2021
4972 Clouds 9 997 87 10000 0.45 113 12:28 02.11.2021
4973 Clouds 8 996 88 10000 0.45 63 11:28 02.11.2021
4974 Clouds 7 996 93 10000 0.45 342 10:50 02.11.2021
4975 Clouds 7 996 94 10000 0.45 315 10:23 02.11.2021
4976 Clouds 5 995 93 10000 2.06 170 08:25 02.11.2021
4977 Clouds 6 995 95 10000 2.06 170 06:42 02.11.2021
4978 Rain 7 995 93 10000 0.89 294 03:32 02.11.2021
4979 Rain 7 994 93 4900 0.45 300 00:55 02.11.2021
4980 Rain 7 994 92 10000 0.45 315 22:25 01.11.2021
4981 Rain 8 993 90 5000 0.89 315 20:47 01.11.2021
4982 Rain 8 993 91 10000 0.89 109 20:27 01.11.2021
4983 Rain 8 992 91 10000 0.89 102 19:44 01.11.2021
4984 Clouds 8 992 89 10000 0.45 299 18:55 01.11.2021
4985 Rain 9 991 86 10000 0.45 109 17:59 01.11.2021
4986 Clouds 9 991 85 10000 0.89 128 17:18 01.11.2021
4987 Clouds 10 990 89 10000 1.34 166 16:33 01.11.2021
4988 Clouds 10 990 92 10000 0.89 60 15:40 01.11.2021
4989 Clouds 10 990 91 10000 0.89 54 15:19 01.11.2021
4990 Clouds 9 989 91 10000 1.79 68 14:39 01.11.2021
4991 Rain 9 989 92 10000 1.34 336 14:19 01.11.2021
4992 Rain 8 988 91 8000 1.34 93 12:50 01.11.2021
4993 Rain 8 987 91 5000 1.34 60 11:39 01.11.2021
4994 Rain 9 985 90 10000 2.24 358 10:20 01.11.2021
4995 Clouds 9 984 81 10000 1.79 269 08:20 01.11.2021
4996 Clouds 9 984 80 10000 2.24 270 07:46 01.11.2021
4997 Clouds 9 982 88 10000 1.34 109 03:55 01.11.2021
4998 Clouds 9 981 89 10000 1.34 288 01:44 01.11.2021
4999 Clouds 9 980 89 10000 3.58 292 23:30 31.10.2021
5000 Clouds 9 980 88 10000 2.24 311 20:58 31.10.2021
5001 Clouds 9 979 91 7000 2.24 342 19:49 31.10.2021
5002 Rain 9 980 88 7000 1.79 289 18:43 31.10.2021
5003 Rain 9 980 88 7000 1.79 289 18:43 31.10.2021
5004 Rain 9 980 89 2900 3.13 314 18:20 31.10.2021
5005 Rain 11 979 74 10000 3.13 307 16:28 31.10.2021
5006 Clouds 12 980 77 10000 2.68 293 14:45 31.10.2021
5007 Clouds 11 981 87 10000 1.79 315 12:55 31.10.2021
5008 Clouds 10 982 92 10000 1.34 300 11:42 31.10.2021
5009 Rain 10 983 89 3500 0.89 305 10:48 31.10.2021
5010 Rain 11 984 87 10000 1.79 14 09:26 31.10.2021
5011 Rain 11 985 86 10000 2.24 319 08:44 31.10.2021
5012 Clouds 7 996 89 10000 2.06 150 02:26 31.10.2021
5013 Clouds 8 997 85 10000 1.34 315 23:54 30.10.2021
5014 Clear 8 996 82 10000 0.89 276 21:50 30.10.2021
5015 Clear 9 996 83 10000 0.89 315 21:26 30.10.2021
5016 Clear 10 995 81 10000 1.54 0 19:40 30.10.2021
5017 Clouds 12 993 71 10000 0.45 237 17:48 30.10.2021
5018 Clouds 12 991 70 10000 1.34 122 15:41 30.10.2021
5019 Clouds 12 991 77 10000 2.24 79 13:59 30.10.2021
5020 Clouds 12 991 79 10000 1.79 93 13:38 30.10.2021
5021 Clouds 11 991 85 10000 5.66 240 13:19 30.10.2021
5022 Clouds 10 989 90 10000 0.89 126 11:49 30.10.2021
5023 Clouds 10 989 89 10000 0.89 303 10:44 30.10.2021
5024 Rain 10 989 89 10000 1.79 333 08:56 30.10.2021
5025 Rain 10 990 90 10000 4.12 150 07:55 30.10.2021
5026 Clouds 11 990 83 10000 1.79 334 05:46 30.10.2021
5027 Clouds 10 994 86 10000 3.09 150 02:26 30.10.2021
5028 Clouds 9 995 84 10000 0.89 326 23:20 29.10.2021
5029 Clouds 9 995 83 10000 0.45 324 22:33 29.10.2021
5030 Clouds 10 995 83 10000 0.45 315 20:55 29.10.2021
5031 Clouds 10 995 82 10000 0.45 301 20:31 29.10.2021
5032 Clouds 11 994 81 10000 2.57 200 18:49 29.10.2021
5033 Clouds 12 993 83 10000 0.89 251 17:28 29.10.2021
5034 Clouds 11 991 87 10000 1.79 144 15:22 29.10.2021
5035 Clouds 14 988 84 10000 4.12 0 12:29 29.10.2021
5036 Clouds 14 989 86 10000 3.6 170 10:46 29.10.2021
5037 Clouds 13 989 93 10000 4.63 160 08:47 29.10.2021
5038 Rain 13 996 92 4500 2.06 210 00:46 29.10.2021
5039 Clouds 13 997 92 2200 1.79 281 23:46 28.10.2021
5040 Rain 14 998 94 5000 3.09 180 22:20 28.10.2021
5041 Rain 14 999 91 10000 4.63 170 20:57 28.10.2021
5042 Rain 14 998 88 6000 2.68 325 19:52 28.10.2021
5043 Rain 15 999 82 10000 2.68 296 18:30 28.10.2021
5044 Drizzle 15 999 77 10000 2.68 309 17:20 28.10.2021
5045 Clouds 16 999 74 10000 3.13 315 16:24 28.10.2021
5046 Clouds 16 1001 73 10000 2.24 308 14:40 28.10.2021
5047 Clouds 16 1002 77 10000 3.58 332 13:30 28.10.2021
5048 Clouds 15 1002 79 10000 3.58 308 12:47 28.10.2021
5049 Clouds 15 1003 81 10000 2.68 308 11:26 28.10.2021
5050 Clouds 14 1003 81 10000 2.68 322 09:55 28.10.2021
5051 Clouds 14 1003 82 10000 2.68 334 09:35 28.10.2021
5052 Clouds 14 1004 81 10000 2.68 331 08:36 28.10.2021
5053 Clouds 14 1004 80 10000 3.13 323 07:40 28.10.2021
5054 Clouds 15 1008 73 10000 2.24 345 00:40 28.10.2021
5055 Clouds 16 1008 73 10000 2.24 323 22:45 27.10.2021
5056 Clouds 16 1008 73 10000 2.68 301 21:35 27.10.2021
5057 Clouds 16 1009 74 10000 3.13 301 20:58 27.10.2021
5058 Clouds 16 1009 74 10000 2.24 288 20:39 27.10.2021
5059 Clouds 16 1009 74 10000 2.68 275 19:44 27.10.2021
5060 Clouds 16 1009 72 10000 3.58 287 18:55 27.10.2021
5061 Clouds 17 1010 74 10000 2.24 289 16:49 27.10.2021
5062 Clouds 17 1010 73 10000 2.68 284 16:24 27.10.2021
5063 Clouds 17 1011 75 10000 2.24 297 15:23 27.10.2021
5064 Clouds 17 1010 74 10000 2.68 314 13:42 27.10.2021
5065 Clouds 16 1011 81 10000 1.79 183 10:59 27.10.2021
5066 Clouds 16 1011 81 10000 1.79 297 10:36 27.10.2021
5067 Clouds 15 1011 83 10000 1.79 296 08:58 27.10.2021
5068 Clouds 15 1011 84 10000 1.79 325 07:38 27.10.2021
5069 Clouds 15 1011 81 10000 1.79 26 05:37 27.10.2021
5070 Clouds 15 1012 79 10000 1.79 307 01:18 27.10.2021
5071 Clouds 15 1012 79 10000 1.79 315 00:33 27.10.2021
5072 Clouds 15 1012 79 10000 2.24 284 23:51 26.10.2021
5073 Clouds 15 1012 79 10000 1.34 284 22:42 26.10.2021
5074 Clouds 15 1012 79 10000 2.24 297 22:20 26.10.2021
5075 Clouds 15 1012 79 10000 2.24 310 20:59 26.10.2021
5076 Clouds 15 1012 78 10000 2.24 273 19:33 26.10.2021
5077 Clouds 16 1011 78 10000 2.24 300 18:53 26.10.2021
5078 Clouds 16 1012 77 10000 2.24 315 16:58 26.10.2021
5079 Clouds 16 1012 79 10000 1.79 274 15:34 26.10.2021
5080 Clouds 12 1012 84 10000 2.24 305 11:49 26.10.2021
5081 Clouds 11 1012 84 10000 1.79 300 10:42 26.10.2021
5082 Clouds 10 1012 88 10000 2.24 281 08:24 26.10.2021
5083 Clouds 9 1013 92 10000 2.57 190 07:21 26.10.2021
5084 Clouds 8 1013 89 10000 0.45 326 23:51 25.10.2021
5085 Clouds 8 1013 88 10000 0.89 315 22:55 25.10.2021
5086 Clouds 9 1012 86 10000 0.45 315 22:21 25.10.2021
5087 Clouds 9 1012 84 10000 0.45 318 21:40 25.10.2021
5088 Clouds 10 1012 81 10000 0.45 315 20:19 25.10.2021
5089 Clouds 11 1012 80 10000 1.54 240 19:42 25.10.2021
5090 Clouds 11 1012 80 10000 2.57 230 19:20 25.10.2021
5091 Clouds 12 1011 70 10000 1.34 71 18:22 25.10.2021
5092 Clouds 13 1010 67 10000 0.45 98 16:27 25.10.2021
5093 Clouds 13 1011 72 10000 1.34 90 14:36 25.10.2021
5094 Clouds 12 1011 83 10000 0.89 307 12:31 25.10.2021
5095 Clouds 11 1010 89 10000 0.89 299 10:25 25.10.2021
5096 Clouds 10 1009 90 10000 1.34 312 08:37 25.10.2021
5097 Clouds 10 1009 90 10000 1.34 299 06:26 25.10.2021
5098 Clouds 11 1010 89 10000 3.6 190 02:42 25.10.2021
5099 Clouds 11 1010 87 10000 1.79 299 00:47 25.10.2021
5100 Clouds 11 1010 87 10000 1.79 311 23:47 24.10.2021
5101 Clouds 12 1010 88 10000 1.79 287 22:56 24.10.2021
5102 Clouds 12 1010 89 10000 1.79 272 22:36 24.10.2021
5103 Clouds 12 1010 89 10000 1.34 317 22:18 24.10.2021
5104 Clouds 12 1011 89 10000 2.57 190 20:45 24.10.2021
5105 Clouds 13 1010 86 10000 1.34 315 20:26 24.10.2021
5106 Rain 13 1011 88 10000 3.6 180 18:52 24.10.2021
5107 Clouds 14 1010 83 10000 2.24 315 17:57 24.10.2021
5108 Clouds 13 1010 83 10000 2.24 292 16:52 24.10.2021
5109 Clouds 13 1011 80 10000 2.68 291 15:37 24.10.2021
5110 Clouds 12 1012 83 10000 1.79 312 13:49 24.10.2021
5111 Clouds 12 1012 80 10000 2.68 308 12:41 24.10.2021
5112 Clouds 11 1012 80 10000 1.79 327 11:41 24.10.2021
5113 Clouds 11 1013 79 10000 1.79 278 10:45 24.10.2021
5114 Clouds 11 1013 80 10000 2.68 292 09:38 24.10.2021
5115 Clouds 11 1015 75 10000 3.09 0 05:35 24.10.2021
5116 Clouds 11 1018 70 10000 3.6 180 00:44 24.10.2021
5117 Clouds 11 1019 74 10000 4.12 170 23:32 23.10.2021
5118 Clouds 11 1018 71 10000 1.79 301 21:50 23.10.2021
5119 Clouds 11 1020 74 10000 2.57 180 19:47 23.10.2021
5120 Clouds 12 1019 72 10000 1.34 306 18:48 23.10.2021
5121 Clouds 12 1019 71 10000 1.79 296 18:21 23.10.2021
5122 Clouds 12 1019 69 10000 2.24 299 17:42 23.10.2021
5123 Clouds 13 1020 69 10000 2.24 283 16:20 23.10.2021
5124 Clouds 13 1021 75 10000 3.13 280 13:57 23.10.2021
5125 Clouds 9 1022 89 10000 0.45 304 03:32 23.10.2021
5126 Clouds 9 1022 91 10000 0.45 315 23:42 22.10.2021
5127 Clouds 10 1022 91 10000 0.45 308 22:28 22.10.2021
5128 Clouds 10 1020 87 10000 2.57 240 19:49 22.10.2021
5129 Clouds 11 1020 82 10000 4.12 290 18:33 22.10.2021
5130 Clouds 11 1020 82 10000 0.45 163 17:19 22.10.2021
5131 Clouds 11 1019 83 10000 1.79 159 14:58 22.10.2021
5132 Clouds 11 1017 76 10000 2.24 96 12:45 22.10.2021
5133 Clouds 10 1016 87 10000 1.34 107 10:58 22.10.2021
5134 Clouds 10 1016 87 10000 0.89 90 10:36 22.10.2021
5135 Clouds 10 1014 87 10000 1.79 94 09:35 22.10.2021
5136 Clouds 10 1014 84 10000 1.79 51 07:46 22.10.2021
5137 Clouds 10 1013 82 10000 0.89 190 07:21 22.10.2021
5138 Clouds 9 1015 71 10000 0.89 73 01:41 22.10.2021
5139 Clouds 8 1015 87 4900 3.6 230 23:51 21.10.2021
5140 Clouds 8 1014 85 10000 0.45 96 22:44 21.10.2021
5141 Clouds 8 1015 81 10000 1.79 82 21:38 21.10.2021
5142 Clouds 8 1014 73 10000 0.45 154 20:24 21.10.2021
5143 Clouds 8 1014 70 10000 0.89 146 19:55 21.10.2021
5144 Clouds 9 1013 67 10000 0.45 39 19:25 21.10.2021
5145 Clouds 10 1014 61 10000 4.12 290 18:33 21.10.2021
5146 Clouds 11 1013 54 10000 1.79 164 17:51 21.10.2021
5147 Clouds 11 1012 51 10000 1.34 97 16:50 21.10.2021
5148 Clouds 11 1011 49 10000 0.89 178 15:33 21.10.2021
5149 Clouds 11 1011 52 10000 1.79 125 14:56 21.10.2021
5150 Clouds 11 1011 53 10000 1.34 91 14:37 21.10.2021
5151 Clouds 11 1011 53 10000 1.34 202 14:37 21.10.2021
5152 Clear 8 1009 68 10000 1.34 120 11:56 21.10.2021
5153 Clear 5 1004 80 10000 0.89 186 09:39 21.10.2021
5154 Clouds 5 1001 81 10000 0.45 193 07:54 21.10.2021
5155 Clouds 6 998 85 10000 1.34 151 06:45 21.10.2021
5156 Clouds 8 992 93 10000 1.54 0 00:39 21.10.2021
5157 Clouds 7 993 92 10000 1.54 0 22:29 20.10.2021
5158 Clouds 8 993 91 10000 1.03 150 21:48 20.10.2021
5159 Clouds 8 993 90 10000 1.54 160 20:58 20.10.2021
5160 Clouds 8 993 89 10000 1.54 160 20:39 20.10.2021
5161 Clouds 8 993 88 10000 0.45 76 20:18 20.10.2021
5162 Clouds 9 994 85 10000 0.45 115 19:23 20.10.2021
5163 Clouds 10 994 82 10000 0.89 124 18:29 20.10.2021
5164 Clouds 11 993 88 10000 1.79 135 16:37 20.10.2021
5165 Clouds 14 993 86 10000 1.79 270 13:54 20.10.2021
5166 Rain 12 996 93 10000 0.45 315 09:53 20.10.2021
5167 Clouds 14 1000 87 10000 0.45 90 05:30 20.10.2021
5168 Clouds 15 1001 86 10000 1.34 45 01:48 20.10.2021
5169 Clouds 16 1002 84 10000 1.79 38 00:33 20.10.2021
5170 Clouds 17 1002 90 10000 1.34 236 22:30 19.10.2021
5171 Clouds 17 1002 91 10000 1.34 270 21:35 19.10.2021
5172 Clouds 17 1002 92 7000 1.34 322 20:26 19.10.2021
5173 Clouds 17 1002 92 10000 2.24 303 19:56 19.10.2021
5174 Clouds 17 1002 93 10000 2.68 308 19:29 19.10.2021
5175 Rain 18 1003 88 10000 1.79 331 18:32 19.10.2021
5176 Clouds 18 1003 87 10000 1.34 291 17:24 19.10.2021
5177 Clouds 19 1004 85 10000 2.68 290 15:28 19.10.2021
5178 Clouds 18 1005 88 10000 1.34 307 14:33 19.10.2021
5179 Clouds 18 1005 92 10000 1.79 264 13:50 19.10.2021
5180 Rain 17 1005 94 9000 3.13 276 11:59 19.10.2021
5181 Rain 17 1005 96 5000 2.24 305 11:23 19.10.2021
5182 Rain 15 1005 95 10000 0.45 341 09:42 19.10.2021
5183 Rain 15 1007 96 6000 0.45 315 08:56 19.10.2021
5184 Clouds 15 1011 93 10000 0.89 315 00:36 19.10.2021
5185 Clouds 16 1011 93 10000 0.45 315 23:56 18.10.2021
5186 Clouds 16 1011 93 10000 0.45 325 23:22 18.10.2021
5187 Clouds 16 1010 93 10000 0.89 337 22:55 18.10.2021
5188 Clouds 16 1010 93 10000 0.89 317 22:18 18.10.2021
5189 Clouds 16 1010 93 10000 0.89 315 20:46 18.10.2021
5190 Clouds 16 1010 93 10000 0.89 321 20:21 18.10.2021
5191 Clouds 16 1009 93 10000 0.89 288 19:31 18.10.2021
5192 Clouds 16 1009 93 10000 1.79 309 18:58 18.10.2021
5193 Clouds 16 1009 93 10000 1.79 309 18:58 18.10.2021
5194 Clouds 15 1010 94 10000 0.45 308 16:33 18.10.2021
5195 Clouds 14 1011 94 6000 1.79 330 14:41 18.10.2021
5196 Rain 13 1012 88 10000 1.34 315 11:47 18.10.2021
5197 Clouds 11 1012 88 10000 2.57 130 09:47 18.10.2021
5198 Clouds 12 1013 90 9000 0.89 299 07:31 18.10.2021
5199 Clouds 14 1015 89 10000 2.06 190 23:54 17.10.2021
5200 Clouds 15 1015 87 10000 2.06 190 22:27 17.10.2021
5201 Clouds 15 1015 89 10000 2.06 200 21:44 17.10.2021
5202 Clouds 15 1014 87 10000 1.34 291 20:49 17.10.2021
5203 Clouds 15 1013 86 10000 0.89 301 19:56 17.10.2021
5204 Clouds 15 1013 86 10000 0.89 278 19:38 17.10.2021
5205 Clouds 16 1013 85 10000 0.89 297 18:28 17.10.2021
5206 Clouds 16 1013 85 10000 0.89 297 18:28 17.10.2021
5207 Clouds 16 1013 85 10000 1.79 298 16:38 17.10.2021
5208 Clouds 15 1012 84 10000 1.34 279 14:39 17.10.2021
5209 Clouds 15 1013 87 10000 1.79 312 13:59 17.10.2021
5210 Clouds 14 1013 89 10000 0.89 312 13:30 17.10.2021
5211 Clouds 13 1013 94 10000 1.34 324 11:31 17.10.2021
5212 Clouds 12 1012 95 3200 0.89 315 10:19 17.10.2021
5213 Clouds 12 1012 95 3700 0.89 302 08:29 17.10.2021
5214 Rain 12 1015 90 10000 2.57 180 02:57 17.10.2021
5215 Clouds 12 1015 88 10000 0.45 313 00:30 17.10.2021
5216 Clouds 12 1015 85 10000 0.45 318 22:47 16.10.2021
5217 Clear 13 1016 86 10000 0.89 315 20:36 16.10.2021
5218 Clouds 13 1016 85 8000 0.45 315 19:59 16.10.2021
5219 Clouds 13 1016 85 8000 0.51 0 19:40 16.10.2021
5220 Clouds 14 1016 82 7000 0.51 0 19:18 16.10.2021
5221 Clouds 14 1016 80 10000 0.89 315 18:44 16.10.2021
5222 Clouds 14 1016 79 10000 0.45 315 18:22 16.10.2021
5223 Clouds 15 1016 77 10000 0.89 315 17:31 16.10.2021
5224 Clouds 15 1017 76 10000 0.45 281 16:18 16.10.2021
5225 Clouds 12 1018 77 10000 0.45 315 12:50 16.10.2021
5226 Clouds 9 1019 83 10000 0.45 315 11:24 16.10.2021
5227 Clouds 7 1019 89 10000 1.03 0 08:58 16.10.2021
5228 Clouds 6 1019 88 10000 1.54 170 04:26 16.10.2021
5229 Clouds 7 1021 83 10000 0.89 333 00:29 16.10.2021
5230 Clouds 7 1021 86 10000 1.03 120 23:26 15.10.2021
5231 Clear 7 1021 87 10000 1.03 0 22:21 15.10.2021
5232 Clear 7 1021 82 10000 1.03 0 21:40 15.10.2021
5233 Clouds 8 1021 81 10000 1.03 120 20:54 15.10.2021
5234 Clouds 8 1021 80 10000 1.03 110 20:25 15.10.2021
5235 Clear 10 1021 70 10000 0.45 324 19:20 15.10.2021
5236 Clouds 12 1020 61 10000 0.45 305 18:21 15.10.2021
5237 Clouds 13 1021 60 10000 0.45 187 15:46 15.10.2021
5238 Clouds 13 1022 65 10000 1.54 0 14:18 15.10.2021
5239 Clear 11 1022 79 10000 2.57 60 12:25 15.10.2021
5240 Clear 9 1021 81 10000 0.45 0 11:18 15.10.2021
5241 Clear 8 1020 84 10000 2.06 50 10:28 15.10.2021
5242 Clouds 7 1018 86 10000 3.6 60 07:35 15.10.2021
5243 Clouds 11 1016 89 10000 0.89 128 04:46 15.10.2021
5244 Clouds 13 1015 83 10000 1.34 125 00:22 15.10.2021
5245 Clouds 13 1016 82 10000 0.89 189 22:54 14.10.2021
5246 Clouds 13 1016 83 10000 1.34 90 22:20 14.10.2021
5247 Clouds 13 1016 84 10000 1.34 217 21:37 14.10.2021
5248 Clouds 13 1017 84 10000 0.89 93 20:20 14.10.2021
5249 Clouds 14 1017 83 10000 1.34 79 19:46 14.10.2021
5250 Clouds 14 1017 80 10000 1.79 108 18:26 14.10.2021
5251 Clouds 15 1018 79 10000 0.89 135 16:58 14.10.2021
5252 Clouds 15 1019 80 10000 1.34 124 16:31 14.10.2021
5253 Clouds 15 1020 81 10000 0.89 131 14:44 14.10.2021
5254 Clouds 14 1020 81 10000 1.34 84 14:26 14.10.2021
5255 Clouds 13 1021 82 10000 0.45 295 12:35 14.10.2021
5256 Clouds 12 1022 84 10000 0.89 334 11:26 14.10.2021
5257 Clouds 12 1023 88 10000 0.45 337 07:45 14.10.2021
5258 Clouds 12 1024 86 10000 0.45 99 04:23 14.10.2021
5259 Clouds 12 1025 87 10000 0.45 125 00:34 14.10.2021
5260 Clouds 12 1026 88 10000 0.89 111 22:32 13.10.2021
5261 Clouds 12 1026 89 10000 0.45 90 21:35 13.10.2021
5262 Clouds 13 1026 89 10000 0.89 142 20:41 13.10.2021
5263 Clouds 13 1026 88 10000 0.89 121 19:20 13.10.2021
5264 Clouds 13 1026 88 10000 1.34 120 18:37 13.10.2021
5265 Clouds 14 1027 86 10000 1.79 124 15:54 13.10.2021
5266 Clouds 14 1027 88 10000 0.89 107 14:46 13.10.2021
5267 Clouds 14 1027 91 10000 1.34 140 14:23 13.10.2021
5268 Drizzle 14 1026 94 4600 0.45 63 12:24 13.10.2021
5269 Clouds 14 1026 97 10000 0.89 64 11:35 13.10.2021
5270 Mist 12 1026 97 1900 1.03 0 09:26 13.10.2021
5271 Drizzle 12 1026 97 1200 1.54 230 07:48 13.10.2021
5272 Clouds 11 1026 96 7000 1.03 0 02:51 13.10.2021
5273 Clouds 11 1026 95 6000 1.03 0 02:19 13.10.2021
5274 Clouds 12 1026 93 10000 0.51 0 23:31 12.10.2021
5275 Clouds 12 1026 93 9000 1.03 10 22:48 12.10.2021
5276 Clouds 12 1026 93 3500 2.06 10 22:23 12.10.2021
5277 Clouds 13 1025 92 10000 1.03 0 20:48 12.10.2021
5278 Clouds 13 1025 92 6000 1.54 50 20:19 12.10.2021
5279 Clouds 14 1024 88 10000 3.09 300 18:57 12.10.2021
5280 Rain 14 1024 88 10000 0.45 175 18:18 12.10.2021
5281 Clouds 15 1024 84 10000 0.45 153 16:44 12.10.2021
5282 Clouds 15 1024 85 10000 1.34 175 16:18 12.10.2021
5283 Clouds 15 1024 90 10000 0.89 132 14:46 12.10.2021
5284 Clouds 14 1024 89 10000 0.89 183 13:44 12.10.2021
5285 Clouds 14 1025 93 10000 0.45 146 12:40 12.10.2021
5286 Clouds 14 1025 93 10000 0.45 146 12:40 12.10.2021
5287 Clouds 13 1025 90 10000 0.45 140 10:38 12.10.2021
5288 Clouds 12 1025 91 10000 0.45 95 08:49 12.10.2021
5289 Clouds 12 1025 91 10000 0.45 90 07:54 12.10.2021
5290 Clouds 12 1025 93 10000 3.6 250 06:40 12.10.2021
5291 Clouds 12 1026 91 10000 0.89 122 04:33 12.10.2021
5292 Clouds 11 1027 92 10000 3.09 250 01:28 12.10.2021
5293 Clouds 11 1028 90 10000 0.45 139 23:41 11.10.2021
5294 Clouds 11 1028 89 10000 0.45 149 22:59 11.10.2021
5295 Clouds 11 1029 86 10000 0.45 126 21:46 11.10.2021
5296 Clouds 11 1029 86 10000 0.45 172 21:46 11.10.2021
5297 Clouds 12 1029 84 10000 0.89 128 21:18 11.10.2021
5298 Clouds 13 1029 77 10000 0.45 146 19:46 11.10.2021
5299 Clouds 14 1029 73 10000 1.34 124 18:44 11.10.2021
5300 Clouds 15 1029 68 10000 1.34 131 17:54 11.10.2021
5301 Clouds 15 1030 68 10000 1.34 76 16:39 11.10.2021
5302 Clouds 15 1030 72 10000 1.79 129 15:51 11.10.2021
5303 Clouds 15 1030 72 10000 1.79 221 15:23 11.10.2021
5304 Clouds 15 1030 73 10000 0.89 177 14:42 11.10.2021
5305 Clouds 15 1030 74 10000 1.34 179 13:37 11.10.2021
5306 Clouds 13 1031 84 10000 0.45 315 11:51 11.10.2021
5307 Clouds 11 1031 94 10000 0.51 0 10:43 11.10.2021
5308 Clouds 9 1030 93 10000 0.51 210 09:37 11.10.2021
5309 Clouds 9 1030 92 10000 1.03 0 07:27 11.10.2021
5310 Clouds 11 1030 87 10000 0.45 208 01:41 11.10.2021
5311 Clouds 11 1030 88 10000 2.06 270 00:48 11.10.2021
5312 Clouds 11 1030 88 10000 2.06 260 00:28 11.10.2021
5313 Clouds 11 1030 85 10000 0.45 141 21:54 10.10.2021
5314 Clouds 11 1030 83 10000 0.45 90 21:32 10.10.2021
5315 Clouds 12 1030 79 10000 0.45 176 20:47 10.10.2021
5316 Clouds 12 1030 77 10000 0.45 145 20:21 10.10.2021
5317 Clouds 12 1030 74 10000 2.57 300 19:59 10.10.2021
5318 Clouds 13 1030 76 10000 2.57 300 19:35 10.10.2021
5319 Clouds 14 1029 68 10000 2.24 108 18:35 10.10.2021
5320 Clouds 15 1030 62 10000 1.34 233 16:46 10.10.2021
5321 Clouds 16 1030 64 10000 1.34 170 15:44 10.10.2021
5322 Clouds 15 1031 74 10000 4.63 280 13:53 10.10.2021
5323 Clouds 15 1030 70 10000 0.89 124 13:32 10.10.2021
5324 Clouds 15 1031 80 10000 4.12 310 12:33 10.10.2021
5325 Clouds 13 1030 93 10000 2.06 270 10:43 10.10.2021
5326 Clouds 12 1029 94 10000 3.09 300 09:29 10.10.2021
5327 Clouds 12 1029 94 10000 2.57 300 08:53 10.10.2021
5328 Clouds 12 1029 95 10000 1.96 291 07:27 10.10.2021
5329 Clouds 14 1028 96 2900 0.45 81 02:42 10.10.2021
5330 Mist 14 1028 95 5000 0.45 126 00:55 10.10.2021
5331 Clouds 14 1028 95 9000 0.45 156 00:23 10.10.2021
5332 Drizzle 15 1028 92 5000 0.51 240 22:45 09.10.2021
5333 Clouds 15 1028 92 10000 1.03 220 21:39 09.10.2021
5334 Clouds 15 1028 92 10000 0.51 0 21:20 09.10.2021
5335 Clouds 16 1027 87 10000 0.51 220 19:44 09.10.2021
5336 Rain 16 1027 84 10000 0.51 0 18:57 09.10.2021
5337 Rain 16 1027 83 10000 0.45 56 18:32 09.10.2021
5338 Clouds 17 1027 77 10000 0.45 315 16:36 09.10.2021
5339 Clouds 17 1027 77 10000 0.45 90 15:32 09.10.2021
5340 Clouds 17 1028 81 10000 0.89 315 13:43 09.10.2021
5341 Clouds 16 1028 86 10000 0.89 288 12:40 09.10.2021
5342 Clouds 15 1029 92 8000 1.54 0 11:47 09.10.2021
5343 Clouds 15 1028 92 8000 1.03 230 10:42 09.10.2021
5344 Clouds 14 1027 93 10000 0.51 0 09:36 09.10.2021
5345 Clouds 13 1027 94 10000 0.51 0 08:29 09.10.2021
5346 Clouds 13 1027 94 10000 0.51 0 07:47 09.10.2021
5347 Clouds 13 1027 94 8000 1.03 0 05:28 09.10.2021
5348 Clouds 14 1028 92 10000 0.89 313 02:57 09.10.2021
5349 Clouds 14 1028 91 10000 0.51 0 02:38 09.10.2021
5350 Clouds 15 1028 88 10000 0.45 315 23:36 08.10.2021
5351 Clouds 15 1028 88 10000 0.45 336 22:53 08.10.2021
5352 Clouds 15 1028 89 10000 0.45 340 22:22 08.10.2021
5353 Clouds 15 1028 88 10000 0.45 315 20:49 08.10.2021
5354 Clouds 17 1028 82 10000 0.45 70 18:51 08.10.2021
5355 Clouds 19 1028 78 10000 1.34 296 17:28 08.10.2021
5356 Clouds 19 1028 77 10000 1.34 259 16:50 08.10.2021
5357 Clouds 19 1028 77 10000 1.34 286 16:22 08.10.2021
5358 Clouds 19 1028 76 10000 1.34 290 13:56 08.10.2021
5359 Clouds 17 1028 81 10000 1.79 316 12:47 08.10.2021
5360 Clouds 16 1028 86 10000 1.34 306 11:31 08.10.2021
5361 Clouds 15 1028 88 10000 0.89 288 10:32 08.10.2021
5362 Clouds 14 1026 91 10000 0.89 315 06:53 08.10.2021
5363 Clouds 16 1024 87 10000 0.89 297 23:31 07.10.2021
5364 Clouds 17 1024 87 10000 0.89 276 22:58 07.10.2021
5365 Clouds 17 1024 83 10000 0.89 298 21:33 07.10.2021
5366 Clouds 17 1023 85 10000 1.34 311 20:56 07.10.2021
5367 Clouds 18 1023 82 10000 1.79 322 19:40 07.10.2021
5368 Clouds 18 1023 82 10000 1.79 270 19:22 07.10.2021
5369 Clouds 19 1022 78 10000 1.34 309 17:38 07.10.2021
5370 Clouds 20 1022 77 10000 1.34 291 16:42 07.10.2021
5371 Clouds 19 1022 79 10000 0.89 302 14:58 07.10.2021
5372 Clouds 19 1022 76 10000 1.34 263 13:44 07.10.2021
5373 Clouds 18 1022 78 10000 1.79 311 13:20 07.10.2021
5374 Clouds 17 1022 82 10000 1.79 281 11:49 07.10.2021
5375 Clouds 16 1022 88 10000 1.79 313 10:48 07.10.2021
5376 Clouds 15 1022 89 10000 0.45 330 10:19 07.10.2021
5377 Clouds 14 1021 91 10000 2.57 180 08:56 07.10.2021
5378 Clouds 14 1021 91 10000 0.89 328 08:25 07.10.2021
5379 Clouds 14 1021 91 10000 1.79 315 07:40 07.10.2021
5380 Clouds 14 1021 89 10000 0.89 297 06:48 07.10.2021
5381 Clouds 13 1021 87 10000 1.34 308 02:21 07.10.2021
5382 Clouds 13 1020 84 10000 0.45 326 23:35 06.10.2021
5383 Clouds 13 1020 84 10000 0.45 315 22:41 06.10.2021
5384 Clouds 13 1021 84 10000 2.57 210 21:41 06.10.2021
5385 Clouds 13 1021 79 10000 1.54 170 20:34 06.10.2021
5386 Clouds 14 1020 73 10000 1.03 170 19:28 06.10.2021
5387 Clouds 15 1020 68 10000 0.45 113 18:20 06.10.2021
5388 Clouds 15 1020 66 10000 0.89 119 16:44 06.10.2021
5389 Clouds 15 1019 64 10000 0.89 92 15:24 06.10.2021
5390 Clear 14 1019 73 10000 3.6 270 13:31 06.10.2021
5391 Clear 14 1019 73 10000 4.12 280 12:53 06.10.2021
5392 Clear 13 1019 77 10000 4.63 290 12:29 06.10.2021
5393 Clear 13 1018 75 10000 4.12 290 11:39 06.10.2021
5394 Clear 10 1016 83 10000 2.57 290 09:45 06.10.2021
5395 Clear 9 1016 83 10000 2.06 260 09:26 06.10.2021
5396 Clear 9 1015 84 10000 3.6 300 08:39 06.10.2021
5397 Clouds 10 1012 82 10000 1.34 119 06:19 06.10.2021
5398 Clouds 11 1011 82 10000 0.89 156 04:24 06.10.2021
5399 Clouds 11 1011 82 10000 0.89 156 04:24 06.10.2021
5400 Clouds 12 1007 82 10000 1.79 48 00:24 06.10.2021
5401 Clouds 12 1006 85 10000 2.24 138 23:51 05.10.2021
5402 Clouds 12 1006 85 10000 2.24 138 23:51 05.10.2021
5403 Clouds 11 1007 88 10000 3.6 300 23:31 05.10.2021
5404 Clouds 11 1006 84 10000 1.34 161 22:36 05.10.2021
5405 Clouds 11 1005 84 10000 0.89 91 21:57 05.10.2021
5406 Clouds 11 1005 84 10000 0.89 91 21:57 05.10.2021
5407 Clouds 10 1005 84 10000 0.89 155 21:29 05.10.2021
5408 Clouds 10 1004 85 10000 1.34 136 20:33 05.10.2021
5409 Rain 10 1003 85 10000 1.79 123 19:51 05.10.2021
5410 Rain 10 1002 83 10000 1.79 86 19:25 05.10.2021
5411 Rain 11 1001 83 10000 2.68 161 18:21 05.10.2021
5412 Rain 11 1000 82 10000 9.77 300 15:36 05.10.2021
5413 Clouds 11 997 88 10000 2.24 171 13:52 05.10.2021
5414 Clouds 11 997 89 10000 2.24 81 13:23 05.10.2021
5415 Rain 11 996 93 10000 1.34 185 12:34 05.10.2021
5416 Clouds 11 995 91 10000 0.89 128 11:41 05.10.2021
5417 Drizzle 11 994 95 10000 0.89 108 10:37 05.10.2021
5418 Clouds 10 993 92 10000 0.45 320 07:59 05.10.2021
5419 Clouds 11 996 91 10000 0.89 89 01:46 05.10.2021
5420 Rain 11 1001 88 10000 0.45 355 22:56 04.10.2021
5421 Clouds 11 1002 89 10000 0.45 301 21:27 04.10.2021
5422 Rain 12 1003 85 10000 1.34 324 18:51 04.10.2021
5423 Clouds 13 1004 81 10000 1.34 322 17:29 04.10.2021
5424 Clouds 14 1004 74 10000 1.79 230 15:33 04.10.2021
5425 Clouds 14 1004 70 10000 2.24 12 14:46 04.10.2021
5426 Clouds 14 1004 71 10000 1.34 274 14:18 04.10.2021
5427 Clouds 14 1005 74 10000 5.66 210 13:31 04.10.2021
5428 Clouds 13 1004 77 10000 2.24 339 12:50 04.10.2021
5429 Clouds 12 1004 86 10000 1.79 300 11:33 04.10.2021
5430 Clouds 11 1003 85 10000 2.24 297 10:45 04.10.2021
5431 Clouds 10 1003 90 10000 1.34 295 09:35 04.10.2021
5432 Clouds 9 1003 90 10000 1.79 306 07:53 04.10.2021
5433 Clouds 9 1003 92 10000 2.57 190 06:42 04.10.2021
5434 Clouds 11 1000 90 10000 1.34 276 22:51 03.10.2021
5435 Clouds 11 999 87 10000 0.45 291 21:54 03.10.2021
5436 Clouds 12 998 86 10000 1.79 315 21:29 03.10.2021
5437 Clouds 12 997 85 10000 0.45 330 20:44 03.10.2021
5438 Clouds 12 996 81 10000 0.45 263 19:46 03.10.2021
5439 Clouds 14 995 75 10000 0.89 83 18:29 03.10.2021
5440 Clouds 14 994 70 10000 1.79 125 17:37 03.10.2021
5441 Clouds 14 991 76 10000 1.79 238 14:50 03.10.2021
5442 Clouds 14 990 79 10000 2.24 7 14:29 03.10.2021
5443 Clouds 13 990 85 10000 3.13 294 13:35 03.10.2021
5444 Clouds 12 989 83 10000 3.13 296 12:44 03.10.2021
5445 Clouds 11 988 81 10000 2.68 277 10:58 03.10.2021
5446 Clear 9 989 85 10000 3.09 190 09:57 03.10.2021
5447 Clear 7 987 93 10000 1.34 294 05:25 03.10.2021
5448 Clouds 10 984 97 10000 0.89 96 22:52 02.10.2021
5449 Drizzle 11 984 95 7000 1.79 62 21:49 02.10.2021
5450 Rain 12 983 95 10000 0.51 0 20:18 02.10.2021
5451 Rain 12 983 95 10000 0.51 0 20:18 02.10.2021
5452 Rain 12 985 94 10000 1.54 0 18:56 02.10.2021
5453 Clouds 12 985 94 10000 1.54 0 18:56 02.10.2021
5454 Rain 12 985 94 10000 1.54 0 18:56 02.10.2021
5455 Clouds 12 986 93 10000 0.45 326 18:18 02.10.2021
5456 Clouds 12 987 92 10000 0.45 354 17:36 02.10.2021
5457 Clouds 12 990 90 10000 2.57 150 16:22 02.10.2021
5458 Clouds 9 1003 84 10000 2.57 0 06:39 02.10.2021
5459 Rain 16 1009 91 10000 2.68 298 15:37 30.09.2021
5460 Clouds 15 1012 82 10000 5.66 190 13:54 30.09.2021
5461 Clouds 13 1013 88 10000 2.68 300 11:42 30.09.2021
5462 Clouds 12 1013 88 10000 3.13 297 10:46 30.09.2021
5463 Clouds 11 1014 91 10000 2.68 341 09:44 30.09.2021
5464 Clouds 10 1016 92 8000 1.79 315 08:30 30.09.2021
5465 Rain 10 1017 91 10000 1.79 315 07:34 30.09.2021
5466 Clouds 10 1019 84 10000 1.79 296 05:18 30.09.2021
5467 Clouds 8 1022 85 10000 0.89 326 01:20 30.09.2021
5468 Clouds 8 1022 86 10000 1.03 0 00:18 30.09.2021
5469 Clouds 9 1022 83 10000 2.06 190 22:31 29.09.2021
5470 Clouds 9 1022 79 10000 2.57 220 21:24 29.09.2021
5471 Clouds 11 1022 75 10000 0.45 107 20:26 29.09.2021
5472 Clouds 11 1022 71 10000 0.89 68 19:51 29.09.2021
5473 Clouds 12 1021 69 10000 1.79 94 18:45 29.09.2021
5474 Clouds 13 1021 68 10000 2.24 128 17:38 29.09.2021
5475 Clouds 13 1020 67 10000 2.24 158 16:47 29.09.2021
5476 Clouds 13 1019 73 10000 1.34 88 15:55 29.09.2021
5477 Clouds 12 1019 79 10000 2.24 137 14:39 29.09.2021
5478 Clouds 11 1018 85 10000 0.89 149 13:42 29.09.2021
5479 Rain 11 1018 81 10000 0.89 149 12:58 29.09.2021
5480 Clouds 11 1016 84 10000 0.89 87 11:55 29.09.2021
5481 Clouds 10 1016 91 10000 0.89 145 10:47 29.09.2021
5482 Clouds 9 1015 93 10000 0.45 117 09:50 29.09.2021
5483 Rain 9 1014 94 10000 0.45 149 09:18 29.09.2021
5484 Clouds 8 1012 95 10000 0.45 135 07:31 29.09.2021
5485 Clouds 9 1010 93 10000 2.57 210 03:40 29.09.2021
5486 Clouds 11 1009 94 10000 1.54 0 23:26 28.09.2021
5487 Clouds 11 1009 96 10000 1.03 200 22:23 28.09.2021
5488 Clouds 11 1008 94 10000 0.45 315 21:37 28.09.2021
5489 Clouds 11 1008 94 10000 1.03 0 20:36 28.09.2021
5490 Clouds 11 1007 94 10000 0.45 322 19:43 28.09.2021
5491 Clouds 12 1007 94 10000 0.45 315 18:46 28.09.2021
5492 Rain 12 1008 94 8000 0.45 306 17:54 28.09.2021
5493 Rain 13 1009 89 6000 1.34 287 15:56 28.09.2021
5494 Clouds 14 1011 80 10000 4.63 180 13:44 28.09.2021
5495 Clouds 14 1012 82 10000 3.6 180 12:47 28.09.2021
5496 Clouds 13 1011 82 10000 2.24 297 12:19 28.09.2021
5497 Clouds 13 1012 84 10000 2.68 329 11:45 28.09.2021
5498 Rain 12 1012 85 10000 1.34 309 10:55 28.09.2021
5499 Rain 11 1012 89 10000 1.34 307 09:53 28.09.2021
5500 Rain 11 1014 87 10000 2.57 180 08:57 28.09.2021
5501 Rain 11 1013 86 10000 1.79 304 08:34 28.09.2021
5502 Clouds 10 1014 88 10000 3.09 180 06:51 28.09.2021
5503 Clouds 10 1013 86 10000 1.34 309 05:27 28.09.2021
5504 Clear 10 1014 85 10000 3.6 200 01:22 28.09.2021
5505 Clear 11 1012 83 10000 2.24 297 00:24 28.09.2021
5506 Clear 11 1013 80 10000 4.12 200 23:31 27.09.2021
5507 Clear 11 1013 79 10000 2.57 190 22:55 27.09.2021
5508 Clear 12 1011 73 10000 0.89 13 21:44 27.09.2021
5509 Clear 13 1010 69 10000 1.34 310 20:39 27.09.2021
5510 Clear 14 1010 64 10000 0.45 18 19:50 27.09.2021
5511 Clear 15 1009 59 10000 0.89 0 19:23 27.09.2021
5512 Clear 15 1008 57 10000 1.34 151 18:31 27.09.2021
5513 Clouds 16 1007 58 10000 1.34 182 17:28 27.09.2021
5514 Clouds 16 1007 65 10000 1.34 90 16:41 27.09.2021
5515 Clear 16 1006 60 10000 1.79 87 15:43 27.09.2021
5516 Clear 15 1005 64 500 1.79 108 14:43 27.09.2021
5517 Fog 14 1004 83 450 1.34 92 13:31 27.09.2021
5518 Clouds 11 1001 94 1400 1.79 245 11:20 27.09.2021
5519 Rain 11 1000 94 3400 0.89 138 09:54 27.09.2021
5520 Rain 12 998 94 2500 1.79 129 08:40 27.09.2021
5521 Rain 17 999 82 10000 2.68 308 05:21 27.09.2021
5522 Clouds 17 1003 81 10000 2.68 336 02:59 27.09.2021
5523 Clouds 18 1006 76 10000 1.34 325 22:32 26.09.2021
5524 Clouds 17 1006 76 10000 1.34 323 21:50 26.09.2021
5525 Clouds 17 1006 75 10000 1.34 334 20:52 26.09.2021
5526 Clouds 18 1007 75 10000 0.89 306 20:20 26.09.2021
5527 Clouds 18 1008 75 10000 3.09 190 19:38 26.09.2021
5528 Clouds 19 1008 69 10000 3.09 180 18:45 26.09.2021
5529 Clouds 19 1007 70 10000 1.34 320 17:50 26.09.2021
5530 Clouds 20 1007 70 10000 1.79 307 17:21 26.09.2021
5531 Clouds 19 1008 70 10000 1.79 302 16:30 26.09.2021
5532 Clouds 19 1008 69 10000 0.89 315 15:58 26.09.2021
5533 Clouds 20 1008 69 10000 1.79 297 14:46 26.09.2021
5534 Clouds 20 1008 66 10000 1.79 288 13:54 26.09.2021
5535 Clouds 19 1008 71 10000 1.79 314 12:56 26.09.2021
5536 Clouds 17 1008 79 10000 1.79 300 11:59 26.09.2021
5537 Clouds 17 1009 80 10000 1.79 328 11:37 26.09.2021
5538 Clouds 16 1008 84 10000 1.34 331 10:23 26.09.2021
5539 Clouds 16 1008 91 10000 0.45 315 08:55 26.09.2021
5540 Clouds 16 1009 89 10000 1.54 0 03:26 26.09.2021
5541 Clouds 17 1010 86 10000 0.51 0 00:21 26.09.2021
5542 Clouds 16 1010 87 10000 1.03 0 23:23 25.09.2021
5543 Clouds 17 1010 87 10000 1.03 110 22:37 25.09.2021
5544 Clouds 17 1010 86 10000 1.03 0 21:55 25.09.2021
5545 Clouds 18 1010 86 10000 1.03 0 21:30 25.09.2021
5546 Clouds 18 1010 83 10000 1.03 180 20:45 25.09.2021
5547 Clouds 21 1010 75 10000 0.45 0 18:47 25.09.2021
5548 Clouds 21 1011 78 10000 1.03 0 17:47 25.09.2021
5549 Clouds 21 1012 83 10000 0.45 90 15:41 25.09.2021
5550 Clouds 19 1013 91 10000 2.06 230 13:57 25.09.2021
5551 Clouds 19 1013 92 3100 1.54 0 13:27 25.09.2021
5552 Clouds 18 1013 96 8000 1.03 0 11:54 25.09.2021
5553 Clouds 17 1013 97 6000 1.03 0 10:33 25.09.2021
5554 Drizzle 17 1012 96 3900 0.45 315 09:26 25.09.2021
5555 Drizzle 17 1012 95 2100 1.54 220 07:52 25.09.2021
5556 Clouds 17 1012 92 10000 0.45 147 05:19 25.09.2021
5557 Clouds 18 1013 85 10000 0.89 127 23:45 24.09.2021
5558 Clouds 19 1014 84 10000 3.6 260 21:41 24.09.2021
5559 Clouds 19 1013 81 10000 5.14 280 20:33 24.09.2021
5560 Clouds 19 1013 78 10000 6.17 280 19:45 24.09.2021
5561 Clouds 19 1013 80 10000 5.66 290 18:32 24.09.2021
5562 Clouds 20 1013 68 10000 8.23 280 17:53 24.09.2021
5563 Clouds 20 1013 68 10000 8.23 280 17:35 24.09.2021
5564 Clouds 20 1013 74 10000 7.2 280 16:45 24.09.2021
5565 Clouds 18 1012 91 10000 0.45 98 13:55 24.09.2021
5566 Clouds 17 1013 91 8000 0.89 315 12:45 24.09.2021
5567 Clouds 17 1013 89 10000 0.45 270 12:27 24.09.2021
5568 Clouds 16 1012 88 10000 0.45 270 11:50 24.09.2021
5569 Clouds 14 1012 88 10000 0.89 331 10:24 24.09.2021
5570 Clouds 13 1013 91 10000 0.89 315 08:24 24.09.2021
5571 Clouds 13 1014 91 10000 0.89 318 07:32 24.09.2021
5572 Clouds 12 1014 91 10000 0.89 315 06:32 24.09.2021
5573 Clouds 13 1015 93 10000 0.89 328 04:53 24.09.2021
5574 Clouds 15 1018 88 10000 1.03 0 22:45 23.09.2021
5575 Clouds 15 1018 88 10000 0.45 17 22:19 23.09.2021
5576 Clouds 15 1018 84 10000 0.45 170 21:38 23.09.2021
5577 Clouds 15 1018 84 10000 0.89 135 20:32 23.09.2021
5578 Clouds 15 1018 82 10000 0.89 149 18:56 23.09.2021
5579 Clouds 16 1018 76 10000 1.34 119 17:18 23.09.2021
5580 Clouds 16 1019 79 10000 1.79 122 15:20 23.09.2021
5581 Clouds 16 1018 79 10000 1.34 158 14:58 23.09.2021
5582 Clouds 15 1018 78 10000 2.24 148 13:40 23.09.2021
5583 Clouds 15 1018 79 10000 1.34 105 13:18 23.09.2021
5584 Clouds 16 1018 76 10000 0.89 54 12:46 23.09.2021
5585 Clouds 16 1018 75 10000 1.34 118 12:21 23.09.2021
5586 Clouds 16 1018 87 10000 1.34 118 10:42 23.09.2021
5587 Clouds 16 1018 91 10000 1.79 148 10:19 23.09.2021
5588 Clouds 16 1017 96 10000 1.79 142 09:48 23.09.2021
5589 Clouds 16 1017 86 10000 0.45 234 06:32 23.09.2021
5590 Clouds 14 1021 84 10000 0.45 32 00:28 23.09.2021
5591 Clouds 14 1021 82 10000 0.45 17 22:54 22.09.2021
5592 Clouds 14 1022 81 10000 0.45 69 22:22 22.09.2021
5593 Clouds 15 1022 79 10000 0.45 84 21:44 22.09.2021
5594 Clouds 16 1022 76 10000 1.34 164 20:58 22.09.2021
5595 Clouds 16 1022 74 10000 0.89 166 20:27 22.09.2021
5596 Clouds 18 1023 67 10000 1.34 45 19:27 22.09.2021
5597 Clouds 19 1023 65 10000 1.34 83 18:35 22.09.2021
5598 Clouds 19 1023 67 10000 1.34 100 17:33 22.09.2021
5599 Clouds 19 1024 72 10000 1.79 22 15:52 22.09.2021
5600 Clouds 18 1025 76 10000 0.89 40 14:29 22.09.2021
5601 Clouds 17 1026 84 10000 0.45 100 13:24 22.09.2021
5602 Clouds 15 1026 87 10000 0.89 99 11:20 22.09.2021
5603 Clouds 13 1026 97 10000 1.54 0 09:32 22.09.2021
5604 Mist 12 1027 95 5000 1.54 0 08:45 22.09.2021
5605 Mist 11 1026 97 5000 2.06 170 07:35 22.09.2021
5606 Clouds 11 1027 94 7000 2.06 160 06:54 22.09.2021
5607 Mist 12 1027 95 3800 0.45 315 05:49 22.09.2021
5608 Fog 12 1028 94 700 0.51 0 04:54 22.09.2021
5609 Clouds 12 1028 92 7000 0.45 315 03:23 22.09.2021
5610 Clouds 14 1029 89 10000 1.54 160 00:18 22.09.2021
5611 Clouds 14 1029 86 10000 0.51 0 22:27 21.09.2021
5612 Clouds 15 1029 84 10000 1.22 322 20:58 21.09.2021
5613 Clouds 17 1029 76 10000 1.67 322 19:37 21.09.2021
5614 Clouds 18 1029 68 10000 0.45 90 19:18 21.09.2021
5615 Clouds 19 1029 62 10000 0.89 165 16:48 21.09.2021
5616 Clouds 19 1030 64 10000 0.89 129 15:57 21.09.2021
5617 Clouds 19 1030 67 10000 1.34 114 14:59 21.09.2021
5618 Clouds 19 1030 67 10000 0.89 90 14:40 21.09.2021
5619 Clouds 18 1030 71 10000 0.89 150 13:39 21.09.2021
5620 Clouds 17 1030 77 10000 0.45 103 12:44 21.09.2021
5621 Clouds 13 1031 94 10000 1.54 0 10:43 21.09.2021
5622 Clouds 13 1030 94 10000 1.03 0 09:22 21.09.2021
5623 Clouds 13 1029 94 10000 2.06 210 07:38 21.09.2021
5624 Clouds 12 1029 94 10000 2.06 190 05:18 21.09.2021
5625 Clouds 11 1028 93 10000 1.03 230 23:19 20.09.2021
5626 Clouds 13 1027 82 10000 1.03 0 21:51 20.09.2021
5627 Clouds 14 1027 77 10000 2.57 300 21:30 20.09.2021
5628 Clouds 17 1025 65 10000 0.89 121 19:49 20.09.2021
5629 Clouds 18 1026 63 10000 4.12 280 18:36 20.09.2021
5630 Clouds 19 1025 61 10000 4.12 290 17:25 20.09.2021
5631 Clear 20 1024 58 10000 0.89 157 16:26 20.09.2021
5632 Clouds 20 1024 58 10000 0.89 135 15:36 20.09.2021
5633 Clouds 19 1025 65 10000 3.09 260 14:42 20.09.2021
5634 Clear 18 1024 71 10000 0.45 90 12:44 20.09.2021
5635 Clear 17 1024 75 10000 0.45 86 12:26 20.09.2021
5636 Clear 14 1023 99 10000 1.52 301 10:56 20.09.2021
5637 Clear 12 1023 99 10000 0.45 72 09:51 20.09.2021
5638 Fog 10 1023 96 100 1.03 0 09:32 20.09.2021
5639 Fog 9 1022 98 100 0.51 0 08:48 20.09.2021
5640 Fog 9 1021 95 150 0.51 0 06:22 20.09.2021
5641 Clouds 12 1018 89 10000 1.54 280 22:58 19.09.2021
5642 Clear 13 1017 86 10000 0.45 131 21:50 19.09.2021
5643 Clear 13 1017 84 10000 0.89 82 21:19 19.09.2021
5644 Clouds 16 1016 75 10000 1.34 154 19:59 19.09.2021
5645 Clouds 16 1015 74 10000 0.89 140 18:53 19.09.2021
5646 Clouds 16 1015 82 7000 0.45 108 17:49 19.09.2021
5647 Clouds 16 1015 86 8000 1.34 148 16:35 19.09.2021
5648 Clouds 18 1014 68 10000 0.45 109 15:32 19.09.2021
5649 Clouds 18 1014 64 10000 0.45 130 14:49 19.09.2021
5650 Clouds 18 1014 68 10000 1.54 0 13:57 19.09.2021
5651 Clouds 18 1014 74 10000 1.03 0 12:56 19.09.2021
5652 Clouds 15 1013 87 10000 2.06 220 11:49 19.09.2021
5653 Rain 15 1014 93 10000 0.45 328 11:22 19.09.2021
5654 Rain 14 1013 93 10000 0.45 11 09:51 19.09.2021
5655 Rain 13 1013 93 10000 0.45 45 09:23 19.09.2021
5656 Rain 14 1012 89 10000 1.34 139 06:49 19.09.2021
5657 Clouds 17 1011 78 10000 0.89 322 00:48 19.09.2021
5658 Clouds 17 1011 78 10000 1.54 0 22:58 18.09.2021
5659 Clouds 17 1011 77 10000 1.54 120 21:56 18.09.2021
5660 Clouds 18 1011 75 10000 1.54 0 20:46 18.09.2021
5661 Clouds 20 1012 71 10000 0.51 0 19:42 18.09.2021
5662 Clouds 20 1012 70 10000 1.03 0 19:22 18.09.2021
5663 Clouds 21 1012 67 10000 2.06 170 18:58 18.09.2021
5664 Clouds 21 1012 66 10000 1.54 0 18:29 18.09.2021
5665 Clouds 21 1013 63 10000 2.06 200 16:35 18.09.2021
5666 Clouds 21 1014 67 10000 1.54 0 13:51 18.09.2021
5667 Clouds 20 1014 70 10000 1.54 0 13:31 18.09.2021
5668 Clouds 20 1014 74 10000 1.54 0 12:51 18.09.2021
5669 Clouds 19 1013 76 10000 1.34 315 11:43 18.09.2021
5670 Clouds 17 1013 79 10000 1.34 294 10:38 18.09.2021
5671 Clouds 16 1013 86 10000 0.45 315 09:55 18.09.2021
5672 Clouds 15 1013 87 10000 1.03 250 09:22 18.09.2021
5673 Clouds 14 1013 85 10000 0.51 0 08:24 18.09.2021
5674 Clouds 15 1012 83 10000 1.93 147 00:42 18.09.2021
5675 Clouds 15 1012 81 10000 2.14 150 23:53 17.09.2021
5676 Clouds 16 1012 77 10000 2.33 160 22:43 17.09.2021
5677 Clouds 16 1012 77 10000 2.34 166 22:21 17.09.2021
5678 Clouds 17 1012 76 10000 0.51 0 21:27 17.09.2021
5679 Clouds 20 1010 61 10000 0.45 283 19:29 17.09.2021
5680 Clouds 20 1010 60 10000 1.34 298 17:57 17.09.2021
5681 Clouds 21 1010 61 10000 2.24 315 16:33 17.09.2021
5682 Clouds 20 1011 66 10000 1.79 309 14:32 17.09.2021
5683 Clouds 17 1012 80 10000 1.79 324 11:30 17.09.2021
5684 Clouds 13 1012 90 10000 0.89 315 09:24 17.09.2021
5685 Clouds 12 1012 94 10000 1.03 0 07:35 17.09.2021
5686 Clouds 13 1013 91 10000 1.03 0 03:58 17.09.2021
5687 Clouds 14 1015 89 10000 1.03 130 23:36 16.09.2021
5688 Clouds 15 1015 86 10000 0.51 0 22:33 16.09.2021
5689 Clouds 16 1015 84 10000 0.51 0 21:52 16.09.2021
5690 Clouds 16 1015 78 10000 0.51 0 21:27 16.09.2021
5691 Clouds 18 1014 76 10000 1.03 210 20:24 16.09.2021
5692 Clouds 20 1014 66 10000 0.45 75 18:24 16.09.2021
5693 Clouds 21 1015 62 10000 0.89 309 17:54 16.09.2021
5694 Clouds 20 1016 65 10000 0.89 153 14:59 16.09.2021
5695 Clouds 20 1017 68 10000 3.6 230 14:26 16.09.2021
5696 Clouds 18 1016 81 10000 0.45 135 12:52 16.09.2021
5697 Clouds 18 1016 81 10000 0.45 135 12:29 16.09.2021
5698 Clouds 17 1016 90 9000 1.54 0 11:28 16.09.2021
5699 Clouds 16 1016 92 9000 0.45 315 10:34 16.09.2021
5700 Clouds 15 1016 92 8000 0.45 300 09:58 16.09.2021
5701 Clouds 14 1016 90 8000 1.54 180 08:42 16.09.2021
5702 Clouds 14 1016 90 6000 1.03 0 07:36 16.09.2021
5703 Clouds 14 1016 89 10000 1.03 0 06:47 16.09.2021
5704 Clouds 15 1015 87 10000 1.54 0 05:40 16.09.2021
5705 Clouds 14 1016 88 10000 0.51 0 01:41 16.09.2021
5706 Clouds 14 1015 88 10000 0.45 293 00:37 16.09.2021
5707 Clouds 15 1016 84 10000 0.51 230 22:47 15.09.2021
5708 Clouds 15 1015 79 10000 1.54 0 21:48 15.09.2021
5709 Clouds 16 1015 77 10000 1.03 260 21:29 15.09.2021
5710 Clouds 17 1014 70 10000 0.45 100 20:22 15.09.2021
5711 Clouds 19 1014 65 10000 0.89 113 19:27 15.09.2021
5712 Clouds 20 1015 65 10000 3.6 300 18:23 15.09.2021
5713 Clouds 21 1015 62 10000 3.09 290 16:59 15.09.2021
5714 Clouds 20 1014 61 10000 0.89 125 15:59 15.09.2021
5715 Clouds 20 1015 66 10000 2.57 260 14:45 15.09.2021
5716 Clouds 19 1015 69 10000 3.6 300 13:55 15.09.2021
5717 Clouds 19 1014 66 10000 0.45 135 13:37 15.09.2021
5718 Clouds 19 1015 72 10000 2.57 250 13:18 15.09.2021
5719 Clouds 16 1014 81 10000 1.54 0 11:52 15.09.2021
5720 Clouds 16 1014 81 10000 1.54 0 11:52 15.09.2021
5721 Clouds 16 1014 85 10000 1.03 0 11:32 15.09.2021
5722 Clouds 15 1014 91 10000 0.51 0 10:55 15.09.2021
5723 Fog 12 1014 94 10000 1.54 270 09:29 15.09.2021
5724 Clouds 12 1013 95 6000 1.03 0 07:48 15.09.2021
5725 Clouds 13 1013 93 10000 1.03 0 04:55 15.09.2021
5726 Clouds 13 1012 92 10000 2.06 50 23:45 14.09.2021
5727 Clouds 15 1012 88 10000 0.89 178 21:41 14.09.2021
5728 Clouds 16 1012 84 10000 0.45 200 20:39 14.09.2021
5729 Clouds 16 1013 77 10000 4.12 30 19:41 14.09.2021
5730 Clouds 17 1013 80 10000 3.09 50 17:40 14.09.2021
5731 Clouds 16 1013 80 10000 4.63 30 16:58 14.09.2021
5732 Clouds 17 1013 72 10000 3.6 50 15:33 14.09.2021
5733 Clouds 16 1013 82 10000 4.63 50 14:31 14.09.2021
5734 Clouds 15 1014 89 10000 2.06 70 12:39 14.09.2021
5735 Clouds 14 1013 92 10000 0.45 218 10:54 14.09.2021
5736 Clouds 14 1015 90 10000 2.06 70 09:50 14.09.2021
5737 Clouds 14 1013 87 10000 0.45 257 08:39 14.09.2021
5738 Clouds 14 1014 91 10000 1.54 70 06:24 14.09.2021
5739 Clouds 15 1015 76 10000 2.57 0 23:57 13.09.2021
5740 Clouds 15 1015 75 10000 0.89 180 22:48 13.09.2021
5741 Clouds 16 1015 76 10000 0.45 158 22:23 13.09.2021
5742 Clouds 16 1015 76 10000 0.45 158 22:23 13.09.2021
5743 Clouds 16 1015 77 10000 0.89 199 21:45 13.09.2021
5744 Clouds 16 1015 75 10000 0.45 116 20:50 13.09.2021
5745 Clouds 17 1016 73 10000 1.54 0 18:46 13.09.2021
5746 Clouds 17 1016 73 10000 0.45 332 17:49 13.09.2021
5747 Clouds 17 1016 71 10000 1.34 316 16:50 13.09.2021
5748 Clouds 17 1017 77 10000 1.34 180 15:22 13.09.2021
5749 Clouds 14 1019 88 10000 0.89 321 11:55 13.09.2021
5750 Clouds 13 1020 92 10000 1.03 0 10:58 13.09.2021
5751 Clouds 13 1018 90 10000 0.89 3 09:35 13.09.2021
5752 Clouds 13 1018 89 10000 0.45 13 04:38 13.09.2021
5753 Clouds 14 1020 93 10000 0.45 145 22:59 12.09.2021
5754 Clouds 14 1019 93 6000 1.54 60 22:25 12.09.2021
5755 Rain 14 1019 93 6000 0.89 191 21:34 12.09.2021
5756 Rain 15 1019 90 8000 1.03 0 20:28 12.09.2021
5757 Rain 15 1019 88 10000 1.03 70 19:49 12.09.2021
5758 Rain 16 1019 86 10000 0.45 248 19:19 12.09.2021
5759 Clouds 16 1018 83 10000 1.54 50 18:19 12.09.2021
5760 Clouds 17 1019 78 10000 1.54 0 16:30 12.09.2021
5761 Clouds 17 1019 73 10000 1.54 250 14:50 12.09.2021
5762 Clouds 17 1019 71 10000 1.03 0 12:47 12.09.2021
5763 Clouds 15 1019 88 10000 1.54 0 10:35 12.09.2021
5764 Clouds 14 1018 93 7000 0.51 0 08:40 12.09.2021
5765 Clouds 14 1017 92 6000 0.51 0 07:39 12.09.2021
5766 Clouds 15 1017 91 10000 0.51 200 00:48 12.09.2021
5767 Clouds 15 1017 89 10000 0.45 126 23:18 11.09.2021
5768 Clouds 16 1016 84 10000 0.45 165 21:40 11.09.2021
5769 Clouds 17 1015 77 10000 1.34 97 19:55 11.09.2021
5770 Clouds 18 1015 74 10000 1.34 99 18:30 11.09.2021
5771 Clouds 19 1015 74 10000 1.34 114 17:29 11.09.2021
5772 Clouds 19 1014 74 10000 1.79 165 15:38 11.09.2021
5773 Clouds 19 1014 77 10000 0.89 178 13:25 11.09.2021
5774 Clouds 18 1014 79 10000 1.34 143 11:45 11.09.2021
5775 Clouds 17 1014 84 10000 0.45 113 10:40 11.09.2021
5776 Clouds 17 1013 86 10000 0.45 119 09:28 11.09.2021
5777 Clouds 17 1012 87 10000 1.34 127 07:44 11.09.2021
5778 Clouds 17 1012 92 10000 1.34 86 04:23 11.09.2021
5779 Clouds 18 1011 89 10000 1.54 270 22:47 10.09.2021
5780 Clouds 18 1011 88 2900 2.06 280 22:18 10.09.2021
5781 Clouds 18 1010 86 9000 0.89 111 21:40 10.09.2021
5782 Clouds 20 1009 81 10000 1.34 139 19:32 10.09.2021
5783 Clouds 21 1009 78 10000 2.06 240 17:58 10.09.2021
5784 Clouds 21 1008 76 10000 1.54 0 16:28 10.09.2021
5785 Clouds 20 1008 80 10000 0.89 354 13:29 10.09.2021
5786 Clouds 18 1007 94 10000 0.45 315 10:52 10.09.2021
5787 Drizzle 17 1006 95 3000 0.45 315 07:53 10.09.2021
5788 Mist 17 1006 95 4900 0.45 319 07:21 10.09.2021
5789 Clouds 17 1005 95 8000 0.51 0 00:40 10.09.2021
5790 Clouds 18 1005 92 10000 0.51 120 21:54 09.09.2021
5791 Clouds 19 1005 89 10000 0.51 0 20:48 09.09.2021
5792 Clouds 19 1005 89 10000 0.45 315 20:27 09.09.2021
5793 Rain 20 1004 90 10000 2.06 80 18:46 09.09.2021
5794 Clouds 21 1005 82 10000 0.89 332 17:47 09.09.2021
5795 Clouds 22 1005 84 10000 0.89 320 16:28 09.09.2021
5796 Clouds 23 1005 67 10000 0.89 63 15:24 09.09.2021
5797 Clouds 21 1006 79 10000 0.45 42 12:24 09.09.2021
5798 Clouds 20 1006 77 10000 0.89 40 11:22 09.09.2021
5799 Clouds 18 1007 84 10000 1.03 0 09:35 09.09.2021
5800 Clouds 17 1007 88 10000 1.03 70 07:43 09.09.2021
5801 Clear 18 1007 81 10000 0.51 0 05:40 09.09.2021
5802 Clouds 22 1008 54 10000 2.57 0 23:55 08.09.2021
5803 Clouds 23 1009 57 10000 0.45 172 21:48 08.09.2021
5804 Clouds 24 1008 56 10000 1.54 110 20:48 08.09.2021
5805 Clouds 26 1009 51 10000 2.06 80 19:46 08.09.2021
5806 Clouds 27 1010 48 10000 2.06 0 18:47 08.09.2021
5807 Clouds 28 1010 46 10000 2.06 0 17:59 08.09.2021
5808 Clouds 28 1010 45 10000 2.06 0 17:39 08.09.2021
5809 Clouds 28 1012 46 10000 1.79 332 14:57 08.09.2021
5810 Clouds 27 1013 51 10000 3.09 120 13:28 08.09.2021
5811 Clouds 26 1014 53 10000 2.57 0 12:41 08.09.2021
5812 Clouds 25 1014 55 10000 2.06 0 12:21 08.09.2021
5813 Clouds 24 1014 58 10000 0.89 323 11:23 08.09.2021
5814 Clouds 21 1014 66 10000 0.89 27 10:29 08.09.2021
5815 Clouds 20 1014 72 10000 0.45 135 09:36 08.09.2021
5816 Clouds 17 1014 79 10000 1.54 0 07:43 08.09.2021
5817 Clouds 17 1015 76 10000 0.45 139 05:46 08.09.2021
5818 Clear 21 1017 73 10000 1.54 0 22:51 07.09.2021
5819 Clear 22 1017 73 10000 1.54 90 22:19 07.09.2021
5820 Clear 25 1018 63 10000 1.54 80 20:37 07.09.2021
5821 Clear 28 1018 50 10000 1.03 0 18:49 07.09.2021
5822 Clear 29 1018 48 10000 0.89 324 18:24 07.09.2021
5823 Clouds 29 1018 51 10000 0.45 340 16:56 07.09.2021
5824 Clear 28 1019 54 10000 0.45 188 15:55 07.09.2021
5825 Clear 28 1020 57 10000 0.89 236 14:46 07.09.2021
5826 Clear 25 1021 68 10000 0.89 235 12:45 07.09.2021
5827 Clear 22 1021 79 7000 0.45 270 11:51 07.09.2021
5828 Clear 20 1022 88 6000 0.51 0 10:43 07.09.2021
5829 Mist 16 1022 94 3600 0 0 08:40 07.09.2021
5830 Fog 14 1021 95 750 0.51 20 07:44 07.09.2021
5831 Fog 15 1021 94 800 1.54 140 05:46 07.09.2021
5832 Mist 15 1022 94 4000 0.51 170 02:38 07.09.2021
5833 Haze 16 1022 90 5000 1.03 230 00:53 07.09.2021
5834 Clouds 17 1022 88 10000 1.03 0 23:36 06.09.2021
5835 Clouds 18 1022 84 10000 1.54 280 22:57 06.09.2021
5836 Clouds 18 1022 84 10000 1.54 280 22:39 06.09.2021
5837 Clouds 20 1022 78 10000 2.06 330 21:29 06.09.2021
5838 Clouds 23 1022 68 10000 1.54 0 19:31 06.09.2021
5839 Clouds 25 1021 62 10000 0.45 145 18:53 06.09.2021
5840 Clouds 25 1021 61 10000 0.45 97 18:24 06.09.2021
5841 Clouds 25 1022 62 10000 0.89 141 17:36 06.09.2021
5842 Clouds 24 1022 67 10000 0.89 130 15:55 06.09.2021
5843 Clouds 23 1023 72 10000 1.34 120 14:25 06.09.2021
5844 Clouds 22 1023 77 10000 1.54 250 12:48 06.09.2021
5845 Clouds 19 1022 85 10000 1.54 0 10:54 06.09.2021
5846 Clouds 16 1022 93 6000 1.03 180 08:35 06.09.2021
5847 Clouds 16 1021 92 8000 1.03 210 07:21 06.09.2021
5848 Clouds 18 1021 77 10000 1.03 120 23:40 05.09.2021
5849 Clouds 18 1021 76 10000 1.54 120 23:18 05.09.2021
5850 Clouds 18 1020 75 10000 1.03 110 22:28 05.09.2021
5851 Clouds 19 1020 73 10000 1.03 100 21:49 05.09.2021
5852 Clouds 21 1020 67 10000 1.03 80 20:50 05.09.2021
5853 Clouds 23 1020 58 10000 0.89 321 18:56 05.09.2021
5854 Clouds 24 1020 57 10000 0.89 344 17:34 05.09.2021
5855 Clouds 23 1020 56 10000 1.34 318 15:28 05.09.2021
5856 Clouds 22 1021 63 10000 2.06 140 14:19 05.09.2021
5857 Clouds 20 1022 65 10000 1.03 0 12:29 05.09.2021
5858 Clouds 17 1021 74 10000 0.89 327 10:53 05.09.2021
5859 Clouds 17 1021 78 10000 0.45 315 10:31 05.09.2021
5860 Clear 14 1020 86 10000 0.51 0 09:22 05.09.2021
5861 Clouds 13 1020 84 10000 0.51 0 07:51 05.09.2021
5862 Clouds 15 1019 81 10000 1.54 0 01:22 05.09.2021
5863 Clouds 15 1019 80 10000 1.54 0 00:27 05.09.2021
5864 Clouds 15 1019 80 10000 0.45 180 23:39 04.09.2021
5865 Clouds 16 1019 78 10000 0.89 334 22:36 04.09.2021
5866 Clouds 16 1019 77 10000 0.45 105 21:56 04.09.2021
5867 Clouds 17 1019 72 10000 1.03 0 19:42 04.09.2021
5868 Clouds 18 1018 69 10000 1.34 172 18:43 04.09.2021
5869 Clouds 18 1020 68 10000 2.06 0 16:22 04.09.2021
5870 Clouds 17 1020 66 10000 0.89 4 13:22 04.09.2021
5871 Clouds 15 1020 75 10000 0.89 169 11:19 04.09.2021
5872 Clouds 14 1020 84 10000 0.51 0 09:19 04.09.2021
5873 Clouds 13 1019 83 10000 0.45 180 05:50 04.09.2021
5874 Clouds 15 1021 79 10000 0.45 135 00:25 04.09.2021
5875 Clouds 15 1021 78 10000 0.45 158 23:31 03.09.2021
5876 Clouds 15 1021 77 10000 0.45 107 21:59 03.09.2021
5877 Clouds 15 1021 77 10000 0.89 173 21:34 03.09.2021
5878 Clouds 16 1021 76 10000 0.89 143 20:42 03.09.2021
5879 Clouds 16 1021 75 10000 1.34 136 19:49 03.09.2021
5880 Clouds 16 1021 75 10000 0.89 188 18:59 03.09.2021
5881 Clouds 17 1022 75 10000 0.45 225 17:42 03.09.2021
5882 Clouds 17 1022 73 10000 1.79 187 16:25 03.09.2021
5883 Clouds 17 1023 74 10000 0.89 174 14:47 03.09.2021
5884 Clouds 15 1024 81 10000 0.89 155 11:57 03.09.2021
5885 Clouds 14 1025 83 10000 1.54 0 10:26 03.09.2021
5886 Clouds 14 1024 81 10000 0.89 330 08:44 03.09.2021
5887 Clouds 14 1024 82 10000 0.89 15 07:39 03.09.2021
5888 Clouds 15 1027 75 10000 0.89 183 00:44 03.09.2021
5889 Clouds 16 1028 75 10000 4.12 60 22:55 02.09.2021
5890 Clouds 17 1027 71 10000 1.34 97 21:25 02.09.2021
5891 Clear 20 1027 62 10000 0.89 86 19:27 02.09.2021
5892 Clouds 20 1029 63 10000 2.06 80 17:31 02.09.2021
5893 Clouds 20 1029 63 10000 2.06 80 17:31 02.09.2021
5894 Clouds 20 1030 69 10000 5.14 40 15:49 02.09.2021
5895 Clouds 18 1030 69 10000 0.89 132 13:56 02.09.2021
5896 Clouds 17 1030 71 10000 0.89 119 12:36 02.09.2021
5897 Clouds 15 1031 77 10000 0.45 283 11:33 02.09.2021
5898 Clouds 14 1031 78 10000 0.45 135 09:38 02.09.2021
5899 Clouds 13 1031 82 10000 2.57 60 07:45 02.09.2021
5900 Clouds 14 1032 80 10000 2.57 60 06:57 02.09.2021
5901 Clouds 14 1032 78 10000 0.89 211 02:44 02.09.2021
5902 Clouds 14 1032 78 10000 0.45 31 01:54 02.09.2021
5903 Clouds 14 1033 79 10000 3.09 80 01:19 02.09.2021
5904 Clouds 15 1033 76 10000 4.63 60 23:35 01.09.2021
5905 Clouds 15 1033 75 10000 5.14 40 22:34 01.09.2021
5906 Clouds 15 1032 72 10000 1.34 136 21:34 01.09.2021
5907 Clouds 17 1031 66 10000 0.89 175 19:59 01.09.2021
5908 Clouds 18 1033 71 10000 5.66 40 17:58 01.09.2021
5909 Clouds 18 1032 70 10000 0.45 99 17:35 01.09.2021
5910 Clouds 18 1032 70 10000 0.89 228 16:46 01.09.2021
5911 Clouds 17 1033 73 10000 0.89 85 15:24 01.09.2021
5912 Clouds 15 1033 87 10000 0.89 195 11:49 01.09.2021
5913 Clouds 14 1033 85 4600 0.89 191 10:55 01.09.2021
5914 Clouds 13 1033 86 10000 2.06 340 08:46 01.09.2021
5915 Clouds 13 1033 87 10000 2.06 350 07:50 01.09.2021
5916 Clouds 14 1033 85 10000 0.45 340 23:43 31.08.2021
5917 Clouds 15 1032 81 10000 0.89 164 22:29 31.08.2021
5918 Clouds 16 1032 73 10000 0.45 225 20:56 31.08.2021
5919 Clouds 16 1031 73 10000 0.45 113 19:44 31.08.2021
5920 Clouds 17 1032 71 10000 0.89 184 17:53 31.08.2021
5921 Clouds 17 1032 70 10000 1.34 193 17:33 31.08.2021
5922 Clouds 17 1032 67 10000 3.09 60 16:49 31.08.2021
5923 Clouds 16 1032 68 10000 0.89 176 15:59 31.08.2021
5924 Clouds 15 1032 77 10000 1.34 216 12:55 31.08.2021
5925 Clouds 14 1032 79 10000 0.89 0 11:25 31.08.2021
5926 Clouds 14 1031 81 10000 0.89 159 10:45 31.08.2021
5927 Clouds 13 1031 83 10000 1.34 224 09:43 31.08.2021
5928 Clouds 12 1031 85 10000 0.89 180 08:23 31.08.2021
5929 Clouds 12 1030 89 10000 0.45 203 05:57 31.08.2021
5930 Clouds 14 1029 78 10000 0.45 164 23:37 30.08.2021
5931 Clouds 15 1029 77 10000 0.89 214 22:55 30.08.2021
5932 Clouds 15 1029 78 10000 0.89 214 21:42 30.08.2021
5933 Clouds 16 1028 75 10000 0.89 180 20:42 30.08.2021
5934 Clouds 17 1028 72 10000 1.34 127 19:55 30.08.2021
5935 Clouds 17 1028 71 10000 0.89 323 19:28 30.08.2021
5936 Clouds 17 1028 68 10000 1.79 187 18:18 30.08.2021
5937 Clouds 18 1028 73 10000 0.45 5 16:32 30.08.2021
5938 Clouds 17 1028 71 10000 0.89 3 15:50 30.08.2021
5939 Clouds 17 1028 71 10000 0.89 164 14:24 30.08.2021
5940 Clouds 16 1028 73 10000 1.79 180 13:21 30.08.2021
5941 Clouds 16 1028 73 10000 1.34 145 11:48 30.08.2021
5942 Clouds 13 1027 81 10000 2.57 10 08:22 30.08.2021
5943 Clouds 15 1027 70 10000 0.89 203 21:57 29.08.2021
5944 Clouds 16 1026 66 10000 0.45 66 20:54 29.08.2021
5945 Clouds 17 1026 62 10000 0.89 192 19:28 29.08.2021
5946 Clouds 18 1026 61 10000 1.79 170 18:25 29.08.2021
5947 Clouds 19 1027 62 10000 1.34 193 15:58 29.08.2021
5948 Clouds 18 1027 65 10000 0.45 173 14:28 29.08.2021
5949 Clouds 17 1027 66 10000 1.34 195 13:55 29.08.2021
5950 Clouds 17 1027 67 10000 1.34 152 12:58 29.08.2021
5951 Clouds 16 1027 69 10000 1.34 154 12:18 29.08.2021
5952 Clouds 16 1027 72 10000 1.34 163 11:40 29.08.2021
5953 Clouds 15 1027 75 10000 0.89 177 10:46 29.08.2021
5954 Clouds 15 1026 80 10000 1.34 194 10:28 29.08.2021
5955 Clear 14 1027 85 10000 0.45 180 09:30 29.08.2021
5956 Clouds 12 1026 92 10000 1.03 0 04:18 29.08.2021
5957 Clouds 16 1027 76 10000 1.54 300 22:43 28.08.2021
5958 Clouds 19 1026 66 10000 0.89 127 20:31 28.08.2021
5959 Clouds 21 1026 57 10000 0.45 152 19:20 28.08.2021
5960 Clouds 22 1026 52 10000 0.45 166 18:22 28.08.2021
5961 Clouds 22 1027 54 10000 2.06 310 17:45 28.08.2021
5962 Clouds 22 1027 51 10000 0.45 73 16:28 28.08.2021
5963 Clouds 21 1027 57 10000 0.45 180 14:51 28.08.2021
5964 Clouds 20 1027 59 10000 0.45 180 13:47 28.08.2021
5965 Clear 19 1028 67 10000 1.03 0 12:47 28.08.2021
5966 Clear 18 1028 69 10000 1.54 0 12:24 28.08.2021
5967 Clear 16 1027 79 10000 0.89 222 10:45 28.08.2021
5968 Clear 13 1027 83 10000 1.54 50 09:33 28.08.2021
5969 Clear 9 1027 92 10000 0.51 0 07:26 28.08.2021
5970 Clouds 14 1027 75 10000 3.09 60 22:57 27.08.2021
5971 Clouds 16 1026 68 10000 0.45 222 21:26 27.08.2021
5972 Clouds 16 1025 65 10000 0.89 162 20:35 27.08.2021
5973 Clouds 17 1025 62 10000 0.45 62 19:29 27.08.2021
5974 Clouds 18 1025 62 10000 1.34 101 18:38 27.08.2021
5975 Clouds 18 1025 60 10000 1.34 221 17:30 27.08.2021
5976 Clouds 18 1024 61 10000 0.89 180 16:28 27.08.2021
5977 Clouds 18 1025 62 10000 0.89 135 14:44 27.08.2021
5978 Clouds 16 1025 72 10000 0.45 306 12:55 27.08.2021
5979 Clouds 15 1025 73 10000 0.89 141 11:38 27.08.2021
5980 Clouds 15 1025 77 10000 3.09 30 10:45 27.08.2021
5981 Clouds 14 1025 75 10000 0.45 126 09:51 27.08.2021
5982 Clouds 13 1024 77 10000 0.45 210 08:48 27.08.2021
5983 Clouds 12 1024 76 10000 2.06 10 07:39 27.08.2021
5984 Clouds 12 1025 80 10000 1.54 0 05:31 27.08.2021
5985 Clouds 13 1024 76 10000 0.45 171 00:37 27.08.2021
5986 Clear 14 1024 75 10000 0.45 0 23:28 26.08.2021
5987 Clear 14 1024 72 10000 0.89 348 22:19 26.08.2021
5988 Clear 14 1024 72 10000 0.89 348 22:19 26.08.2021
5989 Clear 14 1024 72 10000 0.89 348 22:19 26.08.2021
5990 Clear 16 1023 67 10000 0.89 0 21:28 26.08.2021
5991 Clear 19 1022 59 10000 1.34 168 19:20 26.08.2021
5992 Clear 20 1023 56 10000 0.89 180 17:45 26.08.2021
5993 Clear 20 1023 56 10000 1.79 138 16:44 26.08.2021
5994 Clouds 20 1023 56 10000 1.34 117 16:26 26.08.2021
5995 Clouds 19 1023 59 10000 0.89 21 13:53 26.08.2021
5996 Clouds 18 1024 62 10000 1.34 174 12:57 26.08.2021
5997 Clouds 18 1024 62 10000 1.79 219 12:31 26.08.2021
5998 Clouds 16 1023 72 10000 1.34 188 10:21 26.08.2021
5999 Clouds 16 1023 82 10000 0.89 177 08:34 26.08.2021
6000 Clouds 16 1023 87 10000 0.45 189 06:34 26.08.2021
6001 Clouds 17 1025 88 10000 0.51 0 22:54 25.08.2021
6002 Clouds 17 1024 82 10000 2.06 290 22:35 25.08.2021
6003 Clouds 18 1024 79 10000 2.57 300 21:42 25.08.2021
6004 Clouds 20 1024 74 10000 2.06 320 20:48 25.08.2021
6005 Clouds 20 1024 72 10000 1.54 310 20:28 25.08.2021
6006 Clouds 21 1025 67 10000 1.03 0 18:42 25.08.2021
6007 Clouds 22 1025 61 10000 0.45 170 17:36 25.08.2021
6008 Clouds 22 1026 63 10000 0.45 194 15:44 25.08.2021
6009 Clouds 21 1027 67 10000 0.45 180 14:48 25.08.2021
6010 Clouds 20 1027 69 10000 0.45 225 14:29 25.08.2021
6011 Clouds 18 1027 77 10000 0.45 210 12:56 25.08.2021
6012 Clouds 16 1028 80 10000 0.89 32 11:26 25.08.2021
6013 Clouds 16 1028 82 10000 0.89 84 10:40 25.08.2021
6014 Clouds 15 1028 82 10000 0.45 90 09:51 25.08.2021
6015 Clouds 15 1028 83 10000 0.45 0 08:42 25.08.2021
6016 Clouds 14 1028 84 10000 0.45 235 08:21 25.08.2021
6017 Clouds 14 1029 91 10000 0.45 225 03:49 25.08.2021
6018 Clouds 15 1030 86 10000 1.03 120 23:44 24.08.2021
6019 Clouds 18 1030 76 10000 1.03 0 21:48 24.08.2021
6020 Clouds 18 1030 76 10000 1.03 0 21:48 24.08.2021
6021 Clouds 19 1030 71 10000 0.45 21 20:46 24.08.2021
6022 Clouds 20 1031 68 10000 2.06 80 19:45 24.08.2021
6023 Clouds 20 1030 65 10000 0.45 9 17:58 24.08.2021
6024 Clouds 20 1031 70 10000 2.06 60 17:26 24.08.2021
6025 Clouds 20 1031 70 10000 3.6 50 16:41 24.08.2021
6026 Clouds 19 1031 72 10000 2.06 60 14:25 24.08.2021
6027 Clouds 18 1032 72 10000 0.45 108 13:24 24.08.2021
6028 Clouds 17 1032 76 10000 0.89 167 11:26 24.08.2021
6029 Clouds 17 1032 78 10000 0.45 5 10:48 24.08.2021
6030 Clouds 17 1032 80 10000 0.89 143 10:25 24.08.2021
6031 Clouds 16 1031 82 10000 1.03 0 08:49 24.08.2021
6032 Clouds 16 1031 81 10000 0.45 180 06:36 24.08.2021
6033 Clouds 16 1031 81 10000 0.45 165 04:40 24.08.2021
6034 Clouds 16 1031 78 10000 1.34 180 00:28 24.08.2021
6035 Clouds 18 1030 70 10000 1.34 141 22:51 23.08.2021
6036 Clouds 18 1030 67 10000 0.45 55 21:54 23.08.2021
6037 Clouds 20 1030 63 10000 2.57 60 20:27 23.08.2021
6038 Clouds 22 1030 56 10000 3.09 30 18:47 23.08.2021
6039 Clouds 23 1029 54 10000 1.34 169 16:29 23.08.2021
6040 Clouds 21 1030 63 10000 2.57 80 13:58 23.08.2021
6041 Clouds 20 1029 67 10000 0.45 125 12:34 23.08.2021
6042 Clouds 19 1029 69 10000 0.45 225 11:48 23.08.2021
6043 Clouds 18 1028 74 10000 0.45 165 10:36 23.08.2021
6044 Clouds 16 1028 87 10000 3.09 60 09:24 23.08.2021
6045 Clouds 15 1028 93 10000 1.54 80 07:54 23.08.2021
6046 Clouds 16 1027 91 10000 0.51 0 06:47 23.08.2021
6047 Clouds 16 1026 91 10000 1.03 230 04:46 23.08.2021
6048 Clouds 16 1025 88 10000 1.54 310 00:48 23.08.2021
6049 Clouds 17 1024 86 10000 0.89 148 22:43 22.08.2021
6050 Clouds 17 1023 82 10000 0.45 182 21:37 22.08.2021
6051 Clouds 18 1022 79 10000 1.34 143 20:21 22.08.2021
6052 Clouds 19 1022 76 10000 4.63 300 18:54 22.08.2021
6053 Clouds 21 1020 73 10000 1.34 110 16:27 22.08.2021
6054 Clouds 20 1019 80 10000 0.89 55 14:55 22.08.2021
6055 Clouds 19 1020 86 10000 3.6 280 13:59 22.08.2021
6056 Clouds 19 1019 86 10000 0.89 108 13:20 22.08.2021
6057 Clouds 19 1019 86 10000 0.89 108 13:20 22.08.2021
6058 Clouds 19 1019 86 10000 0.89 108 13:20 22.08.2021
6059 Clouds 18 1019 88 10000 0.89 135 12:50 22.08.2021
6060 Clouds 17 1018 91 10000 0.45 136 11:53 22.08.2021
6061 Clouds 17 1018 90 10000 0.45 68 11:33 22.08.2021
6062 Clouds 16 1017 96 10000 2.06 270 09:27 22.08.2021
6063 Clouds 16 1015 96 8000 1.54 290 07:55 22.08.2021
6064 Mist 16 1014 98 4300 1.54 240 04:44 22.08.2021
6065 Clear 16 1013 94 10000 0.51 0 22:42 21.08.2021
6066 Haze 16 1013 93 1900 0.51 0 22:22 21.08.2021
6067 Clouds 17 1013 90 10000 0.45 326 18:59 21.08.2021
6068 Rain 18 1013 89 10000 0.45 315 18:39 21.08.2021
6069 Rain 18 1013 88 10000 1.34 315 17:18 21.08.2021
6070 Rain 18 1013 87 10000 1.34 323 16:49 21.08.2021
6071 Clouds 19 1013 87 10000 0.89 315 15:40 21.08.2021
6072 Rain 18 1013 88 10000 0.45 315 15:22 21.08.2021
6073 Rain 18 1014 92 10000 0.45 315 13:43 21.08.2021
6074 Rain 17 1014 93 10000 0.45 118 12:40 21.08.2021
6075 Rain 17 1014 91 3600 3.09 230 11:55 21.08.2021
6076 Clouds 17 1014 94 10000 1.54 0 09:18 21.08.2021
6077 Rain 18 1015 91 8000 0.45 114 00:51 21.08.2021
6078 Clouds 19 1015 79 10000 0.45 310 22:31 20.08.2021
6079 Clouds 20 1014 75 10000 0.89 327 19:49 20.08.2021
6080 Clouds 21 1014 71 10000 0.89 194 17:45 20.08.2021
6081 Clouds 22 1015 68 10000 2.06 210 14:35 20.08.2021
6082 Clouds 20 1014 75 10000 1.34 312 12:18 20.08.2021
6083 Clouds 19 1014 81 10000 1.34 276 11:29 20.08.2021
6084 Clear 17 1013 89 10000 0.45 315 10:22 20.08.2021
6085 Haze 16 1013 94 2700 0.45 328 09:27 20.08.2021
6086 Clouds 15 1013 95 10000 0.45 315 08:36 20.08.2021
6087 Clouds 16 1012 97 10000 0.51 0 04:42 20.08.2021
6088 Clouds 16 1012 97 10000 1.03 210 04:20 20.08.2021
6089 Clouds 16 1012 92 10000 0.45 135 23:27 19.08.2021
6090 Clouds 17 1011 91 10000 0.45 164 22:37 19.08.2021
6091 Clouds 17 1011 91 10000 1.54 220 21:50 19.08.2021
6092 Clouds 18 1010 87 10000 1.54 0 20:19 19.08.2021
6093 Clouds 19 1011 81 10000 2.06 190 17:52 19.08.2021
6094 Clouds 18 1011 82 10000 1.34 326 16:42 19.08.2021
6095 Clouds 16 1012 91 9000 0.89 331 14:33 19.08.2021
6096 Rain 16 1012 87 5000 0.45 300 12:45 19.08.2021
6097 Rain 16 1012 83 10000 0.89 114 12:27 19.08.2021
6098 Clouds 16 1012 82 10000 0.89 60 10:47 19.08.2021
6099 Clouds 15 1012 88 10000 0.45 228 09:48 19.08.2021
6100 Clouds 15 1012 90 10000 2.06 200 09:26 19.08.2021
6101 Clouds 14 1012 95 10000 0.45 0 08:25 19.08.2021
6102 Clouds 14 1013 95 10000 0.89 63 03:34 19.08.2021
6103 Clouds 15 1013 94 10000 0.45 58 01:58 19.08.2021
6104 Clouds 15 1013 94 10000 0.45 58 01:58 19.08.2021
6105 Drizzle 15 1014 94 4700 0.89 94 23:21 18.08.2021
6106 Clouds 15 1014 91 10000 0.89 87 22:25 18.08.2021
6107 Clouds 15 1014 88 10000 0.89 57 20:41 18.08.2021
6108 Clouds 15 1014 87 10000 1.34 213 20:18 18.08.2021
6109 Clouds 16 1014 87 10000 0.89 118 18:58 18.08.2021
6110 Clouds 16 1015 87 10000 0.89 172 18:33 18.08.2021
6111 Clouds 16 1015 91 10000 1.79 315 16:41 18.08.2021
6112 Clouds 16 1015 91 10000 1.79 172 15:40 18.08.2021
6113 Clouds 16 1015 89 10000 1.34 102 15:21 18.08.2021
6114 Clouds 16 1015 92 10000 1.34 140 12:44 18.08.2021
6115 Clouds 15 1016 92 10000 1.34 110 12:26 18.08.2021
6116 Clouds 15 1016 91 10000 1.34 119 11:22 18.08.2021
6117 Clouds 14 1016 94 10000 0.89 110 07:49 18.08.2021
6118 Drizzle 15 1017 93 2500 1.34 176 00:59 18.08.2021
6119 Clouds 16 1018 91 10000 0.45 341 22:38 17.08.2021
6120 Clouds 16 1018 91 10000 0.89 51 21:46 17.08.2021
6121 Clouds 16 1018 90 10000 1.34 79 20:45 17.08.2021
6122 Clouds 16 1018 87 10000 0.89 175 19:20 17.08.2021
6123 Clouds 17 1018 84 10000 0.89 105 17:33 17.08.2021
6124 Clouds 17 1017 89 10000 1.34 243 16:46 17.08.2021
6125 Clouds 17 1017 92 2900 0.89 141 15:40 17.08.2021
6126 Clouds 16 1017 93 8000 1.79 87 14:39 17.08.2021
6127 Drizzle 15 1017 96 5000 1.34 166 12:35 17.08.2021
6128 Drizzle 14 1017 96 4200 1.34 124 09:22 17.08.2021
6129 Rain 14 1017 96 9000 1.34 59 07:54 17.08.2021
6130 Rain 14 1018 94 10000 1.34 152 05:48 17.08.2021
6131 Clouds 15 1020 84 10000 0.45 103 23:18 16.08.2021
6132 Clouds 15 1020 84 10000 0.89 54 22:46 16.08.2021
6133 Rain 15 1020 82 10000 0.45 90 22:27 16.08.2021
6134 Clouds 15 1019 80 10000 0.89 143 21:36 16.08.2021
6135 Clouds 15 1019 78 10000 1.34 141 20:49 16.08.2021
6136 Clouds 16 1019 78 10000 1.79 153 19:25 16.08.2021
6137 Clouds 16 1018 76 10000 1.79 117 18:25 16.08.2021
6138 Rain 16 1018 76 10000 1.34 142 17:51 16.08.2021
6139 Clouds 16 1017 80 10000 1.79 145 15:49 16.08.2021
6140 Clouds 16 1017 81 10000 2.24 153 14:56 16.08.2021
6141 Clouds 16 1016 78 10000 2.24 68 13:38 16.08.2021
6142 Rain 15 1016 85 5000 1.34 212 12:55 16.08.2021
6143 Clouds 15 1015 85 10000 1.34 105 10:38 16.08.2021
6144 Clouds 14 1013 84 10000 0.89 181 08:49 16.08.2021
6145 Clouds 14 1013 82 10000 1.34 149 07:35 16.08.2021
6146 Clouds 14 1012 81 9000 1.79 167 06:44 16.08.2021
6147 Clouds 14 1011 82 10000 1.34 129 02:22 16.08.2021
6148 Clouds 14 1011 82 10000 0.89 138 22:49 15.08.2021
6149 Clouds 16 1010 83 10000 0.89 159 20:41 15.08.2021
6150 Clouds 18 1009 79 10000 1.34 125 18:47 15.08.2021
6151 Clouds 18 1009 81 9000 1.34 180 17:56 15.08.2021
6152 Clouds 18 1009 83 9000 1.34 165 17:33 15.08.2021
6153 Clouds 18 1010 89 1800 0.45 135 16:24 15.08.2021
6154 Clouds 18 1010 80 10000 0.89 99 14:47 15.08.2021
6155 Clouds 18 1010 76 10000 1.34 42 13:55 15.08.2021
6156 Clouds 18 1011 74 10000 0.89 180 11:22 15.08.2021
6157 Clouds 16 1012 95 10000 0.45 72 08:59 15.08.2021
6158 Clouds 15 1014 93 10000 1.03 140 01:56 15.08.2021
6159 Clouds 15 1015 91 10000 1.03 0 00:37 15.08.2021
6160 Clouds 15 1016 90 10000 1.54 0 21:59 14.08.2021
6161 Clouds 15 1016 90 10000 1.03 0 20:58 14.08.2021
6162 Clouds 15 1017 90 10000 2.06 50 19:44 14.08.2021
6163 Clouds 16 1017 87 10000 0.45 315 18:40 14.08.2021
6164 Clouds 17 1017 74 1800 0.45 92 16:59 14.08.2021
6165 Clouds 17 1017 74 10000 0.89 251 15:47 14.08.2021
6166 Rain 18 1018 71 10000 1.34 173 14:24 14.08.2021
6167 Clouds 18 1017 70 10000 1.34 351 11:59 14.08.2021
6168 Clouds 17 1017 74 10000 0.89 72 10:45 14.08.2021
6169 Clouds 15 1017 85 10000 0.89 308 07:39 14.08.2021
6170 Clouds 16 1017 77 10000 0.45 281 23:53 13.08.2021
6171 Clouds 17 1017 73 10000 0.89 13 22:26 13.08.2021
6172 Clouds 19 1017 59 10000 1.79 126 20:27 13.08.2021
6173 Clouds 20 1017 65 10000 6.69 230 18:47 13.08.2021
6174 Clouds 20 1017 61 10000 2.24 117 17:42 13.08.2021
6175 Clouds 21 1016 48 10000 1.79 109 16:19 13.08.2021
6176 Clouds 19 1016 62 10000 1.79 172 12:18 13.08.2021
6177 Clouds 18 1016 69 10000 1.34 183 11:19 13.08.2021
6178 Clouds 15 1016 85 10000 1.34 313 08:59 13.08.2021
6179 Clouds 14 1015 86 10000 1.79 268 08:35 13.08.2021
6180 Clouds 13 1015 87 10000 1.79 295 06:43 13.08.2021
6181 Clouds 14 1015 88 10000 1.34 298 04:59 13.08.2021
6182 Clear 17 1014 69 10000 0.89 289 22:34 12.08.2021
6183 Clear 18 1014 61 10000 1.34 45 21:20 12.08.2021
6184 Clouds 20 1015 57 10000 5.66 220 19:55 12.08.2021
6185 Clouds 21 1014 53 10000 1.34 296 19:27 12.08.2021
6186 Clouds 21 1013 55 10000 1.34 352 17:26 12.08.2021
6187 Clouds 21 1014 54 10000 0.89 266 16:28 12.08.2021
6188 Clouds 20 1015 58 10000 1.79 349 14:31 12.08.2021
6189 Clouds 18 1015 65 10000 0.89 264 12:23 12.08.2021
6190 Clouds 15 1015 84 10000 0.89 314 09:59 12.08.2021
6191 Clouds 12 1015 94 10000 1.03 0 07:53 12.08.2021
6192 Clouds 15 1015 94 10000 0.45 315 00:48 12.08.2021
6193 Clouds 18 1013 90 10000 1.79 320 21:56 11.08.2021
6194 Clouds 19 1013 77 10000 1.79 284 19:36 11.08.2021
6195 Clouds 20 1013 77 10000 1.34 321 18:27 11.08.2021
6196 Clouds 20 1014 71 10000 1.79 248 15:38 11.08.2021
6197 Clouds 20 1014 74 10000 2.24 297 15:20 11.08.2021
6198 Clouds 20 1014 72 10000 1.79 296 14:20 11.08.2021
6199 Clouds 18 1015 76 10000 0.89 306 12:30 11.08.2021
6200 Clouds 18 1015 77 10000 0.89 301 11:46 11.08.2021
6201 Clouds 17 1015 78 10000 0.89 331 11:22 11.08.2021
6202 Clouds 15 1015 84 10000 0.89 296 09:45 11.08.2021
6203 Clear 13 1016 91 10000 1.03 0 07:49 11.08.2021
6204 Clouds 15 1015 80 10000 0.51 270 23:31 10.08.2021
6205 Clouds 16 1015 75 10000 0.45 155 22:29 10.08.2021
6206 Clouds 18 1014 69 10000 0.89 164 20:57 10.08.2021
6207 Clouds 19 1015 67 10000 4.12 280 19:42 10.08.2021
6208 Clouds 20 1015 64 10000 3.6 290 18:31 10.08.2021
6209 Clouds 21 1014 65 10000 1.34 168 15:58 10.08.2021
6210 Clouds 20 1014 68 10000 1.79 70 14:42 10.08.2021
6211 Clouds 18 1013 81 10000 0.45 171 11:53 10.08.2021
6212 Clouds 16 1012 95 10000 3.09 230 09:48 10.08.2021
6213 Clouds 14 1011 94 10000 2.06 190 06:47 10.08.2021
6214 Rain 14 1011 90 10000 2.06 180 04:58 10.08.2021
6215 Clouds 15 1010 86 10000 0.45 303 23:38 09.08.2021
6216 Clouds 16 1010 84 10000 2.06 220 21:54 09.08.2021
6217 Clouds 17 1009 79 10000 0.45 84 21:32 09.08.2021
6218 Clouds 18 1009 80 10000 0.89 325 19:35 09.08.2021
6219 Clouds 20 1008 58 10000 1.79 91 16:58 09.08.2021
6220 Clouds 20 1009 61 10000 4.12 240 15:30 09.08.2021
6221 Clouds 18 1008 66 10000 0.89 22 13:32 09.08.2021
6222 Clouds 18 1008 74 10000 0.89 77 12:46 09.08.2021
6223 Clouds 16 1007 88 10000 0.89 39 10:43 09.08.2021
6224 Rain 13 1007 93 10000 2.06 180 08:25 09.08.2021
6225 Clouds 15 1006 81 10000 3.6 220 22:41 08.08.2021
6226 Clouds 16 1004 77 10000 0.45 90 21:25 08.08.2021
6227 Clouds 16 1003 79 10000 1.34 76 18:50 08.08.2021
6228 Clouds 16 1002 87 10000 1.79 64 16:53 08.08.2021
6229 Clouds 17 1000 86 10000 2.24 41 15:30 08.08.2021
6230 Clouds 16 998 95 10000 1.34 86 12:49 08.08.2021
6231 Rain 15 997 96 3000 0.45 179 10:44 08.08.2021
6232 Rain 15 995 96 10000 1.34 309 06:43 08.08.2021
6233 Drizzle 14 995 95 4900 1.34 293 05:35 08.08.2021
6234 Clouds 15 994 95 2300 1.34 292 00:29 08.08.2021
6235 Clouds 15 994 95 10000 1.34 254 22:19 07.08.2021
6236 Clouds 15 993 94 10000 1.34 322 21:39 07.08.2021
6237 Clouds 17 992 84 10000 2.24 278 18:59 07.08.2021
6238 Clouds 17 992 92 10000 0.89 313 17:27 07.08.2021
6239 Rain 16 992 89 10000 1.79 315 16:25 07.08.2021
6240 Clouds 16 992 88 10000 2.68 291 14:25 07.08.2021
6241 Rain 15 992 89 4900 1.34 299 12:26 07.08.2021
6242 Clouds 15 992 81 10000 0.89 313 09:45 07.08.2021
6243 Clear 14 994 87 10000 1.34 323 04:56 07.08.2021
6244 Clouds 15 995 80 10000 1.34 304 23:54 06.08.2021
6245 Clouds 17 995 68 10000 0.89 100 21:22 06.08.2021
6246 Clouds 18 995 68 10000 5.66 230 20:27 06.08.2021
6247 Clouds 18 994 68 10000 1.34 143 19:55 06.08.2021
6248 Clouds 19 994 68 10000 2.24 118 17:51 06.08.2021
6249 Rain 17 993 91 10000 0.45 169 13:42 06.08.2021
6250 Rain 16 991 93 10000 1.79 287 09:58 06.08.2021
6251 Rain 16 991 91 10000 1.34 310 09:25 06.08.2021
6252 Clouds 16 993 95 10000 0.45 0 00:39 06.08.2021
6253 Clouds 16 994 94 10000 0.45 351 23:26 05.08.2021
6254 Clouds 16 995 89 10000 0.89 343 21:31 05.08.2021
6255 Clouds 16 996 91 10000 1.34 334 19:53 05.08.2021
6256 Clouds 17 997 75 10000 2.24 343 18:26 05.08.2021
6257 Clouds 18 1000 71 10000 3.6 150 15:47 05.08.2021
6258 Clouds 18 1002 70 10000 1.79 322 12:52 05.08.2021
6259 Clouds 17 1004 73 10000 1.79 335 09:56 05.08.2021
6260 Clouds 15 1005 83 10000 0.45 315 08:19 05.08.2021
6261 Clear 15 1008 90 10000 1.54 0 02:51 05.08.2021
6262 Clouds 16 1010 86 10000 1.54 0 22:41 04.08.2021
6263 Clouds 17 1010 86 10000 0.45 171 21:26 04.08.2021
6264 Rain 20 1009 64 10000 0.45 347 19:25 04.08.2021
6265 Clouds 22 1010 59 10000 1.79 299 17:23 04.08.2021
6266 Clouds 22 1011 60 10000 1.34 138 14:46 04.08.2021
6267 Clouds 21 1012 63 10000 0.45 202 12:23 04.08.2021
6268 Clouds 12 1012 89 10000 1.54 80 07:38 04.08.2021
6269 Clouds 20 1011 58 10000 0.89 187 20:58 03.08.2021
6270 Clouds 21 1011 54 10000 0.45 153 20:26 03.08.2021
6271 Clouds 21 1012 50 10000 2.06 260 18:42 03.08.2021
6272 Clouds 22 1011 47 10000 0.89 148 16:58 03.08.2021
6273 Clouds 20 1012 57 10000 0.45 330 13:57 03.08.2021
6274 Clear 16 1013 72 10000 1.03 0 10:57 03.08.2021
6275 Clear 14 1013 83 10000 1.03 0 09:42 03.08.2021
6276 Clouds 14 1014 73 10000 0.45 68 22:58 02.08.2021
6277 Clouds 19 1013 60 10000 0.89 152 16:40 02.08.2021
6278 Clouds 19 1015 60 10000 2.57 270 15:33 02.08.2021
6279 Clouds 18 1015 67 10000 2.06 0 12:40 02.08.2021
6280 Clouds 18 1014 73 10000 0.89 306 11:57 02.08.2021
6281 Clouds 15 1014 79 10000 0.89 315 09:51 02.08.2021
6282 Clouds 13 1014 76 10000 1.54 0 05:30 02.08.2021
6283 Clouds 18 1012 63 10000 0.45 108 18:27 01.08.2021
6284 Clouds 18 1011 64 10000 0.45 20 15:31 01.08.2021
6285 Clouds 15 1010 86 10000 1.03 0 11:38 01.08.2021
6286 Clouds 14 1010 91 3000 2.06 280 09:37 01.08.2021
6287 Clouds 13 1009 94 10000 1.54 280 03:48 01.08.2021
6288 Rain 15 1009 83 10000 0.45 135 22:52 31.07.2021
6289 Clouds 16 1008 78 10000 0.89 135 20:54 31.07.2021
6290 Clouds 17 1008 72 10000 0.89 159 17:49 31.07.2021
6291 Clouds 17 1008 73 10000 0.89 63 16:36 31.07.2021
6292 Clouds 16 1007 82 10000 0.89 175 12:50 31.07.2021
6293 Clouds 16 1007 82 10000 0.89 175 12:50 31.07.2021
6294 Clouds 15 1006 92 10000 0.45 141 08:53 31.07.2021
6295 Clouds 15 1006 94 10000 2.57 290 01:39 31.07.2021
6296 Clouds 15 1004 89 10000 5.14 290 20:31 30.07.2021
6297 Clouds 15 1004 88 10000 5.14 280 19:58 30.07.2021
6298 Rain 13 1001 91 4000 0.45 13 08:31 30.07.2021
6299 Clouds 16 1007 79 10000 1.79 124 17:33 29.07.2021
6300 Clouds 13 1004 93 10000 0.89 151 06:32 29.07.2021
6301 Clouds 13 1003 95 10000 0.45 310 04:29 29.07.2021
6302 Clouds 13 1003 83 10000 0.45 32 21:22 28.07.2021
6303 Rain 14 1002 93 10000 1.03 0 17:22 28.07.2021
6304 Clouds 16 1002 85 10000 0.45 324 15:25 28.07.2021
6305 Clouds 15 1004 94 10000 0.45 291 07:53 28.07.2021
6306 Rain 16 1005 93 7000 0.45 30 22:54 27.07.2021
6307 Rain 18 1005 84 10000 0.45 105 21:27 27.07.2021
6308 Clouds 21 1007 66 10000 1.54 0 14:52 27.07.2021
6309 Clouds 18 1007 86 8000 0.89 300 10:46 27.07.2021
6310 Clouds 16 1007 91 10000 0.89 304 07:59 27.07.2021
6311 Clouds 24 1008 56 10000 0.45 107 15:48 26.07.2021
6312 Clouds 23 1008 60 10000 0.89 147 14:49 26.07.2021
6313 Clouds 16 1010 91 10000 1.54 170 04:51 26.07.2021
6314 Clouds 21 1009 63 10000 4.63 280 20:56 25.07.2021
6315 Clouds 24 1008 49 10000 0.89 204 18:24 25.07.2021
6316 Clouds 23 1008 52 10000 0.45 142 15:45 25.07.2021
6317 Clouds 19 1009 69 10000 0.45 129 10:55 25.07.2021
6318 Clouds 15 1009 82 10000 1.03 50 08:19 25.07.2021
6319 Clouds 20 1009 64 10000 1.79 199 20:24 24.07.2021
6320 Clouds 20 1010 62 10000 1.34 0 19:55 24.07.2021
6321 Clouds 19 1010 65 10000 1.34 240 13:38 24.07.2021
6322 Clouds 19 1014 70 10000 0.89 82 21:47 23.07.2021
6323 Clouds 23 1017 68 10000 0.45 326 14:36 23.07.2021
6324 Clouds 23 1017 68 10000 0.45 326 14:36 23.07.2021
6325 Clouds 23 1018 71 10000 0.89 313 12:41 23.07.2021
6326 Clear 17 1020 80 10000 3.6 40 04:48 23.07.2021
6327 Clouds 30 1021 40 10000 2.06 230 17:44 22.07.2021
6328 Clear 26 1023 60 10000 0.45 148 11:21 22.07.2021
6329 Clear 20 1023 84 10000 0.51 0 08:34 22.07.2021
6330 Clouds 20 1023 82 10000 0.45 315 02:28 22.07.2021
6331 Clouds 25 1022 63 10000 0.45 323 21:43 21.07.2021
6332 Clouds 26 1022 61 10000 0.45 290 21:23 21.07.2021
6333 Clear 24 1023 67 10000 0.45 296 11:54 21.07.2021
6334 Clear 20 1023 81 10000 1.03 0 09:20 21.07.2021
6335 Haze 16 1022 91 5000 0.51 0 06:50 21.07.2021
6336 Clear 22 1021 70 10000 2.06 290 22:34 20.07.2021
6337 Clear 28 1020 47 10000 4.12 300 16:37 20.07.2021
6338 Clear 28 1020 49 10000 3.09 260 15:28 20.07.2021
6339 Haze 27 1019 54 2500 1.34 144 12:55 20.07.2021
6340 Clear 19 1019 86 10000 0.51 140 08:27 20.07.2021
6341 Clouds 18 1019 87 10000 1.54 170 03:20 20.07.2021
6342 Clouds 27 1020 54 10000 3.09 330 19:57 19.07.2021
6343 Clear 26 1021 58 10000 0.89 161 12:52 19.07.2021
6344 Clear 26 1021 58 10000 0.89 161 12:52 19.07.2021
6345 Clear 16 1022 92 10000 1.54 170 07:39 19.07.2021
6346 Clouds 29 1025 51 10000 3.6 280 17:22 18.07.2021
6347 Clear 23 1026 73 10000 1.03 0 10:53 18.07.2021
6348 Clouds 20 1028 73 10000 0.51 340 23:36 17.07.2021
6349 Clear 22 1028 68 10000 3.09 290 22:18 17.07.2021
6350 Clear 24 1028 60 10000 3.09 290 21:41 17.07.2021
6351 Clear 28 1028 54 10000 4.12 300 17:33 17.07.2021
6352 Clear 24 1029 70 10000 0.45 90 11:34 17.07.2021
6353 Clear 16 1029 92 10000 1.03 140 04:48 17.07.2021
6354 Clouds 25 1027 56 10000 0.89 195 17:41 16.07.2021
6355 Clear 25 1027 63 10000 0.89 147 13:19 16.07.2021
6356 Mist 14 1026 94 5000 0.45 0 07:25 16.07.2021
6357 Clouds 21 1025 72 10000 4.12 290 20:39 15.07.2021
6358 Clouds 22 1023 63 10000 0.45 124 13:51 15.07.2021
6359 Clouds 17 1023 79 10000 0.89 173 09:52 15.07.2021
6360 Clouds 16 1021 83 10000 1.03 0 00:32 15.07.2021
6361 Clouds 21 1019 61 10000 1.79 93 16:56 14.07.2021
6362 Clouds 20 1019 66 10000 1.79 172 12:48 14.07.2021
6363 Clouds 14 1018 93 6000 1.03 0 04:44 14.07.2021
6364 Clouds 20 1017 75 10000 5.66 310 20:47 13.07.2021
6365 Clouds 21 1017 70 10000 6.17 300 19:52 13.07.2021
6366 Clouds 21 1017 68 10000 5.66 300 19:24 13.07.2021
6367 Clouds 22 1017 66 10000 5.66 310 18:44 13.07.2021
6368 Clouds 22 1017 68 10000 5.66 310 18:24 13.07.2021
6369 Clouds 22 1017 68 10000 4.63 300 17:30 13.07.2021
6370 Clouds 17 1015 88 10000 0.89 180 09:49 13.07.2021
6371 Clouds 16 1013 95 10000 2.57 360 00:26 13.07.2021
6372 Rain 18 1010 90 10000 0.45 143 17:34 12.07.2021
6373 Rain 17 1011 93 10000 0.45 315 15:21 12.07.2021
6374 Rain 15 1010 96 10000 0.51 0 07:58 12.07.2021
6375 Clouds 18 1011 73 10000 1.54 0 21:58 11.07.2021
6376 Clouds 21 1013 65 7000 0.45 332 15:50 11.07.2021
6377 Mist 15 1014 93 2000 1.03 150 02:31 11.07.2021
6378 Clouds 21 1013 71 10000 0.89 14 17:38 10.07.2021
6379 Clouds 16 1015 91 10000 1.54 70 07:58 10.07.2021
6380 Clouds 15 1015 92 10000 0.51 0 07:22 10.07.2021
6381 Clouds 20 1018 66 10000 1.54 0 20:42 09.07.2021
6382 Clouds 21 1021 64 10000 1.54 0 14:52 09.07.2021
6383 Clouds 20 1020 68 10000 0.45 318 12:55 09.07.2021
6384 Clouds 15 1021 82 10000 2.06 300 00:48 09.07.2021
6385 Clouds 16 1021 74 10000 2.57 300 22:52 08.07.2021
6386 Clouds 20 1020 64 10000 4.12 290 20:20 08.07.2021
6387 Clouds 22 1019 57 10000 1.34 128 18:23 08.07.2021
6388 Clouds 20 1018 70 10000 0.89 29 13:50 08.07.2021
6389 Clouds 20 1018 70 10000 1.34 131 13:30 08.07.2021
6390 Clouds 20 1018 70 10000 1.34 131 13:30 08.07.2021
6391 Clouds 19 1019 76 10000 2.06 310 12:35 08.07.2021
6392 Clouds 18 1018 77 10000 0.89 121 11:19 08.07.2021
6393 Mist 13 1016 95 5000 1.54 150 06:33 08.07.2021
6394 Clouds 14 1015 93 9000 1.54 280 03:50 08.07.2021
6395 Clouds 16 1014 83 10000 2.06 260 22:59 07.07.2021
6396 Clouds 17 1013 79 10000 2.06 250 22:19 07.07.2021
6397 Clouds 17 1013 75 10000 2.06 280 21:45 07.07.2021
6398 Clouds 18 1012 71 10000 0.45 202 21:24 07.07.2021
6399 Clouds 19 1011 71 10000 0.89 121 19:58 07.07.2021
6400 Clouds 19 1011 73 10000 0.89 149 19:29 07.07.2021
6401 Clouds 19 1010 81 10000 0.45 256 17:48 07.07.2021
6402 Rain 19 1009 77 10000 0.89 93 15:49 07.07.2021
6403 Clouds 19 1008 83 10000 0.89 110 14:33 07.07.2021
6404 Rain 16 1006 95 10000 0.45 24 10:26 07.07.2021
6405 Clouds 15 1003 96 10000 0.45 291 06:53 07.07.2021
6406 Clouds 15 1003 96 10000 1.34 334 05:49 07.07.2021
6407 Clouds 14 1001 93 10000 1.79 302 02:52 07.07.2021
6408 Clouds 18 998 70 10000 1.79 270 19:31 06.07.2021
6409 Clouds 18 998 73 10000 0.89 122 18:54 06.07.2021
6410 Clouds 18 998 72 10000 1.34 75 18:33 06.07.2021
6411 Clouds 18 998 75 10000 0.89 16 17:29 06.07.2021
6412 Rain 15 996 87 10000 6.69 280 13:33 06.07.2021
6413 Rain 14 991 93 10000 0.45 270 09:43 06.07.2021
6414 Clouds 14 991 95 10000 1.03 80 08:35 06.07.2021
6415 Clouds 14 991 95 10000 1.03 80 08:35 06.07.2021
6416 Rain 13 991 95 10000 1.03 0 07:39 06.07.2021
6417 Rain 13 996 90 10000 0.45 203 01:55 06.07.2021
6418 Rain 15 998 83 10000 1.03 0 23:57 05.07.2021
6419 Clouds 16 1000 71 10000 0.51 0 21:58 05.07.2021
6420 Clouds 19 1001 64 10000 0.89 276 16:54 05.07.2021
6421 Clouds 14 1002 95 10000 0.45 54 08:57 05.07.2021
6422 Clouds 14 1002 97 10000 0.89 303 05:48 05.07.2021
6423 Clouds 14 1002 96 10000 0.89 310 04:41 05.07.2021
6424 Clouds 16 1002 94 10000 0.45 108 23:21 04.07.2021
6425 Clouds 18 1003 86 10000 1.03 0 20:42 04.07.2021
6426 Clouds 19 1003 81 10000 0.45 180 17:35 04.07.2021
6427 Clouds 17 1004 94 7000 1.54 230 13:51 04.07.2021
6428 Clouds 18 1005 81 10000 0.45 0 09:35 04.07.2021
6429 Clouds 16 1007 91 10000 1.03 170 01:30 04.07.2021
6430 Clouds 16 1007 91 10000 1.03 170 01:30 04.07.2021
6431 Clouds 17 1008 90 10000 2.06 180 22:44 03.07.2021
6432 Clouds 20 1009 79 10000 1.54 0 17:23 03.07.2021
6433 Rain 16 1010 93 10000 1.54 0 12:39 03.07.2021
6434 Rain 16 1011 91 2100 1.03 0 10:23 03.07.2021
6435 Rain 16 1011 90 9000 0.45 304 09:26 03.07.2021
6436 Rain 16 1011 89 8000 0.89 315 08:44 03.07.2021
6437 Clouds 22 1014 53 10000 1.03 0 18:50 02.07.2021
6438 Clouds 14 1015 86 9000 0.45 315 07:42 02.07.2021
6439 Clouds 14 1015 89 8000 0.51 0 06:40 02.07.2021
6440 Clouds 15 1017 84 10000 0.45 97 23:37 01.07.2021
6441 Clouds 16 1016 79 10000 0.89 61 22:30 01.07.2021
6442 Clouds 16 1016 79 10000 0.89 61 22:30 01.07.2021
6443 Clouds 16 1016 79 10000 0.89 61 22:30 01.07.2021
6444 Clouds 17 1016 73 10000 0.89 113 21:34 01.07.2021
6445 Clouds 21 1016 59 10000 1.79 115 19:37 01.07.2021
6446 Clouds 21 1016 57 10000 1.79 93 19:18 01.07.2021
6447 Clouds 22 1017 58 10000 5.14 290 18:46 01.07.2021
6448 Clouds 22 1017 55 10000 5.66 260 17:33 01.07.2021
6449 Clouds 22 1017 50 10000 2.57 260 15:45 01.07.2021
6450 Clouds 22 1017 54 10000 2.57 250 15:22 01.07.2021
6451 Clouds 19 1017 50 10000 0.45 163 11:27 01.07.2021
6452 Clouds 15 1017 76 10000 2.06 50 08:53 01.07.2021
6453 Clouds 16 1017 74 10000 0.45 123 23:23 30.06.2021
6454 Clouds 17 1017 71 10000 0.89 210 22:21 30.06.2021
6455 Clouds 18 1017 70 10000 1.34 300 21:55 30.06.2021
6456 Clouds 19 1016 67 10000 0.45 357 20:59 30.06.2021
6457 Clouds 20 1016 67 10000 0.45 28 20:20 30.06.2021
6458 Clouds 21 1017 60 10000 3.09 320 16:42 30.06.2021
6459 Clouds 19 1017 65 10000 0.89 114 13:25 30.06.2021
6460 Clouds 14 1017 80 10000 0.51 150 08:58 30.06.2021
6461 Clouds 16 1018 64 10000 1.03 0 23:56 29.06.2021
6462 Clouds 22 1016 48 10000 3.6 10 19:29 29.06.2021
6463 Clouds 23 1016 52 10000 3.09 40 17:45 29.06.2021
6464 Clouds 23 1016 52 9000 3.09 40 17:24 29.06.2021
6465 Clouds 23 1016 51 10000 0.89 168 15:50 29.06.2021
6466 Clouds 23 1016 51 10000 0.89 168 15:50 29.06.2021
6467 Clouds 23 1016 51 10000 1.34 152 14:55 29.06.2021
6468 Clouds 22 1016 50 10000 1.34 0 13:21 29.06.2021
6469 Mist 15 1016 96 5000 0.51 270 02:53 29.06.2021
6470 Rain 15 1016 93 10000 1.03 230 23:20 28.06.2021
6471 Rain 16 1016 83 10000 2.06 310 20:49 28.06.2021
6472 Clouds 18 1016 71 10000 0.45 173 17:32 28.06.2021
6473 Clouds 18 1016 69 10000 0.89 345 16:57 28.06.2021
6474 Clouds 18 1016 71 10000 0.45 67 14:30 28.06.2021
6475 Clouds 17 1016 70 10000 0.45 111 11:34 28.06.2021
6476 Clouds 16 1017 76 10000 0.89 305 23:47 27.06.2021
6477 Clouds 17 1017 74 10000 0.89 45 22:31 27.06.2021
6478 Clouds 19 1016 70 10000 1.79 157 19:43 27.06.2021
6479 Clouds 20 1017 69 10000 1.34 221 16:55 27.06.2021
6480 Clouds 18 1018 73 10000 0.45 112 14:31 27.06.2021
6481 Clouds 16 1019 77 10000 1.34 37 10:30 27.06.2021
6482 Clouds 14 1020 84 10000 0.45 54 00:27 27.06.2021
6483 Clouds 18 1019 63 10000 2.57 80 21:26 26.06.2021
6484 Clouds 19 1019 55 10000 2.57 0 20:47 26.06.2021
6485 Clouds 20 1019 57 10000 2.57 110 19:26 26.06.2021
6486 Clouds 20 1020 61 10000 2.57 70 15:39 26.06.2021
6487 Clouds 18 1020 67 10000 3.6 50 13:52 26.06.2021
6488 Clouds 14 1019 76 10000 0.45 131 09:58 26.06.2021
6489 Clouds 11 1018 88 10000 2.57 40 06:23 26.06.2021
6490 Clouds 12 1017 77 10000 1.79 194 21:23 25.06.2021
6491 Clouds 12 1016 78 10000 1.79 9 20:20 25.06.2021
6492 Clouds 13 1017 82 10000 7.2 40 17:58 25.06.2021
6493 Clouds 13 1017 80 10000 6.69 30 16:57 25.06.2021
6494 Clouds 13 1017 83 10000 6.17 30 15:51 25.06.2021
6495 Clouds 13 1016 90 6000 1.34 339 13:26 25.06.2021
6496 Rain 12 1015 92 10000 2.06 280 09:36 25.06.2021
6497 Clouds 12 1015 95 7000 0.89 113 07:22 25.06.2021
6498 Rain 14 1015 97 4900 1.79 132 03:56 25.06.2021
6499 Drizzle 15 1017 95 5000 0.45 131 22:52 24.06.2021
6500 Clouds 16 1018 91 2400 0.45 104 21:48 24.06.2021
6501 Clouds 17 1018 76 10000 0.89 99 20:41 24.06.2021
6502 Clouds 19 1019 61 10000 1.34 80 18:51 24.06.2021
6503 Clouds 19 1019 75 10000 1.79 147 16:53 24.06.2021
6504 Clouds 19 1020 79 10000 1.79 191 15:22 24.06.2021
6505 Clouds 18 1020 82 10000 0.89 130 14:50 24.06.2021
6506 Clouds 17 1021 95 7000 0.45 117 12:25 24.06.2021
6507 Clouds 15 1021 96 5000 2.06 290 09:36 24.06.2021
6508 Mist 15 1021 96 4000 0.45 120 08:24 24.06.2021
6509 Mist 14 1022 95 1700 0.45 163 05:50 24.06.2021
6510 Clouds 14 1023 86 10000 0.45 143 23:31 23.06.2021
6511 Clouds 14 1023 82 10000 0.89 190 21:47 23.06.2021
6512 Clouds 14 1024 82 10000 3.09 300 20:55 23.06.2021
6513 Clouds 15 1024 78 10000 3.6 270 18:40 23.06.2021
6514 Clouds 15 1024 74 10000 4.12 310 17:40 23.06.2021
6515 Clouds 15 1024 74 10000 3.6 310 16:51 23.06.2021
6516 Clouds 17 1023 59 10000 1.34 75 14:30 23.06.2021
6517 Clouds 17 1023 65 10000 1.34 88 12:26 23.06.2021
6518 Clouds 15 1024 74 10000 0.89 99 10:39 23.06.2021
6519 Clouds 12 1025 93 9000 1.03 0 08:52 23.06.2021
6520 Mist 11 1024 100 5000 1.03 0 08:25 23.06.2021
6521 Clouds 10 1023 89 6000 0.45 315 07:47 23.06.2021
6522 Clear 8 1023 89 10000 1.03 140 04:34 23.06.2021
6523 Clear 12 1024 74 10000 0.51 0 00:46 23.06.2021
6524 Clear 13 1024 69 10000 2.06 290 23:57 22.06.2021
6525 Clear 15 1023 58 10000 3.09 290 22:47 22.06.2021
6526 Clouds 15 1023 60 10000 4.63 290 22:25 22.06.2021
6527 Clouds 16 1023 51 10000 5.14 300 21:39 22.06.2021
6528 Clouds 18 1023 49 10000 4.63 290 19:57 22.06.2021
6529 Clouds 19 1022 45 10000 0.89 140 18:57 22.06.2021
6530 Clouds 19 1022 44 10000 1.34 169 18:26 22.06.2021
6531 Clouds 18 1022 46 10000 3.6 340 17:22 22.06.2021
6532 Clouds 19 1022 42 10000 3.09 310 16:32 22.06.2021
6533 Clouds 18 1022 45 10000 1.34 268 14:40 22.06.2021
6534 Clear 18 1023 45 10000 4.63 340 13:56 22.06.2021
6535 Clear 17 1022 48 10000 1.79 193 12:56 22.06.2021
6536 Clouds 16 1022 55 10000 0.89 184 11:33 22.06.2021
6537 Clear 14 1022 65 10000 0.89 6 10:24 22.06.2021
6538 Clouds 7 1021 89 10000 1.03 0 06:46 22.06.2021
6539 Clouds 10 1020 77 10000 2.57 30 00:45 22.06.2021
6540 Clouds 12 1020 72 10000 1.54 40 23:23 21.06.2021
6541 Clouds 12 1019 72 10000 0.45 109 22:22 21.06.2021
6542 Clouds 12 1019 73 10000 0.89 83 21:18 21.06.2021
6543 Clouds 13 1018 72 10000 0.89 28 20:31 21.06.2021
6544 Clouds 13 1018 70 10000 1.34 186 19:53 21.06.2021
6545 Clouds 14 1017 72 10000 0.89 167 18:34 21.06.2021
6546 Clouds 14 1017 72 10000 2.24 183 17:24 21.06.2021
6547 Clouds 14 1016 74 10000 1.79 241 16:40 21.06.2021
6548 Clouds 14 1016 74 10000 0.89 41 16:20 21.06.2021
6549 Clouds 14 1016 74 10000 1.34 156 15:42 21.06.2021
6550 Clouds 15 1016 62 10000 5.66 50 13:59 21.06.2021
6551 Clouds 16 1015 55 10000 1.34 165 13:33 21.06.2021
6552 Clouds 16 1014 56 10000 0.89 15 12:36 21.06.2021
6553 Clouds 16 1014 60 10000 1.34 348 11:46 21.06.2021
6554 Clouds 15 1014 65 10000 0.45 0 10:29 21.06.2021
6555 Clouds 13 1013 70 10000 0.89 140 09:19 21.06.2021
6556 Clouds 12 1013 79 10000 0.89 206 08:20 21.06.2021
6557 Clouds 10 1013 91 10000 0.51 0 06:44 21.06.2021
6558 Clouds 13 1012 67 10000 1.54 0 23:58 20.06.2021
6559 Clouds 14 1012 67 10000 1.54 0 23:34 20.06.2021
6560 Clouds 15 1012 67 10000 1.03 0 22:57 20.06.2021
6561 Clouds 16 1011 59 10000 1.54 0 21:55 20.06.2021
6562 Clouds 17 1011 58 10000 4.63 50 20:28 20.06.2021
6563 Clouds 16 1011 59 10000 3.09 70 19:40 20.06.2021
6564 Clouds 17 1010 59 10000 4.63 60 19:20 20.06.2021
6565 Clouds 17 1010 55 10000 2.57 70 17:47 20.06.2021
6566 Clouds 17 1010 51 10000 3.6 60 16:45 20.06.2021
6567 Clouds 16 1011 51 10000 2.57 80 15:44 20.06.2021
6568 Clouds 16 1011 59 10000 2.06 90 15:25 20.06.2021
6569 Clouds 16 1011 59 10000 3.6 70 14:42 20.06.2021
6570 Clouds 15 1011 67 10000 4.63 60 13:32 20.06.2021
6571 Clouds 14 1011 72 10000 4.63 50 12:35 20.06.2021
6572 Clouds 13 1011 76 10000 4.12 30 11:45 20.06.2021
6573 Clouds 12 1011 83 10000 1.03 0 09:55 20.06.2021
6574 Clouds 12 1010 81 10000 0.89 180 09:36 20.06.2021
6575 Rain 11 1010 87 9000 0.45 123 04:32 20.06.2021
6576 Clouds 14 1011 73 10000 0.45 9 23:36 19.06.2021
6577 Clouds 15 1011 70 10000 0.89 337 22:52 19.06.2021
6578 Clouds 16 1011 67 10000 0.89 81 21:51 19.06.2021
6579 Clouds 17 1012 65 10000 2.57 110 20:55 19.06.2021
6580 Clouds 18 1013 58 10000 2.57 0 18:52 19.06.2021
6581 Clouds 19 1013 58 10000 3.09 0 18:21 19.06.2021
6582 Clouds 20 1013 48 10000 3.09 130 17:22 19.06.2021
6583 Clouds 20 1014 53 10000 2.57 110 15:56 19.06.2021
6584 Clouds 19 1015 55 10000 2.06 150 14:28 19.06.2021
6585 Clouds 17 1014 63 10000 0.89 326 12:48 19.06.2021
6586 Clouds 16 1015 65 10000 1.54 0 11:53 19.06.2021
6587 Clouds 16 1015 72 10000 0.89 320 10:44 19.06.2021
6588 Clouds 15 1015 76 10000 1.34 322 10:22 19.06.2021
6589 Clouds 14 1015 79 10000 0.45 292 09:23 19.06.2021
6590 Clouds 12 1015 90 10000 1.03 70 07:45 19.06.2021
6591 Clouds 10 1015 91 10000 0.75 97 06:29 19.06.2021
6592 Clouds 12 1015 81 10000 1.54 50 01:46 19.06.2021
6593 Clouds 13 1015 77 10000 0.45 12 00:18 19.06.2021
6594 Clouds 14 1016 75 10000 0.89 180 23:29 18.06.2021
6595 Clouds 14 1016 75 10000 2.57 80 22:50 18.06.2021
6596 Clouds 14 1016 75 10000 2.06 70 22:21 18.06.2021
6597 Clouds 15 1016 73 10000 5.14 50 21:29 18.06.2021
6598 Clouds 15 1016 74 10000 4.12 50 20:58 18.06.2021
6599 Clouds 16 1015 67 10000 1.34 144 19:38 18.06.2021
6600 Clouds 17 1015 63 10000 1.34 148 18:23 18.06.2021
6601 Clouds 17 1015 64 10000 0.89 153 17:29 18.06.2021
6602 Clouds 18 1015 62 10000 0.89 148 16:21 18.06.2021
6603 Clouds 19 1015 59 10000 0.89 229 15:29 18.06.2021
6604 Clouds 18 1016 59 10000 0.89 100 14:32 18.06.2021
6605 Clouds 18 1017 62 10000 3.6 50 13:37 18.06.2021
6606 Clouds 18 1017 64 10000 3.6 30 12:45 18.06.2021
6607 Clouds 17 1017 68 10000 3.09 30 11:57 18.06.2021
6608 Clouds 17 1017 64 10000 0.89 187 11:25 18.06.2021
6609 Clouds 16 1017 65 10000 0.45 136 10:52 18.06.2021
6610 Clouds 16 1017 65 10000 0.45 342 10:21 18.06.2021
6611 Clouds 15 1017 67 10000 1.34 197 09:43 18.06.2021
6612 Clouds 14 1017 77 10000 2.06 330 08:48 18.06.2021
6613 Clouds 13 1017 81 10000 0.45 135 08:19 18.06.2021
6614 Clouds 11 1017 86 10000 0.45 135 07:21 18.06.2021
6615 Clouds 13 1017 77 10000 1.54 0 01:41 18.06.2021
6616 Clouds 14 1016 67 10000 2.06 310 23:41 17.06.2021
6617 Clouds 15 1016 63 10000 4.12 300 22:49 17.06.2021
6618 Clouds 16 1016 66 10000 4.12 290 22:24 17.06.2021
6619 Clouds 17 1016 59 10000 4.63 300 21:38 17.06.2021
6620 Clouds 18 1015 60 10000 5.66 300 20:56 17.06.2021
6621 Clouds 19 1015 52 10000 5.14 300 20:24 17.06.2021
6622 Clouds 18 1014 60 10000 4.63 300 19:46 17.06.2021
6623 Clouds 19 1013 61 10000 1.34 106 18:40 17.06.2021
6624 Clouds 19 1012 64 10000 1.34 95 17:43 17.06.2021
6625 Clouds 19 1012 60 10000 1.79 117 17:19 17.06.2021
6626 Clouds 20 1012 56 10000 0.89 118 16:25 17.06.2021
6627 Clouds 20 1012 62 10000 3.6 290 14:58 17.06.2021
6628 Clouds 19 1012 52 10000 2.57 0 13:59 17.06.2021
6629 Clouds 19 1011 55 10000 3.09 330 12:50 17.06.2021
6630 Clouds 18 1012 59 10000 2.57 320 12:23 17.06.2021
6631 Clouds 16 1010 67 10000 0.45 134 10:54 17.06.2021
6632 Clouds 16 1011 68 10000 0.45 184 10:30 17.06.2021
6633 Clouds 16 1011 68 10000 0.45 184 10:30 17.06.2021
6634 Clouds 15 1011 73 10000 3.6 320 09:51 17.06.2021
6635 Clouds 15 1010 71 10000 0.89 161 09:33 17.06.2021
6636 Clouds 14 1010 74 10000 0.45 161 08:20 17.06.2021
6637 Clouds 14 1009 77 10000 0.45 146 06:54 17.06.2021
6638 Clouds 15 1009 74 10000 0.45 146 03:45 17.06.2021
6639 Clouds 16 1010 81 10000 0.45 84 23:50 16.06.2021
6640 Clouds 16 1009 79 10000 1.34 113 23:29 16.06.2021
6641 Clouds 17 1009 79 10000 0.45 147 22:36 16.06.2021
6642 Clouds 17 1009 77 10000 0.89 104 21:47 16.06.2021
6643 Clouds 18 1009 74 10000 1.34 137 21:22 16.06.2021
6644 Clouds 18 1009 74 10000 4.63 300 20:45 16.06.2021
6645 Clouds